<?xml version="1.0" encoding="UTF-8" standalone="no" ?>
<gpx xmlns="http://www.topografix.com/GPX/1/1" xmlns:xsi="http://www.w3.org/2001/XMLSchema-instance" xsi:schemaLocation="http://www.topografix.com/GPX/1/1 http://www.topografix.com/GPX/1/1/gpx.xsd" version="1.1" creator="VisuGPX - https://www.visugpx.com">
  <metadata>
    <name>Grenoble Trail-2021-07-25</name>
    <desc><![CDATA[Ile Verte - Pont des Taillées - Parc de l?île d'amour - Pont des Taillées - Ile Verte - La Bastille - Mont Jalla - Guy Pape - Porte de France - Quai Perrière - Porte Saint Laurent - Ile Verte]]></desc>
  </metadata>
  <wpt lat="45.20083" lon="5.72564">
    <ele>484.1</ele>
    <type><![CDATA[drink]]></type>
  </wpt>
  <wpt lat="45.204" lon="5.72426">
    <ele>617.7</ele>
    <name><![CDATA[Jalla]]></name>
    <type><![CDATA[sommet]]></type>
  </wpt>
  <wpt lat="45.19862" lon="5.72476">
    <ele>464.7</ele>
    <type><![CDATA[drink]]></type>
  </wpt>
  <wpt lat="45.19492" lon="5.72851">
    <ele>220.2</ele>
    <type><![CDATA[drink]]></type>
  </wpt>
  <wpt lat="45.19774" lon="5.73182">
    <ele>222.1</ele>
    <type><![CDATA[drink]]></type>
  </wpt>
  <trk>
    <name><![CDATA[Grenoble Trail]]></name>
    <extensions>
      <line xmlns="http://www.topografix.com/GPX/gpx_style/0/2">
        <color>0000FF</color>
        <width>2</width>
      </line>
    </extensions>
    <trkseg>
      <trkpt lat="45.19679" lon="5.74001">
        <ele>245.60000610352</ele>
        <time>2021-07-25T03:08:54.000Z</time>
      </trkpt>
      <trkpt lat="45.1968" lon="5.74">
        <ele>245.60000610352</ele>
        <time>2021-07-25T03:08:55.000Z</time>
      </trkpt>
      <trkpt lat="45.19674" lon="5.73997">
        <ele>245.80000305176</ele>
        <time>2021-07-25T03:09:00.000Z</time>
      </trkpt>
      <trkpt lat="45.19669" lon="5.73998">
        <ele>245.80000305176</ele>
        <time>2021-07-25T03:09:05.000Z</time>
      </trkpt>
      <trkpt lat="45.1966" lon="5.73995">
        <ele>246</ele>
        <time>2021-07-25T03:09:11.000Z</time>
      </trkpt>
      <trkpt lat="45.19659" lon="5.73995">
        <ele>246</ele>
        <time>2021-07-25T03:09:13.000Z</time>
      </trkpt>
      <trkpt lat="45.19659" lon="5.73995">
        <ele>246</ele>
        <time>2021-07-25T03:09:15.000Z</time>
      </trkpt>
      <trkpt lat="45.19659" lon="5.73994">
        <ele>246</ele>
        <time>2021-07-25T03:09:17.000Z</time>
      </trkpt>
      <trkpt lat="45.19658" lon="5.73995">
        <ele>246</ele>
        <time>2021-07-25T03:09:18.000Z</time>
      </trkpt>
      <trkpt lat="45.19659" lon="5.73995">
        <ele>245.80000305176</ele>
        <time>2021-07-25T03:09:21.000Z</time>
      </trkpt>
      <trkpt lat="45.19658" lon="5.73995">
        <ele>245.80000305176</ele>
        <time>2021-07-25T03:09:22.000Z</time>
      </trkpt>
      <trkpt lat="45.19657" lon="5.73995">
        <ele>245.39999389648</ele>
        <time>2021-07-25T03:09:24.000Z</time>
      </trkpt>
      <trkpt lat="45.19655" lon="5.73995">
        <ele>244.60000610352</ele>
        <time>2021-07-25T03:09:26.000Z</time>
      </trkpt>
      <trkpt lat="45.19655" lon="5.73995">
        <ele>244.60000610352</ele>
        <time>2021-07-25T03:09:27.000Z</time>
      </trkpt>
      <trkpt lat="45.19648" lon="5.73994">
        <ele>242.80000305176</ele>
        <time>2021-07-25T03:09:35.000Z</time>
      </trkpt>
      <trkpt lat="45.1965" lon="5.73987">
        <ele>242.19999694824</ele>
        <time>2021-07-25T03:09:37.000Z</time>
      </trkpt>
      <trkpt lat="45.19647" lon="5.73992">
        <ele>241</ele>
        <time>2021-07-25T03:09:40.000Z</time>
      </trkpt>
      <trkpt lat="45.19645" lon="5.73977">
        <ele>239.39999389648</ele>
        <time>2021-07-25T03:09:49.000Z</time>
      </trkpt>
      <trkpt lat="45.19642" lon="5.73974">
        <ele>238.80000305176</ele>
        <time>2021-07-25T03:09:50.000Z</time>
      </trkpt>
      <trkpt lat="45.1966" lon="5.73986">
        <ele>238</ele>
        <time>2021-07-25T03:10:06.000Z</time>
      </trkpt>
      <trkpt lat="45.19662" lon="5.73983">
        <ele>238</ele>
        <time>2021-07-25T03:10:08.000Z</time>
      </trkpt>
      <trkpt lat="45.19665" lon="5.73981">
        <ele>238</ele>
        <time>2021-07-25T03:10:10.000Z</time>
      </trkpt>
      <trkpt lat="45.19669" lon="5.73981">
        <ele>238</ele>
        <time>2021-07-25T03:10:11.000Z</time>
      </trkpt>
      <trkpt lat="45.19675" lon="5.73977">
        <ele>238.19999694824</ele>
        <time>2021-07-25T03:10:14.000Z</time>
      </trkpt>
      <trkpt lat="45.19678" lon="5.7397">
        <ele>237.80000305176</ele>
        <time>2021-07-25T03:10:16.000Z</time>
      </trkpt>
      <trkpt lat="45.19681" lon="5.73966">
        <ele>238</ele>
        <time>2021-07-25T03:10:17.000Z</time>
      </trkpt>
      <trkpt lat="45.19683" lon="5.73962">
        <ele>238</ele>
        <time>2021-07-25T03:10:20.000Z</time>
      </trkpt>
      <trkpt lat="45.19684" lon="5.73961">
        <ele>237.80000305176</ele>
        <time>2021-07-25T03:10:21.000Z</time>
      </trkpt>
      <trkpt lat="45.1969" lon="5.73964">
        <ele>238</ele>
        <time>2021-07-25T03:10:26.000Z</time>
      </trkpt>
      <trkpt lat="45.19692" lon="5.73966">
        <ele>238</ele>
        <time>2021-07-25T03:10:27.000Z</time>
      </trkpt>
      <trkpt lat="45.19697" lon="5.7397">
        <ele>238</ele>
        <time>2021-07-25T03:10:29.000Z</time>
      </trkpt>
      <trkpt lat="45.197" lon="5.73971">
        <ele>238</ele>
        <time>2021-07-25T03:10:30.000Z</time>
      </trkpt>
      <trkpt lat="45.19701" lon="5.73973">
        <ele>238</ele>
        <time>2021-07-25T03:10:31.000Z</time>
      </trkpt>
      <trkpt lat="45.19705" lon="5.73976">
        <ele>238</ele>
        <time>2021-07-25T03:10:33.000Z</time>
      </trkpt>
      <trkpt lat="45.19705" lon="5.73978">
        <ele>238</ele>
        <time>2021-07-25T03:10:34.000Z</time>
      </trkpt>
      <trkpt lat="45.19703" lon="5.73982">
        <ele>238</ele>
        <time>2021-07-25T03:10:36.000Z</time>
      </trkpt>
      <trkpt lat="45.19704" lon="5.73988">
        <ele>238</ele>
        <time>2021-07-25T03:10:39.000Z</time>
      </trkpt>
      <trkpt lat="45.19705" lon="5.7399">
        <ele>238.19999694824</ele>
        <time>2021-07-25T03:10:40.000Z</time>
      </trkpt>
      <trkpt lat="45.19709" lon="5.74001">
        <ele>238.39999389648</ele>
        <time>2021-07-25T03:10:44.000Z</time>
      </trkpt>
      <trkpt lat="45.19711" lon="5.74009">
        <ele>238.19999694824</ele>
        <time>2021-07-25T03:10:47.000Z</time>
      </trkpt>
      <trkpt lat="45.19713" lon="5.74015">
        <ele>238.19999694824</ele>
        <time>2021-07-25T03:10:49.000Z</time>
      </trkpt>
      <trkpt lat="45.19717" lon="5.74024">
        <ele>238.19999694824</ele>
        <time>2021-07-25T03:10:52.000Z</time>
      </trkpt>
      <trkpt lat="45.19725" lon="5.74041">
        <ele>238.19999694824</ele>
        <time>2021-07-25T03:10:58.000Z</time>
      </trkpt>
      <trkpt lat="45.19728" lon="5.74045">
        <ele>238.19999694824</ele>
        <time>2021-07-25T03:11:00.000Z</time>
      </trkpt>
      <trkpt lat="45.19731" lon="5.74051">
        <ele>238.39999389648</ele>
        <time>2021-07-25T03:11:02.000Z</time>
      </trkpt>
      <trkpt lat="45.19735" lon="5.74063">
        <ele>238.19999694824</ele>
        <time>2021-07-25T03:11:06.000Z</time>
      </trkpt>
      <trkpt lat="45.19736" lon="5.74074">
        <ele>238.19999694824</ele>
        <time>2021-07-25T03:11:09.000Z</time>
      </trkpt>
      <trkpt lat="45.19737" lon="5.74078">
        <ele>238.19999694824</ele>
        <time>2021-07-25T03:11:10.000Z</time>
      </trkpt>
      <trkpt lat="45.19737" lon="5.74088">
        <ele>238.19999694824</ele>
        <time>2021-07-25T03:11:13.000Z</time>
      </trkpt>
      <trkpt lat="45.19737" lon="5.74101">
        <ele>238.39999389648</ele>
        <time>2021-07-25T03:11:17.000Z</time>
      </trkpt>
      <trkpt lat="45.19736" lon="5.74104">
        <ele>238.39999389648</ele>
        <time>2021-07-25T03:11:18.000Z</time>
      </trkpt>
      <trkpt lat="45.19737" lon="5.74122">
        <ele>238</ele>
        <time>2021-07-25T03:11:24.000Z</time>
      </trkpt>
      <trkpt lat="45.19741" lon="5.74142">
        <ele>238.39999389648</ele>
        <time>2021-07-25T03:11:31.000Z</time>
      </trkpt>
      <trkpt lat="45.19742" lon="5.74167">
        <ele>238.19999694824</ele>
        <time>2021-07-25T03:11:38.000Z</time>
      </trkpt>
      <trkpt lat="45.19744" lon="5.7417">
        <ele>238.19999694824</ele>
        <time>2021-07-25T03:11:39.000Z</time>
      </trkpt>
      <trkpt lat="45.19744" lon="5.74178">
        <ele>238.19999694824</ele>
        <time>2021-07-25T03:11:42.000Z</time>
      </trkpt>
      <trkpt lat="45.19747" lon="5.74187">
        <ele>238.19999694824</ele>
        <time>2021-07-25T03:11:45.000Z</time>
      </trkpt>
      <trkpt lat="45.19748" lon="5.74194">
        <ele>238.19999694824</ele>
        <time>2021-07-25T03:11:47.000Z</time>
      </trkpt>
      <trkpt lat="45.1975" lon="5.7422">
        <ele>238</ele>
        <time>2021-07-25T03:11:55.000Z</time>
      </trkpt>
      <trkpt lat="45.19756" lon="5.74236">
        <ele>238.19999694824</ele>
        <time>2021-07-25T03:12:01.000Z</time>
      </trkpt>
      <trkpt lat="45.19759" lon="5.74245">
        <ele>239</ele>
        <time>2021-07-25T03:12:06.000Z</time>
      </trkpt>
      <trkpt lat="45.19758" lon="5.7425">
        <ele>239.80000305176</ele>
        <time>2021-07-25T03:12:09.000Z</time>
      </trkpt>
      <trkpt lat="45.19753" lon="5.74252">
        <ele>239.80000305176</ele>
        <time>2021-07-25T03:12:11.000Z</time>
      </trkpt>
      <trkpt lat="45.19749" lon="5.74253">
        <ele>240</ele>
        <time>2021-07-25T03:12:12.000Z</time>
      </trkpt>
      <trkpt lat="45.19738" lon="5.74257">
        <ele>240.19999694824</ele>
        <time>2021-07-25T03:12:16.000Z</time>
      </trkpt>
      <trkpt lat="45.19729" lon="5.74262">
        <ele>240.19999694824</ele>
        <time>2021-07-25T03:12:20.000Z</time>
      </trkpt>
      <trkpt lat="45.1971" lon="5.74266">
        <ele>239.80000305176</ele>
        <time>2021-07-25T03:12:28.000Z</time>
      </trkpt>
      <trkpt lat="45.19706" lon="5.74267">
        <ele>239.80000305176</ele>
        <time>2021-07-25T03:12:30.000Z</time>
      </trkpt>
      <trkpt lat="45.197" lon="5.74266">
        <ele>239.60000610352</ele>
        <time>2021-07-25T03:12:33.000Z</time>
      </trkpt>
      <trkpt lat="45.19692" lon="5.74267">
        <ele>239.80000305176</ele>
        <time>2021-07-25T03:12:37.000Z</time>
      </trkpt>
      <trkpt lat="45.19674" lon="5.74266">
        <ele>239.60000610352</ele>
        <time>2021-07-25T03:12:45.000Z</time>
      </trkpt>
      <trkpt lat="45.19664" lon="5.74267">
        <ele>240</ele>
        <time>2021-07-25T03:12:49.000Z</time>
      </trkpt>
      <trkpt lat="45.19657" lon="5.74266">
        <ele>240.19999694824</ele>
        <time>2021-07-25T03:12:52.000Z</time>
      </trkpt>
      <trkpt lat="45.19654" lon="5.74266">
        <ele>240.19999694824</ele>
        <time>2021-07-25T03:12:53.000Z</time>
      </trkpt>
      <trkpt lat="45.19636" lon="5.74263">
        <ele>240</ele>
        <time>2021-07-25T03:13:00.000Z</time>
      </trkpt>
      <trkpt lat="45.19635" lon="5.74263">
        <ele>240</ele>
        <time>2021-07-25T03:13:01.000Z</time>
      </trkpt>
      <trkpt lat="45.19615" lon="5.74264">
        <ele>240.19999694824</ele>
        <time>2021-07-25T03:13:09.000Z</time>
      </trkpt>
      <trkpt lat="45.19611" lon="5.74263">
        <ele>240.19999694824</ele>
        <time>2021-07-25T03:13:11.000Z</time>
      </trkpt>
      <trkpt lat="45.19598" lon="5.74259">
        <ele>240.19999694824</ele>
        <time>2021-07-25T03:13:17.000Z</time>
      </trkpt>
      <trkpt lat="45.19596" lon="5.74258">
        <ele>240.19999694824</ele>
        <time>2021-07-25T03:13:18.000Z</time>
      </trkpt>
      <trkpt lat="45.19586" lon="5.74255">
        <ele>240.19999694824</ele>
        <time>2021-07-25T03:13:22.000Z</time>
      </trkpt>
      <trkpt lat="45.19574" lon="5.74251">
        <ele>240.19999694824</ele>
        <time>2021-07-25T03:13:27.000Z</time>
      </trkpt>
      <trkpt lat="45.19555" lon="5.74247">
        <ele>240</ele>
        <time>2021-07-25T03:13:35.000Z</time>
      </trkpt>
      <trkpt lat="45.19553" lon="5.74247">
        <ele>240</ele>
        <time>2021-07-25T03:13:36.000Z</time>
      </trkpt>
      <trkpt lat="45.19535" lon="5.74243">
        <ele>240.39999389648</ele>
        <time>2021-07-25T03:13:43.000Z</time>
      </trkpt>
      <trkpt lat="45.1952" lon="5.74237">
        <ele>241.19999694824</ele>
        <time>2021-07-25T03:13:49.000Z</time>
      </trkpt>
      <trkpt lat="45.19517" lon="5.74237">
        <ele>241.19999694824</ele>
        <time>2021-07-25T03:13:50.000Z</time>
      </trkpt>
      <trkpt lat="45.19499" lon="5.74228">
        <ele>241.19999694824</ele>
        <time>2021-07-25T03:13:58.000Z</time>
      </trkpt>
      <trkpt lat="45.19486" lon="5.74221">
        <ele>241.60000610352</ele>
        <time>2021-07-25T03:14:04.000Z</time>
      </trkpt>
      <trkpt lat="45.19474" lon="5.74217">
        <ele>241.39999389648</ele>
        <time>2021-07-25T03:14:09.000Z</time>
      </trkpt>
      <trkpt lat="45.19469" lon="5.74215">
        <ele>241.39999389648</ele>
        <time>2021-07-25T03:14:11.000Z</time>
      </trkpt>
      <trkpt lat="45.1945" lon="5.74206">
        <ele>241.60000610352</ele>
        <time>2021-07-25T03:14:19.000Z</time>
      </trkpt>
      <trkpt lat="45.19447" lon="5.74203">
        <ele>241.60000610352</ele>
        <time>2021-07-25T03:14:20.000Z</time>
      </trkpt>
      <trkpt lat="45.19443" lon="5.74202">
        <ele>241.39999389648</ele>
        <time>2021-07-25T03:14:22.000Z</time>
      </trkpt>
      <trkpt lat="45.19438" lon="5.742">
        <ele>241.39999389648</ele>
        <time>2021-07-25T03:14:24.000Z</time>
      </trkpt>
      <trkpt lat="45.19431" lon="5.74197">
        <ele>241.39999389648</ele>
        <time>2021-07-25T03:14:27.000Z</time>
      </trkpt>
      <trkpt lat="45.19427" lon="5.74195">
        <ele>241.39999389648</ele>
        <time>2021-07-25T03:14:28.000Z</time>
      </trkpt>
      <trkpt lat="45.19408" lon="5.7419">
        <ele>241.19999694824</ele>
        <time>2021-07-25T03:14:36.000Z</time>
      </trkpt>
      <trkpt lat="45.19405" lon="5.74189">
        <ele>241.60000610352</ele>
        <time>2021-07-25T03:14:37.000Z</time>
      </trkpt>
      <trkpt lat="45.19398" lon="5.74187">
        <ele>241.60000610352</ele>
        <time>2021-07-25T03:14:40.000Z</time>
      </trkpt>
      <trkpt lat="45.19389" lon="5.74184">
        <ele>241.60000610352</ele>
        <time>2021-07-25T03:14:44.000Z</time>
      </trkpt>
      <trkpt lat="45.19377" lon="5.7418">
        <ele>241.39999389648</ele>
        <time>2021-07-25T03:14:49.000Z</time>
      </trkpt>
      <trkpt lat="45.19366" lon="5.74176">
        <ele>241.39999389648</ele>
        <time>2021-07-25T03:14:53.000Z</time>
      </trkpt>
      <trkpt lat="45.19347" lon="5.74174">
        <ele>241.39999389648</ele>
        <time>2021-07-25T03:15:00.000Z</time>
      </trkpt>
      <trkpt lat="45.1934" lon="5.74174">
        <ele>241.39999389648</ele>
        <time>2021-07-25T03:15:03.000Z</time>
      </trkpt>
      <trkpt lat="45.19335" lon="5.74174">
        <ele>241.39999389648</ele>
        <time>2021-07-25T03:15:05.000Z</time>
      </trkpt>
      <trkpt lat="45.19332" lon="5.74174">
        <ele>241.60000610352</ele>
        <time>2021-07-25T03:15:06.000Z</time>
      </trkpt>
      <trkpt lat="45.1933" lon="5.74174">
        <ele>241.39999389648</ele>
        <time>2021-07-25T03:15:07.000Z</time>
      </trkpt>
      <trkpt lat="45.19311" lon="5.74173">
        <ele>241.39999389648</ele>
        <time>2021-07-25T03:15:14.000Z</time>
      </trkpt>
      <trkpt lat="45.19309" lon="5.74172">
        <ele>241.39999389648</ele>
        <time>2021-07-25T03:15:15.000Z</time>
      </trkpt>
      <trkpt lat="45.19295" lon="5.74169">
        <ele>241.19999694824</ele>
        <time>2021-07-25T03:15:21.000Z</time>
      </trkpt>
      <trkpt lat="45.19292" lon="5.74168">
        <ele>241.19999694824</ele>
        <time>2021-07-25T03:15:22.000Z</time>
      </trkpt>
      <trkpt lat="45.1929" lon="5.74167">
        <ele>241.60000610352</ele>
        <time>2021-07-25T03:15:23.000Z</time>
      </trkpt>
      <trkpt lat="45.19273" lon="5.74161">
        <ele>241.39999389648</ele>
        <time>2021-07-25T03:15:30.000Z</time>
      </trkpt>
      <trkpt lat="45.19258" lon="5.74159">
        <ele>241</ele>
        <time>2021-07-25T03:15:36.000Z</time>
      </trkpt>
      <trkpt lat="45.19247" lon="5.74157">
        <ele>241.39999389648</ele>
        <time>2021-07-25T03:15:40.000Z</time>
      </trkpt>
      <trkpt lat="45.19231" lon="5.74156">
        <ele>241.19999694824</ele>
        <time>2021-07-25T03:15:46.000Z</time>
      </trkpt>
      <trkpt lat="45.19218" lon="5.74149">
        <ele>241.39999389648</ele>
        <time>2021-07-25T03:15:51.000Z</time>
      </trkpt>
      <trkpt lat="45.19216" lon="5.74149">
        <ele>241.39999389648</ele>
        <time>2021-07-25T03:15:52.000Z</time>
      </trkpt>
      <trkpt lat="45.19199" lon="5.74147">
        <ele>240.60000610352</ele>
        <time>2021-07-25T03:15:59.000Z</time>
      </trkpt>
      <trkpt lat="45.19192" lon="5.74149">
        <ele>239.80000305176</ele>
        <time>2021-07-25T03:16:02.000Z</time>
      </trkpt>
      <trkpt lat="45.19186" lon="5.74154">
        <ele>239.80000305176</ele>
        <time>2021-07-25T03:16:05.000Z</time>
      </trkpt>
      <trkpt lat="45.19183" lon="5.74154">
        <ele>239.60000610352</ele>
        <time>2021-07-25T03:16:06.000Z</time>
      </trkpt>
      <trkpt lat="45.19175" lon="5.74154">
        <ele>239.39999389648</ele>
        <time>2021-07-25T03:16:09.000Z</time>
      </trkpt>
      <trkpt lat="45.19172" lon="5.74153">
        <ele>239.39999389648</ele>
        <time>2021-07-25T03:16:10.000Z</time>
      </trkpt>
      <trkpt lat="45.19167" lon="5.74152">
        <ele>239.39999389648</ele>
        <time>2021-07-25T03:16:12.000Z</time>
      </trkpt>
      <trkpt lat="45.19161" lon="5.7415">
        <ele>239.80000305176</ele>
        <time>2021-07-25T03:16:14.000Z</time>
      </trkpt>
      <trkpt lat="45.19151" lon="5.74149">
        <ele>240.39999389648</ele>
        <time>2021-07-25T03:16:18.000Z</time>
      </trkpt>
      <trkpt lat="45.19149" lon="5.74149">
        <ele>240.60000610352</ele>
        <time>2021-07-25T03:16:19.000Z</time>
      </trkpt>
      <trkpt lat="45.19145" lon="5.7415">
        <ele>241</ele>
        <time>2021-07-25T03:16:21.000Z</time>
      </trkpt>
      <trkpt lat="45.19133" lon="5.74154">
        <ele>241</ele>
        <time>2021-07-25T03:16:25.000Z</time>
      </trkpt>
      <trkpt lat="45.1913" lon="5.74154">
        <ele>241.19999694824</ele>
        <time>2021-07-25T03:16:26.000Z</time>
      </trkpt>
      <trkpt lat="45.19113" lon="5.74159">
        <ele>241.39999389648</ele>
        <time>2021-07-25T03:16:32.000Z</time>
      </trkpt>
      <trkpt lat="45.191" lon="5.74164">
        <ele>241.39999389648</ele>
        <time>2021-07-25T03:16:37.000Z</time>
      </trkpt>
      <trkpt lat="45.19095" lon="5.74168">
        <ele>241.60000610352</ele>
        <time>2021-07-25T03:16:39.000Z</time>
      </trkpt>
      <trkpt lat="45.19079" lon="5.74177">
        <ele>241.19999694824</ele>
        <time>2021-07-25T03:16:45.000Z</time>
      </trkpt>
      <trkpt lat="45.19062" lon="5.74188">
        <ele>241</ele>
        <time>2021-07-25T03:16:52.000Z</time>
      </trkpt>
      <trkpt lat="45.19055" lon="5.74192">
        <ele>241</ele>
        <time>2021-07-25T03:16:54.000Z</time>
      </trkpt>
      <trkpt lat="45.1904" lon="5.74198">
        <ele>241.19999694824</ele>
        <time>2021-07-25T03:16:59.000Z</time>
      </trkpt>
      <trkpt lat="45.19032" lon="5.74203">
        <ele>240.80000305176</ele>
        <time>2021-07-25T03:17:02.000Z</time>
      </trkpt>
      <trkpt lat="45.19025" lon="5.74207">
        <ele>240.80000305176</ele>
        <time>2021-07-25T03:17:05.000Z</time>
      </trkpt>
      <trkpt lat="45.19011" lon="5.74215">
        <ele>240.80000305176</ele>
        <time>2021-07-25T03:17:10.000Z</time>
      </trkpt>
      <trkpt lat="45.18996" lon="5.74227">
        <ele>241</ele>
        <time>2021-07-25T03:17:16.000Z</time>
      </trkpt>
      <trkpt lat="45.18986" lon="5.74241">
        <ele>240.19999694824</ele>
        <time>2021-07-25T03:17:22.000Z</time>
      </trkpt>
      <trkpt lat="45.18954" lon="5.74278">
        <ele>240.80000305176</ele>
        <time>2021-07-25T03:17:35.000Z</time>
      </trkpt>
      <trkpt lat="45.18954" lon="5.74281">
        <ele>241</ele>
        <time>2021-07-25T03:17:36.000Z</time>
      </trkpt>
      <trkpt lat="45.18948" lon="5.74307">
        <ele>241</ele>
        <time>2021-07-25T03:17:43.000Z</time>
      </trkpt>
      <trkpt lat="45.1894" lon="5.74328">
        <ele>241</ele>
        <time>2021-07-25T03:17:49.000Z</time>
      </trkpt>
      <trkpt lat="45.18931" lon="5.74355">
        <ele>241</ele>
        <time>2021-07-25T03:17:56.000Z</time>
      </trkpt>
      <trkpt lat="45.1893" lon="5.74358">
        <ele>241</ele>
        <time>2021-07-25T03:17:57.000Z</time>
      </trkpt>
      <trkpt lat="45.18923" lon="5.74383">
        <ele>241.19999694824</ele>
        <time>2021-07-25T03:18:04.000Z</time>
      </trkpt>
      <trkpt lat="45.18914" lon="5.74401">
        <ele>240.80000305176</ele>
        <time>2021-07-25T03:18:10.000Z</time>
      </trkpt>
      <trkpt lat="45.18909" lon="5.74415">
        <ele>241</ele>
        <time>2021-07-25T03:18:15.000Z</time>
      </trkpt>
      <trkpt lat="45.18902" lon="5.74435">
        <ele>241.19999694824</ele>
        <time>2021-07-25T03:18:21.000Z</time>
      </trkpt>
      <trkpt lat="45.18897" lon="5.74452">
        <ele>241.19999694824</ele>
        <time>2021-07-25T03:18:26.000Z</time>
      </trkpt>
      <trkpt lat="45.18892" lon="5.74468">
        <ele>241</ele>
        <time>2021-07-25T03:18:30.000Z</time>
      </trkpt>
      <trkpt lat="45.1889" lon="5.74476">
        <ele>240.60000610352</ele>
        <time>2021-07-25T03:18:32.000Z</time>
      </trkpt>
      <trkpt lat="45.18885" lon="5.74495">
        <ele>241</ele>
        <time>2021-07-25T03:18:38.000Z</time>
      </trkpt>
      <trkpt lat="45.18884" lon="5.74505">
        <ele>241</ele>
        <time>2021-07-25T03:18:41.000Z</time>
      </trkpt>
      <trkpt lat="45.18883" lon="5.74511">
        <ele>241.19999694824</ele>
        <time>2021-07-25T03:18:43.000Z</time>
      </trkpt>
      <trkpt lat="45.18879" lon="5.74527">
        <ele>241.39999389648</ele>
        <time>2021-07-25T03:18:47.000Z</time>
      </trkpt>
      <trkpt lat="45.18878" lon="5.74531">
        <ele>241.39999389648</ele>
        <time>2021-07-25T03:18:48.000Z</time>
      </trkpt>
      <trkpt lat="45.18873" lon="5.74548">
        <ele>241.80000305176</ele>
        <time>2021-07-25T03:18:53.000Z</time>
      </trkpt>
      <trkpt lat="45.18871" lon="5.74557">
        <ele>241.80000305176</ele>
        <time>2021-07-25T03:18:55.000Z</time>
      </trkpt>
      <trkpt lat="45.18867" lon="5.74571">
        <ele>241.80000305176</ele>
        <time>2021-07-25T03:18:58.000Z</time>
      </trkpt>
      <trkpt lat="45.18866" lon="5.74584">
        <ele>241.80000305176</ele>
        <time>2021-07-25T03:19:01.000Z</time>
      </trkpt>
      <trkpt lat="45.18865" lon="5.74587">
        <ele>242.19999694824</ele>
        <time>2021-07-25T03:19:02.000Z</time>
      </trkpt>
      <trkpt lat="45.18865" lon="5.74599">
        <ele>242.19999694824</ele>
        <time>2021-07-25T03:19:06.000Z</time>
      </trkpt>
      <trkpt lat="45.18865" lon="5.74613">
        <ele>242.19999694824</ele>
        <time>2021-07-25T03:19:10.000Z</time>
      </trkpt>
      <trkpt lat="45.18865" lon="5.74622">
        <ele>242.19999694824</ele>
        <time>2021-07-25T03:19:12.000Z</time>
      </trkpt>
      <trkpt lat="45.18859" lon="5.74638">
        <ele>242</ele>
        <time>2021-07-25T03:19:17.000Z</time>
      </trkpt>
      <trkpt lat="45.18855" lon="5.7466">
        <ele>242</ele>
        <time>2021-07-25T03:19:22.000Z</time>
      </trkpt>
      <trkpt lat="45.18853" lon="5.74683">
        <ele>241.80000305176</ele>
        <time>2021-07-25T03:19:28.000Z</time>
      </trkpt>
      <trkpt lat="45.18858" lon="5.74704">
        <ele>241.80000305176</ele>
        <time>2021-07-25T03:19:33.000Z</time>
      </trkpt>
      <trkpt lat="45.18856" lon="5.74718">
        <ele>241.80000305176</ele>
        <time>2021-07-25T03:19:37.000Z</time>
      </trkpt>
      <trkpt lat="45.18856" lon="5.74722">
        <ele>241</ele>
        <time>2021-07-25T03:19:38.000Z</time>
      </trkpt>
      <trkpt lat="45.18854" lon="5.74742">
        <ele>241.39999389648</ele>
        <time>2021-07-25T03:19:43.000Z</time>
      </trkpt>
      <trkpt lat="45.18854" lon="5.74746">
        <ele>241.19999694824</ele>
        <time>2021-07-25T03:19:44.000Z</time>
      </trkpt>
      <trkpt lat="45.18854" lon="5.74754">
        <ele>241.39999389648</ele>
        <time>2021-07-25T03:19:46.000Z</time>
      </trkpt>
      <trkpt lat="45.18856" lon="5.74761">
        <ele>241.60000610352</ele>
        <time>2021-07-25T03:19:48.000Z</time>
      </trkpt>
      <trkpt lat="45.18859" lon="5.74784">
        <ele>241</ele>
        <time>2021-07-25T03:19:53.000Z</time>
      </trkpt>
      <trkpt lat="45.18859" lon="5.74788">
        <ele>241</ele>
        <time>2021-07-25T03:19:54.000Z</time>
      </trkpt>
      <trkpt lat="45.18863" lon="5.74805">
        <ele>241.19999694824</ele>
        <time>2021-07-25T03:19:58.000Z</time>
      </trkpt>
      <trkpt lat="45.18861" lon="5.74814">
        <ele>241.19999694824</ele>
        <time>2021-07-25T03:20:00.000Z</time>
      </trkpt>
      <trkpt lat="45.1886" lon="5.74834">
        <ele>241.60000610352</ele>
        <time>2021-07-25T03:20:05.000Z</time>
      </trkpt>
      <trkpt lat="45.18861" lon="5.74845">
        <ele>241.39999389648</ele>
        <time>2021-07-25T03:20:08.000Z</time>
      </trkpt>
      <trkpt lat="45.18862" lon="5.74857">
        <ele>241.39999389648</ele>
        <time>2021-07-25T03:20:11.000Z</time>
      </trkpt>
      <trkpt lat="45.18867" lon="5.74885">
        <ele>240.60000610352</ele>
        <time>2021-07-25T03:20:17.000Z</time>
      </trkpt>
      <trkpt lat="45.1887" lon="5.74901">
        <ele>241.19999694824</ele>
        <time>2021-07-25T03:20:23.000Z</time>
      </trkpt>
      <trkpt lat="45.18869" lon="5.74912">
        <ele>241.39999389648</ele>
        <time>2021-07-25T03:20:26.000Z</time>
      </trkpt>
      <trkpt lat="45.18868" lon="5.7492">
        <ele>241.60000610352</ele>
        <time>2021-07-25T03:20:28.000Z</time>
      </trkpt>
      <trkpt lat="45.18866" lon="5.74933">
        <ele>241.60000610352</ele>
        <time>2021-07-25T03:20:31.000Z</time>
      </trkpt>
      <trkpt lat="45.18865" lon="5.74941">
        <ele>241.60000610352</ele>
        <time>2021-07-25T03:20:33.000Z</time>
      </trkpt>
      <trkpt lat="45.18863" lon="5.7496">
        <ele>241.60000610352</ele>
        <time>2021-07-25T03:20:38.000Z</time>
      </trkpt>
      <trkpt lat="45.18865" lon="5.74978">
        <ele>241.39999389648</ele>
        <time>2021-07-25T03:20:43.000Z</time>
      </trkpt>
      <trkpt lat="45.18871" lon="5.74997">
        <ele>241.60000610352</ele>
        <time>2021-07-25T03:20:49.000Z</time>
      </trkpt>
      <trkpt lat="45.18883" lon="5.75013">
        <ele>242</ele>
        <time>2021-07-25T03:20:55.000Z</time>
      </trkpt>
      <trkpt lat="45.18885" lon="5.75019">
        <ele>242.19999694824</ele>
        <time>2021-07-25T03:20:57.000Z</time>
      </trkpt>
      <trkpt lat="45.18888" lon="5.7503">
        <ele>241.39999389648</ele>
        <time>2021-07-25T03:21:00.000Z</time>
      </trkpt>
      <trkpt lat="45.1889" lon="5.75033">
        <ele>241.80000305176</ele>
        <time>2021-07-25T03:21:01.000Z</time>
      </trkpt>
      <trkpt lat="45.18892" lon="5.75037">
        <ele>241.19999694824</ele>
        <time>2021-07-25T03:21:02.000Z</time>
      </trkpt>
      <trkpt lat="45.189" lon="5.75049">
        <ele>241.80000305176</ele>
        <time>2021-07-25T03:21:06.000Z</time>
      </trkpt>
      <trkpt lat="45.18904" lon="5.75054">
        <ele>241.80000305176</ele>
        <time>2021-07-25T03:21:08.000Z</time>
      </trkpt>
      <trkpt lat="45.18911" lon="5.75063">
        <ele>241.80000305176</ele>
        <time>2021-07-25T03:21:11.000Z</time>
      </trkpt>
      <trkpt lat="45.18915" lon="5.75067">
        <ele>241.80000305176</ele>
        <time>2021-07-25T03:21:12.000Z</time>
      </trkpt>
      <trkpt lat="45.18929" lon="5.75084">
        <ele>241</ele>
        <time>2021-07-25T03:21:17.000Z</time>
      </trkpt>
      <trkpt lat="45.1894" lon="5.75101">
        <ele>241.19999694824</ele>
        <time>2021-07-25T03:21:23.000Z</time>
      </trkpt>
      <trkpt lat="45.18945" lon="5.75115">
        <ele>241.60000610352</ele>
        <time>2021-07-25T03:21:28.000Z</time>
      </trkpt>
      <trkpt lat="45.18954" lon="5.75127">
        <ele>241.80000305176</ele>
        <time>2021-07-25T03:21:33.000Z</time>
      </trkpt>
      <trkpt lat="45.18963" lon="5.75135">
        <ele>241.60000610352</ele>
        <time>2021-07-25T03:21:37.000Z</time>
      </trkpt>
      <trkpt lat="45.18966" lon="5.75136">
        <ele>241.19999694824</ele>
        <time>2021-07-25T03:21:38.000Z</time>
      </trkpt>
      <trkpt lat="45.1898" lon="5.75145">
        <ele>241.39999389648</ele>
        <time>2021-07-25T03:21:43.000Z</time>
      </trkpt>
      <trkpt lat="45.18995" lon="5.75163">
        <ele>241.60000610352</ele>
        <time>2021-07-25T03:21:49.000Z</time>
      </trkpt>
      <trkpt lat="45.19005" lon="5.75172">
        <ele>241.80000305176</ele>
        <time>2021-07-25T03:21:54.000Z</time>
      </trkpt>
      <trkpt lat="45.19017" lon="5.75181">
        <ele>241.80000305176</ele>
        <time>2021-07-25T03:22:00.000Z</time>
      </trkpt>
      <trkpt lat="45.1903" lon="5.75189">
        <ele>242</ele>
        <time>2021-07-25T03:22:05.000Z</time>
      </trkpt>
      <trkpt lat="45.19047" lon="5.75197">
        <ele>241.19999694824</ele>
        <time>2021-07-25T03:22:10.000Z</time>
      </trkpt>
      <trkpt lat="45.19062" lon="5.75204">
        <ele>241.60000610352</ele>
        <time>2021-07-25T03:22:16.000Z</time>
      </trkpt>
      <trkpt lat="45.19065" lon="5.75206">
        <ele>241.80000305176</ele>
        <time>2021-07-25T03:22:18.000Z</time>
      </trkpt>
      <trkpt lat="45.19075" lon="5.75209">
        <ele>241.80000305176</ele>
        <time>2021-07-25T03:22:21.000Z</time>
      </trkpt>
      <trkpt lat="45.19088" lon="5.75214">
        <ele>241.80000305176</ele>
        <time>2021-07-25T03:22:26.000Z</time>
      </trkpt>
      <trkpt lat="45.19106" lon="5.75223">
        <ele>241.80000305176</ele>
        <time>2021-07-25T03:22:32.000Z</time>
      </trkpt>
      <trkpt lat="45.19109" lon="5.75224">
        <ele>241.60000610352</ele>
        <time>2021-07-25T03:22:33.000Z</time>
      </trkpt>
      <trkpt lat="45.19116" lon="5.75227">
        <ele>241.60000610352</ele>
        <time>2021-07-25T03:22:37.000Z</time>
      </trkpt>
      <trkpt lat="45.19118" lon="5.75227">
        <ele>241.60000610352</ele>
        <time>2021-07-25T03:22:38.000Z</time>
      </trkpt>
      <trkpt lat="45.19138" lon="5.75235">
        <ele>241.39999389648</ele>
        <time>2021-07-25T03:22:44.000Z</time>
      </trkpt>
      <trkpt lat="45.19156" lon="5.75244">
        <ele>241.80000305176</ele>
        <time>2021-07-25T03:22:50.000Z</time>
      </trkpt>
      <trkpt lat="45.19159" lon="5.75245">
        <ele>241.39999389648</ele>
        <time>2021-07-25T03:22:51.000Z</time>
      </trkpt>
      <trkpt lat="45.19176" lon="5.7525">
        <ele>241.60000610352</ele>
        <time>2021-07-25T03:22:58.000Z</time>
      </trkpt>
      <trkpt lat="45.19186" lon="5.75256">
        <ele>241.60000610352</ele>
        <time>2021-07-25T03:23:03.000Z</time>
      </trkpt>
      <trkpt lat="45.19201" lon="5.75263">
        <ele>241.60000610352</ele>
        <time>2021-07-25T03:23:09.000Z</time>
      </trkpt>
      <trkpt lat="45.19204" lon="5.75265">
        <ele>241.60000610352</ele>
        <time>2021-07-25T03:23:10.000Z</time>
      </trkpt>
      <trkpt lat="45.19214" lon="5.7527">
        <ele>241.60000610352</ele>
        <time>2021-07-25T03:23:14.000Z</time>
      </trkpt>
      <trkpt lat="45.19222" lon="5.75275">
        <ele>241.80000305176</ele>
        <time>2021-07-25T03:23:17.000Z</time>
      </trkpt>
      <trkpt lat="45.1924" lon="5.75285">
        <ele>241.19999694824</ele>
        <time>2021-07-25T03:23:23.000Z</time>
      </trkpt>
      <trkpt lat="45.19244" lon="5.75286">
        <ele>242</ele>
        <time>2021-07-25T03:23:24.000Z</time>
      </trkpt>
      <trkpt lat="45.1926" lon="5.75291">
        <ele>241.60000610352</ele>
        <time>2021-07-25T03:23:29.000Z</time>
      </trkpt>
      <trkpt lat="45.19277" lon="5.75296">
        <ele>242</ele>
        <time>2021-07-25T03:23:36.000Z</time>
      </trkpt>
      <trkpt lat="45.19278" lon="5.75297">
        <ele>242</ele>
        <time>2021-07-25T03:23:37.000Z</time>
      </trkpt>
      <trkpt lat="45.19283" lon="5.75301">
        <ele>241.80000305176</ele>
        <time>2021-07-25T03:23:41.000Z</time>
      </trkpt>
      <trkpt lat="45.19284" lon="5.75301">
        <ele>241.39999389648</ele>
        <time>2021-07-25T03:23:42.000Z</time>
      </trkpt>
      <trkpt lat="45.19287" lon="5.75301">
        <ele>241.60000610352</ele>
        <time>2021-07-25T03:23:44.000Z</time>
      </trkpt>
      <trkpt lat="45.19294" lon="5.75303">
        <ele>241.60000610352</ele>
        <time>2021-07-25T03:23:48.000Z</time>
      </trkpt>
      <trkpt lat="45.19313" lon="5.75312">
        <ele>242.19999694824</ele>
        <time>2021-07-25T03:23:53.000Z</time>
      </trkpt>
      <trkpt lat="45.19326" lon="5.75315">
        <ele>242</ele>
        <time>2021-07-25T03:23:58.000Z</time>
      </trkpt>
      <trkpt lat="45.19337" lon="5.75318">
        <ele>241.80000305176</ele>
        <time>2021-07-25T03:24:02.000Z</time>
      </trkpt>
      <trkpt lat="45.19342" lon="5.75319">
        <ele>241.80000305176</ele>
        <time>2021-07-25T03:24:04.000Z</time>
      </trkpt>
      <trkpt lat="45.19351" lon="5.75323">
        <ele>242.19999694824</ele>
        <time>2021-07-25T03:24:09.000Z</time>
      </trkpt>
      <trkpt lat="45.19367" lon="5.75325">
        <ele>241.80000305176</ele>
        <time>2021-07-25T03:24:13.000Z</time>
      </trkpt>
      <trkpt lat="45.19381" lon="5.75329">
        <ele>241.80000305176</ele>
        <time>2021-07-25T03:24:18.000Z</time>
      </trkpt>
      <trkpt lat="45.19394" lon="5.75332">
        <ele>242.19999694824</ele>
        <time>2021-07-25T03:24:24.000Z</time>
      </trkpt>
      <trkpt lat="45.19399" lon="5.75333">
        <ele>241</ele>
        <time>2021-07-25T03:24:27.000Z</time>
      </trkpt>
      <trkpt lat="45.19405" lon="5.75335">
        <ele>241.80000305176</ele>
        <time>2021-07-25T03:24:30.000Z</time>
      </trkpt>
      <trkpt lat="45.19414" lon="5.75335">
        <ele>241.80000305176</ele>
        <time>2021-07-25T03:24:34.000Z</time>
      </trkpt>
      <trkpt lat="45.19428" lon="5.75339">
        <ele>241.80000305176</ele>
        <time>2021-07-25T03:24:39.000Z</time>
      </trkpt>
      <trkpt lat="45.19442" lon="5.75343">
        <ele>242</ele>
        <time>2021-07-25T03:24:43.000Z</time>
      </trkpt>
      <trkpt lat="45.19445" lon="5.75343">
        <ele>242</ele>
        <time>2021-07-25T03:24:44.000Z</time>
      </trkpt>
      <trkpt lat="45.19452" lon="5.75346">
        <ele>240.80000305176</ele>
        <time>2021-07-25T03:24:46.000Z</time>
      </trkpt>
      <trkpt lat="45.19455" lon="5.75347">
        <ele>242.19999694824</ele>
        <time>2021-07-25T03:24:47.000Z</time>
      </trkpt>
      <trkpt lat="45.19457" lon="5.75348">
        <ele>240.80000305176</ele>
        <time>2021-07-25T03:24:48.000Z</time>
      </trkpt>
      <trkpt lat="45.1946" lon="5.75349">
        <ele>242</ele>
        <time>2021-07-25T03:24:49.000Z</time>
      </trkpt>
      <trkpt lat="45.19465" lon="5.7535">
        <ele>240.80000305176</ele>
        <time>2021-07-25T03:24:50.000Z</time>
      </trkpt>
      <trkpt lat="45.19469" lon="5.75351">
        <ele>241.80000305176</ele>
        <time>2021-07-25T03:24:51.000Z</time>
      </trkpt>
      <trkpt lat="45.19485" lon="5.75355">
        <ele>241.60000610352</ele>
        <time>2021-07-25T03:24:56.000Z</time>
      </trkpt>
      <trkpt lat="45.19498" lon="5.7536">
        <ele>241.60000610352</ele>
        <time>2021-07-25T03:25:02.000Z</time>
      </trkpt>
      <trkpt lat="45.19514" lon="5.7537">
        <ele>242</ele>
        <time>2021-07-25T03:25:08.000Z</time>
      </trkpt>
      <trkpt lat="45.19518" lon="5.75373">
        <ele>242</ele>
        <time>2021-07-25T03:25:10.000Z</time>
      </trkpt>
      <trkpt lat="45.19532" lon="5.75378">
        <ele>241.80000305176</ele>
        <time>2021-07-25T03:25:14.000Z</time>
      </trkpt>
      <trkpt lat="45.1954" lon="5.75384">
        <ele>241.80000305176</ele>
        <time>2021-07-25T03:25:18.000Z</time>
      </trkpt>
      <trkpt lat="45.19547" lon="5.75391">
        <ele>241.80000305176</ele>
        <time>2021-07-25T03:25:22.000Z</time>
      </trkpt>
      <trkpt lat="45.19549" lon="5.75392">
        <ele>242</ele>
        <time>2021-07-25T03:25:23.000Z</time>
      </trkpt>
      <trkpt lat="45.19564" lon="5.75399">
        <ele>241.19999694824</ele>
        <time>2021-07-25T03:25:28.000Z</time>
      </trkpt>
      <trkpt lat="45.19582" lon="5.7541">
        <ele>241.80000305176</ele>
        <time>2021-07-25T03:25:34.000Z</time>
      </trkpt>
      <trkpt lat="45.19598" lon="5.75423">
        <ele>242</ele>
        <time>2021-07-25T03:25:40.000Z</time>
      </trkpt>
      <trkpt lat="45.19613" lon="5.75434">
        <ele>242.80000305176</ele>
        <time>2021-07-25T03:25:46.000Z</time>
      </trkpt>
      <trkpt lat="45.19615" lon="5.75435">
        <ele>243.19999694824</ele>
        <time>2021-07-25T03:25:47.000Z</time>
      </trkpt>
      <trkpt lat="45.19626" lon="5.75438">
        <ele>243.39999389648</ele>
        <time>2021-07-25T03:25:52.000Z</time>
      </trkpt>
      <trkpt lat="45.19632" lon="5.75433">
        <ele>244</ele>
        <time>2021-07-25T03:25:56.000Z</time>
      </trkpt>
      <trkpt lat="45.19641" lon="5.75424">
        <ele>244.60000610352</ele>
        <time>2021-07-25T03:26:01.000Z</time>
      </trkpt>
      <trkpt lat="45.19645" lon="5.7542">
        <ele>244.60000610352</ele>
        <time>2021-07-25T03:26:03.000Z</time>
      </trkpt>
      <trkpt lat="45.19658" lon="5.75405">
        <ele>244.60000610352</ele>
        <time>2021-07-25T03:26:10.000Z</time>
      </trkpt>
      <trkpt lat="45.19667" lon="5.75391">
        <ele>244.39999389648</ele>
        <time>2021-07-25T03:26:16.000Z</time>
      </trkpt>
      <trkpt lat="45.19675" lon="5.7538">
        <ele>244.19999694824</ele>
        <time>2021-07-25T03:26:20.000Z</time>
      </trkpt>
      <trkpt lat="45.19681" lon="5.75374">
        <ele>243.60000610352</ele>
        <time>2021-07-25T03:26:23.000Z</time>
      </trkpt>
      <trkpt lat="45.19683" lon="5.75373">
        <ele>243.39999389648</ele>
        <time>2021-07-25T03:26:24.000Z</time>
      </trkpt>
      <trkpt lat="45.19685" lon="5.75374">
        <ele>243.39999389648</ele>
        <time>2021-07-25T03:26:25.000Z</time>
      </trkpt>
      <trkpt lat="45.19689" lon="5.75379">
        <ele>243.19999694824</ele>
        <time>2021-07-25T03:26:27.000Z</time>
      </trkpt>
      <trkpt lat="45.19692" lon="5.75384">
        <ele>242.19999694824</ele>
        <time>2021-07-25T03:26:29.000Z</time>
      </trkpt>
      <trkpt lat="45.197" lon="5.75391">
        <ele>242.19999694824</ele>
        <time>2021-07-25T03:26:32.000Z</time>
      </trkpt>
      <trkpt lat="45.19714" lon="5.75401">
        <ele>241.39999389648</ele>
        <time>2021-07-25T03:26:37.000Z</time>
      </trkpt>
      <trkpt lat="45.19718" lon="5.75406">
        <ele>240.80000305176</ele>
        <time>2021-07-25T03:26:39.000Z</time>
      </trkpt>
      <trkpt lat="45.1972" lon="5.75409">
        <ele>240.80000305176</ele>
        <time>2021-07-25T03:26:40.000Z</time>
      </trkpt>
      <trkpt lat="45.19723" lon="5.75413">
        <ele>241.19999694824</ele>
        <time>2021-07-25T03:26:42.000Z</time>
      </trkpt>
      <trkpt lat="45.19732" lon="5.75426">
        <ele>241</ele>
        <time>2021-07-25T03:26:47.000Z</time>
      </trkpt>
      <trkpt lat="45.19743" lon="5.75445">
        <ele>241.19999694824</ele>
        <time>2021-07-25T03:26:54.000Z</time>
      </trkpt>
      <trkpt lat="45.19753" lon="5.7546">
        <ele>240.80000305176</ele>
        <time>2021-07-25T03:27:00.000Z</time>
      </trkpt>
      <trkpt lat="45.19763" lon="5.75487">
        <ele>240.80000305176</ele>
        <time>2021-07-25T03:27:08.000Z</time>
      </trkpt>
      <trkpt lat="45.19767" lon="5.75494">
        <ele>240.80000305176</ele>
        <time>2021-07-25T03:27:10.000Z</time>
      </trkpt>
      <trkpt lat="45.19777" lon="5.75505">
        <ele>240.60000610352</ele>
        <time>2021-07-25T03:27:13.000Z</time>
      </trkpt>
      <trkpt lat="45.19779" lon="5.75522">
        <ele>240.60000610352</ele>
        <time>2021-07-25T03:27:17.000Z</time>
      </trkpt>
      <trkpt lat="45.19782" lon="5.75544">
        <ele>240.60000610352</ele>
        <time>2021-07-25T03:27:23.000Z</time>
      </trkpt>
      <trkpt lat="45.19786" lon="5.75565">
        <ele>241.19999694824</ele>
        <time>2021-07-25T03:27:29.000Z</time>
      </trkpt>
      <trkpt lat="45.19788" lon="5.75591">
        <ele>240.60000610352</ele>
        <time>2021-07-25T03:27:35.000Z</time>
      </trkpt>
      <trkpt lat="45.1979" lon="5.75605">
        <ele>240.60000610352</ele>
        <time>2021-07-25T03:27:39.000Z</time>
      </trkpt>
      <trkpt lat="45.19791" lon="5.75619">
        <ele>240.80000305176</ele>
        <time>2021-07-25T03:27:42.000Z</time>
      </trkpt>
      <trkpt lat="45.19787" lon="5.75644">
        <ele>241</ele>
        <time>2021-07-25T03:27:48.000Z</time>
      </trkpt>
      <trkpt lat="45.19784" lon="5.75668">
        <ele>240.80000305176</ele>
        <time>2021-07-25T03:27:54.000Z</time>
      </trkpt>
      <trkpt lat="45.19783" lon="5.75677">
        <ele>240.80000305176</ele>
        <time>2021-07-25T03:27:57.000Z</time>
      </trkpt>
      <trkpt lat="45.19778" lon="5.75691">
        <ele>241</ele>
        <time>2021-07-25T03:28:01.000Z</time>
      </trkpt>
      <trkpt lat="45.19773" lon="5.75711">
        <ele>241</ele>
        <time>2021-07-25T03:28:07.000Z</time>
      </trkpt>
      <trkpt lat="45.19771" lon="5.75724">
        <ele>241</ele>
        <time>2021-07-25T03:28:11.000Z</time>
      </trkpt>
      <trkpt lat="45.1977" lon="5.75727">
        <ele>241</ele>
        <time>2021-07-25T03:28:12.000Z</time>
      </trkpt>
      <trkpt lat="45.19764" lon="5.75749">
        <ele>240.80000305176</ele>
        <time>2021-07-25T03:28:18.000Z</time>
      </trkpt>
      <trkpt lat="45.19764" lon="5.75752">
        <ele>240.80000305176</ele>
        <time>2021-07-25T03:28:19.000Z</time>
      </trkpt>
      <trkpt lat="45.19762" lon="5.75774">
        <ele>240.80000305176</ele>
        <time>2021-07-25T03:28:25.000Z</time>
      </trkpt>
      <trkpt lat="45.19753" lon="5.75801">
        <ele>241</ele>
        <time>2021-07-25T03:28:32.000Z</time>
      </trkpt>
      <trkpt lat="45.19752" lon="5.75804">
        <ele>241</ele>
        <time>2021-07-25T03:28:33.000Z</time>
      </trkpt>
      <trkpt lat="45.1975" lon="5.7581">
        <ele>241</ele>
        <time>2021-07-25T03:28:35.000Z</time>
      </trkpt>
      <trkpt lat="45.19747" lon="5.75815">
        <ele>241</ele>
        <time>2021-07-25T03:28:37.000Z</time>
      </trkpt>
      <trkpt lat="45.19745" lon="5.7582">
        <ele>241</ele>
        <time>2021-07-25T03:28:39.000Z</time>
      </trkpt>
      <trkpt lat="45.19736" lon="5.75837">
        <ele>241.19999694824</ele>
        <time>2021-07-25T03:28:44.000Z</time>
      </trkpt>
      <trkpt lat="45.1973" lon="5.75846">
        <ele>240.80000305176</ele>
        <time>2021-07-25T03:28:46.000Z</time>
      </trkpt>
      <trkpt lat="45.19723" lon="5.75859">
        <ele>240.80000305176</ele>
        <time>2021-07-25T03:28:50.000Z</time>
      </trkpt>
      <trkpt lat="45.19721" lon="5.75865">
        <ele>240.80000305176</ele>
        <time>2021-07-25T03:28:52.000Z</time>
      </trkpt>
      <trkpt lat="45.1971" lon="5.75886">
        <ele>241</ele>
        <time>2021-07-25T03:28:58.000Z</time>
      </trkpt>
      <trkpt lat="45.19706" lon="5.759">
        <ele>240.80000305176</ele>
        <time>2021-07-25T03:29:02.000Z</time>
      </trkpt>
      <trkpt lat="45.19703" lon="5.75914">
        <ele>240.80000305176</ele>
        <time>2021-07-25T03:29:07.000Z</time>
      </trkpt>
      <trkpt lat="45.19696" lon="5.75936">
        <ele>240.80000305176</ele>
        <time>2021-07-25T03:29:13.000Z</time>
      </trkpt>
      <trkpt lat="45.19685" lon="5.75961">
        <ele>240.60000610352</ele>
        <time>2021-07-25T03:29:19.000Z</time>
      </trkpt>
      <trkpt lat="45.19677" lon="5.7598">
        <ele>240.60000610352</ele>
        <time>2021-07-25T03:29:25.000Z</time>
      </trkpt>
      <trkpt lat="45.19672" lon="5.76">
        <ele>241</ele>
        <time>2021-07-25T03:29:31.000Z</time>
      </trkpt>
      <trkpt lat="45.19669" lon="5.76008">
        <ele>241</ele>
        <time>2021-07-25T03:29:34.000Z</time>
      </trkpt>
      <trkpt lat="45.19668" lon="5.76015">
        <ele>241</ele>
        <time>2021-07-25T03:29:36.000Z</time>
      </trkpt>
      <trkpt lat="45.19662" lon="5.7604">
        <ele>241</ele>
        <time>2021-07-25T03:29:43.000Z</time>
      </trkpt>
      <trkpt lat="45.19659" lon="5.76066">
        <ele>241</ele>
        <time>2021-07-25T03:29:49.000Z</time>
      </trkpt>
      <trkpt lat="45.19658" lon="5.7607">
        <ele>241</ele>
        <time>2021-07-25T03:29:50.000Z</time>
      </trkpt>
      <trkpt lat="45.19659" lon="5.76095">
        <ele>240.80000305176</ele>
        <time>2021-07-25T03:29:57.000Z</time>
      </trkpt>
      <trkpt lat="45.19657" lon="5.76105">
        <ele>240.60000610352</ele>
        <time>2021-07-25T03:30:00.000Z</time>
      </trkpt>
      <trkpt lat="45.19657" lon="5.76113">
        <ele>240.60000610352</ele>
        <time>2021-07-25T03:30:02.000Z</time>
      </trkpt>
      <trkpt lat="45.19657" lon="5.76134">
        <ele>241</ele>
        <time>2021-07-25T03:30:08.000Z</time>
      </trkpt>
      <trkpt lat="45.19658" lon="5.76148">
        <ele>241</ele>
        <time>2021-07-25T03:30:12.000Z</time>
      </trkpt>
      <trkpt lat="45.19656" lon="5.76155">
        <ele>241</ele>
        <time>2021-07-25T03:30:14.000Z</time>
      </trkpt>
      <trkpt lat="45.19653" lon="5.76179">
        <ele>241</ele>
        <time>2021-07-25T03:30:20.000Z</time>
      </trkpt>
      <trkpt lat="45.19653" lon="5.76206">
        <ele>241</ele>
        <time>2021-07-25T03:30:27.000Z</time>
      </trkpt>
      <trkpt lat="45.19657" lon="5.76229">
        <ele>241</ele>
        <time>2021-07-25T03:30:33.000Z</time>
      </trkpt>
      <trkpt lat="45.1966" lon="5.7625">
        <ele>241</ele>
        <time>2021-07-25T03:30:39.000Z</time>
      </trkpt>
      <trkpt lat="45.19658" lon="5.76263">
        <ele>241.19999694824</ele>
        <time>2021-07-25T03:30:43.000Z</time>
      </trkpt>
      <trkpt lat="45.19656" lon="5.76275">
        <ele>241</ele>
        <time>2021-07-25T03:30:46.000Z</time>
      </trkpt>
      <trkpt lat="45.19655" lon="5.76283">
        <ele>241</ele>
        <time>2021-07-25T03:30:48.000Z</time>
      </trkpt>
      <trkpt lat="45.19656" lon="5.76286">
        <ele>241</ele>
        <time>2021-07-25T03:30:49.000Z</time>
      </trkpt>
      <trkpt lat="45.19657" lon="5.76293">
        <ele>241</ele>
        <time>2021-07-25T03:30:51.000Z</time>
      </trkpt>
      <trkpt lat="45.1966" lon="5.76306">
        <ele>241.19999694824</ele>
        <time>2021-07-25T03:30:54.000Z</time>
      </trkpt>
      <trkpt lat="45.19661" lon="5.7631">
        <ele>240.80000305176</ele>
        <time>2021-07-25T03:30:55.000Z</time>
      </trkpt>
      <trkpt lat="45.19663" lon="5.76327">
        <ele>241</ele>
        <time>2021-07-25T03:31:00.000Z</time>
      </trkpt>
      <trkpt lat="45.19666" lon="5.76353">
        <ele>241.39999389648</ele>
        <time>2021-07-25T03:31:07.000Z</time>
      </trkpt>
      <trkpt lat="45.19668" lon="5.76376">
        <ele>241.39999389648</ele>
        <time>2021-07-25T03:31:12.000Z</time>
      </trkpt>
      <trkpt lat="45.19667" lon="5.76393">
        <ele>241.39999389648</ele>
        <time>2021-07-25T03:31:16.000Z</time>
      </trkpt>
      <trkpt lat="45.19668" lon="5.76404">
        <ele>241.39999389648</ele>
        <time>2021-07-25T03:31:19.000Z</time>
      </trkpt>
      <trkpt lat="45.1967" lon="5.76411">
        <ele>241.39999389648</ele>
        <time>2021-07-25T03:31:21.000Z</time>
      </trkpt>
      <trkpt lat="45.19676" lon="5.76433">
        <ele>241</ele>
        <time>2021-07-25T03:31:27.000Z</time>
      </trkpt>
      <trkpt lat="45.19676" lon="5.76436">
        <ele>241</ele>
        <time>2021-07-25T03:31:28.000Z</time>
      </trkpt>
      <trkpt lat="45.19677" lon="5.76448">
        <ele>241</ele>
        <time>2021-07-25T03:31:31.000Z</time>
      </trkpt>
      <trkpt lat="45.19677" lon="5.76462">
        <ele>240.80000305176</ele>
        <time>2021-07-25T03:31:35.000Z</time>
      </trkpt>
      <trkpt lat="45.19679" lon="5.76465">
        <ele>240.80000305176</ele>
        <time>2021-07-25T03:31:36.000Z</time>
      </trkpt>
      <trkpt lat="45.19682" lon="5.76472">
        <ele>240.80000305176</ele>
        <time>2021-07-25T03:31:38.000Z</time>
      </trkpt>
      <trkpt lat="45.19686" lon="5.76491">
        <ele>241.39999389648</ele>
        <time>2021-07-25T03:31:43.000Z</time>
      </trkpt>
      <trkpt lat="45.19692" lon="5.76509">
        <ele>241.19999694824</ele>
        <time>2021-07-25T03:31:48.000Z</time>
      </trkpt>
      <trkpt lat="45.19696" lon="5.76522">
        <ele>241.60000610352</ele>
        <time>2021-07-25T03:31:52.000Z</time>
      </trkpt>
      <trkpt lat="45.19698" lon="5.76525">
        <ele>241.39999389648</ele>
        <time>2021-07-25T03:31:53.000Z</time>
      </trkpt>
      <trkpt lat="45.19706" lon="5.76541">
        <ele>241.19999694824</ele>
        <time>2021-07-25T03:31:58.000Z</time>
      </trkpt>
      <trkpt lat="45.19714" lon="5.7656">
        <ele>241.19999694824</ele>
        <time>2021-07-25T03:32:04.000Z</time>
      </trkpt>
      <trkpt lat="45.1972" lon="5.76578">
        <ele>241.19999694824</ele>
        <time>2021-07-25T03:32:09.000Z</time>
      </trkpt>
      <trkpt lat="45.19719" lon="5.76589">
        <ele>241.19999694824</ele>
        <time>2021-07-25T03:32:12.000Z</time>
      </trkpt>
      <trkpt lat="45.1972" lon="5.76591">
        <ele>241.19999694824</ele>
        <time>2021-07-25T03:32:13.000Z</time>
      </trkpt>
      <trkpt lat="45.19726" lon="5.76599">
        <ele>240.80000305176</ele>
        <time>2021-07-25T03:32:16.000Z</time>
      </trkpt>
      <trkpt lat="45.19732" lon="5.76607">
        <ele>241.19999694824</ele>
        <time>2021-07-25T03:32:19.000Z</time>
      </trkpt>
      <trkpt lat="45.19742" lon="5.76625">
        <ele>240.80000305176</ele>
        <time>2021-07-25T03:32:25.000Z</time>
      </trkpt>
      <trkpt lat="45.19745" lon="5.7663">
        <ele>241.19999694824</ele>
        <time>2021-07-25T03:32:27.000Z</time>
      </trkpt>
      <trkpt lat="45.19752" lon="5.76644">
        <ele>241</ele>
        <time>2021-07-25T03:32:32.000Z</time>
      </trkpt>
      <trkpt lat="45.19766" lon="5.76661">
        <ele>241.19999694824</ele>
        <time>2021-07-25T03:32:38.000Z</time>
      </trkpt>
      <trkpt lat="45.19772" lon="5.76669">
        <ele>241.19999694824</ele>
        <time>2021-07-25T03:32:40.000Z</time>
      </trkpt>
      <trkpt lat="45.19781" lon="5.76686">
        <ele>241.39999389648</ele>
        <time>2021-07-25T03:32:44.000Z</time>
      </trkpt>
      <trkpt lat="45.19783" lon="5.76693">
        <ele>241.39999389648</ele>
        <time>2021-07-25T03:32:46.000Z</time>
      </trkpt>
      <trkpt lat="45.19787" lon="5.76699">
        <ele>241.39999389648</ele>
        <time>2021-07-25T03:32:48.000Z</time>
      </trkpt>
      <trkpt lat="45.19797" lon="5.76721">
        <ele>241.80000305176</ele>
        <time>2021-07-25T03:32:55.000Z</time>
      </trkpt>
      <trkpt lat="45.19806" lon="5.76741">
        <ele>241</ele>
        <time>2021-07-25T03:33:01.000Z</time>
      </trkpt>
      <trkpt lat="45.19808" lon="5.76744">
        <ele>241</ele>
        <time>2021-07-25T03:33:02.000Z</time>
      </trkpt>
      <trkpt lat="45.19811" lon="5.76749">
        <ele>241</ele>
        <time>2021-07-25T03:33:04.000Z</time>
      </trkpt>
      <trkpt lat="45.19811" lon="5.76753">
        <ele>241</ele>
        <time>2021-07-25T03:33:05.000Z</time>
      </trkpt>
      <trkpt lat="45.19812" lon="5.76756">
        <ele>241</ele>
        <time>2021-07-25T03:33:06.000Z</time>
      </trkpt>
      <trkpt lat="45.19815" lon="5.76758">
        <ele>241</ele>
        <time>2021-07-25T03:33:07.000Z</time>
      </trkpt>
      <trkpt lat="45.19822" lon="5.76767">
        <ele>241</ele>
        <time>2021-07-25T03:33:10.000Z</time>
      </trkpt>
      <trkpt lat="45.19828" lon="5.76783">
        <ele>241.60000610352</ele>
        <time>2021-07-25T03:33:15.000Z</time>
      </trkpt>
      <trkpt lat="45.19829" lon="5.76787">
        <ele>241.60000610352</ele>
        <time>2021-07-25T03:33:16.000Z</time>
      </trkpt>
      <trkpt lat="45.1984" lon="5.76803">
        <ele>241.60000610352</ele>
        <time>2021-07-25T03:33:21.000Z</time>
      </trkpt>
      <trkpt lat="45.19844" lon="5.76813">
        <ele>241.60000610352</ele>
        <time>2021-07-25T03:33:24.000Z</time>
      </trkpt>
      <trkpt lat="45.19845" lon="5.76819">
        <ele>241.60000610352</ele>
        <time>2021-07-25T03:33:26.000Z</time>
      </trkpt>
      <trkpt lat="45.19845" lon="5.76822">
        <ele>241.39999389648</ele>
        <time>2021-07-25T03:33:27.000Z</time>
      </trkpt>
      <trkpt lat="45.19847" lon="5.76828">
        <ele>241.19999694824</ele>
        <time>2021-07-25T03:33:29.000Z</time>
      </trkpt>
      <trkpt lat="45.19847" lon="5.76833">
        <ele>241.60000610352</ele>
        <time>2021-07-25T03:33:31.000Z</time>
      </trkpt>
      <trkpt lat="45.19847" lon="5.76839">
        <ele>241.60000610352</ele>
        <time>2021-07-25T03:33:33.000Z</time>
      </trkpt>
      <trkpt lat="45.19848" lon="5.76843">
        <ele>241.60000610352</ele>
        <time>2021-07-25T03:33:34.000Z</time>
      </trkpt>
      <trkpt lat="45.19849" lon="5.76847">
        <ele>241.60000610352</ele>
        <time>2021-07-25T03:33:35.000Z</time>
      </trkpt>
      <trkpt lat="45.19854" lon="5.76857">
        <ele>241.39999389648</ele>
        <time>2021-07-25T03:33:38.000Z</time>
      </trkpt>
      <trkpt lat="45.1986" lon="5.76869">
        <ele>241.39999389648</ele>
        <time>2021-07-25T03:33:43.000Z</time>
      </trkpt>
      <trkpt lat="45.19867" lon="5.76878">
        <ele>241.60000610352</ele>
        <time>2021-07-25T03:33:47.000Z</time>
      </trkpt>
      <trkpt lat="45.1987" lon="5.76884">
        <ele>241.60000610352</ele>
        <time>2021-07-25T03:33:49.000Z</time>
      </trkpt>
      <trkpt lat="45.19875" lon="5.76895">
        <ele>241.39999389648</ele>
        <time>2021-07-25T03:33:53.000Z</time>
      </trkpt>
      <trkpt lat="45.19878" lon="5.76896">
        <ele>241.19999694824</ele>
        <time>2021-07-25T03:33:54.000Z</time>
      </trkpt>
      <trkpt lat="45.19884" lon="5.76901">
        <ele>241</ele>
        <time>2021-07-25T03:33:56.000Z</time>
      </trkpt>
      <trkpt lat="45.19885" lon="5.76905">
        <ele>240.19999694824</ele>
        <time>2021-07-25T03:33:58.000Z</time>
      </trkpt>
      <trkpt lat="45.19886" lon="5.76907">
        <ele>240</ele>
        <time>2021-07-25T03:33:59.000Z</time>
      </trkpt>
      <trkpt lat="45.19888" lon="5.76913">
        <ele>239.60000610352</ele>
        <time>2021-07-25T03:34:01.000Z</time>
      </trkpt>
      <trkpt lat="45.1989" lon="5.76919">
        <ele>239.19999694824</ele>
        <time>2021-07-25T03:34:03.000Z</time>
      </trkpt>
      <trkpt lat="45.199" lon="5.76944">
        <ele>240.19999694824</ele>
        <time>2021-07-25T03:34:10.000Z</time>
      </trkpt>
      <trkpt lat="45.19902" lon="5.76945">
        <ele>240.39999389648</ele>
        <time>2021-07-25T03:34:11.000Z</time>
      </trkpt>
      <trkpt lat="45.19904" lon="5.76947">
        <ele>240.39999389648</ele>
        <time>2021-07-25T03:34:12.000Z</time>
      </trkpt>
      <trkpt lat="45.19905" lon="5.76948">
        <ele>240.60000610352</ele>
        <time>2021-07-25T03:34:13.000Z</time>
      </trkpt>
      <trkpt lat="45.19909" lon="5.7695">
        <ele>241.60000610352</ele>
        <time>2021-07-25T03:34:15.000Z</time>
      </trkpt>
      <trkpt lat="45.1992" lon="5.7696">
        <ele>241.60000610352</ele>
        <time>2021-07-25T03:34:20.000Z</time>
      </trkpt>
      <trkpt lat="45.19921" lon="5.76963">
        <ele>241.39999389648</ele>
        <time>2021-07-25T03:34:21.000Z</time>
      </trkpt>
      <trkpt lat="45.19927" lon="5.76975">
        <ele>240.60000610352</ele>
        <time>2021-07-25T03:34:25.000Z</time>
      </trkpt>
      <trkpt lat="45.19929" lon="5.76979">
        <ele>240.60000610352</ele>
        <time>2021-07-25T03:34:26.000Z</time>
      </trkpt>
      <trkpt lat="45.19941" lon="5.76989">
        <ele>240.80000305176</ele>
        <time>2021-07-25T03:34:30.000Z</time>
      </trkpt>
      <trkpt lat="45.19953" lon="5.77001">
        <ele>240.60000610352</ele>
        <time>2021-07-25T03:34:36.000Z</time>
      </trkpt>
      <trkpt lat="45.19969" lon="5.77009">
        <ele>240.60000610352</ele>
        <time>2021-07-25T03:34:42.000Z</time>
      </trkpt>
      <trkpt lat="45.19984" lon="5.77017">
        <ele>240.80000305176</ele>
        <time>2021-07-25T03:34:48.000Z</time>
      </trkpt>
      <trkpt lat="45.19998" lon="5.77026">
        <ele>240.80000305176</ele>
        <time>2021-07-25T03:34:52.000Z</time>
      </trkpt>
      <trkpt lat="45.20012" lon="5.77034">
        <ele>240.39999389648</ele>
        <time>2021-07-25T03:34:58.000Z</time>
      </trkpt>
      <trkpt lat="45.20029" lon="5.77044">
        <ele>240.60000610352</ele>
        <time>2021-07-25T03:35:04.000Z</time>
      </trkpt>
      <trkpt lat="45.20038" lon="5.77051">
        <ele>240.60000610352</ele>
        <time>2021-07-25T03:35:07.000Z</time>
      </trkpt>
      <trkpt lat="45.20043" lon="5.77055">
        <ele>240.80000305176</ele>
        <time>2021-07-25T03:35:09.000Z</time>
      </trkpt>
      <trkpt lat="45.20044" lon="5.77058">
        <ele>240.80000305176</ele>
        <time>2021-07-25T03:35:10.000Z</time>
      </trkpt>
      <trkpt lat="45.2006" lon="5.77078">
        <ele>240.80000305176</ele>
        <time>2021-07-25T03:35:17.000Z</time>
      </trkpt>
      <trkpt lat="45.20071" lon="5.77097">
        <ele>240.60000610352</ele>
        <time>2021-07-25T03:35:23.000Z</time>
      </trkpt>
      <trkpt lat="45.20079" lon="5.77108">
        <ele>240.80000305176</ele>
        <time>2021-07-25T03:35:27.000Z</time>
      </trkpt>
      <trkpt lat="45.20082" lon="5.7711">
        <ele>240.80000305176</ele>
        <time>2021-07-25T03:35:28.000Z</time>
      </trkpt>
      <trkpt lat="45.20089" lon="5.77119">
        <ele>241</ele>
        <time>2021-07-25T03:35:31.000Z</time>
      </trkpt>
      <trkpt lat="45.2009" lon="5.77123">
        <ele>241.19999694824</ele>
        <time>2021-07-25T03:35:32.000Z</time>
      </trkpt>
      <trkpt lat="45.20091" lon="5.77126">
        <ele>241.19999694824</ele>
        <time>2021-07-25T03:35:33.000Z</time>
      </trkpt>
      <trkpt lat="45.20096" lon="5.77138">
        <ele>241.19999694824</ele>
        <time>2021-07-25T03:35:36.000Z</time>
      </trkpt>
      <trkpt lat="45.20098" lon="5.77147">
        <ele>241.19999694824</ele>
        <time>2021-07-25T03:35:38.000Z</time>
      </trkpt>
      <trkpt lat="45.20102" lon="5.77159">
        <ele>240.39999389648</ele>
        <time>2021-07-25T03:35:41.000Z</time>
      </trkpt>
      <trkpt lat="45.20103" lon="5.77162">
        <ele>240.39999389648</ele>
        <time>2021-07-25T03:35:42.000Z</time>
      </trkpt>
      <trkpt lat="45.20105" lon="5.77185">
        <ele>241.39999389648</ele>
        <time>2021-07-25T03:35:48.000Z</time>
      </trkpt>
      <trkpt lat="45.20103" lon="5.77201">
        <ele>241.60000610352</ele>
        <time>2021-07-25T03:35:52.000Z</time>
      </trkpt>
      <trkpt lat="45.20104" lon="5.77205">
        <ele>241.60000610352</ele>
        <time>2021-07-25T03:35:53.000Z</time>
      </trkpt>
      <trkpt lat="45.20104" lon="5.77209">
        <ele>241.60000610352</ele>
        <time>2021-07-25T03:35:54.000Z</time>
      </trkpt>
      <trkpt lat="45.20107" lon="5.77228">
        <ele>241.80000305176</ele>
        <time>2021-07-25T03:35:59.000Z</time>
      </trkpt>
      <trkpt lat="45.20113" lon="5.7724">
        <ele>241.80000305176</ele>
        <time>2021-07-25T03:36:02.000Z</time>
      </trkpt>
      <trkpt lat="45.20117" lon="5.77247">
        <ele>241.60000610352</ele>
        <time>2021-07-25T03:36:04.000Z</time>
      </trkpt>
      <trkpt lat="45.20118" lon="5.77264">
        <ele>241.60000610352</ele>
        <time>2021-07-25T03:36:08.000Z</time>
      </trkpt>
      <trkpt lat="45.20118" lon="5.77272">
        <ele>241.39999389648</ele>
        <time>2021-07-25T03:36:10.000Z</time>
      </trkpt>
      <trkpt lat="45.20118" lon="5.77279">
        <ele>241.80000305176</ele>
        <time>2021-07-25T03:36:12.000Z</time>
      </trkpt>
      <trkpt lat="45.20121" lon="5.77289">
        <ele>241.80000305176</ele>
        <time>2021-07-25T03:36:15.000Z</time>
      </trkpt>
      <trkpt lat="45.20129" lon="5.77309">
        <ele>241.80000305176</ele>
        <time>2021-07-25T03:36:21.000Z</time>
      </trkpt>
      <trkpt lat="45.20133" lon="5.77327">
        <ele>241.80000305176</ele>
        <time>2021-07-25T03:36:26.000Z</time>
      </trkpt>
      <trkpt lat="45.20138" lon="5.77339">
        <ele>241.60000610352</ele>
        <time>2021-07-25T03:36:29.000Z</time>
      </trkpt>
      <trkpt lat="45.20143" lon="5.77351">
        <ele>242</ele>
        <time>2021-07-25T03:36:32.000Z</time>
      </trkpt>
      <trkpt lat="45.20146" lon="5.77359">
        <ele>242</ele>
        <time>2021-07-25T03:36:34.000Z</time>
      </trkpt>
      <trkpt lat="45.20152" lon="5.77373">
        <ele>242</ele>
        <time>2021-07-25T03:36:38.000Z</time>
      </trkpt>
      <trkpt lat="45.20154" lon="5.77377">
        <ele>242</ele>
        <time>2021-07-25T03:36:39.000Z</time>
      </trkpt>
      <trkpt lat="45.20156" lon="5.77384">
        <ele>242.39999389648</ele>
        <time>2021-07-25T03:36:41.000Z</time>
      </trkpt>
      <trkpt lat="45.20157" lon="5.77393">
        <ele>242.39999389648</ele>
        <time>2021-07-25T03:36:44.000Z</time>
      </trkpt>
      <trkpt lat="45.20158" lon="5.77394">
        <ele>242</ele>
        <time>2021-07-25T03:36:45.000Z</time>
      </trkpt>
      <trkpt lat="45.20163" lon="5.77398">
        <ele>241.60000610352</ele>
        <time>2021-07-25T03:36:48.000Z</time>
      </trkpt>
      <trkpt lat="45.20163" lon="5.774">
        <ele>241.60000610352</ele>
        <time>2021-07-25T03:36:49.000Z</time>
      </trkpt>
      <trkpt lat="45.20161" lon="5.77412">
        <ele>242</ele>
        <time>2021-07-25T03:36:52.000Z</time>
      </trkpt>
      <trkpt lat="45.20157" lon="5.77428">
        <ele>241.80000305176</ele>
        <time>2021-07-25T03:36:57.000Z</time>
      </trkpt>
      <trkpt lat="45.20155" lon="5.7743">
        <ele>242</ele>
        <time>2021-07-25T03:36:58.000Z</time>
      </trkpt>
      <trkpt lat="45.2015" lon="5.77439">
        <ele>242.60000610352</ele>
        <time>2021-07-25T03:37:01.000Z</time>
      </trkpt>
      <trkpt lat="45.20149" lon="5.77446">
        <ele>242.60000610352</ele>
        <time>2021-07-25T03:37:03.000Z</time>
      </trkpt>
      <trkpt lat="45.20148" lon="5.77463">
        <ele>242.19999694824</ele>
        <time>2021-07-25T03:37:07.000Z</time>
      </trkpt>
      <trkpt lat="45.20148" lon="5.77466">
        <ele>242.19999694824</ele>
        <time>2021-07-25T03:37:08.000Z</time>
      </trkpt>
      <trkpt lat="45.20148" lon="5.77491">
        <ele>242</ele>
        <time>2021-07-25T03:37:14.000Z</time>
      </trkpt>
      <trkpt lat="45.20147" lon="5.77495">
        <ele>242</ele>
        <time>2021-07-25T03:37:15.000Z</time>
      </trkpt>
      <trkpt lat="45.20145" lon="5.77524">
        <ele>241.80000305176</ele>
        <time>2021-07-25T03:37:22.000Z</time>
      </trkpt>
      <trkpt lat="45.20142" lon="5.77544">
        <ele>242.19999694824</ele>
        <time>2021-07-25T03:37:27.000Z</time>
      </trkpt>
      <trkpt lat="45.20139" lon="5.77559">
        <ele>242.19999694824</ele>
        <time>2021-07-25T03:37:31.000Z</time>
      </trkpt>
      <trkpt lat="45.20136" lon="5.77572">
        <ele>242.19999694824</ele>
        <time>2021-07-25T03:37:34.000Z</time>
      </trkpt>
      <trkpt lat="45.20134" lon="5.7758">
        <ele>242.19999694824</ele>
        <time>2021-07-25T03:37:36.000Z</time>
      </trkpt>
      <trkpt lat="45.20132" lon="5.77592">
        <ele>242.39999389648</ele>
        <time>2021-07-25T03:37:39.000Z</time>
      </trkpt>
      <trkpt lat="45.20132" lon="5.77595">
        <ele>242.60000610352</ele>
        <time>2021-07-25T03:37:40.000Z</time>
      </trkpt>
      <trkpt lat="45.20127" lon="5.77614">
        <ele>242.60000610352</ele>
        <time>2021-07-25T03:37:45.000Z</time>
      </trkpt>
      <trkpt lat="45.20124" lon="5.77641">
        <ele>242.19999694824</ele>
        <time>2021-07-25T03:37:52.000Z</time>
      </trkpt>
      <trkpt lat="45.20123" lon="5.77649">
        <ele>242.19999694824</ele>
        <time>2021-07-25T03:37:54.000Z</time>
      </trkpt>
      <trkpt lat="45.20121" lon="5.77661">
        <ele>242.39999389648</ele>
        <time>2021-07-25T03:37:57.000Z</time>
      </trkpt>
      <trkpt lat="45.20116" lon="5.77684">
        <ele>242.60000610352</ele>
        <time>2021-07-25T03:38:04.000Z</time>
      </trkpt>
      <trkpt lat="45.20116" lon="5.77706">
        <ele>242.60000610352</ele>
        <time>2021-07-25T03:38:10.000Z</time>
      </trkpt>
      <trkpt lat="45.20115" lon="5.7771">
        <ele>242.60000610352</ele>
        <time>2021-07-25T03:38:11.000Z</time>
      </trkpt>
      <trkpt lat="45.20113" lon="5.77721">
        <ele>242.39999389648</ele>
        <time>2021-07-25T03:38:14.000Z</time>
      </trkpt>
      <trkpt lat="45.2011" lon="5.77727">
        <ele>242.39999389648</ele>
        <time>2021-07-25T03:38:16.000Z</time>
      </trkpt>
      <trkpt lat="45.20107" lon="5.77737">
        <ele>242.60000610352</ele>
        <time>2021-07-25T03:38:19.000Z</time>
      </trkpt>
      <trkpt lat="45.20105" lon="5.77743">
        <ele>242.60000610352</ele>
        <time>2021-07-25T03:38:21.000Z</time>
      </trkpt>
      <trkpt lat="45.20092" lon="5.77759">
        <ele>242.60000610352</ele>
        <time>2021-07-25T03:38:26.000Z</time>
      </trkpt>
      <trkpt lat="45.2009" lon="5.77762">
        <ele>242.80000305176</ele>
        <time>2021-07-25T03:38:27.000Z</time>
      </trkpt>
      <trkpt lat="45.20083" lon="5.77772">
        <ele>242.39999389648</ele>
        <time>2021-07-25T03:38:31.000Z</time>
      </trkpt>
      <trkpt lat="45.20081" lon="5.77775">
        <ele>242.39999389648</ele>
        <time>2021-07-25T03:38:32.000Z</time>
      </trkpt>
      <trkpt lat="45.20068" lon="5.7779">
        <ele>242.60000610352</ele>
        <time>2021-07-25T03:38:38.000Z</time>
      </trkpt>
      <trkpt lat="45.20056" lon="5.77801">
        <ele>242</ele>
        <time>2021-07-25T03:38:44.000Z</time>
      </trkpt>
      <trkpt lat="45.20042" lon="5.77813">
        <ele>242.60000610352</ele>
        <time>2021-07-25T03:38:51.000Z</time>
      </trkpt>
      <trkpt lat="45.20023" lon="5.77827">
        <ele>242.80000305176</ele>
        <time>2021-07-25T03:38:57.000Z</time>
      </trkpt>
      <trkpt lat="45.20014" lon="5.7784">
        <ele>242.80000305176</ele>
        <time>2021-07-25T03:39:01.000Z</time>
      </trkpt>
      <trkpt lat="45.20002" lon="5.77853">
        <ele>242.60000610352</ele>
        <time>2021-07-25T03:39:05.000Z</time>
      </trkpt>
      <trkpt lat="45.19986" lon="5.77867">
        <ele>242.60000610352</ele>
        <time>2021-07-25T03:39:11.000Z</time>
      </trkpt>
      <trkpt lat="45.1998" lon="5.77875">
        <ele>242.39999389648</ele>
        <time>2021-07-25T03:39:14.000Z</time>
      </trkpt>
      <trkpt lat="45.19975" lon="5.77879">
        <ele>242.39999389648</ele>
        <time>2021-07-25T03:39:16.000Z</time>
      </trkpt>
      <trkpt lat="45.19967" lon="5.77886">
        <ele>242.19999694824</ele>
        <time>2021-07-25T03:39:19.000Z</time>
      </trkpt>
      <trkpt lat="45.19955" lon="5.77899">
        <ele>242.60000610352</ele>
        <time>2021-07-25T03:39:25.000Z</time>
      </trkpt>
      <trkpt lat="45.19954" lon="5.779">
        <ele>242.39999389648</ele>
        <time>2021-07-25T03:39:29.000Z</time>
      </trkpt>
      <trkpt lat="45.19956" lon="5.77896">
        <ele>242.39999389648</ele>
        <time>2021-07-25T03:39:32.000Z</time>
      </trkpt>
      <trkpt lat="45.19959" lon="5.77893">
        <ele>242.39999389648</ele>
        <time>2021-07-25T03:39:36.000Z</time>
      </trkpt>
      <trkpt lat="45.1996" lon="5.77892">
        <ele>242.39999389648</ele>
        <time>2021-07-25T03:39:44.000Z</time>
      </trkpt>
      <trkpt lat="45.1996" lon="5.77892">
        <ele>242.39999389648</ele>
        <time>2021-07-25T03:39:46.000Z</time>
      </trkpt>
      <trkpt lat="45.1996" lon="5.77892">
        <ele>242.39999389648</ele>
        <time>2021-07-25T03:39:47.000Z</time>
      </trkpt>
      <trkpt lat="45.1996" lon="5.77892">
        <ele>242.39999389648</ele>
        <time>2021-07-25T03:39:48.000Z</time>
      </trkpt>
      <trkpt lat="45.19959" lon="5.77892">
        <ele>242.39999389648</ele>
        <time>2021-07-25T03:39:50.000Z</time>
      </trkpt>
      <trkpt lat="45.1996" lon="5.77887">
        <ele>242.39999389648</ele>
        <time>2021-07-25T03:39:52.000Z</time>
      </trkpt>
      <trkpt lat="45.19962" lon="5.77883">
        <ele>242.39999389648</ele>
        <time>2021-07-25T03:39:53.000Z</time>
      </trkpt>
      <trkpt lat="45.19964" lon="5.7788">
        <ele>242.39999389648</ele>
        <time>2021-07-25T03:39:54.000Z</time>
      </trkpt>
      <trkpt lat="45.1997" lon="5.77869">
        <ele>242.39999389648</ele>
        <time>2021-07-25T03:39:57.000Z</time>
      </trkpt>
      <trkpt lat="45.19971" lon="5.77865">
        <ele>242.39999389648</ele>
        <time>2021-07-25T03:39:58.000Z</time>
      </trkpt>
      <trkpt lat="45.19983" lon="5.77843">
        <ele>242.80000305176</ele>
        <time>2021-07-25T03:40:05.000Z</time>
      </trkpt>
      <trkpt lat="45.19985" lon="5.77838">
        <ele>242.80000305176</ele>
        <time>2021-07-25T03:40:07.000Z</time>
      </trkpt>
      <trkpt lat="45.19989" lon="5.77832">
        <ele>242.80000305176</ele>
        <time>2021-07-25T03:40:09.000Z</time>
      </trkpt>
      <trkpt lat="45.19992" lon="5.77826">
        <ele>242.80000305176</ele>
        <time>2021-07-25T03:40:11.000Z</time>
      </trkpt>
      <trkpt lat="45.19993" lon="5.77824">
        <ele>242.80000305176</ele>
        <time>2021-07-25T03:40:12.000Z</time>
      </trkpt>
      <trkpt lat="45.19995" lon="5.77822">
        <ele>242.80000305176</ele>
        <time>2021-07-25T03:40:13.000Z</time>
      </trkpt>
      <trkpt lat="45.19998" lon="5.77819">
        <ele>242.80000305176</ele>
        <time>2021-07-25T03:40:14.000Z</time>
      </trkpt>
      <trkpt lat="45.20002" lon="5.77816">
        <ele>242.80000305176</ele>
        <time>2021-07-25T03:40:16.000Z</time>
      </trkpt>
      <trkpt lat="45.2001" lon="5.7781">
        <ele>243</ele>
        <time>2021-07-25T03:40:19.000Z</time>
      </trkpt>
      <trkpt lat="45.20016" lon="5.77799">
        <ele>243</ele>
        <time>2021-07-25T03:40:23.000Z</time>
      </trkpt>
      <trkpt lat="45.2002" lon="5.77793">
        <ele>243</ele>
        <time>2021-07-25T03:40:25.000Z</time>
      </trkpt>
      <trkpt lat="45.20023" lon="5.77787">
        <ele>242.80000305176</ele>
        <time>2021-07-25T03:40:27.000Z</time>
      </trkpt>
      <trkpt lat="45.20029" lon="5.77778">
        <ele>242.80000305176</ele>
        <time>2021-07-25T03:40:30.000Z</time>
      </trkpt>
      <trkpt lat="45.20042" lon="5.77758">
        <ele>243</ele>
        <time>2021-07-25T03:40:37.000Z</time>
      </trkpt>
      <trkpt lat="45.20052" lon="5.77745">
        <ele>243.19999694824</ele>
        <time>2021-07-25T03:40:42.000Z</time>
      </trkpt>
      <trkpt lat="45.20061" lon="5.77738">
        <ele>243.19999694824</ele>
        <time>2021-07-25T03:40:46.000Z</time>
      </trkpt>
      <trkpt lat="45.20065" lon="5.77733">
        <ele>243</ele>
        <time>2021-07-25T03:40:48.000Z</time>
      </trkpt>
      <trkpt lat="45.20069" lon="5.77728">
        <ele>243</ele>
        <time>2021-07-25T03:40:50.000Z</time>
      </trkpt>
      <trkpt lat="45.20073" lon="5.77718">
        <ele>243</ele>
        <time>2021-07-25T03:40:53.000Z</time>
      </trkpt>
      <trkpt lat="45.20074" lon="5.77715">
        <ele>243.19999694824</ele>
        <time>2021-07-25T03:40:54.000Z</time>
      </trkpt>
      <trkpt lat="45.20086" lon="5.77702">
        <ele>243</ele>
        <time>2021-07-25T03:41:00.000Z</time>
      </trkpt>
      <trkpt lat="45.20089" lon="5.77696">
        <ele>242.80000305176</ele>
        <time>2021-07-25T03:41:02.000Z</time>
      </trkpt>
      <trkpt lat="45.20095" lon="5.77682">
        <ele>243.39999389648</ele>
        <time>2021-07-25T03:41:07.000Z</time>
      </trkpt>
      <trkpt lat="45.20098" lon="5.77677">
        <ele>243.39999389648</ele>
        <time>2021-07-25T03:41:09.000Z</time>
      </trkpt>
      <trkpt lat="45.20106" lon="5.77651">
        <ele>243</ele>
        <time>2021-07-25T03:41:17.000Z</time>
      </trkpt>
      <trkpt lat="45.20108" lon="5.77645">
        <ele>243</ele>
        <time>2021-07-25T03:41:19.000Z</time>
      </trkpt>
      <trkpt lat="45.20116" lon="5.77622">
        <ele>243</ele>
        <time>2021-07-25T03:41:26.000Z</time>
      </trkpt>
      <trkpt lat="45.20123" lon="5.77597">
        <ele>243.19999694824</ele>
        <time>2021-07-25T03:41:33.000Z</time>
      </trkpt>
      <trkpt lat="45.20124" lon="5.77593">
        <ele>243.19999694824</ele>
        <time>2021-07-25T03:41:34.000Z</time>
      </trkpt>
      <trkpt lat="45.20129" lon="5.77566">
        <ele>243</ele>
        <time>2021-07-25T03:41:41.000Z</time>
      </trkpt>
      <trkpt lat="45.20129" lon="5.77562">
        <ele>243</ele>
        <time>2021-07-25T03:41:42.000Z</time>
      </trkpt>
      <trkpt lat="45.20131" lon="5.77543">
        <ele>243</ele>
        <time>2021-07-25T03:41:47.000Z</time>
      </trkpt>
      <trkpt lat="45.20132" lon="5.77536">
        <ele>243</ele>
        <time>2021-07-25T03:41:49.000Z</time>
      </trkpt>
      <trkpt lat="45.20134" lon="5.77513">
        <ele>242.60000610352</ele>
        <time>2021-07-25T03:41:55.000Z</time>
      </trkpt>
      <trkpt lat="45.20133" lon="5.7749">
        <ele>242.80000305176</ele>
        <time>2021-07-25T03:42:01.000Z</time>
      </trkpt>
      <trkpt lat="45.20135" lon="5.77463">
        <ele>242.80000305176</ele>
        <time>2021-07-25T03:42:08.000Z</time>
      </trkpt>
      <trkpt lat="45.20135" lon="5.77459">
        <ele>242.80000305176</ele>
        <time>2021-07-25T03:42:09.000Z</time>
      </trkpt>
      <trkpt lat="45.20139" lon="5.77438">
        <ele>242.80000305176</ele>
        <time>2021-07-25T03:42:15.000Z</time>
      </trkpt>
      <trkpt lat="45.20143" lon="5.7743">
        <ele>243</ele>
        <time>2021-07-25T03:42:18.000Z</time>
      </trkpt>
      <trkpt lat="45.20147" lon="5.77426">
        <ele>243.39999389648</ele>
        <time>2021-07-25T03:42:20.000Z</time>
      </trkpt>
      <trkpt lat="45.20153" lon="5.77423">
        <ele>243</ele>
        <time>2021-07-25T03:42:22.000Z</time>
      </trkpt>
      <trkpt lat="45.20164" lon="5.77419">
        <ele>241.80000305176</ele>
        <time>2021-07-25T03:42:26.000Z</time>
      </trkpt>
      <trkpt lat="45.20168" lon="5.77417">
        <ele>241.80000305176</ele>
        <time>2021-07-25T03:42:28.000Z</time>
      </trkpt>
      <trkpt lat="45.20169" lon="5.77409">
        <ele>242</ele>
        <time>2021-07-25T03:42:32.000Z</time>
      </trkpt>
      <trkpt lat="45.20168" lon="5.77404">
        <ele>242.19999694824</ele>
        <time>2021-07-25T03:42:34.000Z</time>
      </trkpt>
      <trkpt lat="45.20164" lon="5.77399">
        <ele>241.39999389648</ele>
        <time>2021-07-25T03:42:37.000Z</time>
      </trkpt>
      <trkpt lat="45.20158" lon="5.77397">
        <ele>241.39999389648</ele>
        <time>2021-07-25T03:42:40.000Z</time>
      </trkpt>
      <trkpt lat="45.20151" lon="5.77396">
        <ele>241.19999694824</ele>
        <time>2021-07-25T03:42:43.000Z</time>
      </trkpt>
      <trkpt lat="45.20137" lon="5.77394">
        <ele>241.60000610352</ele>
        <time>2021-07-25T03:42:49.000Z</time>
      </trkpt>
      <trkpt lat="45.20132" lon="5.77388">
        <ele>241.60000610352</ele>
        <time>2021-07-25T03:42:52.000Z</time>
      </trkpt>
      <trkpt lat="45.20129" lon="5.77382">
        <ele>241.60000610352</ele>
        <time>2021-07-25T03:42:54.000Z</time>
      </trkpt>
      <trkpt lat="45.20124" lon="5.77359">
        <ele>241.39999389648</ele>
        <time>2021-07-25T03:43:00.000Z</time>
      </trkpt>
      <trkpt lat="45.20122" lon="5.77346">
        <ele>241.60000610352</ele>
        <time>2021-07-25T03:43:04.000Z</time>
      </trkpt>
      <trkpt lat="45.20121" lon="5.77342">
        <ele>241.60000610352</ele>
        <time>2021-07-25T03:43:05.000Z</time>
      </trkpt>
      <trkpt lat="45.20118" lon="5.77321">
        <ele>241</ele>
        <time>2021-07-25T03:43:11.000Z</time>
      </trkpt>
      <trkpt lat="45.20118" lon="5.77317">
        <ele>241</ele>
        <time>2021-07-25T03:43:12.000Z</time>
      </trkpt>
      <trkpt lat="45.20114" lon="5.77303">
        <ele>241</ele>
        <time>2021-07-25T03:43:16.000Z</time>
      </trkpt>
      <trkpt lat="45.20113" lon="5.77299">
        <ele>241.19999694824</ele>
        <time>2021-07-25T03:43:17.000Z</time>
      </trkpt>
      <trkpt lat="45.20113" lon="5.77296">
        <ele>241</ele>
        <time>2021-07-25T03:43:18.000Z</time>
      </trkpt>
      <trkpt lat="45.2011" lon="5.77269">
        <ele>241</ele>
        <time>2021-07-25T03:43:24.000Z</time>
      </trkpt>
      <trkpt lat="45.20109" lon="5.77266">
        <ele>241</ele>
        <time>2021-07-25T03:43:25.000Z</time>
      </trkpt>
      <trkpt lat="45.20107" lon="5.77244">
        <ele>241.39999389648</ele>
        <time>2021-07-25T03:43:30.000Z</time>
      </trkpt>
      <trkpt lat="45.20106" lon="5.77233">
        <ele>241.39999389648</ele>
        <time>2021-07-25T03:43:33.000Z</time>
      </trkpt>
      <trkpt lat="45.20103" lon="5.77217">
        <ele>241</ele>
        <time>2021-07-25T03:43:38.000Z</time>
      </trkpt>
      <trkpt lat="45.20098" lon="5.77205">
        <ele>240.80000305176</ele>
        <time>2021-07-25T03:43:42.000Z</time>
      </trkpt>
      <trkpt lat="45.20097" lon="5.77201">
        <ele>240.80000305176</ele>
        <time>2021-07-25T03:43:43.000Z</time>
      </trkpt>
      <trkpt lat="45.20095" lon="5.77197">
        <ele>240.80000305176</ele>
        <time>2021-07-25T03:43:44.000Z</time>
      </trkpt>
      <trkpt lat="45.20086" lon="5.77175">
        <ele>240.19999694824</ele>
        <time>2021-07-25T03:43:50.000Z</time>
      </trkpt>
      <trkpt lat="45.20083" lon="5.77168">
        <ele>240.19999694824</ele>
        <time>2021-07-25T03:43:52.000Z</time>
      </trkpt>
      <trkpt lat="45.20071" lon="5.77146">
        <ele>240.19999694824</ele>
        <time>2021-07-25T03:43:59.000Z</time>
      </trkpt>
      <trkpt lat="45.20067" lon="5.77141">
        <ele>240.19999694824</ele>
        <time>2021-07-25T03:44:01.000Z</time>
      </trkpt>
      <trkpt lat="45.20052" lon="5.77124">
        <ele>240</ele>
        <time>2021-07-25T03:44:08.000Z</time>
      </trkpt>
      <trkpt lat="45.2005" lon="5.7712">
        <ele>240</ele>
        <time>2021-07-25T03:44:09.000Z</time>
      </trkpt>
      <trkpt lat="45.20038" lon="5.77103">
        <ele>240.60000610352</ele>
        <time>2021-07-25T03:44:15.000Z</time>
      </trkpt>
      <trkpt lat="45.20027" lon="5.77093">
        <ele>240.80000305176</ele>
        <time>2021-07-25T03:44:20.000Z</time>
      </trkpt>
      <trkpt lat="45.20011" lon="5.7708">
        <ele>240.39999389648</ele>
        <time>2021-07-25T03:44:26.000Z</time>
      </trkpt>
      <trkpt lat="45.20009" lon="5.77078">
        <ele>240.39999389648</ele>
        <time>2021-07-25T03:44:27.000Z</time>
      </trkpt>
      <trkpt lat="45.19994" lon="5.77064">
        <ele>240</ele>
        <time>2021-07-25T03:44:33.000Z</time>
      </trkpt>
      <trkpt lat="45.19978" lon="5.77052">
        <ele>240.19999694824</ele>
        <time>2021-07-25T03:44:40.000Z</time>
      </trkpt>
      <trkpt lat="45.1996" lon="5.77039">
        <ele>240.39999389648</ele>
        <time>2021-07-25T03:44:47.000Z</time>
      </trkpt>
      <trkpt lat="45.19955" lon="5.77035">
        <ele>240.19999694824</ele>
        <time>2021-07-25T03:44:49.000Z</time>
      </trkpt>
      <trkpt lat="45.19941" lon="5.77024">
        <ele>240.39999389648</ele>
        <time>2021-07-25T03:44:55.000Z</time>
      </trkpt>
      <trkpt lat="45.19939" lon="5.77022">
        <ele>240.39999389648</ele>
        <time>2021-07-25T03:44:56.000Z</time>
      </trkpt>
      <trkpt lat="45.19925" lon="5.77006">
        <ele>240.60000610352</ele>
        <time>2021-07-25T03:45:03.000Z</time>
      </trkpt>
      <trkpt lat="45.19921" lon="5.77001">
        <ele>240.80000305176</ele>
        <time>2021-07-25T03:45:05.000Z</time>
      </trkpt>
      <trkpt lat="45.19907" lon="5.76983">
        <ele>241.39999389648</ele>
        <time>2021-07-25T03:45:12.000Z</time>
      </trkpt>
      <trkpt lat="45.19903" lon="5.76978">
        <ele>241.39999389648</ele>
        <time>2021-07-25T03:45:14.000Z</time>
      </trkpt>
      <trkpt lat="45.19894" lon="5.76967">
        <ele>239.60000610352</ele>
        <time>2021-07-25T03:45:19.000Z</time>
      </trkpt>
      <trkpt lat="45.1989" lon="5.7696">
        <ele>239.19999694824</ele>
        <time>2021-07-25T03:45:22.000Z</time>
      </trkpt>
      <trkpt lat="45.19886" lon="5.76955">
        <ele>239</ele>
        <time>2021-07-25T03:45:24.000Z</time>
      </trkpt>
      <trkpt lat="45.19879" lon="5.76944">
        <ele>239.60000610352</ele>
        <time>2021-07-25T03:45:28.000Z</time>
      </trkpt>
      <trkpt lat="45.19872" lon="5.7693">
        <ele>240.60000610352</ele>
        <time>2021-07-25T03:45:33.000Z</time>
      </trkpt>
      <trkpt lat="45.1987" lon="5.76928">
        <ele>241</ele>
        <time>2021-07-25T03:45:34.000Z</time>
      </trkpt>
      <trkpt lat="45.19861" lon="5.76906">
        <ele>241.39999389648</ele>
        <time>2021-07-25T03:45:40.000Z</time>
      </trkpt>
      <trkpt lat="45.19848" lon="5.76889">
        <ele>241.19999694824</ele>
        <time>2021-07-25T03:45:47.000Z</time>
      </trkpt>
      <trkpt lat="45.19845" lon="5.76884">
        <ele>241.19999694824</ele>
        <time>2021-07-25T03:45:49.000Z</time>
      </trkpt>
      <trkpt lat="45.19841" lon="5.76874">
        <ele>241.19999694824</ele>
        <time>2021-07-25T03:45:52.000Z</time>
      </trkpt>
      <trkpt lat="45.1983" lon="5.76849">
        <ele>241.39999389648</ele>
        <time>2021-07-25T03:46:00.000Z</time>
      </trkpt>
      <trkpt lat="45.19829" lon="5.76845">
        <ele>241.19999694824</ele>
        <time>2021-07-25T03:46:01.000Z</time>
      </trkpt>
      <trkpt lat="45.19817" lon="5.76828">
        <ele>241.19999694824</ele>
        <time>2021-07-25T03:46:07.000Z</time>
      </trkpt>
      <trkpt lat="45.19806" lon="5.76807">
        <ele>241.19999694824</ele>
        <time>2021-07-25T03:46:13.000Z</time>
      </trkpt>
      <trkpt lat="45.19803" lon="5.768">
        <ele>241.39999389648</ele>
        <time>2021-07-25T03:46:15.000Z</time>
      </trkpt>
      <trkpt lat="45.19793" lon="5.76779">
        <ele>240.80000305176</ele>
        <time>2021-07-25T03:46:21.000Z</time>
      </trkpt>
      <trkpt lat="45.19791" lon="5.76775">
        <ele>240.80000305176</ele>
        <time>2021-07-25T03:46:22.000Z</time>
      </trkpt>
      <trkpt lat="45.1978" lon="5.76752">
        <ele>240.80000305176</ele>
        <time>2021-07-25T03:46:29.000Z</time>
      </trkpt>
      <trkpt lat="45.19778" lon="5.76745">
        <ele>240.80000305176</ele>
        <time>2021-07-25T03:46:31.000Z</time>
      </trkpt>
      <trkpt lat="45.19767" lon="5.76723">
        <ele>241</ele>
        <time>2021-07-25T03:46:38.000Z</time>
      </trkpt>
      <trkpt lat="45.19765" lon="5.7672">
        <ele>241</ele>
        <time>2021-07-25T03:46:39.000Z</time>
      </trkpt>
      <trkpt lat="45.19753" lon="5.76697">
        <ele>241</ele>
        <time>2021-07-25T03:46:46.000Z</time>
      </trkpt>
      <trkpt lat="45.19751" lon="5.76693">
        <ele>241</ele>
        <time>2021-07-25T03:46:47.000Z</time>
      </trkpt>
      <trkpt lat="45.19742" lon="5.76675">
        <ele>241</ele>
        <time>2021-07-25T03:46:53.000Z</time>
      </trkpt>
      <trkpt lat="45.1973" lon="5.76654">
        <ele>240.80000305176</ele>
        <time>2021-07-25T03:47:00.000Z</time>
      </trkpt>
      <trkpt lat="45.19728" lon="5.7665">
        <ele>240.80000305176</ele>
        <time>2021-07-25T03:47:01.000Z</time>
      </trkpt>
      <trkpt lat="45.19718" lon="5.76626">
        <ele>240.80000305176</ele>
        <time>2021-07-25T03:47:08.000Z</time>
      </trkpt>
      <trkpt lat="45.19711" lon="5.76612">
        <ele>240.60000610352</ele>
        <time>2021-07-25T03:47:12.000Z</time>
      </trkpt>
      <trkpt lat="45.19705" lon="5.76601">
        <ele>241</ele>
        <time>2021-07-25T03:47:16.000Z</time>
      </trkpt>
      <trkpt lat="45.19697" lon="5.76583">
        <ele>240.60000610352</ele>
        <time>2021-07-25T03:47:21.000Z</time>
      </trkpt>
      <trkpt lat="45.19696" lon="5.76579">
        <ele>240.80000305176</ele>
        <time>2021-07-25T03:47:22.000Z</time>
      </trkpt>
      <trkpt lat="45.19695" lon="5.76576">
        <ele>240.60000610352</ele>
        <time>2021-07-25T03:47:23.000Z</time>
      </trkpt>
      <trkpt lat="45.19693" lon="5.76572">
        <ele>240.60000610352</ele>
        <time>2021-07-25T03:47:24.000Z</time>
      </trkpt>
      <trkpt lat="45.19683" lon="5.76553">
        <ele>240.80000305176</ele>
        <time>2021-07-25T03:47:30.000Z</time>
      </trkpt>
      <trkpt lat="45.19681" lon="5.76546">
        <ele>240.80000305176</ele>
        <time>2021-07-25T03:47:32.000Z</time>
      </trkpt>
      <trkpt lat="45.19672" lon="5.76524">
        <ele>240.39999389648</ele>
        <time>2021-07-25T03:47:39.000Z</time>
      </trkpt>
      <trkpt lat="45.19666" lon="5.76498">
        <ele>240.60000610352</ele>
        <time>2021-07-25T03:47:46.000Z</time>
      </trkpt>
      <trkpt lat="45.19664" lon="5.76488">
        <ele>240.60000610352</ele>
        <time>2021-07-25T03:47:49.000Z</time>
      </trkpt>
      <trkpt lat="45.19655" lon="5.76462">
        <ele>240.60000610352</ele>
        <time>2021-07-25T03:47:56.000Z</time>
      </trkpt>
      <trkpt lat="45.1965" lon="5.76438">
        <ele>240.19999694824</ele>
        <time>2021-07-25T03:48:02.000Z</time>
      </trkpt>
      <trkpt lat="45.19648" lon="5.76431">
        <ele>240.19999694824</ele>
        <time>2021-07-25T03:48:04.000Z</time>
      </trkpt>
      <trkpt lat="45.19645" lon="5.76408">
        <ele>240.19999694824</ele>
        <time>2021-07-25T03:48:10.000Z</time>
      </trkpt>
      <trkpt lat="45.19641" lon="5.76379">
        <ele>240.39999389648</ele>
        <time>2021-07-25T03:48:17.000Z</time>
      </trkpt>
      <trkpt lat="45.1964" lon="5.76375">
        <ele>240.39999389648</ele>
        <time>2021-07-25T03:48:18.000Z</time>
      </trkpt>
      <trkpt lat="45.19637" lon="5.76347">
        <ele>240.39999389648</ele>
        <time>2021-07-25T03:48:25.000Z</time>
      </trkpt>
      <trkpt lat="45.19636" lon="5.7634">
        <ele>240.19999694824</ele>
        <time>2021-07-25T03:48:27.000Z</time>
      </trkpt>
      <trkpt lat="45.19632" lon="5.76313">
        <ele>239.80000305176</ele>
        <time>2021-07-25T03:48:34.000Z</time>
      </trkpt>
      <trkpt lat="45.19628" lon="5.76289">
        <ele>240.19999694824</ele>
        <time>2021-07-25T03:48:40.000Z</time>
      </trkpt>
      <trkpt lat="45.19626" lon="5.76264">
        <ele>240.19999694824</ele>
        <time>2021-07-25T03:48:46.000Z</time>
      </trkpt>
      <trkpt lat="45.19625" lon="5.76235">
        <ele>240</ele>
        <time>2021-07-25T03:48:52.000Z</time>
      </trkpt>
      <trkpt lat="45.19625" lon="5.76231">
        <ele>240</ele>
        <time>2021-07-25T03:48:53.000Z</time>
      </trkpt>
      <trkpt lat="45.19625" lon="5.76203">
        <ele>240</ele>
        <time>2021-07-25T03:48:59.000Z</time>
      </trkpt>
      <trkpt lat="45.19625" lon="5.76199">
        <ele>240</ele>
        <time>2021-07-25T03:49:00.000Z</time>
      </trkpt>
      <trkpt lat="45.19629" lon="5.76174">
        <ele>240</ele>
        <time>2021-07-25T03:49:06.000Z</time>
      </trkpt>
      <trkpt lat="45.19629" lon="5.76167">
        <ele>240.19999694824</ele>
        <time>2021-07-25T03:49:08.000Z</time>
      </trkpt>
      <trkpt lat="45.19632" lon="5.76139">
        <ele>240</ele>
        <time>2021-07-25T03:49:15.000Z</time>
      </trkpt>
      <trkpt lat="45.19632" lon="5.76135">
        <ele>240</ele>
        <time>2021-07-25T03:49:16.000Z</time>
      </trkpt>
      <trkpt lat="45.19634" lon="5.76106">
        <ele>240</ele>
        <time>2021-07-25T03:49:23.000Z</time>
      </trkpt>
      <trkpt lat="45.19638" lon="5.76079">
        <ele>240.19999694824</ele>
        <time>2021-07-25T03:49:29.000Z</time>
      </trkpt>
      <trkpt lat="45.19639" lon="5.76074">
        <ele>240.19999694824</ele>
        <time>2021-07-25T03:49:30.000Z</time>
      </trkpt>
      <trkpt lat="45.19641" lon="5.76053">
        <ele>240</ele>
        <time>2021-07-25T03:49:35.000Z</time>
      </trkpt>
      <trkpt lat="45.19645" lon="5.76026">
        <ele>240</ele>
        <time>2021-07-25T03:49:42.000Z</time>
      </trkpt>
      <trkpt lat="45.19646" lon="5.76018">
        <ele>240.60000610352</ele>
        <time>2021-07-25T03:49:44.000Z</time>
      </trkpt>
      <trkpt lat="45.1965" lon="5.75996">
        <ele>240</ele>
        <time>2021-07-25T03:49:50.000Z</time>
      </trkpt>
      <trkpt lat="45.19656" lon="5.75968">
        <ele>240.19999694824</ele>
        <time>2021-07-25T03:49:57.000Z</time>
      </trkpt>
      <trkpt lat="45.19659" lon="5.75949">
        <ele>240.19999694824</ele>
        <time>2021-07-25T03:50:01.000Z</time>
      </trkpt>
      <trkpt lat="45.19662" lon="5.75941">
        <ele>240</ele>
        <time>2021-07-25T03:50:03.000Z</time>
      </trkpt>
      <trkpt lat="45.19664" lon="5.75933">
        <ele>240</ele>
        <time>2021-07-25T03:50:05.000Z</time>
      </trkpt>
      <trkpt lat="45.19671" lon="5.75906">
        <ele>240</ele>
        <time>2021-07-25T03:50:12.000Z</time>
      </trkpt>
      <trkpt lat="45.19672" lon="5.75902">
        <ele>240</ele>
        <time>2021-07-25T03:50:13.000Z</time>
      </trkpt>
      <trkpt lat="45.19677" lon="5.75887">
        <ele>240.19999694824</ele>
        <time>2021-07-25T03:50:17.000Z</time>
      </trkpt>
      <trkpt lat="45.19681" lon="5.75881">
        <ele>240.19999694824</ele>
        <time>2021-07-25T03:50:19.000Z</time>
      </trkpt>
      <trkpt lat="45.1969" lon="5.75855">
        <ele>240</ele>
        <time>2021-07-25T03:50:26.000Z</time>
      </trkpt>
      <trkpt lat="45.19691" lon="5.75851">
        <ele>240</ele>
        <time>2021-07-25T03:50:27.000Z</time>
      </trkpt>
      <trkpt lat="45.19701" lon="5.75827">
        <ele>240</ele>
        <time>2021-07-25T03:50:34.000Z</time>
      </trkpt>
      <trkpt lat="45.19704" lon="5.7582">
        <ele>240</ele>
        <time>2021-07-25T03:50:36.000Z</time>
      </trkpt>
      <trkpt lat="45.19712" lon="5.75796">
        <ele>240</ele>
        <time>2021-07-25T03:50:43.000Z</time>
      </trkpt>
      <trkpt lat="45.19713" lon="5.75793">
        <ele>240.19999694824</ele>
        <time>2021-07-25T03:50:44.000Z</time>
      </trkpt>
      <trkpt lat="45.19722" lon="5.75766">
        <ele>240</ele>
        <time>2021-07-25T03:50:51.000Z</time>
      </trkpt>
      <trkpt lat="45.19725" lon="5.75759">
        <ele>240</ele>
        <time>2021-07-25T03:50:53.000Z</time>
      </trkpt>
      <trkpt lat="45.19733" lon="5.75744">
        <ele>239.60000610352</ele>
        <time>2021-07-25T03:50:58.000Z</time>
      </trkpt>
      <trkpt lat="45.19739" lon="5.75736">
        <ele>239.80000305176</ele>
        <time>2021-07-25T03:51:01.000Z</time>
      </trkpt>
      <trkpt lat="45.19746" lon="5.75711">
        <ele>240</ele>
        <time>2021-07-25T03:51:08.000Z</time>
      </trkpt>
      <trkpt lat="45.19746" lon="5.75708">
        <ele>240</ele>
        <time>2021-07-25T03:51:09.000Z</time>
      </trkpt>
      <trkpt lat="45.19747" lon="5.75678">
        <ele>240</ele>
        <time>2021-07-25T03:51:16.000Z</time>
      </trkpt>
      <trkpt lat="45.19748" lon="5.75674">
        <ele>240</ele>
        <time>2021-07-25T03:51:17.000Z</time>
      </trkpt>
      <trkpt lat="45.19753" lon="5.75653">
        <ele>239.80000305176</ele>
        <time>2021-07-25T03:51:22.000Z</time>
      </trkpt>
      <trkpt lat="45.19756" lon="5.7564">
        <ele>239.80000305176</ele>
        <time>2021-07-25T03:51:25.000Z</time>
      </trkpt>
      <trkpt lat="45.19764" lon="5.75614">
        <ele>239.80000305176</ele>
        <time>2021-07-25T03:51:32.000Z</time>
      </trkpt>
      <trkpt lat="45.19768" lon="5.75599">
        <ele>240</ele>
        <time>2021-07-25T03:51:36.000Z</time>
      </trkpt>
      <trkpt lat="45.19771" lon="5.75582">
        <ele>240</ele>
        <time>2021-07-25T03:51:40.000Z</time>
      </trkpt>
      <trkpt lat="45.19772" lon="5.75572">
        <ele>240.19999694824</ele>
        <time>2021-07-25T03:51:43.000Z</time>
      </trkpt>
      <trkpt lat="45.19773" lon="5.75562">
        <ele>240.19999694824</ele>
        <time>2021-07-25T03:51:46.000Z</time>
      </trkpt>
      <trkpt lat="45.19773" lon="5.75558">
        <ele>240.19999694824</ele>
        <time>2021-07-25T03:51:47.000Z</time>
      </trkpt>
      <trkpt lat="45.19771" lon="5.75544">
        <ele>240</ele>
        <time>2021-07-25T03:51:51.000Z</time>
      </trkpt>
      <trkpt lat="45.1977" lon="5.75533">
        <ele>239.80000305176</ele>
        <time>2021-07-25T03:51:54.000Z</time>
      </trkpt>
      <trkpt lat="45.19764" lon="5.75508">
        <ele>240</ele>
        <time>2021-07-25T03:52:01.000Z</time>
      </trkpt>
      <trkpt lat="45.19762" lon="5.75501">
        <ele>240</ele>
        <time>2021-07-25T03:52:03.000Z</time>
      </trkpt>
      <trkpt lat="45.19752" lon="5.75479">
        <ele>240.19999694824</ele>
        <time>2021-07-25T03:52:10.000Z</time>
      </trkpt>
      <trkpt lat="45.19739" lon="5.75458">
        <ele>239.80000305176</ele>
        <time>2021-07-25T03:52:17.000Z</time>
      </trkpt>
      <trkpt lat="45.19725" lon="5.75439">
        <ele>240.39999389648</ele>
        <time>2021-07-25T03:52:24.000Z</time>
      </trkpt>
      <trkpt lat="45.19721" lon="5.75434">
        <ele>240</ele>
        <time>2021-07-25T03:52:26.000Z</time>
      </trkpt>
      <trkpt lat="45.19711" lon="5.75417">
        <ele>240.39999389648</ele>
        <time>2021-07-25T03:52:31.000Z</time>
      </trkpt>
      <trkpt lat="45.19707" lon="5.75411">
        <ele>240.19999694824</ele>
        <time>2021-07-25T03:52:33.000Z</time>
      </trkpt>
      <trkpt lat="45.19692" lon="5.75393">
        <ele>240.19999694824</ele>
        <time>2021-07-25T03:52:40.000Z</time>
      </trkpt>
      <trkpt lat="45.1969" lon="5.75391">
        <ele>240.80000305176</ele>
        <time>2021-07-25T03:52:41.000Z</time>
      </trkpt>
      <trkpt lat="45.19682" lon="5.75382">
        <ele>241.39999389648</ele>
        <time>2021-07-25T03:52:46.000Z</time>
      </trkpt>
      <trkpt lat="45.1968" lon="5.75379">
        <ele>242</ele>
        <time>2021-07-25T03:52:48.000Z</time>
      </trkpt>
      <trkpt lat="45.19678" lon="5.75377">
        <ele>242.19999694824</ele>
        <time>2021-07-25T03:52:49.000Z</time>
      </trkpt>
      <trkpt lat="45.19675" lon="5.75374">
        <ele>242.39999389648</ele>
        <time>2021-07-25T03:52:51.000Z</time>
      </trkpt>
      <trkpt lat="45.19674" lon="5.75374">
        <ele>242.80000305176</ele>
        <time>2021-07-25T03:52:52.000Z</time>
      </trkpt>
      <trkpt lat="45.1967" lon="5.75375">
        <ele>242.80000305176</ele>
        <time>2021-07-25T03:52:55.000Z</time>
      </trkpt>
      <trkpt lat="45.19669" lon="5.75378">
        <ele>243.19999694824</ele>
        <time>2021-07-25T03:52:57.000Z</time>
      </trkpt>
      <trkpt lat="45.19659" lon="5.75389">
        <ele>243.39999389648</ele>
        <time>2021-07-25T03:53:03.000Z</time>
      </trkpt>
      <trkpt lat="45.19644" lon="5.75408">
        <ele>244</ele>
        <time>2021-07-25T03:53:10.000Z</time>
      </trkpt>
      <trkpt lat="45.1964" lon="5.75419">
        <ele>243.60000610352</ele>
        <time>2021-07-25T03:53:15.000Z</time>
      </trkpt>
      <trkpt lat="45.19639" lon="5.75421">
        <ele>243.39999389648</ele>
        <time>2021-07-25T03:53:16.000Z</time>
      </trkpt>
      <trkpt lat="45.19632" lon="5.75433">
        <ele>243.19999694824</ele>
        <time>2021-07-25T03:53:21.000Z</time>
      </trkpt>
      <trkpt lat="45.1963" lon="5.75437">
        <ele>242.60000610352</ele>
        <time>2021-07-25T03:53:23.000Z</time>
      </trkpt>
      <trkpt lat="45.19626" lon="5.75438">
        <ele>244</ele>
        <time>2021-07-25T03:53:25.000Z</time>
      </trkpt>
      <trkpt lat="45.1962" lon="5.75437">
        <ele>244</ele>
        <time>2021-07-25T03:53:27.000Z</time>
      </trkpt>
      <trkpt lat="45.19599" lon="5.75428">
        <ele>243.60000610352</ele>
        <time>2021-07-25T03:53:33.000Z</time>
      </trkpt>
      <trkpt lat="45.19596" lon="5.75426">
        <ele>243.60000610352</ele>
        <time>2021-07-25T03:53:34.000Z</time>
      </trkpt>
      <trkpt lat="45.19578" lon="5.7542">
        <ele>242.80000305176</ele>
        <time>2021-07-25T03:53:39.000Z</time>
      </trkpt>
      <trkpt lat="45.19568" lon="5.75416">
        <ele>242.60000610352</ele>
        <time>2021-07-25T03:53:42.000Z</time>
      </trkpt>
      <trkpt lat="45.19551" lon="5.75408">
        <ele>242.39999389648</ele>
        <time>2021-07-25T03:53:48.000Z</time>
      </trkpt>
      <trkpt lat="45.19546" lon="5.75405">
        <ele>242.39999389648</ele>
        <time>2021-07-25T03:53:50.000Z</time>
      </trkpt>
      <trkpt lat="45.19528" lon="5.75398">
        <ele>242.60000610352</ele>
        <time>2021-07-25T03:53:56.000Z</time>
      </trkpt>
      <trkpt lat="45.19526" lon="5.75398">
        <ele>242.80000305176</ele>
        <time>2021-07-25T03:53:57.000Z</time>
      </trkpt>
      <trkpt lat="45.19506" lon="5.75392">
        <ele>242.39999389648</ele>
        <time>2021-07-25T03:54:04.000Z</time>
      </trkpt>
      <trkpt lat="45.195" lon="5.7539">
        <ele>242.19999694824</ele>
        <time>2021-07-25T03:54:06.000Z</time>
      </trkpt>
      <trkpt lat="45.19484" lon="5.75385">
        <ele>242.19999694824</ele>
        <time>2021-07-25T03:54:11.000Z</time>
      </trkpt>
      <trkpt lat="45.19464" lon="5.75379">
        <ele>242.60000610352</ele>
        <time>2021-07-25T03:54:18.000Z</time>
      </trkpt>
      <trkpt lat="45.19459" lon="5.75378">
        <ele>242.60000610352</ele>
        <time>2021-07-25T03:54:20.000Z</time>
      </trkpt>
      <trkpt lat="45.1945" lon="5.75375">
        <ele>242.60000610352</ele>
        <time>2021-07-25T03:54:23.000Z</time>
      </trkpt>
      <trkpt lat="45.19439" lon="5.75372">
        <ele>242.60000610352</ele>
        <time>2021-07-25T03:54:27.000Z</time>
      </trkpt>
      <trkpt lat="45.19428" lon="5.75368">
        <ele>242.60000610352</ele>
        <time>2021-07-25T03:54:31.000Z</time>
      </trkpt>
      <trkpt lat="45.19418" lon="5.75365">
        <ele>242.60000610352</ele>
        <time>2021-07-25T03:54:34.000Z</time>
      </trkpt>
      <trkpt lat="45.19399" lon="5.75359">
        <ele>242.80000305176</ele>
        <time>2021-07-25T03:54:41.000Z</time>
      </trkpt>
      <trkpt lat="45.1939" lon="5.75356">
        <ele>242.80000305176</ele>
        <time>2021-07-25T03:54:44.000Z</time>
      </trkpt>
      <trkpt lat="45.19382" lon="5.75355">
        <ele>243</ele>
        <time>2021-07-25T03:54:47.000Z</time>
      </trkpt>
      <trkpt lat="45.19379" lon="5.75354">
        <ele>243</ele>
        <time>2021-07-25T03:54:48.000Z</time>
      </trkpt>
      <trkpt lat="45.19368" lon="5.75345">
        <ele>243</ele>
        <time>2021-07-25T03:54:53.000Z</time>
      </trkpt>
      <trkpt lat="45.19363" lon="5.75345">
        <ele>242.60000610352</ele>
        <time>2021-07-25T03:54:55.000Z</time>
      </trkpt>
      <trkpt lat="45.19352" lon="5.75344">
        <ele>242.60000610352</ele>
        <time>2021-07-25T03:54:59.000Z</time>
      </trkpt>
      <trkpt lat="45.1934" lon="5.75341">
        <ele>242.60000610352</ele>
        <time>2021-07-25T03:55:03.000Z</time>
      </trkpt>
      <trkpt lat="45.1932" lon="5.75333">
        <ele>242.60000610352</ele>
        <time>2021-07-25T03:55:10.000Z</time>
      </trkpt>
      <trkpt lat="45.19317" lon="5.75333">
        <ele>242.60000610352</ele>
        <time>2021-07-25T03:55:11.000Z</time>
      </trkpt>
      <trkpt lat="45.193" lon="5.75329">
        <ele>242.39999389648</ele>
        <time>2021-07-25T03:55:17.000Z</time>
      </trkpt>
      <trkpt lat="45.19281" lon="5.75326">
        <ele>242.80000305176</ele>
        <time>2021-07-25T03:55:24.000Z</time>
      </trkpt>
      <trkpt lat="45.19263" lon="5.75321">
        <ele>242.60000610352</ele>
        <time>2021-07-25T03:55:30.000Z</time>
      </trkpt>
      <trkpt lat="45.19243" lon="5.75315">
        <ele>242.60000610352</ele>
        <time>2021-07-25T03:55:37.000Z</time>
      </trkpt>
      <trkpt lat="45.1924" lon="5.75315">
        <ele>242.60000610352</ele>
        <time>2021-07-25T03:55:38.000Z</time>
      </trkpt>
      <trkpt lat="45.19227" lon="5.75311">
        <ele>242.80000305176</ele>
        <time>2021-07-25T03:55:43.000Z</time>
      </trkpt>
      <trkpt lat="45.19209" lon="5.75304">
        <ele>242.80000305176</ele>
        <time>2021-07-25T03:55:49.000Z</time>
      </trkpt>
      <trkpt lat="45.1919" lon="5.75294">
        <ele>242.80000305176</ele>
        <time>2021-07-25T03:55:56.000Z</time>
      </trkpt>
      <trkpt lat="45.19171" lon="5.75286">
        <ele>242.80000305176</ele>
        <time>2021-07-25T03:56:03.000Z</time>
      </trkpt>
      <trkpt lat="45.19168" lon="5.75285">
        <ele>242.80000305176</ele>
        <time>2021-07-25T03:56:04.000Z</time>
      </trkpt>
      <trkpt lat="45.19151" lon="5.75275">
        <ele>243</ele>
        <time>2021-07-25T03:56:10.000Z</time>
      </trkpt>
      <trkpt lat="45.19149" lon="5.75274">
        <ele>242.80000305176</ele>
        <time>2021-07-25T03:56:11.000Z</time>
      </trkpt>
      <trkpt lat="45.19132" lon="5.75268">
        <ele>243</ele>
        <time>2021-07-25T03:56:17.000Z</time>
      </trkpt>
      <trkpt lat="45.19114" lon="5.75261">
        <ele>242.80000305176</ele>
        <time>2021-07-25T03:56:23.000Z</time>
      </trkpt>
      <trkpt lat="45.19108" lon="5.75259">
        <ele>242.80000305176</ele>
        <time>2021-07-25T03:56:25.000Z</time>
      </trkpt>
      <trkpt lat="45.19089" lon="5.7525">
        <ele>243</ele>
        <time>2021-07-25T03:56:32.000Z</time>
      </trkpt>
      <trkpt lat="45.19086" lon="5.75249">
        <ele>243</ele>
        <time>2021-07-25T03:56:33.000Z</time>
      </trkpt>
      <trkpt lat="45.19067" lon="5.75241">
        <ele>243</ele>
        <time>2021-07-25T03:56:40.000Z</time>
      </trkpt>
      <trkpt lat="45.19064" lon="5.7524">
        <ele>243.19999694824</ele>
        <time>2021-07-25T03:56:41.000Z</time>
      </trkpt>
      <trkpt lat="45.19061" lon="5.75238">
        <ele>243</ele>
        <time>2021-07-25T03:56:42.000Z</time>
      </trkpt>
      <trkpt lat="45.19042" lon="5.75231">
        <ele>243</ele>
        <time>2021-07-25T03:56:49.000Z</time>
      </trkpt>
      <trkpt lat="45.19038" lon="5.7523">
        <ele>243</ele>
        <time>2021-07-25T03:56:50.000Z</time>
      </trkpt>
      <trkpt lat="45.1902" lon="5.75227">
        <ele>243</ele>
        <time>2021-07-25T03:56:56.000Z</time>
      </trkpt>
      <trkpt lat="45.18999" lon="5.75219">
        <ele>243.19999694824</ele>
        <time>2021-07-25T03:57:03.000Z</time>
      </trkpt>
      <trkpt lat="45.18994" lon="5.75217">
        <ele>243.39999389648</ele>
        <time>2021-07-25T03:57:05.000Z</time>
      </trkpt>
      <trkpt lat="45.18978" lon="5.75204">
        <ele>243.39999389648</ele>
        <time>2021-07-25T03:57:11.000Z</time>
      </trkpt>
      <trkpt lat="45.1897" lon="5.75199">
        <ele>243.19999694824</ele>
        <time>2021-07-25T03:57:14.000Z</time>
      </trkpt>
      <trkpt lat="45.18953" lon="5.75182">
        <ele>243</ele>
        <time>2021-07-25T03:57:21.000Z</time>
      </trkpt>
      <trkpt lat="45.18937" lon="5.75163">
        <ele>243</ele>
        <time>2021-07-25T03:57:28.000Z</time>
      </trkpt>
      <trkpt lat="45.18936" lon="5.7516">
        <ele>243</ele>
        <time>2021-07-25T03:57:29.000Z</time>
      </trkpt>
      <trkpt lat="45.18921" lon="5.75142">
        <ele>243</ele>
        <time>2021-07-25T03:57:35.000Z</time>
      </trkpt>
      <trkpt lat="45.18909" lon="5.75125">
        <ele>243</ele>
        <time>2021-07-25T03:57:41.000Z</time>
      </trkpt>
      <trkpt lat="45.18905" lon="5.75118">
        <ele>243</ele>
        <time>2021-07-25T03:57:43.000Z</time>
      </trkpt>
      <trkpt lat="45.18894" lon="5.75099">
        <ele>243</ele>
        <time>2021-07-25T03:57:49.000Z</time>
      </trkpt>
      <trkpt lat="45.18882" lon="5.75079">
        <ele>243.19999694824</ele>
        <time>2021-07-25T03:57:55.000Z</time>
      </trkpt>
      <trkpt lat="45.18869" lon="5.75057">
        <ele>243.60000610352</ele>
        <time>2021-07-25T03:58:02.000Z</time>
      </trkpt>
      <trkpt lat="45.18866" lon="5.75044">
        <ele>243.60000610352</ele>
        <time>2021-07-25T03:58:05.000Z</time>
      </trkpt>
      <trkpt lat="45.18862" lon="5.75033">
        <ele>243.60000610352</ele>
        <time>2021-07-25T03:58:08.000Z</time>
      </trkpt>
      <trkpt lat="45.18859" lon="5.75019">
        <ele>243.39999389648</ele>
        <time>2021-07-25T03:58:11.000Z</time>
      </trkpt>
      <trkpt lat="45.18857" lon="5.75007">
        <ele>243.19999694824</ele>
        <time>2021-07-25T03:58:14.000Z</time>
      </trkpt>
      <trkpt lat="45.18852" lon="5.74983">
        <ele>243</ele>
        <time>2021-07-25T03:58:20.000Z</time>
      </trkpt>
      <trkpt lat="45.18849" lon="5.74971">
        <ele>243.39999389648</ele>
        <time>2021-07-25T03:58:23.000Z</time>
      </trkpt>
      <trkpt lat="45.18846" lon="5.74955">
        <ele>243.39999389648</ele>
        <time>2021-07-25T03:58:27.000Z</time>
      </trkpt>
      <trkpt lat="45.18843" lon="5.74926">
        <ele>243</ele>
        <time>2021-07-25T03:58:34.000Z</time>
      </trkpt>
      <trkpt lat="45.18841" lon="5.74909">
        <ele>243</ele>
        <time>2021-07-25T03:58:38.000Z</time>
      </trkpt>
      <trkpt lat="45.18841" lon="5.749">
        <ele>243.39999389648</ele>
        <time>2021-07-25T03:58:40.000Z</time>
      </trkpt>
      <trkpt lat="45.18842" lon="5.74877">
        <ele>243.19999694824</ele>
        <time>2021-07-25T03:58:46.000Z</time>
      </trkpt>
      <trkpt lat="45.18842" lon="5.74861">
        <ele>243</ele>
        <time>2021-07-25T03:58:50.000Z</time>
      </trkpt>
      <trkpt lat="45.18842" lon="5.7485">
        <ele>243</ele>
        <time>2021-07-25T03:58:53.000Z</time>
      </trkpt>
      <trkpt lat="45.18841" lon="5.74832">
        <ele>243.39999389648</ele>
        <time>2021-07-25T03:58:57.000Z</time>
      </trkpt>
      <trkpt lat="45.18839" lon="5.74811">
        <ele>243.19999694824</ele>
        <time>2021-07-25T03:59:01.000Z</time>
      </trkpt>
      <trkpt lat="45.18839" lon="5.74807">
        <ele>243.19999694824</ele>
        <time>2021-07-25T03:59:02.000Z</time>
      </trkpt>
      <trkpt lat="45.18837" lon="5.7478">
        <ele>243.19999694824</ele>
        <time>2021-07-25T03:59:08.000Z</time>
      </trkpt>
      <trkpt lat="45.18837" lon="5.74775">
        <ele>243.19999694824</ele>
        <time>2021-07-25T03:59:09.000Z</time>
      </trkpt>
      <trkpt lat="45.18837" lon="5.74759">
        <ele>243.19999694824</ele>
        <time>2021-07-25T03:59:13.000Z</time>
      </trkpt>
      <trkpt lat="45.18835" lon="5.74742">
        <ele>243.19999694824</ele>
        <time>2021-07-25T03:59:17.000Z</time>
      </trkpt>
      <trkpt lat="45.18836" lon="5.74718">
        <ele>243.60000610352</ele>
        <time>2021-07-25T03:59:23.000Z</time>
      </trkpt>
      <trkpt lat="45.18837" lon="5.74695">
        <ele>243.60000610352</ele>
        <time>2021-07-25T03:59:29.000Z</time>
      </trkpt>
      <trkpt lat="45.18839" lon="5.74675">
        <ele>243.60000610352</ele>
        <time>2021-07-25T03:59:34.000Z</time>
      </trkpt>
      <trkpt lat="45.1884" lon="5.74663">
        <ele>243.60000610352</ele>
        <time>2021-07-25T03:59:37.000Z</time>
      </trkpt>
      <trkpt lat="45.1884" lon="5.74646">
        <ele>243.60000610352</ele>
        <time>2021-07-25T03:59:41.000Z</time>
      </trkpt>
      <trkpt lat="45.18842" lon="5.7463">
        <ele>243.80000305176</ele>
        <time>2021-07-25T03:59:44.000Z</time>
      </trkpt>
      <trkpt lat="45.18843" lon="5.74619">
        <ele>243.80000305176</ele>
        <time>2021-07-25T03:59:47.000Z</time>
      </trkpt>
      <trkpt lat="45.18844" lon="5.74615">
        <ele>243.80000305176</ele>
        <time>2021-07-25T03:59:48.000Z</time>
      </trkpt>
      <trkpt lat="45.18846" lon="5.74603">
        <ele>243.80000305176</ele>
        <time>2021-07-25T03:59:51.000Z</time>
      </trkpt>
      <trkpt lat="45.18847" lon="5.74582">
        <ele>243.60000610352</ele>
        <time>2021-07-25T03:59:56.000Z</time>
      </trkpt>
      <trkpt lat="45.18849" lon="5.74566">
        <ele>243.60000610352</ele>
        <time>2021-07-25T04:00:00.000Z</time>
      </trkpt>
      <trkpt lat="45.18849" lon="5.74553">
        <ele>243.60000610352</ele>
        <time>2021-07-25T04:00:04.000Z</time>
      </trkpt>
      <trkpt lat="45.18854" lon="5.74528">
        <ele>244</ele>
        <time>2021-07-25T04:00:11.000Z</time>
      </trkpt>
      <trkpt lat="45.18854" lon="5.74522">
        <ele>243.80000305176</ele>
        <time>2021-07-25T04:00:12.000Z</time>
      </trkpt>
      <trkpt lat="45.1886" lon="5.74495">
        <ele>243</ele>
        <time>2021-07-25T04:00:18.000Z</time>
      </trkpt>
      <trkpt lat="45.18864" lon="5.74483">
        <ele>243</ele>
        <time>2021-07-25T04:00:21.000Z</time>
      </trkpt>
      <trkpt lat="45.18868" lon="5.74453">
        <ele>243</ele>
        <time>2021-07-25T04:00:28.000Z</time>
      </trkpt>
      <trkpt lat="45.18875" lon="5.74438">
        <ele>243</ele>
        <time>2021-07-25T04:00:32.000Z</time>
      </trkpt>
      <trkpt lat="45.18879" lon="5.74421">
        <ele>243</ele>
        <time>2021-07-25T04:00:36.000Z</time>
      </trkpt>
      <trkpt lat="45.18883" lon="5.74394">
        <ele>242.80000305176</ele>
        <time>2021-07-25T04:00:42.000Z</time>
      </trkpt>
      <trkpt lat="45.18885" lon="5.7438">
        <ele>243.19999694824</ele>
        <time>2021-07-25T04:00:45.000Z</time>
      </trkpt>
      <trkpt lat="45.18886" lon="5.74369">
        <ele>243</ele>
        <time>2021-07-25T04:00:48.000Z</time>
      </trkpt>
      <trkpt lat="45.18891" lon="5.74357">
        <ele>243.60000610352</ele>
        <time>2021-07-25T04:00:52.000Z</time>
      </trkpt>
      <trkpt lat="45.18893" lon="5.74353">
        <ele>243.60000610352</ele>
        <time>2021-07-25T04:00:53.000Z</time>
      </trkpt>
      <trkpt lat="45.18898" lon="5.74343">
        <ele>243</ele>
        <time>2021-07-25T04:00:56.000Z</time>
      </trkpt>
      <trkpt lat="45.18906" lon="5.7432">
        <ele>242.80000305176</ele>
        <time>2021-07-25T04:01:02.000Z</time>
      </trkpt>
      <trkpt lat="45.18915" lon="5.74299">
        <ele>243</ele>
        <time>2021-07-25T04:01:08.000Z</time>
      </trkpt>
      <trkpt lat="45.18925" lon="5.74277">
        <ele>242.80000305176</ele>
        <time>2021-07-25T04:01:14.000Z</time>
      </trkpt>
      <trkpt lat="45.18932" lon="5.74265">
        <ele>242.60000610352</ele>
        <time>2021-07-25T04:01:18.000Z</time>
      </trkpt>
      <trkpt lat="45.18937" lon="5.74259">
        <ele>242.60000610352</ele>
        <time>2021-07-25T04:01:20.000Z</time>
      </trkpt>
      <trkpt lat="45.1895" lon="5.7424">
        <ele>242.19999694824</ele>
        <time>2021-07-25T04:01:27.000Z</time>
      </trkpt>
      <trkpt lat="45.18952" lon="5.74237">
        <ele>242.19999694824</ele>
        <time>2021-07-25T04:01:28.000Z</time>
      </trkpt>
      <trkpt lat="45.18978" lon="5.7421">
        <ele>242.80000305176</ele>
        <time>2021-07-25T04:01:37.000Z</time>
      </trkpt>
      <trkpt lat="45.18979" lon="5.74205">
        <ele>243</ele>
        <time>2021-07-25T04:01:39.000Z</time>
      </trkpt>
      <trkpt lat="45.18991" lon="5.74194">
        <ele>243</ele>
        <time>2021-07-25T04:01:44.000Z</time>
      </trkpt>
      <trkpt lat="45.19007" lon="5.74182">
        <ele>242.80000305176</ele>
        <time>2021-07-25T04:01:50.000Z</time>
      </trkpt>
      <trkpt lat="45.19011" lon="5.74177">
        <ele>242.80000305176</ele>
        <time>2021-07-25T04:01:52.000Z</time>
      </trkpt>
      <trkpt lat="45.19028" lon="5.74166">
        <ele>242.80000305176</ele>
        <time>2021-07-25T04:01:58.000Z</time>
      </trkpt>
      <trkpt lat="45.19046" lon="5.74156">
        <ele>242.60000610352</ele>
        <time>2021-07-25T04:02:05.000Z</time>
      </trkpt>
      <trkpt lat="45.19049" lon="5.74153">
        <ele>242.80000305176</ele>
        <time>2021-07-25T04:02:07.000Z</time>
      </trkpt>
      <trkpt lat="45.19063" lon="5.74142">
        <ele>243</ele>
        <time>2021-07-25T04:02:13.000Z</time>
      </trkpt>
      <trkpt lat="45.19081" lon="5.74134">
        <ele>243.19999694824</ele>
        <time>2021-07-25T04:02:20.000Z</time>
      </trkpt>
      <trkpt lat="45.19101" lon="5.74128">
        <ele>243.19999694824</ele>
        <time>2021-07-25T04:02:28.000Z</time>
      </trkpt>
      <trkpt lat="45.19104" lon="5.74127">
        <ele>243.19999694824</ele>
        <time>2021-07-25T04:02:29.000Z</time>
      </trkpt>
      <trkpt lat="45.19123" lon="5.74122">
        <ele>242.19999694824</ele>
        <time>2021-07-25T04:02:36.000Z</time>
      </trkpt>
      <trkpt lat="45.19126" lon="5.74122">
        <ele>241.80000305176</ele>
        <time>2021-07-25T04:02:37.000Z</time>
      </trkpt>
      <trkpt lat="45.19138" lon="5.74119">
        <ele>241</ele>
        <time>2021-07-25T04:02:41.000Z</time>
      </trkpt>
      <trkpt lat="45.19141" lon="5.74119">
        <ele>241</ele>
        <time>2021-07-25T04:02:43.000Z</time>
      </trkpt>
      <trkpt lat="45.1916" lon="5.74117">
        <ele>241.60000610352</ele>
        <time>2021-07-25T04:02:50.000Z</time>
      </trkpt>
      <trkpt lat="45.19173" lon="5.74117">
        <ele>242.19999694824</ele>
        <time>2021-07-25T04:02:53.000Z</time>
      </trkpt>
      <trkpt lat="45.19183" lon="5.74118">
        <ele>243</ele>
        <time>2021-07-25T04:02:57.000Z</time>
      </trkpt>
      <trkpt lat="45.19192" lon="5.74118">
        <ele>243</ele>
        <time>2021-07-25T04:03:00.000Z</time>
      </trkpt>
      <trkpt lat="45.19212" lon="5.74125">
        <ele>243</ele>
        <time>2021-07-25T04:03:07.000Z</time>
      </trkpt>
      <trkpt lat="45.19215" lon="5.74125">
        <ele>243</ele>
        <time>2021-07-25T04:03:08.000Z</time>
      </trkpt>
      <trkpt lat="45.1923" lon="5.74125">
        <ele>242.80000305176</ele>
        <time>2021-07-25T04:03:13.000Z</time>
      </trkpt>
      <trkpt lat="45.1924" lon="5.74126">
        <ele>242.80000305176</ele>
        <time>2021-07-25T04:03:16.000Z</time>
      </trkpt>
      <trkpt lat="45.19256" lon="5.74129">
        <ele>243.19999694824</ele>
        <time>2021-07-25T04:03:21.000Z</time>
      </trkpt>
      <trkpt lat="45.19271" lon="5.7413">
        <ele>243.19999694824</ele>
        <time>2021-07-25T04:03:26.000Z</time>
      </trkpt>
      <trkpt lat="45.19291" lon="5.74133">
        <ele>243</ele>
        <time>2021-07-25T04:03:33.000Z</time>
      </trkpt>
      <trkpt lat="45.19294" lon="5.74133">
        <ele>243</ele>
        <time>2021-07-25T04:03:34.000Z</time>
      </trkpt>
      <trkpt lat="45.19305" lon="5.74135">
        <ele>242.80000305176</ele>
        <time>2021-07-25T04:03:38.000Z</time>
      </trkpt>
      <trkpt lat="45.19307" lon="5.74136">
        <ele>242.80000305176</ele>
        <time>2021-07-25T04:03:39.000Z</time>
      </trkpt>
      <trkpt lat="45.19324" lon="5.74139">
        <ele>242.80000305176</ele>
        <time>2021-07-25T04:03:45.000Z</time>
      </trkpt>
      <trkpt lat="45.1934" lon="5.74144">
        <ele>243</ele>
        <time>2021-07-25T04:03:51.000Z</time>
      </trkpt>
      <trkpt lat="45.19353" lon="5.74145">
        <ele>243</ele>
        <time>2021-07-25T04:03:55.000Z</time>
      </trkpt>
      <trkpt lat="45.19368" lon="5.74145">
        <ele>243</ele>
        <time>2021-07-25T04:04:00.000Z</time>
      </trkpt>
      <trkpt lat="45.19386" lon="5.7415">
        <ele>243</ele>
        <time>2021-07-25T04:04:06.000Z</time>
      </trkpt>
      <trkpt lat="45.19389" lon="5.74151">
        <ele>243</ele>
        <time>2021-07-25T04:04:07.000Z</time>
      </trkpt>
      <trkpt lat="45.194" lon="5.74155">
        <ele>243</ele>
        <time>2021-07-25T04:04:11.000Z</time>
      </trkpt>
      <trkpt lat="45.19408" lon="5.74157">
        <ele>243.39999389648</ele>
        <time>2021-07-25T04:04:14.000Z</time>
      </trkpt>
      <trkpt lat="45.19428" lon="5.74163">
        <ele>243.19999694824</ele>
        <time>2021-07-25T04:04:21.000Z</time>
      </trkpt>
      <trkpt lat="45.19439" lon="5.74165">
        <ele>243.19999694824</ele>
        <time>2021-07-25T04:04:25.000Z</time>
      </trkpt>
      <trkpt lat="45.19456" lon="5.74172">
        <ele>243.19999694824</ele>
        <time>2021-07-25T04:04:31.000Z</time>
      </trkpt>
      <trkpt lat="45.1947" lon="5.74176">
        <ele>243</ele>
        <time>2021-07-25T04:04:36.000Z</time>
      </trkpt>
      <trkpt lat="45.19484" lon="5.74183">
        <ele>243</ele>
        <time>2021-07-25T04:04:41.000Z</time>
      </trkpt>
      <trkpt lat="45.19486" lon="5.74184">
        <ele>243.19999694824</ele>
        <time>2021-07-25T04:04:42.000Z</time>
      </trkpt>
      <trkpt lat="45.19503" lon="5.74194">
        <ele>242.39999389648</ele>
        <time>2021-07-25T04:04:48.000Z</time>
      </trkpt>
      <trkpt lat="45.19508" lon="5.74196">
        <ele>242.60000610352</ele>
        <time>2021-07-25T04:04:50.000Z</time>
      </trkpt>
      <trkpt lat="45.19516" lon="5.742">
        <ele>242.39999389648</ele>
        <time>2021-07-25T04:04:53.000Z</time>
      </trkpt>
      <trkpt lat="45.19525" lon="5.74204">
        <ele>242.39999389648</ele>
        <time>2021-07-25T04:04:56.000Z</time>
      </trkpt>
      <trkpt lat="45.19536" lon="5.74209">
        <ele>242.19999694824</ele>
        <time>2021-07-25T04:05:00.000Z</time>
      </trkpt>
      <trkpt lat="45.19541" lon="5.74211">
        <ele>242.19999694824</ele>
        <time>2021-07-25T04:05:02.000Z</time>
      </trkpt>
      <trkpt lat="45.19555" lon="5.74215">
        <ele>242</ele>
        <time>2021-07-25T04:05:07.000Z</time>
      </trkpt>
      <trkpt lat="45.19565" lon="5.74216">
        <ele>242.19999694824</ele>
        <time>2021-07-25T04:05:11.000Z</time>
      </trkpt>
      <trkpt lat="45.19568" lon="5.74217">
        <ele>242.19999694824</ele>
        <time>2021-07-25T04:05:12.000Z</time>
      </trkpt>
      <trkpt lat="45.19576" lon="5.74219">
        <ele>242</ele>
        <time>2021-07-25T04:05:15.000Z</time>
      </trkpt>
      <trkpt lat="45.19579" lon="5.7422">
        <ele>242</ele>
        <time>2021-07-25T04:05:16.000Z</time>
      </trkpt>
      <trkpt lat="45.19582" lon="5.74221">
        <ele>241.80000305176</ele>
        <time>2021-07-25T04:05:17.000Z</time>
      </trkpt>
      <trkpt lat="45.19588" lon="5.74223">
        <ele>241.80000305176</ele>
        <time>2021-07-25T04:05:19.000Z</time>
      </trkpt>
      <trkpt lat="45.19607" lon="5.74226">
        <ele>241.80000305176</ele>
        <time>2021-07-25T04:05:26.000Z</time>
      </trkpt>
      <trkpt lat="45.19612" lon="5.74227">
        <ele>241.80000305176</ele>
        <time>2021-07-25T04:05:28.000Z</time>
      </trkpt>
      <trkpt lat="45.19622" lon="5.74228">
        <ele>242.19999694824</ele>
        <time>2021-07-25T04:05:32.000Z</time>
      </trkpt>
      <trkpt lat="45.19634" lon="5.74228">
        <ele>242</ele>
        <time>2021-07-25T04:05:36.000Z</time>
      </trkpt>
      <trkpt lat="45.19649" lon="5.74231">
        <ele>242</ele>
        <time>2021-07-25T04:05:41.000Z</time>
      </trkpt>
      <trkpt lat="45.19664" lon="5.7423">
        <ele>242</ele>
        <time>2021-07-25T04:05:46.000Z</time>
      </trkpt>
      <trkpt lat="45.19685" lon="5.74229">
        <ele>242.19999694824</ele>
        <time>2021-07-25T04:05:53.000Z</time>
      </trkpt>
      <trkpt lat="45.19688" lon="5.74229">
        <ele>242.19999694824</ele>
        <time>2021-07-25T04:05:54.000Z</time>
      </trkpt>
      <trkpt lat="45.19706" lon="5.74229">
        <ele>242</ele>
        <time>2021-07-25T04:06:01.000Z</time>
      </trkpt>
      <trkpt lat="45.19725" lon="5.74229">
        <ele>242</ele>
        <time>2021-07-25T04:06:08.000Z</time>
      </trkpt>
      <trkpt lat="45.19745" lon="5.74226">
        <ele>242.39999389648</ele>
        <time>2021-07-25T04:06:15.000Z</time>
      </trkpt>
      <trkpt lat="45.19748" lon="5.74226">
        <ele>242.39999389648</ele>
        <time>2021-07-25T04:06:16.000Z</time>
      </trkpt>
      <trkpt lat="45.19759" lon="5.74224">
        <ele>242</ele>
        <time>2021-07-25T04:06:20.000Z</time>
      </trkpt>
      <trkpt lat="45.19765" lon="5.74224">
        <ele>242.19999694824</ele>
        <time>2021-07-25T04:06:22.000Z</time>
      </trkpt>
      <trkpt lat="45.19784" lon="5.74221">
        <ele>242.19999694824</ele>
        <time>2021-07-25T04:06:30.000Z</time>
      </trkpt>
      <trkpt lat="45.19805" lon="5.7422">
        <ele>242</ele>
        <time>2021-07-25T04:06:38.000Z</time>
      </trkpt>
      <trkpt lat="45.19808" lon="5.74219">
        <ele>242</ele>
        <time>2021-07-25T04:06:39.000Z</time>
      </trkpt>
      <trkpt lat="45.19826" lon="5.74212">
        <ele>242.19999694824</ele>
        <time>2021-07-25T04:06:45.000Z</time>
      </trkpt>
      <trkpt lat="45.19832" lon="5.7421">
        <ele>242.19999694824</ele>
        <time>2021-07-25T04:06:47.000Z</time>
      </trkpt>
      <trkpt lat="45.1985" lon="5.74205">
        <ele>242</ele>
        <time>2021-07-25T04:06:54.000Z</time>
      </trkpt>
      <trkpt lat="45.19855" lon="5.74203">
        <ele>242</ele>
        <time>2021-07-25T04:06:56.000Z</time>
      </trkpt>
      <trkpt lat="45.19874" lon="5.74193">
        <ele>242.39999389648</ele>
        <time>2021-07-25T04:07:03.000Z</time>
      </trkpt>
      <trkpt lat="45.19893" lon="5.74183">
        <ele>242</ele>
        <time>2021-07-25T04:07:10.000Z</time>
      </trkpt>
      <trkpt lat="45.19898" lon="5.74181">
        <ele>242.19999694824</ele>
        <time>2021-07-25T04:07:12.000Z</time>
      </trkpt>
      <trkpt lat="45.19913" lon="5.74172">
        <ele>242</ele>
        <time>2021-07-25T04:07:18.000Z</time>
      </trkpt>
      <trkpt lat="45.1993" lon="5.74159">
        <ele>242.39999389648</ele>
        <time>2021-07-25T04:07:25.000Z</time>
      </trkpt>
      <trkpt lat="45.19933" lon="5.74157">
        <ele>242.60000610352</ele>
        <time>2021-07-25T04:07:26.000Z</time>
      </trkpt>
      <trkpt lat="45.19951" lon="5.74143">
        <ele>242.39999389648</ele>
        <time>2021-07-25T04:07:33.000Z</time>
      </trkpt>
      <trkpt lat="45.19953" lon="5.74141">
        <ele>242.39999389648</ele>
        <time>2021-07-25T04:07:34.000Z</time>
      </trkpt>
      <trkpt lat="45.19967" lon="5.74127">
        <ele>242.39999389648</ele>
        <time>2021-07-25T04:07:40.000Z</time>
      </trkpt>
      <trkpt lat="45.19976" lon="5.74112">
        <ele>242.19999694824</ele>
        <time>2021-07-25T04:07:46.000Z</time>
      </trkpt>
      <trkpt lat="45.19988" lon="5.74101">
        <ele>241</ele>
        <time>2021-07-25T04:07:52.000Z</time>
      </trkpt>
      <trkpt lat="45.1999" lon="5.74099">
        <ele>240.80000305176</ele>
        <time>2021-07-25T04:07:53.000Z</time>
      </trkpt>
      <trkpt lat="45.20001" lon="5.74084">
        <ele>240</ele>
        <time>2021-07-25T04:07:59.000Z</time>
      </trkpt>
      <trkpt lat="45.20006" lon="5.74077">
        <ele>239.80000305176</ele>
        <time>2021-07-25T04:08:02.000Z</time>
      </trkpt>
      <trkpt lat="45.20035" lon="5.74043">
        <ele>239.60000610352</ele>
        <time>2021-07-25T04:08:13.000Z</time>
      </trkpt>
      <trkpt lat="45.20045" lon="5.74033">
        <ele>240.80000305176</ele>
        <time>2021-07-25T04:08:19.000Z</time>
      </trkpt>
      <trkpt lat="45.20047" lon="5.7403">
        <ele>241.39999389648</ele>
        <time>2021-07-25T04:08:20.000Z</time>
      </trkpt>
      <trkpt lat="45.20053" lon="5.7402">
        <ele>242</ele>
        <time>2021-07-25T04:08:25.000Z</time>
      </trkpt>
      <trkpt lat="45.20055" lon="5.74019">
        <ele>242</ele>
        <time>2021-07-25T04:08:26.000Z</time>
      </trkpt>
      <trkpt lat="45.20064" lon="5.73998">
        <ele>242</ele>
        <time>2021-07-25T04:08:32.000Z</time>
      </trkpt>
      <trkpt lat="45.20074" lon="5.73987">
        <ele>241.39999389648</ele>
        <time>2021-07-25T04:08:38.000Z</time>
      </trkpt>
      <trkpt lat="45.20086" lon="5.73976">
        <ele>241.39999389648</ele>
        <time>2021-07-25T04:08:42.000Z</time>
      </trkpt>
      <trkpt lat="45.20088" lon="5.73972">
        <ele>241.39999389648</ele>
        <time>2021-07-25T04:08:43.000Z</time>
      </trkpt>
      <trkpt lat="45.20096" lon="5.7396">
        <ele>241</ele>
        <time>2021-07-25T04:08:46.000Z</time>
      </trkpt>
      <trkpt lat="45.20104" lon="5.73948">
        <ele>240.80000305176</ele>
        <time>2021-07-25T04:08:50.000Z</time>
      </trkpt>
      <trkpt lat="45.20106" lon="5.73946">
        <ele>240.80000305176</ele>
        <time>2021-07-25T04:08:51.000Z</time>
      </trkpt>
      <trkpt lat="45.20118" lon="5.73926">
        <ele>241</ele>
        <time>2021-07-25T04:08:57.000Z</time>
      </trkpt>
      <trkpt lat="45.20125" lon="5.73917">
        <ele>241</ele>
        <time>2021-07-25T04:09:00.000Z</time>
      </trkpt>
      <trkpt lat="45.20135" lon="5.739">
        <ele>241.19999694824</ele>
        <time>2021-07-25T04:09:06.000Z</time>
      </trkpt>
      <trkpt lat="45.20148" lon="5.73881">
        <ele>240.80000305176</ele>
        <time>2021-07-25T04:09:13.000Z</time>
      </trkpt>
      <trkpt lat="45.2015" lon="5.73878">
        <ele>241</ele>
        <time>2021-07-25T04:09:14.000Z</time>
      </trkpt>
      <trkpt lat="45.20161" lon="5.73857">
        <ele>240.80000305176</ele>
        <time>2021-07-25T04:09:20.000Z</time>
      </trkpt>
      <trkpt lat="45.20164" lon="5.73849">
        <ele>240.80000305176</ele>
        <time>2021-07-25T04:09:22.000Z</time>
      </trkpt>
      <trkpt lat="45.20168" lon="5.73839">
        <ele>240.80000305176</ele>
        <time>2021-07-25T04:09:25.000Z</time>
      </trkpt>
      <trkpt lat="45.20169" lon="5.73826">
        <ele>240.80000305176</ele>
        <time>2021-07-25T04:09:28.000Z</time>
      </trkpt>
      <trkpt lat="45.20171" lon="5.7382">
        <ele>240.80000305176</ele>
        <time>2021-07-25T04:09:30.000Z</time>
      </trkpt>
      <trkpt lat="45.20175" lon="5.73792">
        <ele>240.80000305176</ele>
        <time>2021-07-25T04:09:37.000Z</time>
      </trkpt>
      <trkpt lat="45.20174" lon="5.73781">
        <ele>240.80000305176</ele>
        <time>2021-07-25T04:09:40.000Z</time>
      </trkpt>
      <trkpt lat="45.20175" lon="5.73754">
        <ele>240.80000305176</ele>
        <time>2021-07-25T04:09:47.000Z</time>
      </trkpt>
      <trkpt lat="45.20175" lon="5.73746">
        <ele>240.80000305176</ele>
        <time>2021-07-25T04:09:49.000Z</time>
      </trkpt>
      <trkpt lat="45.20174" lon="5.73719">
        <ele>240.80000305176</ele>
        <time>2021-07-25T04:09:56.000Z</time>
      </trkpt>
      <trkpt lat="45.20168" lon="5.73692">
        <ele>240.60000610352</ele>
        <time>2021-07-25T04:10:03.000Z</time>
      </trkpt>
      <trkpt lat="45.20166" lon="5.73684">
        <ele>241</ele>
        <time>2021-07-25T04:10:05.000Z</time>
      </trkpt>
      <trkpt lat="45.20162" lon="5.7367">
        <ele>241</ele>
        <time>2021-07-25T04:10:09.000Z</time>
      </trkpt>
      <trkpt lat="45.2016" lon="5.73659">
        <ele>241.19999694824</ele>
        <time>2021-07-25T04:10:12.000Z</time>
      </trkpt>
      <trkpt lat="45.20159" lon="5.73655">
        <ele>241</ele>
        <time>2021-07-25T04:10:13.000Z</time>
      </trkpt>
      <trkpt lat="45.20155" lon="5.73644">
        <ele>240.80000305176</ele>
        <time>2021-07-25T04:10:16.000Z</time>
      </trkpt>
      <trkpt lat="45.20153" lon="5.73639">
        <ele>240.80000305176</ele>
        <time>2021-07-25T04:10:18.000Z</time>
      </trkpt>
      <trkpt lat="45.2015" lon="5.73633">
        <ele>240.80000305176</ele>
        <time>2021-07-25T04:10:20.000Z</time>
      </trkpt>
      <trkpt lat="45.20147" lon="5.73623">
        <ele>240.80000305176</ele>
        <time>2021-07-25T04:10:23.000Z</time>
      </trkpt>
      <trkpt lat="45.20143" lon="5.73614">
        <ele>240.80000305176</ele>
        <time>2021-07-25T04:10:26.000Z</time>
      </trkpt>
      <trkpt lat="45.20135" lon="5.73595">
        <ele>240.80000305176</ele>
        <time>2021-07-25T04:10:33.000Z</time>
      </trkpt>
      <trkpt lat="45.20125" lon="5.73575">
        <ele>241</ele>
        <time>2021-07-25T04:10:40.000Z</time>
      </trkpt>
      <trkpt lat="45.20123" lon="5.73571">
        <ele>240.80000305176</ele>
        <time>2021-07-25T04:10:41.000Z</time>
      </trkpt>
      <trkpt lat="45.20118" lon="5.7356">
        <ele>240.60000610352</ele>
        <time>2021-07-25T04:10:44.000Z</time>
      </trkpt>
      <trkpt lat="45.20109" lon="5.73547">
        <ele>241</ele>
        <time>2021-07-25T04:10:49.000Z</time>
      </trkpt>
      <trkpt lat="45.20104" lon="5.73542">
        <ele>241</ele>
        <time>2021-07-25T04:10:51.000Z</time>
      </trkpt>
      <trkpt lat="45.20091" lon="5.73524">
        <ele>241</ele>
        <time>2021-07-25T04:10:57.000Z</time>
      </trkpt>
      <trkpt lat="45.20089" lon="5.7352">
        <ele>240.80000305176</ele>
        <time>2021-07-25T04:10:58.000Z</time>
      </trkpt>
      <trkpt lat="45.20073" lon="5.73508">
        <ele>241</ele>
        <time>2021-07-25T04:11:04.000Z</time>
      </trkpt>
      <trkpt lat="45.20066" lon="5.73506">
        <ele>241</ele>
        <time>2021-07-25T04:11:06.000Z</time>
      </trkpt>
      <trkpt lat="45.20053" lon="5.73502">
        <ele>241</ele>
        <time>2021-07-25T04:11:10.000Z</time>
      </trkpt>
      <trkpt lat="45.20034" lon="5.73489">
        <ele>240.39999389648</ele>
        <time>2021-07-25T04:11:17.000Z</time>
      </trkpt>
      <trkpt lat="45.20027" lon="5.73482">
        <ele>240.39999389648</ele>
        <time>2021-07-25T04:11:20.000Z</time>
      </trkpt>
      <trkpt lat="45.20024" lon="5.73474">
        <ele>239.80000305176</ele>
        <time>2021-07-25T04:11:23.000Z</time>
      </trkpt>
      <trkpt lat="45.20016" lon="5.73469">
        <ele>239.39999389648</ele>
        <time>2021-07-25T04:11:26.000Z</time>
      </trkpt>
      <trkpt lat="45.20013" lon="5.73466">
        <ele>239.39999389648</ele>
        <time>2021-07-25T04:11:27.000Z</time>
      </trkpt>
      <trkpt lat="45.20002" lon="5.73459">
        <ele>240</ele>
        <time>2021-07-25T04:11:32.000Z</time>
      </trkpt>
      <trkpt lat="45.19993" lon="5.73453">
        <ele>240.39999389648</ele>
        <time>2021-07-25T04:11:36.000Z</time>
      </trkpt>
      <trkpt lat="45.19979" lon="5.73444">
        <ele>240.39999389648</ele>
        <time>2021-07-25T04:11:42.000Z</time>
      </trkpt>
      <trkpt lat="45.19971" lon="5.73442">
        <ele>240.39999389648</ele>
        <time>2021-07-25T04:11:45.000Z</time>
      </trkpt>
      <trkpt lat="45.19961" lon="5.73438">
        <ele>240.19999694824</ele>
        <time>2021-07-25T04:11:49.000Z</time>
      </trkpt>
      <trkpt lat="45.1995" lon="5.73434">
        <ele>240.19999694824</ele>
        <time>2021-07-25T04:11:53.000Z</time>
      </trkpt>
      <trkpt lat="45.19944" lon="5.73431">
        <ele>240.39999389648</ele>
        <time>2021-07-25T04:11:55.000Z</time>
      </trkpt>
      <trkpt lat="45.19926" lon="5.73425">
        <ele>240.39999389648</ele>
        <time>2021-07-25T04:12:02.000Z</time>
      </trkpt>
      <trkpt lat="45.19906" lon="5.73421">
        <ele>240.60000610352</ele>
        <time>2021-07-25T04:12:09.000Z</time>
      </trkpt>
      <trkpt lat="45.19889" lon="5.73415">
        <ele>240.60000610352</ele>
        <time>2021-07-25T04:12:16.000Z</time>
      </trkpt>
      <trkpt lat="45.19873" lon="5.7341">
        <ele>240.39999389648</ele>
        <time>2021-07-25T04:12:23.000Z</time>
      </trkpt>
      <trkpt lat="45.19853" lon="5.73406">
        <ele>240.39999389648</ele>
        <time>2021-07-25T04:12:30.000Z</time>
      </trkpt>
      <trkpt lat="45.19847" lon="5.73404">
        <ele>240.39999389648</ele>
        <time>2021-07-25T04:12:32.000Z</time>
      </trkpt>
      <trkpt lat="45.19832" lon="5.73401">
        <ele>240.80000305176</ele>
        <time>2021-07-25T04:12:38.000Z</time>
      </trkpt>
      <trkpt lat="45.1983" lon="5.734">
        <ele>240.80000305176</ele>
        <time>2021-07-25T04:12:39.000Z</time>
      </trkpt>
      <trkpt lat="45.19817" lon="5.73395">
        <ele>240.60000610352</ele>
        <time>2021-07-25T04:12:44.000Z</time>
      </trkpt>
      <trkpt lat="45.19796" lon="5.7339">
        <ele>240.60000610352</ele>
        <time>2021-07-25T04:12:51.000Z</time>
      </trkpt>
      <trkpt lat="45.19789" lon="5.73389">
        <ele>240.39999389648</ele>
        <time>2021-07-25T04:12:53.000Z</time>
      </trkpt>
      <trkpt lat="45.19769" lon="5.73382">
        <ele>240.39999389648</ele>
        <time>2021-07-25T04:13:01.000Z</time>
      </trkpt>
      <trkpt lat="45.19753" lon="5.73373">
        <ele>241.19999694824</ele>
        <time>2021-07-25T04:13:07.000Z</time>
      </trkpt>
      <trkpt lat="45.19742" lon="5.73371">
        <ele>241.39999389648</ele>
        <time>2021-07-25T04:13:11.000Z</time>
      </trkpt>
      <trkpt lat="45.19739" lon="5.73371">
        <ele>241.60000610352</ele>
        <time>2021-07-25T04:13:12.000Z</time>
      </trkpt>
      <trkpt lat="45.19733" lon="5.73371">
        <ele>241.80000305176</ele>
        <time>2021-07-25T04:13:14.000Z</time>
      </trkpt>
      <trkpt lat="45.19731" lon="5.73371">
        <ele>242.19999694824</ele>
        <time>2021-07-25T04:13:15.000Z</time>
      </trkpt>
      <trkpt lat="45.1973" lon="5.73362">
        <ele>242.39999389648</ele>
        <time>2021-07-25T04:13:17.000Z</time>
      </trkpt>
      <trkpt lat="45.1973" lon="5.73357">
        <ele>242.80000305176</ele>
        <time>2021-07-25T04:13:18.000Z</time>
      </trkpt>
      <trkpt lat="45.19733" lon="5.73331">
        <ele>243.19999694824</ele>
        <time>2021-07-25T04:13:24.000Z</time>
      </trkpt>
      <trkpt lat="45.19739" lon="5.73306">
        <ele>243.19999694824</ele>
        <time>2021-07-25T04:13:31.000Z</time>
      </trkpt>
      <trkpt lat="45.19742" lon="5.73298">
        <ele>243.19999694824</ele>
        <time>2021-07-25T04:13:33.000Z</time>
      </trkpt>
      <trkpt lat="45.19743" lon="5.73294">
        <ele>243.19999694824</ele>
        <time>2021-07-25T04:13:34.000Z</time>
      </trkpt>
      <trkpt lat="45.19747" lon="5.7328">
        <ele>243.19999694824</ele>
        <time>2021-07-25T04:13:38.000Z</time>
      </trkpt>
      <trkpt lat="45.19753" lon="5.73255">
        <ele>242.80000305176</ele>
        <time>2021-07-25T04:13:44.000Z</time>
      </trkpt>
      <trkpt lat="45.19754" lon="5.73251">
        <ele>242.80000305176</ele>
        <time>2021-07-25T04:13:45.000Z</time>
      </trkpt>
      <trkpt lat="45.19757" lon="5.73242">
        <ele>242.60000610352</ele>
        <time>2021-07-25T04:13:47.000Z</time>
      </trkpt>
      <trkpt lat="45.19764" lon="5.73227">
        <ele>242</ele>
        <time>2021-07-25T04:13:51.000Z</time>
      </trkpt>
      <trkpt lat="45.19766" lon="5.73225">
        <ele>241.80000305176</ele>
        <time>2021-07-25T04:13:52.000Z</time>
      </trkpt>
      <trkpt lat="45.19775" lon="5.73203">
        <ele>241.19999694824</ele>
        <time>2021-07-25T04:13:59.000Z</time>
      </trkpt>
      <trkpt lat="45.19775" lon="5.73198">
        <ele>241.19999694824</ele>
        <time>2021-07-25T04:14:01.000Z</time>
      </trkpt>
      <trkpt lat="45.19775" lon="5.73192">
        <ele>241.39999389648</ele>
        <time>2021-07-25T04:14:03.000Z</time>
      </trkpt>
      <trkpt lat="45.19775" lon="5.73189">
        <ele>241.39999389648</ele>
        <time>2021-07-25T04:14:04.000Z</time>
      </trkpt>
      <trkpt lat="45.19775" lon="5.73185">
        <ele>241.39999389648</ele>
        <time>2021-07-25T04:14:05.000Z</time>
      </trkpt>
      <trkpt lat="45.19772" lon="5.73176">
        <ele>241.39999389648</ele>
        <time>2021-07-25T04:14:08.000Z</time>
      </trkpt>
      <trkpt lat="45.19768" lon="5.73171">
        <ele>242.19999694824</ele>
        <time>2021-07-25T04:14:12.000Z</time>
      </trkpt>
      <trkpt lat="45.19768" lon="5.73168">
        <ele>242.80000305176</ele>
        <time>2021-07-25T04:14:14.000Z</time>
      </trkpt>
      <trkpt lat="45.1977" lon="5.73161">
        <ele>244.19999694824</ele>
        <time>2021-07-25T04:14:17.000Z</time>
      </trkpt>
      <trkpt lat="45.19772" lon="5.73152">
        <ele>245.19999694824</ele>
        <time>2021-07-25T04:14:21.000Z</time>
      </trkpt>
      <trkpt lat="45.19772" lon="5.73151">
        <ele>245.19999694824</ele>
        <time>2021-07-25T04:14:22.000Z</time>
      </trkpt>
      <trkpt lat="45.19773" lon="5.7315">
        <ele>246.39999389648</ele>
        <time>2021-07-25T04:14:24.000Z</time>
      </trkpt>
      <trkpt lat="45.19774" lon="5.73149">
        <ele>246.39999389648</ele>
        <time>2021-07-25T04:14:25.000Z</time>
      </trkpt>
      <trkpt lat="45.19778" lon="5.73147">
        <ele>247</ele>
        <time>2021-07-25T04:14:27.000Z</time>
      </trkpt>
      <trkpt lat="45.19783" lon="5.73144">
        <ele>247.60000610352</ele>
        <time>2021-07-25T04:14:29.000Z</time>
      </trkpt>
      <trkpt lat="45.19787" lon="5.7314">
        <ele>247.80000305176</ele>
        <time>2021-07-25T04:14:31.000Z</time>
      </trkpt>
      <trkpt lat="45.19787" lon="5.73137">
        <ele>248.39999389648</ele>
        <time>2021-07-25T04:14:33.000Z</time>
      </trkpt>
      <trkpt lat="45.19784" lon="5.73138">
        <ele>248.60000610352</ele>
        <time>2021-07-25T04:14:34.000Z</time>
      </trkpt>
      <trkpt lat="45.19782" lon="5.73137">
        <ele>248.60000610352</ele>
        <time>2021-07-25T04:14:35.000Z</time>
      </trkpt>
      <trkpt lat="45.19778" lon="5.73137">
        <ele>249.19999694824</ele>
        <time>2021-07-25T04:14:37.000Z</time>
      </trkpt>
      <trkpt lat="45.19773" lon="5.73134">
        <ele>250</ele>
        <time>2021-07-25T04:14:40.000Z</time>
      </trkpt>
      <trkpt lat="45.19759" lon="5.73119">
        <ele>252.60000610352</ele>
        <time>2021-07-25T04:14:52.000Z</time>
      </trkpt>
      <trkpt lat="45.19766" lon="5.73107">
        <ele>252.80000305176</ele>
        <time>2021-07-25T04:14:53.000Z</time>
      </trkpt>
      <trkpt lat="45.19765" lon="5.73099">
        <ele>253.19999694824</ele>
        <time>2021-07-25T04:14:55.000Z</time>
      </trkpt>
      <trkpt lat="45.19761" lon="5.73095">
        <ele>253.60000610352</ele>
        <time>2021-07-25T04:14:57.000Z</time>
      </trkpt>
      <trkpt lat="45.19762" lon="5.73093">
        <ele>254.19999694824</ele>
        <time>2021-07-25T04:14:58.000Z</time>
      </trkpt>
      <trkpt lat="45.19763" lon="5.73091">
        <ele>254.60000610352</ele>
        <time>2021-07-25T04:14:59.000Z</time>
      </trkpt>
      <trkpt lat="45.19766" lon="5.73087">
        <ele>254.80000305176</ele>
        <time>2021-07-25T04:15:01.000Z</time>
      </trkpt>
      <trkpt lat="45.19768" lon="5.73086">
        <ele>255.19999694824</ele>
        <time>2021-07-25T04:15:03.000Z</time>
      </trkpt>
      <trkpt lat="45.1977" lon="5.73087">
        <ele>255.80000305176</ele>
        <time>2021-07-25T04:15:06.000Z</time>
      </trkpt>
      <trkpt lat="45.19772" lon="5.73088">
        <ele>256.39999389648</ele>
        <time>2021-07-25T04:15:08.000Z</time>
      </trkpt>
      <trkpt lat="45.19773" lon="5.73089">
        <ele>256.39999389648</ele>
        <time>2021-07-25T04:15:09.000Z</time>
      </trkpt>
      <trkpt lat="45.19778" lon="5.73088">
        <ele>257</ele>
        <time>2021-07-25T04:15:11.000Z</time>
      </trkpt>
      <trkpt lat="45.1978" lon="5.73088">
        <ele>257.39999389648</ele>
        <time>2021-07-25T04:15:12.000Z</time>
      </trkpt>
      <trkpt lat="45.19784" lon="5.73089">
        <ele>257.79998779297</ele>
        <time>2021-07-25T04:15:14.000Z</time>
      </trkpt>
      <trkpt lat="45.19785" lon="5.73089">
        <ele>258.20001220703</ele>
        <time>2021-07-25T04:15:15.000Z</time>
      </trkpt>
      <trkpt lat="45.19788" lon="5.73089">
        <ele>258.79998779297</ele>
        <time>2021-07-25T04:15:17.000Z</time>
      </trkpt>
      <trkpt lat="45.1979" lon="5.73088">
        <ele>259</ele>
        <time>2021-07-25T04:15:18.000Z</time>
      </trkpt>
      <trkpt lat="45.19795" lon="5.73087">
        <ele>259.39999389648</ele>
        <time>2021-07-25T04:15:21.000Z</time>
      </trkpt>
      <trkpt lat="45.19795" lon="5.73086">
        <ele>259.39999389648</ele>
        <time>2021-07-25T04:15:22.000Z</time>
      </trkpt>
      <trkpt lat="45.19795" lon="5.73085">
        <ele>259.60000610352</ele>
        <time>2021-07-25T04:15:23.000Z</time>
      </trkpt>
      <trkpt lat="45.19794" lon="5.73086">
        <ele>260.20001220703</ele>
        <time>2021-07-25T04:15:25.000Z</time>
      </trkpt>
      <trkpt lat="45.1979" lon="5.73086">
        <ele>260.39999389648</ele>
        <time>2021-07-25T04:15:28.000Z</time>
      </trkpt>
      <trkpt lat="45.19783" lon="5.73082">
        <ele>261.60000610352</ele>
        <time>2021-07-25T04:15:33.000Z</time>
      </trkpt>
      <trkpt lat="45.19782" lon="5.73082">
        <ele>261.79998779297</ele>
        <time>2021-07-25T04:15:34.000Z</time>
      </trkpt>
      <trkpt lat="45.19775" lon="5.73081">
        <ele>262.60000610352</ele>
        <time>2021-07-25T04:15:38.000Z</time>
      </trkpt>
      <trkpt lat="45.19771" lon="5.73081">
        <ele>263.20001220703</ele>
        <time>2021-07-25T04:15:40.000Z</time>
      </trkpt>
      <trkpt lat="45.19765" lon="5.73083">
        <ele>264</ele>
        <time>2021-07-25T04:15:42.000Z</time>
      </trkpt>
      <trkpt lat="45.19764" lon="5.73084">
        <ele>264.20001220703</ele>
        <time>2021-07-25T04:15:43.000Z</time>
      </trkpt>
      <trkpt lat="45.19758" lon="5.7308">
        <ele>264.60000610352</ele>
        <time>2021-07-25T04:15:47.000Z</time>
      </trkpt>
      <trkpt lat="45.19757" lon="5.73079">
        <ele>265.39999389648</ele>
        <time>2021-07-25T04:15:48.000Z</time>
      </trkpt>
      <trkpt lat="45.19754" lon="5.73076">
        <ele>265.39999389648</ele>
        <time>2021-07-25T04:15:50.000Z</time>
      </trkpt>
      <trkpt lat="45.1975" lon="5.73074">
        <ele>265.79998779297</ele>
        <time>2021-07-25T04:15:53.000Z</time>
      </trkpt>
      <trkpt lat="45.1975" lon="5.73072">
        <ele>265.79998779297</ele>
        <time>2021-07-25T04:15:54.000Z</time>
      </trkpt>
      <trkpt lat="45.19751" lon="5.73071">
        <ele>266.79998779297</ele>
        <time>2021-07-25T04:15:55.000Z</time>
      </trkpt>
      <trkpt lat="45.19752" lon="5.73069">
        <ele>266.79998779297</ele>
        <time>2021-07-25T04:15:56.000Z</time>
      </trkpt>
      <trkpt lat="45.19756" lon="5.73066">
        <ele>267.20001220703</ele>
        <time>2021-07-25T04:15:58.000Z</time>
      </trkpt>
      <trkpt lat="45.19759" lon="5.73065">
        <ele>267.60000610352</ele>
        <time>2021-07-25T04:15:59.000Z</time>
      </trkpt>
      <trkpt lat="45.19761" lon="5.73064">
        <ele>267.79998779297</ele>
        <time>2021-07-25T04:16:00.000Z</time>
      </trkpt>
      <trkpt lat="45.19763" lon="5.73063">
        <ele>268</ele>
        <time>2021-07-25T04:16:01.000Z</time>
      </trkpt>
      <trkpt lat="45.19769" lon="5.73059">
        <ele>268.20001220703</ele>
        <time>2021-07-25T04:16:03.000Z</time>
      </trkpt>
      <trkpt lat="45.19773" lon="5.73058">
        <ele>268.60000610352</ele>
        <time>2021-07-25T04:16:05.000Z</time>
      </trkpt>
      <trkpt lat="45.19774" lon="5.73059">
        <ele>269.39999389648</ele>
        <time>2021-07-25T04:16:06.000Z</time>
      </trkpt>
      <trkpt lat="45.19775" lon="5.73059">
        <ele>269.60000610352</ele>
        <time>2021-07-25T04:16:07.000Z</time>
      </trkpt>
      <trkpt lat="45.19781" lon="5.73059">
        <ele>270.39999389648</ele>
        <time>2021-07-25T04:16:10.000Z</time>
      </trkpt>
      <trkpt lat="45.19787" lon="5.73059">
        <ele>271.20001220703</ele>
        <time>2021-07-25T04:16:13.000Z</time>
      </trkpt>
      <trkpt lat="45.19793" lon="5.73056">
        <ele>271.60000610352</ele>
        <time>2021-07-25T04:16:15.000Z</time>
      </trkpt>
      <trkpt lat="45.19795" lon="5.73055">
        <ele>272.39999389648</ele>
        <time>2021-07-25T04:16:17.000Z</time>
      </trkpt>
      <trkpt lat="45.19792" lon="5.73055">
        <ele>272.39999389648</ele>
        <time>2021-07-25T04:16:20.000Z</time>
      </trkpt>
      <trkpt lat="45.1979" lon="5.73056">
        <ele>273</ele>
        <time>2021-07-25T04:16:21.000Z</time>
      </trkpt>
      <trkpt lat="45.19784" lon="5.73058">
        <ele>273.79998779297</ele>
        <time>2021-07-25T04:16:24.000Z</time>
      </trkpt>
      <trkpt lat="45.19779" lon="5.73057">
        <ele>274</ele>
        <time>2021-07-25T04:16:27.000Z</time>
      </trkpt>
      <trkpt lat="45.19778" lon="5.73056">
        <ele>274.20001220703</ele>
        <time>2021-07-25T04:16:28.000Z</time>
      </trkpt>
      <trkpt lat="45.19776" lon="5.73054">
        <ele>274.60000610352</ele>
        <time>2021-07-25T04:16:30.000Z</time>
      </trkpt>
      <trkpt lat="45.19773" lon="5.73054">
        <ele>275.20001220703</ele>
        <time>2021-07-25T04:16:32.000Z</time>
      </trkpt>
      <trkpt lat="45.19771" lon="5.73052">
        <ele>275.20001220703</ele>
        <time>2021-07-25T04:16:33.000Z</time>
      </trkpt>
      <trkpt lat="45.19769" lon="5.7305">
        <ele>275.20001220703</ele>
        <time>2021-07-25T04:16:34.000Z</time>
      </trkpt>
      <trkpt lat="45.19763" lon="5.73047">
        <ele>276</ele>
        <time>2021-07-25T04:16:37.000Z</time>
      </trkpt>
      <trkpt lat="45.1976" lon="5.73047">
        <ele>276.39999389648</ele>
        <time>2021-07-25T04:16:38.000Z</time>
      </trkpt>
      <trkpt lat="45.19757" lon="5.73048">
        <ele>276.60000610352</ele>
        <time>2021-07-25T04:16:39.000Z</time>
      </trkpt>
      <trkpt lat="45.19753" lon="5.73045">
        <ele>277</ele>
        <time>2021-07-25T04:16:42.000Z</time>
      </trkpt>
      <trkpt lat="45.19752" lon="5.73044">
        <ele>277.39999389648</ele>
        <time>2021-07-25T04:16:43.000Z</time>
      </trkpt>
      <trkpt lat="45.19752" lon="5.73042">
        <ele>277.60000610352</ele>
        <time>2021-07-25T04:16:44.000Z</time>
      </trkpt>
      <trkpt lat="45.19754" lon="5.73039">
        <ele>277.79998779297</ele>
        <time>2021-07-25T04:16:46.000Z</time>
      </trkpt>
      <trkpt lat="45.19756" lon="5.73037">
        <ele>278.39999389648</ele>
        <time>2021-07-25T04:16:47.000Z</time>
      </trkpt>
      <trkpt lat="45.19769" lon="5.73035">
        <ele>279.60000610352</ele>
        <time>2021-07-25T04:16:53.000Z</time>
      </trkpt>
      <trkpt lat="45.19778" lon="5.73034">
        <ele>280.60000610352</ele>
        <time>2021-07-25T04:16:57.000Z</time>
      </trkpt>
      <trkpt lat="45.1978" lon="5.73034">
        <ele>280.79998779297</ele>
        <time>2021-07-25T04:16:58.000Z</time>
      </trkpt>
      <trkpt lat="45.19784" lon="5.73035">
        <ele>281</ele>
        <time>2021-07-25T04:17:00.000Z</time>
      </trkpt>
      <trkpt lat="45.19787" lon="5.73037">
        <ele>282</ele>
        <time>2021-07-25T04:17:02.000Z</time>
      </trkpt>
      <trkpt lat="45.19793" lon="5.73038">
        <ele>282.79998779297</ele>
        <time>2021-07-25T04:17:06.000Z</time>
      </trkpt>
      <trkpt lat="45.19795" lon="5.73039">
        <ele>283.60000610352</ele>
        <time>2021-07-25T04:17:07.000Z</time>
      </trkpt>
      <trkpt lat="45.19798" lon="5.73037">
        <ele>283.60000610352</ele>
        <time>2021-07-25T04:17:08.000Z</time>
      </trkpt>
      <trkpt lat="45.198" lon="5.73037">
        <ele>284</ele>
        <time>2021-07-25T04:17:09.000Z</time>
      </trkpt>
      <trkpt lat="45.19801" lon="5.73037">
        <ele>284.20001220703</ele>
        <time>2021-07-25T04:17:10.000Z</time>
      </trkpt>
      <trkpt lat="45.19802" lon="5.73035">
        <ele>284.79998779297</ele>
        <time>2021-07-25T04:17:12.000Z</time>
      </trkpt>
      <trkpt lat="45.19801" lon="5.73034">
        <ele>284.79998779297</ele>
        <time>2021-07-25T04:17:13.000Z</time>
      </trkpt>
      <trkpt lat="45.19799" lon="5.73033">
        <ele>285</ele>
        <time>2021-07-25T04:17:14.000Z</time>
      </trkpt>
      <trkpt lat="45.19794" lon="5.7303">
        <ele>285.60000610352</ele>
        <time>2021-07-25T04:17:17.000Z</time>
      </trkpt>
      <trkpt lat="45.19793" lon="5.73031">
        <ele>285.60000610352</ele>
        <time>2021-07-25T04:17:18.000Z</time>
      </trkpt>
      <trkpt lat="45.19791" lon="5.73031">
        <ele>286</ele>
        <time>2021-07-25T04:17:19.000Z</time>
      </trkpt>
      <trkpt lat="45.19788" lon="5.73031">
        <ele>286.20001220703</ele>
        <time>2021-07-25T04:17:21.000Z</time>
      </trkpt>
      <trkpt lat="45.19784" lon="5.7303">
        <ele>286.79998779297</ele>
        <time>2021-07-25T04:17:23.000Z</time>
      </trkpt>
      <trkpt lat="45.19781" lon="5.73029">
        <ele>287.20001220703</ele>
        <time>2021-07-25T04:17:25.000Z</time>
      </trkpt>
      <trkpt lat="45.19776" lon="5.73027">
        <ele>287.60000610352</ele>
        <time>2021-07-25T04:17:28.000Z</time>
      </trkpt>
      <trkpt lat="45.19774" lon="5.73025">
        <ele>287.79998779297</ele>
        <time>2021-07-25T04:17:30.000Z</time>
      </trkpt>
      <trkpt lat="45.19769" lon="5.73022">
        <ele>288.20001220703</ele>
        <time>2021-07-25T04:17:33.000Z</time>
      </trkpt>
      <trkpt lat="45.19766" lon="5.73018">
        <ele>288.79998779297</ele>
        <time>2021-07-25T04:17:35.000Z</time>
      </trkpt>
      <trkpt lat="45.19766" lon="5.73015">
        <ele>289.20001220703</ele>
        <time>2021-07-25T04:17:36.000Z</time>
      </trkpt>
      <trkpt lat="45.19767" lon="5.73013">
        <ele>289.60000610352</ele>
        <time>2021-07-25T04:17:37.000Z</time>
      </trkpt>
      <trkpt lat="45.19768" lon="5.73011">
        <ele>290.39999389648</ele>
        <time>2021-07-25T04:17:39.000Z</time>
      </trkpt>
      <trkpt lat="45.19771" lon="5.73012">
        <ele>290.79998779297</ele>
        <time>2021-07-25T04:17:41.000Z</time>
      </trkpt>
      <trkpt lat="45.19776" lon="5.73014">
        <ele>291.39999389648</ele>
        <time>2021-07-25T04:17:44.000Z</time>
      </trkpt>
      <trkpt lat="45.19779" lon="5.73015">
        <ele>291.79998779297</ele>
        <time>2021-07-25T04:17:46.000Z</time>
      </trkpt>
      <trkpt lat="45.19785" lon="5.73016">
        <ele>292.20001220703</ele>
        <time>2021-07-25T04:17:50.000Z</time>
      </trkpt>
      <trkpt lat="45.19786" lon="5.73018">
        <ele>292.79998779297</ele>
        <time>2021-07-25T04:17:51.000Z</time>
      </trkpt>
      <trkpt lat="45.1979" lon="5.73023">
        <ele>293.60000610352</ele>
        <time>2021-07-25T04:17:54.000Z</time>
      </trkpt>
      <trkpt lat="45.19792" lon="5.73025">
        <ele>294</ele>
        <time>2021-07-25T04:17:56.000Z</time>
      </trkpt>
      <trkpt lat="45.19794" lon="5.73025">
        <ele>294.39999389648</ele>
        <time>2021-07-25T04:17:57.000Z</time>
      </trkpt>
      <trkpt lat="45.19795" lon="5.73022">
        <ele>294.79998779297</ele>
        <time>2021-07-25T04:18:00.000Z</time>
      </trkpt>
      <trkpt lat="45.19794" lon="5.73021">
        <ele>295</ele>
        <time>2021-07-25T04:18:01.000Z</time>
      </trkpt>
      <trkpt lat="45.19793" lon="5.7302">
        <ele>295.20001220703</ele>
        <time>2021-07-25T04:18:02.000Z</time>
      </trkpt>
      <trkpt lat="45.19791" lon="5.73019">
        <ele>296</ele>
        <time>2021-07-25T04:18:04.000Z</time>
      </trkpt>
      <trkpt lat="45.1979" lon="5.73019">
        <ele>296</ele>
        <time>2021-07-25T04:18:05.000Z</time>
      </trkpt>
      <trkpt lat="45.19786" lon="5.73018">
        <ele>296.20001220703</ele>
        <time>2021-07-25T04:18:07.000Z</time>
      </trkpt>
      <trkpt lat="45.19782" lon="5.73017">
        <ele>296.20001220703</ele>
        <time>2021-07-25T04:18:10.000Z</time>
      </trkpt>
      <trkpt lat="45.1978" lon="5.73016">
        <ele>296.39999389648</ele>
        <time>2021-07-25T04:18:11.000Z</time>
      </trkpt>
      <trkpt lat="45.19778" lon="5.73009">
        <ele>297.20001220703</ele>
        <time>2021-07-25T04:18:14.000Z</time>
      </trkpt>
      <trkpt lat="45.19777" lon="5.73006">
        <ele>297.60000610352</ele>
        <time>2021-07-25T04:18:15.000Z</time>
      </trkpt>
      <trkpt lat="45.19773" lon="5.72998">
        <ele>298.39999389648</ele>
        <time>2021-07-25T04:18:19.000Z</time>
      </trkpt>
      <trkpt lat="45.19772" lon="5.72997">
        <ele>298.79998779297</ele>
        <time>2021-07-25T04:18:20.000Z</time>
      </trkpt>
      <trkpt lat="45.19762" lon="5.72994">
        <ele>299.60000610352</ele>
        <time>2021-07-25T04:18:25.000Z</time>
      </trkpt>
      <trkpt lat="45.1976" lon="5.72992">
        <ele>299.60000610352</ele>
        <time>2021-07-25T04:18:26.000Z</time>
      </trkpt>
      <trkpt lat="45.19757" lon="5.72985">
        <ele>300.60000610352</ele>
        <time>2021-07-25T04:18:29.000Z</time>
      </trkpt>
      <trkpt lat="45.19755" lon="5.7298">
        <ele>301</ele>
        <time>2021-07-25T04:18:31.000Z</time>
      </trkpt>
      <trkpt lat="45.19754" lon="5.72978">
        <ele>301</ele>
        <time>2021-07-25T04:18:32.000Z</time>
      </trkpt>
      <trkpt lat="45.19752" lon="5.72973">
        <ele>301.39999389648</ele>
        <time>2021-07-25T04:18:34.000Z</time>
      </trkpt>
      <trkpt lat="45.19752" lon="5.72971">
        <ele>302</ele>
        <time>2021-07-25T04:18:35.000Z</time>
      </trkpt>
      <trkpt lat="45.19751" lon="5.72967">
        <ele>302.20001220703</ele>
        <time>2021-07-25T04:18:36.000Z</time>
      </trkpt>
      <trkpt lat="45.19749" lon="5.7296">
        <ele>302.60000610352</ele>
        <time>2021-07-25T04:18:39.000Z</time>
      </trkpt>
      <trkpt lat="45.19746" lon="5.72956">
        <ele>303</ele>
        <time>2021-07-25T04:18:41.000Z</time>
      </trkpt>
      <trkpt lat="45.19745" lon="5.72954">
        <ele>303.39999389648</ele>
        <time>2021-07-25T04:18:42.000Z</time>
      </trkpt>
      <trkpt lat="45.19742" lon="5.72947">
        <ele>303.79998779297</ele>
        <time>2021-07-25T04:18:45.000Z</time>
      </trkpt>
      <trkpt lat="45.19741" lon="5.72942">
        <ele>304.39999389648</ele>
        <time>2021-07-25T04:18:47.000Z</time>
      </trkpt>
      <trkpt lat="45.19737" lon="5.72937">
        <ele>305</ele>
        <time>2021-07-25T04:18:50.000Z</time>
      </trkpt>
      <trkpt lat="45.19737" lon="5.72935">
        <ele>305</ele>
        <time>2021-07-25T04:18:51.000Z</time>
      </trkpt>
      <trkpt lat="45.19735" lon="5.7293">
        <ele>305.60000610352</ele>
        <time>2021-07-25T04:18:54.000Z</time>
      </trkpt>
      <trkpt lat="45.19733" lon="5.72928">
        <ele>305.79998779297</ele>
        <time>2021-07-25T04:18:55.000Z</time>
      </trkpt>
      <trkpt lat="45.19732" lon="5.72927">
        <ele>306</ele>
        <time>2021-07-25T04:18:56.000Z</time>
      </trkpt>
      <trkpt lat="45.19727" lon="5.72921">
        <ele>307</ele>
        <time>2021-07-25T04:18:59.000Z</time>
      </trkpt>
      <trkpt lat="45.19721" lon="5.72917">
        <ele>307.60000610352</ele>
        <time>2021-07-25T04:19:02.000Z</time>
      </trkpt>
      <trkpt lat="45.19719" lon="5.72917">
        <ele>308</ele>
        <time>2021-07-25T04:19:03.000Z</time>
      </trkpt>
      <trkpt lat="45.19717" lon="5.72916">
        <ele>308</ele>
        <time>2021-07-25T04:19:04.000Z</time>
      </trkpt>
      <trkpt lat="45.19715" lon="5.72914">
        <ele>308.20001220703</ele>
        <time>2021-07-25T04:19:06.000Z</time>
      </trkpt>
      <trkpt lat="45.19714" lon="5.72912">
        <ele>308.39999389648</ele>
        <time>2021-07-25T04:19:07.000Z</time>
      </trkpt>
      <trkpt lat="45.19711" lon="5.72905">
        <ele>308.79998779297</ele>
        <time>2021-07-25T04:19:10.000Z</time>
      </trkpt>
      <trkpt lat="45.19709" lon="5.72901">
        <ele>309.60000610352</ele>
        <time>2021-07-25T04:19:11.000Z</time>
      </trkpt>
      <trkpt lat="45.19705" lon="5.7289">
        <ele>310.39999389648</ele>
        <time>2021-07-25T04:19:15.000Z</time>
      </trkpt>
      <trkpt lat="45.19702" lon="5.7288">
        <ele>311</ele>
        <time>2021-07-25T04:19:18.000Z</time>
      </trkpt>
      <trkpt lat="45.19701" lon="5.72874">
        <ele>311.60000610352</ele>
        <time>2021-07-25T04:19:20.000Z</time>
      </trkpt>
      <trkpt lat="45.19698" lon="5.72869">
        <ele>311.79998779297</ele>
        <time>2021-07-25T04:19:22.000Z</time>
      </trkpt>
      <trkpt lat="45.19694" lon="5.72861">
        <ele>312.39999389648</ele>
        <time>2021-07-25T04:19:25.000Z</time>
      </trkpt>
      <trkpt lat="45.19693" lon="5.72856">
        <ele>312.60000610352</ele>
        <time>2021-07-25T04:19:27.000Z</time>
      </trkpt>
      <trkpt lat="45.19694" lon="5.72855">
        <ele>313.39999389648</ele>
        <time>2021-07-25T04:19:28.000Z</time>
      </trkpt>
      <trkpt lat="45.19696" lon="5.72854">
        <ele>314.20001220703</ele>
        <time>2021-07-25T04:19:30.000Z</time>
      </trkpt>
      <trkpt lat="45.19697" lon="5.72855">
        <ele>314.20001220703</ele>
        <time>2021-07-25T04:19:31.000Z</time>
      </trkpt>
      <trkpt lat="45.19701" lon="5.72859">
        <ele>315.20001220703</ele>
        <time>2021-07-25T04:19:34.000Z</time>
      </trkpt>
      <trkpt lat="45.19703" lon="5.7286">
        <ele>315.20001220703</ele>
        <time>2021-07-25T04:19:35.000Z</time>
      </trkpt>
      <trkpt lat="45.19713" lon="5.72865">
        <ele>315.60000610352</ele>
        <time>2021-07-25T04:19:40.000Z</time>
      </trkpt>
      <trkpt lat="45.19714" lon="5.72866">
        <ele>316.20001220703</ele>
        <time>2021-07-25T04:19:41.000Z</time>
      </trkpt>
      <trkpt lat="45.19715" lon="5.72866">
        <ele>316.60000610352</ele>
        <time>2021-07-25T04:19:42.000Z</time>
      </trkpt>
      <trkpt lat="45.19722" lon="5.7287">
        <ele>317.60000610352</ele>
        <time>2021-07-25T04:19:47.000Z</time>
      </trkpt>
      <trkpt lat="45.19727" lon="5.72872">
        <ele>318.39999389648</ele>
        <time>2021-07-25T04:19:49.000Z</time>
      </trkpt>
      <trkpt lat="45.19731" lon="5.72874">
        <ele>319</ele>
        <time>2021-07-25T04:19:51.000Z</time>
      </trkpt>
      <trkpt lat="45.19739" lon="5.72877">
        <ele>319.60000610352</ele>
        <time>2021-07-25T04:19:54.000Z</time>
      </trkpt>
      <trkpt lat="45.19746" lon="5.72877">
        <ele>320</ele>
        <time>2021-07-25T04:19:57.000Z</time>
      </trkpt>
      <trkpt lat="45.19748" lon="5.72877">
        <ele>320.60000610352</ele>
        <time>2021-07-25T04:19:58.000Z</time>
      </trkpt>
      <trkpt lat="45.1975" lon="5.72878">
        <ele>320.79998779297</ele>
        <time>2021-07-25T04:19:59.000Z</time>
      </trkpt>
      <trkpt lat="45.19753" lon="5.72882">
        <ele>321.79998779297</ele>
        <time>2021-07-25T04:20:01.000Z</time>
      </trkpt>
      <trkpt lat="45.19756" lon="5.72884">
        <ele>322</ele>
        <time>2021-07-25T04:20:02.000Z</time>
      </trkpt>
      <trkpt lat="45.19761" lon="5.72891">
        <ele>323</ele>
        <time>2021-07-25T04:20:06.000Z</time>
      </trkpt>
      <trkpt lat="45.19763" lon="5.72892">
        <ele>323</ele>
        <time>2021-07-25T04:20:07.000Z</time>
      </trkpt>
      <trkpt lat="45.19769" lon="5.72896">
        <ele>324</ele>
        <time>2021-07-25T04:20:10.000Z</time>
      </trkpt>
      <trkpt lat="45.19775" lon="5.72897">
        <ele>324.60000610352</ele>
        <time>2021-07-25T04:20:13.000Z</time>
      </trkpt>
      <trkpt lat="45.19781" lon="5.72898">
        <ele>325</ele>
        <time>2021-07-25T04:20:15.000Z</time>
      </trkpt>
      <trkpt lat="45.19791" lon="5.72905">
        <ele>326.60000610352</ele>
        <time>2021-07-25T04:20:20.000Z</time>
      </trkpt>
      <trkpt lat="45.19794" lon="5.72906">
        <ele>327.20001220703</ele>
        <time>2021-07-25T04:20:23.000Z</time>
      </trkpt>
      <trkpt lat="45.19793" lon="5.72906">
        <ele>327.39999389648</ele>
        <time>2021-07-25T04:20:24.000Z</time>
      </trkpt>
      <trkpt lat="45.19792" lon="5.72907">
        <ele>327.60000610352</ele>
        <time>2021-07-25T04:20:25.000Z</time>
      </trkpt>
      <trkpt lat="45.19789" lon="5.72908">
        <ele>328.20001220703</ele>
        <time>2021-07-25T04:20:27.000Z</time>
      </trkpt>
      <trkpt lat="45.19787" lon="5.72909">
        <ele>328.60000610352</ele>
        <time>2021-07-25T04:20:29.000Z</time>
      </trkpt>
      <trkpt lat="45.19785" lon="5.72908">
        <ele>328.79998779297</ele>
        <time>2021-07-25T04:20:30.000Z</time>
      </trkpt>
      <trkpt lat="45.19779" lon="5.72903">
        <ele>329.20001220703</ele>
        <time>2021-07-25T04:20:35.000Z</time>
      </trkpt>
      <trkpt lat="45.19775" lon="5.72899">
        <ele>330.20001220703</ele>
        <time>2021-07-25T04:20:38.000Z</time>
      </trkpt>
      <trkpt lat="45.19772" lon="5.72897">
        <ele>330.39999389648</ele>
        <time>2021-07-25T04:20:40.000Z</time>
      </trkpt>
      <trkpt lat="45.19769" lon="5.72896">
        <ele>331.20001220703</ele>
        <time>2021-07-25T04:20:42.000Z</time>
      </trkpt>
      <trkpt lat="45.19762" lon="5.72892">
        <ele>332</ele>
        <time>2021-07-25T04:20:46.000Z</time>
      </trkpt>
      <trkpt lat="45.19761" lon="5.72891">
        <ele>332.20001220703</ele>
        <time>2021-07-25T04:20:47.000Z</time>
      </trkpt>
      <trkpt lat="45.19759" lon="5.72889">
        <ele>332.60000610352</ele>
        <time>2021-07-25T04:20:48.000Z</time>
      </trkpt>
      <trkpt lat="45.19755" lon="5.72883">
        <ele>333.60000610352</ele>
        <time>2021-07-25T04:20:52.000Z</time>
      </trkpt>
      <trkpt lat="45.19754" lon="5.72881">
        <ele>333.60000610352</ele>
        <time>2021-07-25T04:20:53.000Z</time>
      </trkpt>
      <trkpt lat="45.19752" lon="5.72879">
        <ele>334</ele>
        <time>2021-07-25T04:20:55.000Z</time>
      </trkpt>
      <trkpt lat="45.1975" lon="5.72875">
        <ele>334.60000610352</ele>
        <time>2021-07-25T04:20:57.000Z</time>
      </trkpt>
      <trkpt lat="45.19749" lon="5.72874">
        <ele>334.79998779297</ele>
        <time>2021-07-25T04:20:58.000Z</time>
      </trkpt>
      <trkpt lat="45.19748" lon="5.72872">
        <ele>334.79998779297</ele>
        <time>2021-07-25T04:20:59.000Z</time>
      </trkpt>
      <trkpt lat="45.19744" lon="5.72868">
        <ele>335.79998779297</ele>
        <time>2021-07-25T04:21:02.000Z</time>
      </trkpt>
      <trkpt lat="45.19742" lon="5.7286">
        <ele>335.79998779297</ele>
        <time>2021-07-25T04:21:05.000Z</time>
      </trkpt>
      <trkpt lat="45.1974" lon="5.72851">
        <ele>337.20001220703</ele>
        <time>2021-07-25T04:21:08.000Z</time>
      </trkpt>
      <trkpt lat="45.19742" lon="5.72846">
        <ele>337.20001220703</ele>
        <time>2021-07-25T04:21:10.000Z</time>
      </trkpt>
      <trkpt lat="45.19747" lon="5.72843">
        <ele>337.60000610352</ele>
        <time>2021-07-25T04:21:12.000Z</time>
      </trkpt>
      <trkpt lat="45.19748" lon="5.72844">
        <ele>338</ele>
        <time>2021-07-25T04:21:13.000Z</time>
      </trkpt>
      <trkpt lat="45.1975" lon="5.72845">
        <ele>338.60000610352</ele>
        <time>2021-07-25T04:21:14.000Z</time>
      </trkpt>
      <trkpt lat="45.19753" lon="5.72847">
        <ele>338.79998779297</ele>
        <time>2021-07-25T04:21:16.000Z</time>
      </trkpt>
      <trkpt lat="45.19755" lon="5.72848">
        <ele>339.20001220703</ele>
        <time>2021-07-25T04:21:17.000Z</time>
      </trkpt>
      <trkpt lat="45.19759" lon="5.72848">
        <ele>339.60000610352</ele>
        <time>2021-07-25T04:21:19.000Z</time>
      </trkpt>
      <trkpt lat="45.19763" lon="5.72847">
        <ele>340</ele>
        <time>2021-07-25T04:21:21.000Z</time>
      </trkpt>
      <trkpt lat="45.19766" lon="5.72849">
        <ele>340.79998779297</ele>
        <time>2021-07-25T04:21:23.000Z</time>
      </trkpt>
      <trkpt lat="45.19774" lon="5.72854">
        <ele>342</ele>
        <time>2021-07-25T04:21:27.000Z</time>
      </trkpt>
      <trkpt lat="45.19776" lon="5.72856">
        <ele>342</ele>
        <time>2021-07-25T04:21:28.000Z</time>
      </trkpt>
      <trkpt lat="45.1978" lon="5.72858">
        <ele>342.60000610352</ele>
        <time>2021-07-25T04:21:31.000Z</time>
      </trkpt>
      <trkpt lat="45.19786" lon="5.7286">
        <ele>343</ele>
        <time>2021-07-25T04:21:34.000Z</time>
      </trkpt>
      <trkpt lat="45.19789" lon="5.72863">
        <ele>344</ele>
        <time>2021-07-25T04:21:36.000Z</time>
      </trkpt>
      <trkpt lat="45.1979" lon="5.72865">
        <ele>344.20001220703</ele>
        <time>2021-07-25T04:21:37.000Z</time>
      </trkpt>
      <trkpt lat="45.19791" lon="5.72866">
        <ele>344.39999389648</ele>
        <time>2021-07-25T04:21:38.000Z</time>
      </trkpt>
      <trkpt lat="45.19797" lon="5.72874">
        <ele>345.60000610352</ele>
        <time>2021-07-25T04:21:42.000Z</time>
      </trkpt>
      <trkpt lat="45.19799" lon="5.72876">
        <ele>345.79998779297</ele>
        <time>2021-07-25T04:21:45.000Z</time>
      </trkpt>
      <trkpt lat="45.19795" lon="5.72875">
        <ele>347</ele>
        <time>2021-07-25T04:21:49.000Z</time>
      </trkpt>
      <trkpt lat="45.19794" lon="5.72874">
        <ele>347</ele>
        <time>2021-07-25T04:21:50.000Z</time>
      </trkpt>
      <trkpt lat="45.19793" lon="5.72873">
        <ele>347.39999389648</ele>
        <time>2021-07-25T04:21:51.000Z</time>
      </trkpt>
      <trkpt lat="45.1979" lon="5.72872">
        <ele>348</ele>
        <time>2021-07-25T04:21:53.000Z</time>
      </trkpt>
      <trkpt lat="45.19788" lon="5.72871">
        <ele>348.39999389648</ele>
        <time>2021-07-25T04:21:55.000Z</time>
      </trkpt>
      <trkpt lat="45.19783" lon="5.72865">
        <ele>349.20001220703</ele>
        <time>2021-07-25T04:22:00.000Z</time>
      </trkpt>
      <trkpt lat="45.19782" lon="5.72863">
        <ele>349.60000610352</ele>
        <time>2021-07-25T04:22:01.000Z</time>
      </trkpt>
      <trkpt lat="45.1978" lon="5.72862">
        <ele>349.60000610352</ele>
        <time>2021-07-25T04:22:02.000Z</time>
      </trkpt>
      <trkpt lat="45.19777" lon="5.72856">
        <ele>350.60000610352</ele>
        <time>2021-07-25T04:22:06.000Z</time>
      </trkpt>
      <trkpt lat="45.19776" lon="5.72854">
        <ele>350.79998779297</ele>
        <time>2021-07-25T04:22:07.000Z</time>
      </trkpt>
      <trkpt lat="45.19775" lon="5.7285">
        <ele>351</ele>
        <time>2021-07-25T04:22:09.000Z</time>
      </trkpt>
      <trkpt lat="45.19773" lon="5.72846">
        <ele>351.79998779297</ele>
        <time>2021-07-25T04:22:11.000Z</time>
      </trkpt>
      <trkpt lat="45.19769" lon="5.7284">
        <ele>352</ele>
        <time>2021-07-25T04:22:14.000Z</time>
      </trkpt>
      <trkpt lat="45.19767" lon="5.72837">
        <ele>352.60000610352</ele>
        <time>2021-07-25T04:22:16.000Z</time>
      </trkpt>
      <trkpt lat="45.19766" lon="5.72834">
        <ele>353</ele>
        <time>2021-07-25T04:22:18.000Z</time>
      </trkpt>
      <trkpt lat="45.19764" lon="5.72831">
        <ele>353.39999389648</ele>
        <time>2021-07-25T04:22:19.000Z</time>
      </trkpt>
      <trkpt lat="45.1976" lon="5.72826">
        <ele>353.79998779297</ele>
        <time>2021-07-25T04:22:22.000Z</time>
      </trkpt>
      <trkpt lat="45.19758" lon="5.72822">
        <ele>354.60000610352</ele>
        <time>2021-07-25T04:22:24.000Z</time>
      </trkpt>
      <trkpt lat="45.19755" lon="5.72819">
        <ele>354.79998779297</ele>
        <time>2021-07-25T04:22:26.000Z</time>
      </trkpt>
      <trkpt lat="45.19754" lon="5.72816">
        <ele>355</ele>
        <time>2021-07-25T04:22:27.000Z</time>
      </trkpt>
      <trkpt lat="45.19755" lon="5.72812">
        <ele>355</ele>
        <time>2021-07-25T04:22:28.000Z</time>
      </trkpt>
      <trkpt lat="45.19759" lon="5.72809">
        <ele>355.79998779297</ele>
        <time>2021-07-25T04:22:31.000Z</time>
      </trkpt>
      <trkpt lat="45.19761" lon="5.7281">
        <ele>356.39999389648</ele>
        <time>2021-07-25T04:22:33.000Z</time>
      </trkpt>
      <trkpt lat="45.19764" lon="5.72812">
        <ele>357</ele>
        <time>2021-07-25T04:22:35.000Z</time>
      </trkpt>
      <trkpt lat="45.19772" lon="5.72812">
        <ele>358.39999389648</ele>
        <time>2021-07-25T04:22:39.000Z</time>
      </trkpt>
      <trkpt lat="45.19776" lon="5.72813">
        <ele>358.39999389648</ele>
        <time>2021-07-25T04:22:41.000Z</time>
      </trkpt>
      <trkpt lat="45.1978" lon="5.72815">
        <ele>359.20001220703</ele>
        <time>2021-07-25T04:22:43.000Z</time>
      </trkpt>
      <trkpt lat="45.19784" lon="5.72817">
        <ele>359.20001220703</ele>
        <time>2021-07-25T04:22:45.000Z</time>
      </trkpt>
      <trkpt lat="45.19785" lon="5.72819">
        <ele>359.60000610352</ele>
        <time>2021-07-25T04:22:46.000Z</time>
      </trkpt>
      <trkpt lat="45.19789" lon="5.72822">
        <ele>360.20001220703</ele>
        <time>2021-07-25T04:22:48.000Z</time>
      </trkpt>
      <trkpt lat="45.19793" lon="5.72823">
        <ele>360.79998779297</ele>
        <time>2021-07-25T04:22:50.000Z</time>
      </trkpt>
      <trkpt lat="45.19799" lon="5.72827">
        <ele>362.20001220703</ele>
        <time>2021-07-25T04:22:54.000Z</time>
      </trkpt>
      <trkpt lat="45.198" lon="5.72827">
        <ele>362.20001220703</ele>
        <time>2021-07-25T04:22:55.000Z</time>
      </trkpt>
      <trkpt lat="45.1981" lon="5.72832">
        <ele>363.20001220703</ele>
        <time>2021-07-25T04:23:00.000Z</time>
      </trkpt>
      <trkpt lat="45.19813" lon="5.72833">
        <ele>363.79998779297</ele>
        <time>2021-07-25T04:23:01.000Z</time>
      </trkpt>
      <trkpt lat="45.19815" lon="5.72834">
        <ele>363.79998779297</ele>
        <time>2021-07-25T04:23:02.000Z</time>
      </trkpt>
      <trkpt lat="45.19816" lon="5.72834">
        <ele>364.39999389648</ele>
        <time>2021-07-25T04:23:03.000Z</time>
      </trkpt>
      <trkpt lat="45.19817" lon="5.72835">
        <ele>364.39999389648</ele>
        <time>2021-07-25T04:23:04.000Z</time>
      </trkpt>
      <trkpt lat="45.19818" lon="5.72834">
        <ele>364.39999389648</ele>
        <time>2021-07-25T04:23:05.000Z</time>
      </trkpt>
      <trkpt lat="45.19816" lon="5.72833">
        <ele>364.60000610352</ele>
        <time>2021-07-25T04:23:07.000Z</time>
      </trkpt>
      <trkpt lat="45.19812" lon="5.7283">
        <ele>365.39999389648</ele>
        <time>2021-07-25T04:23:10.000Z</time>
      </trkpt>
      <trkpt lat="45.19809" lon="5.7283">
        <ele>365.60000610352</ele>
        <time>2021-07-25T04:23:12.000Z</time>
      </trkpt>
      <trkpt lat="45.19804" lon="5.72827">
        <ele>365.79998779297</ele>
        <time>2021-07-25T04:23:15.000Z</time>
      </trkpt>
      <trkpt lat="45.19796" lon="5.72823">
        <ele>366.60000610352</ele>
        <time>2021-07-25T04:23:20.000Z</time>
      </trkpt>
      <trkpt lat="45.19792" lon="5.72819">
        <ele>366.79998779297</ele>
        <time>2021-07-25T04:23:23.000Z</time>
      </trkpt>
      <trkpt lat="45.1979" lon="5.72814">
        <ele>367</ele>
        <time>2021-07-25T04:23:25.000Z</time>
      </trkpt>
      <trkpt lat="45.1979" lon="5.72812">
        <ele>367.20001220703</ele>
        <time>2021-07-25T04:23:26.000Z</time>
      </trkpt>
      <trkpt lat="45.19791" lon="5.72812">
        <ele>367.20001220703</ele>
        <time>2021-07-25T04:23:27.000Z</time>
      </trkpt>
      <trkpt lat="45.19796" lon="5.72811">
        <ele>367.79998779297</ele>
        <time>2021-07-25T04:23:29.000Z</time>
      </trkpt>
      <trkpt lat="45.19802" lon="5.72814">
        <ele>368.79998779297</ele>
        <time>2021-07-25T04:23:32.000Z</time>
      </trkpt>
      <trkpt lat="45.19807" lon="5.72818">
        <ele>369.39999389648</ele>
        <time>2021-07-25T04:23:35.000Z</time>
      </trkpt>
      <trkpt lat="45.19811" lon="5.72819">
        <ele>369.79998779297</ele>
        <time>2021-07-25T04:23:37.000Z</time>
      </trkpt>
      <trkpt lat="45.19814" lon="5.7282">
        <ele>370.39999389648</ele>
        <time>2021-07-25T04:23:39.000Z</time>
      </trkpt>
      <trkpt lat="45.19816" lon="5.72821">
        <ele>371.20001220703</ele>
        <time>2021-07-25T04:23:40.000Z</time>
      </trkpt>
      <trkpt lat="45.1982" lon="5.72824">
        <ele>371.60000610352</ele>
        <time>2021-07-25T04:23:42.000Z</time>
      </trkpt>
      <trkpt lat="45.19827" lon="5.72829">
        <ele>372.60000610352</ele>
        <time>2021-07-25T04:23:47.000Z</time>
      </trkpt>
      <trkpt lat="45.19829" lon="5.72829">
        <ele>372.79998779297</ele>
        <time>2021-07-25T04:23:49.000Z</time>
      </trkpt>
      <trkpt lat="45.19827" lon="5.72828">
        <ele>373.39999389648</ele>
        <time>2021-07-25T04:23:51.000Z</time>
      </trkpt>
      <trkpt lat="45.19825" lon="5.72827">
        <ele>373.39999389648</ele>
        <time>2021-07-25T04:23:53.000Z</time>
      </trkpt>
      <trkpt lat="45.1982" lon="5.72826">
        <ele>374</ele>
        <time>2021-07-25T04:23:56.000Z</time>
      </trkpt>
      <trkpt lat="45.19816" lon="5.72822">
        <ele>374.79998779297</ele>
        <time>2021-07-25T04:23:59.000Z</time>
      </trkpt>
      <trkpt lat="45.19815" lon="5.72814">
        <ele>375</ele>
        <time>2021-07-25T04:24:02.000Z</time>
      </trkpt>
      <trkpt lat="45.19817" lon="5.72811">
        <ele>375.39999389648</ele>
        <time>2021-07-25T04:24:03.000Z</time>
      </trkpt>
      <trkpt lat="45.19818" lon="5.7281">
        <ele>375.79998779297</ele>
        <time>2021-07-25T04:24:04.000Z</time>
      </trkpt>
      <trkpt lat="45.19822" lon="5.72811">
        <ele>376.39999389648</ele>
        <time>2021-07-25T04:24:06.000Z</time>
      </trkpt>
      <trkpt lat="45.19829" lon="5.72815">
        <ele>377.20001220703</ele>
        <time>2021-07-25T04:24:10.000Z</time>
      </trkpt>
      <trkpt lat="45.19831" lon="5.72816">
        <ele>377.79998779297</ele>
        <time>2021-07-25T04:24:11.000Z</time>
      </trkpt>
      <trkpt lat="45.19838" lon="5.72823">
        <ele>378.60000610352</ele>
        <time>2021-07-25T04:24:15.000Z</time>
      </trkpt>
      <trkpt lat="45.1984" lon="5.72824">
        <ele>379.20001220703</ele>
        <time>2021-07-25T04:24:16.000Z</time>
      </trkpt>
      <trkpt lat="45.19843" lon="5.72824">
        <ele>379.20001220703</ele>
        <time>2021-07-25T04:24:19.000Z</time>
      </trkpt>
      <trkpt lat="45.19836" lon="5.72821">
        <ele>380.20001220703</ele>
        <time>2021-07-25T04:24:24.000Z</time>
      </trkpt>
      <trkpt lat="45.19833" lon="5.72822">
        <ele>380.79998779297</ele>
        <time>2021-07-25T04:24:25.000Z</time>
      </trkpt>
      <trkpt lat="45.1983" lon="5.7282">
        <ele>381</ele>
        <time>2021-07-25T04:24:27.000Z</time>
      </trkpt>
      <trkpt lat="45.19829" lon="5.72819">
        <ele>381.20001220703</ele>
        <time>2021-07-25T04:24:28.000Z</time>
      </trkpt>
      <trkpt lat="45.19824" lon="5.72814">
        <ele>382.39999389648</ele>
        <time>2021-07-25T04:24:32.000Z</time>
      </trkpt>
      <trkpt lat="45.19823" lon="5.72814">
        <ele>382.60000610352</ele>
        <time>2021-07-25T04:24:33.000Z</time>
      </trkpt>
      <trkpt lat="45.19821" lon="5.72813">
        <ele>382.79998779297</ele>
        <time>2021-07-25T04:24:34.000Z</time>
      </trkpt>
      <trkpt lat="45.19818" lon="5.72811">
        <ele>383.60000610352</ele>
        <time>2021-07-25T04:24:36.000Z</time>
      </trkpt>
      <trkpt lat="45.19813" lon="5.72807">
        <ele>384</ele>
        <time>2021-07-25T04:24:39.000Z</time>
      </trkpt>
      <trkpt lat="45.19809" lon="5.72801">
        <ele>384.60000610352</ele>
        <time>2021-07-25T04:24:43.000Z</time>
      </trkpt>
      <trkpt lat="45.19807" lon="5.72799">
        <ele>385</ele>
        <time>2021-07-25T04:24:44.000Z</time>
      </trkpt>
      <trkpt lat="45.19803" lon="5.72794">
        <ele>385.60000610352</ele>
        <time>2021-07-25T04:24:47.000Z</time>
      </trkpt>
      <trkpt lat="45.19799" lon="5.72784">
        <ele>386</ele>
        <time>2021-07-25T04:24:51.000Z</time>
      </trkpt>
      <trkpt lat="45.19801" lon="5.72779">
        <ele>387</ele>
        <time>2021-07-25T04:24:55.000Z</time>
      </trkpt>
      <trkpt lat="45.19805" lon="5.72781">
        <ele>387.60000610352</ele>
        <time>2021-07-25T04:24:57.000Z</time>
      </trkpt>
      <trkpt lat="45.1981" lon="5.72786">
        <ele>388</ele>
        <time>2021-07-25T04:25:00.000Z</time>
      </trkpt>
      <trkpt lat="45.19816" lon="5.72789">
        <ele>389.20001220703</ele>
        <time>2021-07-25T04:25:03.000Z</time>
      </trkpt>
      <trkpt lat="45.19824" lon="5.72792">
        <ele>390.20001220703</ele>
        <time>2021-07-25T04:25:07.000Z</time>
      </trkpt>
      <trkpt lat="45.19835" lon="5.72796">
        <ele>391.60000610352</ele>
        <time>2021-07-25T04:25:12.000Z</time>
      </trkpt>
      <trkpt lat="45.19838" lon="5.72797">
        <ele>391.79998779297</ele>
        <time>2021-07-25T04:25:13.000Z</time>
      </trkpt>
      <trkpt lat="45.1984" lon="5.72797">
        <ele>391.79998779297</ele>
        <time>2021-07-25T04:25:14.000Z</time>
      </trkpt>
      <trkpt lat="45.19842" lon="5.72795">
        <ele>392.60000610352</ele>
        <time>2021-07-25T04:25:15.000Z</time>
      </trkpt>
      <trkpt lat="45.19843" lon="5.72794">
        <ele>392.79998779297</ele>
        <time>2021-07-25T04:25:16.000Z</time>
      </trkpt>
      <trkpt lat="45.19842" lon="5.72794">
        <ele>392.79998779297</ele>
        <time>2021-07-25T04:25:17.000Z</time>
      </trkpt>
      <trkpt lat="45.19836" lon="5.72794">
        <ele>393.60000610352</ele>
        <time>2021-07-25T04:25:20.000Z</time>
      </trkpt>
      <trkpt lat="45.19835" lon="5.72794">
        <ele>393.60000610352</ele>
        <time>2021-07-25T04:25:21.000Z</time>
      </trkpt>
      <trkpt lat="45.19828" lon="5.72788">
        <ele>394.60000610352</ele>
        <time>2021-07-25T04:25:26.000Z</time>
      </trkpt>
      <trkpt lat="45.19826" lon="5.72787">
        <ele>395</ele>
        <time>2021-07-25T04:25:27.000Z</time>
      </trkpt>
      <trkpt lat="45.19823" lon="5.72783">
        <ele>395.39999389648</ele>
        <time>2021-07-25T04:25:30.000Z</time>
      </trkpt>
      <trkpt lat="45.19819" lon="5.72781">
        <ele>396.20001220703</ele>
        <time>2021-07-25T04:25:33.000Z</time>
      </trkpt>
      <trkpt lat="45.19818" lon="5.72779">
        <ele>396.39999389648</ele>
        <time>2021-07-25T04:25:34.000Z</time>
      </trkpt>
      <trkpt lat="45.19816" lon="5.72775">
        <ele>396.79998779297</ele>
        <time>2021-07-25T04:25:36.000Z</time>
      </trkpt>
      <trkpt lat="45.19816" lon="5.72772">
        <ele>397</ele>
        <time>2021-07-25T04:25:37.000Z</time>
      </trkpt>
      <trkpt lat="45.19816" lon="5.72769">
        <ele>397.39999389648</ele>
        <time>2021-07-25T04:25:38.000Z</time>
      </trkpt>
      <trkpt lat="45.19814" lon="5.72766">
        <ele>397.79998779297</ele>
        <time>2021-07-25T04:25:40.000Z</time>
      </trkpt>
      <trkpt lat="45.19812" lon="5.72763">
        <ele>398</ele>
        <time>2021-07-25T04:25:42.000Z</time>
      </trkpt>
      <trkpt lat="45.19811" lon="5.72762">
        <ele>398.60000610352</ele>
        <time>2021-07-25T04:25:43.000Z</time>
      </trkpt>
      <trkpt lat="45.19806" lon="5.72759">
        <ele>399</ele>
        <time>2021-07-25T04:25:46.000Z</time>
      </trkpt>
      <trkpt lat="45.19803" lon="5.72756">
        <ele>399.39999389648</ele>
        <time>2021-07-25T04:25:48.000Z</time>
      </trkpt>
      <trkpt lat="45.19802" lon="5.72754">
        <ele>400.20001220703</ele>
        <time>2021-07-25T04:25:49.000Z</time>
      </trkpt>
      <trkpt lat="45.19796" lon="5.72749">
        <ele>400.60000610352</ele>
        <time>2021-07-25T04:25:53.000Z</time>
      </trkpt>
      <trkpt lat="45.19793" lon="5.72739">
        <ele>401.20001220703</ele>
        <time>2021-07-25T04:25:57.000Z</time>
      </trkpt>
      <trkpt lat="45.19794" lon="5.72734">
        <ele>402</ele>
        <time>2021-07-25T04:25:59.000Z</time>
      </trkpt>
      <trkpt lat="45.19795" lon="5.72733">
        <ele>402</ele>
        <time>2021-07-25T04:26:00.000Z</time>
      </trkpt>
      <trkpt lat="45.19798" lon="5.72732">
        <ele>402.60000610352</ele>
        <time>2021-07-25T04:26:02.000Z</time>
      </trkpt>
      <trkpt lat="45.19802" lon="5.72733">
        <ele>403.20001220703</ele>
        <time>2021-07-25T04:26:04.000Z</time>
      </trkpt>
      <trkpt lat="45.19804" lon="5.72733">
        <ele>403.20001220703</ele>
        <time>2021-07-25T04:26:05.000Z</time>
      </trkpt>
      <trkpt lat="45.19807" lon="5.72733">
        <ele>403.60000610352</ele>
        <time>2021-07-25T04:26:06.000Z</time>
      </trkpt>
      <trkpt lat="45.19809" lon="5.72733">
        <ele>404.20001220703</ele>
        <time>2021-07-25T04:26:07.000Z</time>
      </trkpt>
      <trkpt lat="45.19814" lon="5.72734">
        <ele>404.39999389648</ele>
        <time>2021-07-25T04:26:09.000Z</time>
      </trkpt>
      <trkpt lat="45.19817" lon="5.72737">
        <ele>404.39999389648</ele>
        <time>2021-07-25T04:26:11.000Z</time>
      </trkpt>
      <trkpt lat="45.1982" lon="5.72741">
        <ele>404.60000610352</ele>
        <time>2021-07-25T04:26:13.000Z</time>
      </trkpt>
      <trkpt lat="45.19822" lon="5.72743">
        <ele>405</ele>
        <time>2021-07-25T04:26:14.000Z</time>
      </trkpt>
      <trkpt lat="45.19823" lon="5.72744">
        <ele>405.20001220703</ele>
        <time>2021-07-25T04:26:15.000Z</time>
      </trkpt>
      <trkpt lat="45.19827" lon="5.72747">
        <ele>405.60000610352</ele>
        <time>2021-07-25T04:26:17.000Z</time>
      </trkpt>
      <trkpt lat="45.19831" lon="5.7275">
        <ele>406.20001220703</ele>
        <time>2021-07-25T04:26:19.000Z</time>
      </trkpt>
      <trkpt lat="45.19834" lon="5.72751">
        <ele>406.20001220703</ele>
        <time>2021-07-25T04:26:20.000Z</time>
      </trkpt>
      <trkpt lat="45.1984" lon="5.72753">
        <ele>407</ele>
        <time>2021-07-25T04:26:22.000Z</time>
      </trkpt>
      <trkpt lat="45.19842" lon="5.72755">
        <ele>407</ele>
        <time>2021-07-25T04:26:23.000Z</time>
      </trkpt>
      <trkpt lat="45.19843" lon="5.72758">
        <ele>407.60000610352</ele>
        <time>2021-07-25T04:26:24.000Z</time>
      </trkpt>
      <trkpt lat="45.19849" lon="5.72764">
        <ele>408.39999389648</ele>
        <time>2021-07-25T04:26:27.000Z</time>
      </trkpt>
      <trkpt lat="45.1985" lon="5.72766">
        <ele>408.39999389648</ele>
        <time>2021-07-25T04:26:28.000Z</time>
      </trkpt>
      <trkpt lat="45.19854" lon="5.72766">
        <ele>408.60000610352</ele>
        <time>2021-07-25T04:26:30.000Z</time>
      </trkpt>
      <trkpt lat="45.19855" lon="5.72765">
        <ele>408.79998779297</ele>
        <time>2021-07-25T04:26:31.000Z</time>
      </trkpt>
      <trkpt lat="45.19855" lon="5.72764">
        <ele>409.20001220703</ele>
        <time>2021-07-25T04:26:32.000Z</time>
      </trkpt>
      <trkpt lat="45.19852" lon="5.72756">
        <ele>409.60000610352</ele>
        <time>2021-07-25T04:26:37.000Z</time>
      </trkpt>
      <trkpt lat="45.19852" lon="5.72754">
        <ele>409.79998779297</ele>
        <time>2021-07-25T04:26:38.000Z</time>
      </trkpt>
      <trkpt lat="45.19853" lon="5.72755">
        <ele>410.39999389648</ele>
        <time>2021-07-25T04:26:41.000Z</time>
      </trkpt>
      <trkpt lat="45.19853" lon="5.72755">
        <ele>410.39999389648</ele>
        <time>2021-07-25T04:26:42.000Z</time>
      </trkpt>
      <trkpt lat="45.19855" lon="5.72754">
        <ele>411.20001220703</ele>
        <time>2021-07-25T04:26:43.000Z</time>
      </trkpt>
      <trkpt lat="45.19855" lon="5.72756">
        <ele>412.20001220703</ele>
        <time>2021-07-25T04:26:45.000Z</time>
      </trkpt>
      <trkpt lat="45.19856" lon="5.72757">
        <ele>412.79998779297</ele>
        <time>2021-07-25T04:26:47.000Z</time>
      </trkpt>
      <trkpt lat="45.19857" lon="5.72758">
        <ele>413</ele>
        <time>2021-07-25T04:26:48.000Z</time>
      </trkpt>
      <trkpt lat="45.19857" lon="5.72759">
        <ele>413.39999389648</ele>
        <time>2021-07-25T04:26:49.000Z</time>
      </trkpt>
      <trkpt lat="45.19859" lon="5.72759">
        <ele>414</ele>
        <time>2021-07-25T04:26:50.000Z</time>
      </trkpt>
      <trkpt lat="45.19861" lon="5.72759">
        <ele>414.20001220703</ele>
        <time>2021-07-25T04:26:51.000Z</time>
      </trkpt>
      <trkpt lat="45.19861" lon="5.7276">
        <ele>414.20001220703</ele>
        <time>2021-07-25T04:26:52.000Z</time>
      </trkpt>
      <trkpt lat="45.19859" lon="5.72763">
        <ele>414.79998779297</ele>
        <time>2021-07-25T04:26:54.000Z</time>
      </trkpt>
      <trkpt lat="45.19858" lon="5.72763">
        <ele>415.39999389648</ele>
        <time>2021-07-25T04:26:56.000Z</time>
      </trkpt>
      <trkpt lat="45.19848" lon="5.72749">
        <ele>428.60000610352</ele>
        <time>2021-07-25T04:27:39.000Z</time>
      </trkpt>
      <trkpt lat="45.19849" lon="5.72759">
        <ele>429</ele>
        <time>2021-07-25T04:27:40.000Z</time>
      </trkpt>
      <trkpt lat="45.19854" lon="5.7276">
        <ele>429.20001220703</ele>
        <time>2021-07-25T04:27:41.000Z</time>
      </trkpt>
      <trkpt lat="45.19853" lon="5.72762">
        <ele>430.39999389648</ele>
        <time>2021-07-25T04:27:43.000Z</time>
      </trkpt>
      <trkpt lat="45.19854" lon="5.72762">
        <ele>431</ele>
        <time>2021-07-25T04:27:44.000Z</time>
      </trkpt>
      <trkpt lat="45.19859" lon="5.72756">
        <ele>431.20001220703</ele>
        <time>2021-07-25T04:27:46.000Z</time>
      </trkpt>
      <trkpt lat="45.19859" lon="5.72752">
        <ele>432.39999389648</ele>
        <time>2021-07-25T04:27:48.000Z</time>
      </trkpt>
      <trkpt lat="45.19858" lon="5.72751">
        <ele>432.60000610352</ele>
        <time>2021-07-25T04:27:50.000Z</time>
      </trkpt>
      <trkpt lat="45.19858" lon="5.72748">
        <ele>432.79998779297</ele>
        <time>2021-07-25T04:27:52.000Z</time>
      </trkpt>
      <trkpt lat="45.19859" lon="5.72743">
        <ele>432.79998779297</ele>
        <time>2021-07-25T04:27:54.000Z</time>
      </trkpt>
      <trkpt lat="45.19859" lon="5.72741">
        <ele>432.79998779297</ele>
        <time>2021-07-25T04:27:55.000Z</time>
      </trkpt>
      <trkpt lat="45.1986" lon="5.72736">
        <ele>433.20001220703</ele>
        <time>2021-07-25T04:27:57.000Z</time>
      </trkpt>
      <trkpt lat="45.19858" lon="5.72735">
        <ele>433.39999389648</ele>
        <time>2021-07-25T04:27:59.000Z</time>
      </trkpt>
      <trkpt lat="45.19857" lon="5.72736">
        <ele>433.39999389648</ele>
        <time>2021-07-25T04:28:01.000Z</time>
      </trkpt>
      <trkpt lat="45.19857" lon="5.72737">
        <ele>434.39999389648</ele>
        <time>2021-07-25T04:28:02.000Z</time>
      </trkpt>
      <trkpt lat="45.19856" lon="5.72737">
        <ele>434.79998779297</ele>
        <time>2021-07-25T04:28:03.000Z</time>
      </trkpt>
      <trkpt lat="45.1985" lon="5.72731">
        <ele>437.60000610352</ele>
        <time>2021-07-25T04:28:17.000Z</time>
      </trkpt>
      <trkpt lat="45.19839" lon="5.72738">
        <ele>437.39999389648</ele>
        <time>2021-07-25T04:28:19.000Z</time>
      </trkpt>
      <trkpt lat="45.19838" lon="5.72723">
        <ele>437.20001220703</ele>
        <time>2021-07-25T04:28:23.000Z</time>
      </trkpt>
      <trkpt lat="45.19837" lon="5.72721">
        <ele>437.20001220703</ele>
        <time>2021-07-25T04:28:24.000Z</time>
      </trkpt>
      <trkpt lat="45.19833" lon="5.72715">
        <ele>436.79998779297</ele>
        <time>2021-07-25T04:28:26.000Z</time>
      </trkpt>
      <trkpt lat="45.19816" lon="5.72703">
        <ele>436.60000610352</ele>
        <time>2021-07-25T04:28:33.000Z</time>
      </trkpt>
      <trkpt lat="45.19802" lon="5.7269">
        <ele>436.79998779297</ele>
        <time>2021-07-25T04:28:39.000Z</time>
      </trkpt>
      <trkpt lat="45.1979" lon="5.72681">
        <ele>436.39999389648</ele>
        <time>2021-07-25T04:28:44.000Z</time>
      </trkpt>
      <trkpt lat="45.19786" lon="5.72677">
        <ele>436.39999389648</ele>
        <time>2021-07-25T04:28:46.000Z</time>
      </trkpt>
      <trkpt lat="45.19781" lon="5.72677">
        <ele>436.39999389648</ele>
        <time>2021-07-25T04:28:49.000Z</time>
      </trkpt>
      <trkpt lat="45.19779" lon="5.7268">
        <ele>436.39999389648</ele>
        <time>2021-07-25T04:28:50.000Z</time>
      </trkpt>
      <trkpt lat="45.19775" lon="5.72681">
        <ele>436.39999389648</ele>
        <time>2021-07-25T04:28:53.000Z</time>
      </trkpt>
      <trkpt lat="45.19774" lon="5.72676">
        <ele>436.39999389648</ele>
        <time>2021-07-25T04:28:55.000Z</time>
      </trkpt>
      <trkpt lat="45.19776" lon="5.72665">
        <ele>436.20001220703</ele>
        <time>2021-07-25T04:28:59.000Z</time>
      </trkpt>
      <trkpt lat="45.19772" lon="5.72658">
        <ele>436.20001220703</ele>
        <time>2021-07-25T04:29:02.000Z</time>
      </trkpt>
      <trkpt lat="45.1977" lon="5.72656">
        <ele>436.20001220703</ele>
        <time>2021-07-25T04:29:03.000Z</time>
      </trkpt>
      <trkpt lat="45.19766" lon="5.72651">
        <ele>436.20001220703</ele>
        <time>2021-07-25T04:29:05.000Z</time>
      </trkpt>
      <trkpt lat="45.19761" lon="5.72643">
        <ele>436.39999389648</ele>
        <time>2021-07-25T04:29:08.000Z</time>
      </trkpt>
      <trkpt lat="45.19756" lon="5.72635">
        <ele>436.39999389648</ele>
        <time>2021-07-25T04:29:11.000Z</time>
      </trkpt>
      <trkpt lat="45.19754" lon="5.72632">
        <ele>436.39999389648</ele>
        <time>2021-07-25T04:29:12.000Z</time>
      </trkpt>
      <trkpt lat="45.1975" lon="5.72629">
        <ele>436.20001220703</ele>
        <time>2021-07-25T04:29:15.000Z</time>
      </trkpt>
      <trkpt lat="45.19748" lon="5.72631">
        <ele>436.20001220703</ele>
        <time>2021-07-25T04:29:16.000Z</time>
      </trkpt>
      <trkpt lat="45.19738" lon="5.72635">
        <ele>436.20001220703</ele>
        <time>2021-07-25T04:29:20.000Z</time>
      </trkpt>
      <trkpt lat="45.19736" lon="5.7263">
        <ele>436.79998779297</ele>
        <time>2021-07-25T04:29:22.000Z</time>
      </trkpt>
      <trkpt lat="45.19737" lon="5.72622">
        <ele>436.79998779297</ele>
        <time>2021-07-25T04:29:24.000Z</time>
      </trkpt>
      <trkpt lat="45.19743" lon="5.72614">
        <ele>436.39999389648</ele>
        <time>2021-07-25T04:29:28.000Z</time>
      </trkpt>
      <trkpt lat="45.19743" lon="5.72592">
        <ele>436</ele>
        <time>2021-07-25T04:29:34.000Z</time>
      </trkpt>
      <trkpt lat="45.19743" lon="5.72572">
        <ele>436.20001220703</ele>
        <time>2021-07-25T04:29:39.000Z</time>
      </trkpt>
      <trkpt lat="45.19744" lon="5.72564">
        <ele>436.20001220703</ele>
        <time>2021-07-25T04:29:41.000Z</time>
      </trkpt>
      <trkpt lat="45.19743" lon="5.72553">
        <ele>436</ele>
        <time>2021-07-25T04:29:44.000Z</time>
      </trkpt>
      <trkpt lat="45.19743" lon="5.72537">
        <ele>436.39999389648</ele>
        <time>2021-07-25T04:29:48.000Z</time>
      </trkpt>
      <trkpt lat="45.19742" lon="5.72532">
        <ele>436</ele>
        <time>2021-07-25T04:29:50.000Z</time>
      </trkpt>
      <trkpt lat="45.19738" lon="5.72531">
        <ele>436.39999389648</ele>
        <time>2021-07-25T04:29:52.000Z</time>
      </trkpt>
      <trkpt lat="45.19732" lon="5.72527">
        <ele>436.39999389648</ele>
        <time>2021-07-25T04:29:55.000Z</time>
      </trkpt>
      <trkpt lat="45.19731" lon="5.72522">
        <ele>436.39999389648</ele>
        <time>2021-07-25T04:29:57.000Z</time>
      </trkpt>
      <trkpt lat="45.19733" lon="5.72508">
        <ele>436.20001220703</ele>
        <time>2021-07-25T04:30:02.000Z</time>
      </trkpt>
      <trkpt lat="45.19738" lon="5.72504">
        <ele>436.39999389648</ele>
        <time>2021-07-25T04:30:05.000Z</time>
      </trkpt>
      <trkpt lat="45.19742" lon="5.72505">
        <ele>436.39999389648</ele>
        <time>2021-07-25T04:30:07.000Z</time>
      </trkpt>
      <trkpt lat="45.19745" lon="5.72504">
        <ele>436.39999389648</ele>
        <time>2021-07-25T04:30:09.000Z</time>
      </trkpt>
      <trkpt lat="45.19748" lon="5.72499">
        <ele>436.39999389648</ele>
        <time>2021-07-25T04:30:11.000Z</time>
      </trkpt>
      <trkpt lat="45.19753" lon="5.72489">
        <ele>436.39999389648</ele>
        <time>2021-07-25T04:30:14.000Z</time>
      </trkpt>
      <trkpt lat="45.19758" lon="5.7248">
        <ele>436.20001220703</ele>
        <time>2021-07-25T04:30:17.000Z</time>
      </trkpt>
      <trkpt lat="45.19759" lon="5.72477">
        <ele>436</ele>
        <time>2021-07-25T04:30:18.000Z</time>
      </trkpt>
      <trkpt lat="45.19761" lon="5.72474">
        <ele>436.20001220703</ele>
        <time>2021-07-25T04:30:19.000Z</time>
      </trkpt>
      <trkpt lat="45.19772" lon="5.72453">
        <ele>436</ele>
        <time>2021-07-25T04:30:26.000Z</time>
      </trkpt>
      <trkpt lat="45.19782" lon="5.72431">
        <ele>436</ele>
        <time>2021-07-25T04:30:33.000Z</time>
      </trkpt>
      <trkpt lat="45.19784" lon="5.72428">
        <ele>436.20001220703</ele>
        <time>2021-07-25T04:30:34.000Z</time>
      </trkpt>
      <trkpt lat="45.19795" lon="5.72406">
        <ele>436.79998779297</ele>
        <time>2021-07-25T04:30:41.000Z</time>
      </trkpt>
      <trkpt lat="45.19796" lon="5.72391">
        <ele>437.20001220703</ele>
        <time>2021-07-25T04:30:45.000Z</time>
      </trkpt>
      <trkpt lat="45.19795" lon="5.72387">
        <ele>437</ele>
        <time>2021-07-25T04:30:46.000Z</time>
      </trkpt>
      <trkpt lat="45.19796" lon="5.72373">
        <ele>436.79998779297</ele>
        <time>2021-07-25T04:30:50.000Z</time>
      </trkpt>
      <trkpt lat="45.19798" lon="5.72363">
        <ele>437</ele>
        <time>2021-07-25T04:30:53.000Z</time>
      </trkpt>
      <trkpt lat="45.19803" lon="5.72348">
        <ele>437.39999389648</ele>
        <time>2021-07-25T04:30:57.000Z</time>
      </trkpt>
      <trkpt lat="45.19809" lon="5.72329">
        <ele>437.20001220703</ele>
        <time>2021-07-25T04:31:03.000Z</time>
      </trkpt>
      <trkpt lat="45.19815" lon="5.72312">
        <ele>437.39999389648</ele>
        <time>2021-07-25T04:31:09.000Z</time>
      </trkpt>
      <trkpt lat="45.19816" lon="5.72303">
        <ele>437</ele>
        <time>2021-07-25T04:31:13.000Z</time>
      </trkpt>
      <trkpt lat="45.19818" lon="5.72297">
        <ele>437.20001220703</ele>
        <time>2021-07-25T04:31:15.000Z</time>
      </trkpt>
      <trkpt lat="45.19822" lon="5.72294">
        <ele>437.20001220703</ele>
        <time>2021-07-25T04:31:18.000Z</time>
      </trkpt>
      <trkpt lat="45.19821" lon="5.72299">
        <ele>437.20001220703</ele>
        <time>2021-07-25T04:31:21.000Z</time>
      </trkpt>
      <trkpt lat="45.19816" lon="5.72319">
        <ele>437.20001220703</ele>
        <time>2021-07-25T04:31:26.000Z</time>
      </trkpt>
      <trkpt lat="45.19809" lon="5.7234">
        <ele>436.79998779297</ele>
        <time>2021-07-25T04:31:32.000Z</time>
      </trkpt>
      <trkpt lat="45.19801" lon="5.7236">
        <ele>437</ele>
        <time>2021-07-25T04:31:38.000Z</time>
      </trkpt>
      <trkpt lat="45.19795" lon="5.72379">
        <ele>437.20001220703</ele>
        <time>2021-07-25T04:31:44.000Z</time>
      </trkpt>
      <trkpt lat="45.19792" lon="5.72387">
        <ele>437</ele>
        <time>2021-07-25T04:31:47.000Z</time>
      </trkpt>
      <trkpt lat="45.19792" lon="5.72392">
        <ele>437</ele>
        <time>2021-07-25T04:31:49.000Z</time>
      </trkpt>
      <trkpt lat="45.19794" lon="5.72409">
        <ele>436.60000610352</ele>
        <time>2021-07-25T04:31:54.000Z</time>
      </trkpt>
      <trkpt lat="45.19794" lon="5.72413">
        <ele>437</ele>
        <time>2021-07-25T04:31:55.000Z</time>
      </trkpt>
      <trkpt lat="45.19794" lon="5.72424">
        <ele>436.60000610352</ele>
        <time>2021-07-25T04:31:58.000Z</time>
      </trkpt>
      <trkpt lat="45.19794" lon="5.72427">
        <ele>436.20001220703</ele>
        <time>2021-07-25T04:31:59.000Z</time>
      </trkpt>
      <trkpt lat="45.19794" lon="5.72431">
        <ele>436.20001220703</ele>
        <time>2021-07-25T04:32:00.000Z</time>
      </trkpt>
      <trkpt lat="45.19791" lon="5.72453">
        <ele>436.79998779297</ele>
        <time>2021-07-25T04:32:06.000Z</time>
      </trkpt>
      <trkpt lat="45.19787" lon="5.72479">
        <ele>437.20001220703</ele>
        <time>2021-07-25T04:32:13.000Z</time>
      </trkpt>
      <trkpt lat="45.19786" lon="5.72482">
        <ele>437.20001220703</ele>
        <time>2021-07-25T04:32:14.000Z</time>
      </trkpt>
      <trkpt lat="45.19785" lon="5.72486">
        <ele>437.60000610352</ele>
        <time>2021-07-25T04:32:15.000Z</time>
      </trkpt>
      <trkpt lat="45.19782" lon="5.72499">
        <ele>438.39999389648</ele>
        <time>2021-07-25T04:32:19.000Z</time>
      </trkpt>
      <trkpt lat="45.19778" lon="5.72508">
        <ele>439</ele>
        <time>2021-07-25T04:32:22.000Z</time>
      </trkpt>
      <trkpt lat="45.19776" lon="5.72511">
        <ele>438.79998779297</ele>
        <time>2021-07-25T04:32:23.000Z</time>
      </trkpt>
      <trkpt lat="45.19772" lon="5.72516">
        <ele>439.60000610352</ele>
        <time>2021-07-25T04:32:25.000Z</time>
      </trkpt>
      <trkpt lat="45.19769" lon="5.72526">
        <ele>440</ele>
        <time>2021-07-25T04:32:28.000Z</time>
      </trkpt>
      <trkpt lat="45.19768" lon="5.7253">
        <ele>440.39999389648</ele>
        <time>2021-07-25T04:32:29.000Z</time>
      </trkpt>
      <trkpt lat="45.19767" lon="5.72536">
        <ele>440.79998779297</ele>
        <time>2021-07-25T04:32:31.000Z</time>
      </trkpt>
      <trkpt lat="45.19768" lon="5.72548">
        <ele>441.60000610352</ele>
        <time>2021-07-25T04:32:35.000Z</time>
      </trkpt>
      <trkpt lat="45.19767" lon="5.72558">
        <ele>442</ele>
        <time>2021-07-25T04:32:38.000Z</time>
      </trkpt>
      <trkpt lat="45.19767" lon="5.72561">
        <ele>442.39999389648</ele>
        <time>2021-07-25T04:32:39.000Z</time>
      </trkpt>
      <trkpt lat="45.19766" lon="5.72563">
        <ele>442.79998779297</ele>
        <time>2021-07-25T04:32:40.000Z</time>
      </trkpt>
      <trkpt lat="45.19766" lon="5.72575">
        <ele>443.79998779297</ele>
        <time>2021-07-25T04:32:44.000Z</time>
      </trkpt>
      <trkpt lat="45.19766" lon="5.72578">
        <ele>443.79998779297</ele>
        <time>2021-07-25T04:32:45.000Z</time>
      </trkpt>
      <trkpt lat="45.19766" lon="5.7258">
        <ele>444</ele>
        <time>2021-07-25T04:32:46.000Z</time>
      </trkpt>
      <trkpt lat="45.1977" lon="5.72579">
        <ele>444.79998779297</ele>
        <time>2021-07-25T04:32:49.000Z</time>
      </trkpt>
      <trkpt lat="45.1977" lon="5.72578">
        <ele>445.20001220703</ele>
        <time>2021-07-25T04:32:50.000Z</time>
      </trkpt>
      <trkpt lat="45.19772" lon="5.72567">
        <ele>445.60000610352</ele>
        <time>2021-07-25T04:32:54.000Z</time>
      </trkpt>
      <trkpt lat="45.19773" lon="5.72561">
        <ele>445.79998779297</ele>
        <time>2021-07-25T04:32:56.000Z</time>
      </trkpt>
      <trkpt lat="45.19773" lon="5.72557">
        <ele>446.60000610352</ele>
        <time>2021-07-25T04:32:58.000Z</time>
      </trkpt>
      <trkpt lat="45.19773" lon="5.72555">
        <ele>447</ele>
        <time>2021-07-25T04:33:00.000Z</time>
      </trkpt>
      <trkpt lat="45.19774" lon="5.7255">
        <ele>447.20001220703</ele>
        <time>2021-07-25T04:33:02.000Z</time>
      </trkpt>
      <trkpt lat="45.19778" lon="5.72535">
        <ele>448</ele>
        <time>2021-07-25T04:33:09.000Z</time>
      </trkpt>
      <trkpt lat="45.19778" lon="5.72532">
        <ele>448.60000610352</ele>
        <time>2021-07-25T04:33:11.000Z</time>
      </trkpt>
      <trkpt lat="45.19779" lon="5.72529">
        <ele>449.20001220703</ele>
        <time>2021-07-25T04:33:13.000Z</time>
      </trkpt>
      <trkpt lat="45.19781" lon="5.72529">
        <ele>449.39999389648</ele>
        <time>2021-07-25T04:33:15.000Z</time>
      </trkpt>
      <trkpt lat="45.19782" lon="5.72531">
        <ele>449.39999389648</ele>
        <time>2021-07-25T04:33:16.000Z</time>
      </trkpt>
      <trkpt lat="45.19783" lon="5.72539">
        <ele>450.60000610352</ele>
        <time>2021-07-25T04:33:19.000Z</time>
      </trkpt>
      <trkpt lat="45.19783" lon="5.72542">
        <ele>450.60000610352</ele>
        <time>2021-07-25T04:33:20.000Z</time>
      </trkpt>
      <trkpt lat="45.19782" lon="5.72554">
        <ele>451.39999389648</ele>
        <time>2021-07-25T04:33:25.000Z</time>
      </trkpt>
      <trkpt lat="45.19781" lon="5.72556">
        <ele>452</ele>
        <time>2021-07-25T04:33:26.000Z</time>
      </trkpt>
      <trkpt lat="45.1978" lon="5.72559">
        <ele>452.20001220703</ele>
        <time>2021-07-25T04:33:27.000Z</time>
      </trkpt>
      <trkpt lat="45.1978" lon="5.72574">
        <ele>452.60000610352</ele>
        <time>2021-07-25T04:33:32.000Z</time>
      </trkpt>
      <trkpt lat="45.1978" lon="5.72577">
        <ele>453.60000610352</ele>
        <time>2021-07-25T04:33:33.000Z</time>
      </trkpt>
      <trkpt lat="45.19781" lon="5.72596">
        <ele>454.60000610352</ele>
        <time>2021-07-25T04:33:39.000Z</time>
      </trkpt>
      <trkpt lat="45.19785" lon="5.72613">
        <ele>455.60000610352</ele>
        <time>2021-07-25T04:33:44.000Z</time>
      </trkpt>
      <trkpt lat="45.19788" lon="5.72618">
        <ele>456</ele>
        <time>2021-07-25T04:33:46.000Z</time>
      </trkpt>
      <trkpt lat="45.19796" lon="5.72626">
        <ele>456.79998779297</ele>
        <time>2021-07-25T04:33:50.000Z</time>
      </trkpt>
      <trkpt lat="45.19801" lon="5.7263">
        <ele>457.39999389648</ele>
        <time>2021-07-25T04:33:52.000Z</time>
      </trkpt>
      <trkpt lat="45.19807" lon="5.72637">
        <ele>458</ele>
        <time>2021-07-25T04:33:55.000Z</time>
      </trkpt>
      <trkpt lat="45.19812" lon="5.72638">
        <ele>458.39999389648</ele>
        <time>2021-07-25T04:33:57.000Z</time>
      </trkpt>
      <trkpt lat="45.19816" lon="5.72643">
        <ele>459.39999389648</ele>
        <time>2021-07-25T04:34:00.000Z</time>
      </trkpt>
      <trkpt lat="45.19817" lon="5.72644">
        <ele>459.39999389648</ele>
        <time>2021-07-25T04:34:01.000Z</time>
      </trkpt>
      <trkpt lat="45.19819" lon="5.72646">
        <ele>459.39999389648</ele>
        <time>2021-07-25T04:34:02.000Z</time>
      </trkpt>
      <trkpt lat="45.19824" lon="5.72651">
        <ele>460.39999389648</ele>
        <time>2021-07-25T04:34:05.000Z</time>
      </trkpt>
      <trkpt lat="45.19825" lon="5.72653">
        <ele>460.39999389648</ele>
        <time>2021-07-25T04:34:06.000Z</time>
      </trkpt>
      <trkpt lat="45.19826" lon="5.72659">
        <ele>461</ele>
        <time>2021-07-25T04:34:08.000Z</time>
      </trkpt>
      <trkpt lat="45.19828" lon="5.72663">
        <ele>461.20001220703</ele>
        <time>2021-07-25T04:34:10.000Z</time>
      </trkpt>
      <trkpt lat="45.19831" lon="5.72667">
        <ele>461.39999389648</ele>
        <time>2021-07-25T04:34:12.000Z</time>
      </trkpt>
      <trkpt lat="45.19833" lon="5.72668">
        <ele>461.60000610352</ele>
        <time>2021-07-25T04:34:13.000Z</time>
      </trkpt>
      <trkpt lat="45.19835" lon="5.7267">
        <ele>461.79998779297</ele>
        <time>2021-07-25T04:34:14.000Z</time>
      </trkpt>
      <trkpt lat="45.19842" lon="5.72672">
        <ele>462.20001220703</ele>
        <time>2021-07-25T04:34:16.000Z</time>
      </trkpt>
      <trkpt lat="45.19844" lon="5.72672">
        <ele>462.39999389648</ele>
        <time>2021-07-25T04:34:17.000Z</time>
      </trkpt>
      <trkpt lat="45.19847" lon="5.72672">
        <ele>462.79998779297</ele>
        <time>2021-07-25T04:34:18.000Z</time>
      </trkpt>
      <trkpt lat="45.19849" lon="5.72673">
        <ele>463</ele>
        <time>2021-07-25T04:34:19.000Z</time>
      </trkpt>
      <trkpt lat="45.19851" lon="5.72675">
        <ele>463.20001220703</ele>
        <time>2021-07-25T04:34:20.000Z</time>
      </trkpt>
      <trkpt lat="45.19854" lon="5.72679">
        <ele>463.60000610352</ele>
        <time>2021-07-25T04:34:23.000Z</time>
      </trkpt>
      <trkpt lat="45.19855" lon="5.7268">
        <ele>463.79998779297</ele>
        <time>2021-07-25T04:34:25.000Z</time>
      </trkpt>
      <trkpt lat="45.19853" lon="5.7268">
        <ele>464.39999389648</ele>
        <time>2021-07-25T04:34:27.000Z</time>
      </trkpt>
      <trkpt lat="45.19853" lon="5.72678">
        <ele>464.60000610352</ele>
        <time>2021-07-25T04:34:28.000Z</time>
      </trkpt>
      <trkpt lat="45.19852" lon="5.72676">
        <ele>465</ele>
        <time>2021-07-25T04:34:30.000Z</time>
      </trkpt>
      <trkpt lat="45.1985" lon="5.72673">
        <ele>465.20001220703</ele>
        <time>2021-07-25T04:34:32.000Z</time>
      </trkpt>
      <trkpt lat="45.19845" lon="5.72665">
        <ele>466</ele>
        <time>2021-07-25T04:34:37.000Z</time>
      </trkpt>
      <trkpt lat="45.19843" lon="5.7266">
        <ele>466.60000610352</ele>
        <time>2021-07-25T04:34:39.000Z</time>
      </trkpt>
      <trkpt lat="45.19839" lon="5.72653">
        <ele>467</ele>
        <time>2021-07-25T04:34:42.000Z</time>
      </trkpt>
      <trkpt lat="45.19838" lon="5.72652">
        <ele>467.20001220703</ele>
        <time>2021-07-25T04:34:43.000Z</time>
      </trkpt>
      <trkpt lat="45.19836" lon="5.7265">
        <ele>467.39999389648</ele>
        <time>2021-07-25T04:34:44.000Z</time>
      </trkpt>
      <trkpt lat="45.19834" lon="5.72647">
        <ele>467.79998779297</ele>
        <time>2021-07-25T04:34:46.000Z</time>
      </trkpt>
      <trkpt lat="45.19833" lon="5.72645">
        <ele>468.20001220703</ele>
        <time>2021-07-25T04:34:47.000Z</time>
      </trkpt>
      <trkpt lat="45.19832" lon="5.72642">
        <ele>468.39999389648</ele>
        <time>2021-07-25T04:34:49.000Z</time>
      </trkpt>
      <trkpt lat="45.19828" lon="5.72633">
        <ele>468.60000610352</ele>
        <time>2021-07-25T04:34:53.000Z</time>
      </trkpt>
      <trkpt lat="45.19826" lon="5.72626">
        <ele>469.20001220703</ele>
        <time>2021-07-25T04:34:56.000Z</time>
      </trkpt>
      <trkpt lat="45.19825" lon="5.72624">
        <ele>469.79998779297</ele>
        <time>2021-07-25T04:34:57.000Z</time>
      </trkpt>
      <trkpt lat="45.19823" lon="5.72614">
        <ele>470.20001220703</ele>
        <time>2021-07-25T04:35:01.000Z</time>
      </trkpt>
      <trkpt lat="45.19822" lon="5.72611">
        <ele>470.39999389648</ele>
        <time>2021-07-25T04:35:02.000Z</time>
      </trkpt>
      <trkpt lat="45.19822" lon="5.72609">
        <ele>470.79998779297</ele>
        <time>2021-07-25T04:35:03.000Z</time>
      </trkpt>
      <trkpt lat="45.19821" lon="5.72606">
        <ele>471</ele>
        <time>2021-07-25T04:35:04.000Z</time>
      </trkpt>
      <trkpt lat="45.19821" lon="5.72599">
        <ele>471.60000610352</ele>
        <time>2021-07-25T04:35:07.000Z</time>
      </trkpt>
      <trkpt lat="45.19822" lon="5.72594">
        <ele>471.60000610352</ele>
        <time>2021-07-25T04:35:09.000Z</time>
      </trkpt>
      <trkpt lat="45.19822" lon="5.72589">
        <ele>472.20001220703</ele>
        <time>2021-07-25T04:35:11.000Z</time>
      </trkpt>
      <trkpt lat="45.1982" lon="5.72585">
        <ele>472.60000610352</ele>
        <time>2021-07-25T04:35:13.000Z</time>
      </trkpt>
      <trkpt lat="45.1982" lon="5.72579">
        <ele>472.79998779297</ele>
        <time>2021-07-25T04:35:15.000Z</time>
      </trkpt>
      <trkpt lat="45.19821" lon="5.72564">
        <ele>473.79998779297</ele>
        <time>2021-07-25T04:35:20.000Z</time>
      </trkpt>
      <trkpt lat="45.19822" lon="5.72553">
        <ele>474.60000610352</ele>
        <time>2021-07-25T04:35:24.000Z</time>
      </trkpt>
      <trkpt lat="45.19822" lon="5.72543">
        <ele>475</ele>
        <time>2021-07-25T04:35:27.000Z</time>
      </trkpt>
      <trkpt lat="45.19823" lon="5.72526">
        <ele>475.79998779297</ele>
        <time>2021-07-25T04:35:32.000Z</time>
      </trkpt>
      <trkpt lat="45.19823" lon="5.72522">
        <ele>476</ele>
        <time>2021-07-25T04:35:33.000Z</time>
      </trkpt>
      <trkpt lat="45.19825" lon="5.72505">
        <ele>477.20001220703</ele>
        <time>2021-07-25T04:35:39.000Z</time>
      </trkpt>
      <trkpt lat="45.19826" lon="5.725">
        <ele>477.79998779297</ele>
        <time>2021-07-25T04:35:41.000Z</time>
      </trkpt>
      <trkpt lat="45.19828" lon="5.72492">
        <ele>478.60000610352</ele>
        <time>2021-07-25T04:35:44.000Z</time>
      </trkpt>
      <trkpt lat="45.19829" lon="5.7248">
        <ele>479.60000610352</ele>
        <time>2021-07-25T04:35:49.000Z</time>
      </trkpt>
      <trkpt lat="45.19829" lon="5.72478">
        <ele>479.60000610352</ele>
        <time>2021-07-25T04:35:50.000Z</time>
      </trkpt>
      <trkpt lat="45.19832" lon="5.72464">
        <ele>480.79998779297</ele>
        <time>2021-07-25T04:35:55.000Z</time>
      </trkpt>
      <trkpt lat="45.19833" lon="5.72461">
        <ele>481</ele>
        <time>2021-07-25T04:35:56.000Z</time>
      </trkpt>
      <trkpt lat="45.19834" lon="5.72453">
        <ele>481.79998779297</ele>
        <time>2021-07-25T04:35:59.000Z</time>
      </trkpt>
      <trkpt lat="45.19835" lon="5.72442">
        <ele>482.79998779297</ele>
        <time>2021-07-25T04:36:03.000Z</time>
      </trkpt>
      <trkpt lat="45.19836" lon="5.7244">
        <ele>483</ele>
        <time>2021-07-25T04:36:04.000Z</time>
      </trkpt>
      <trkpt lat="45.19842" lon="5.72436">
        <ele>483.39999389648</ele>
        <time>2021-07-25T04:36:07.000Z</time>
      </trkpt>
      <trkpt lat="45.19843" lon="5.72437">
        <ele>483.60000610352</ele>
        <time>2021-07-25T04:36:08.000Z</time>
      </trkpt>
      <trkpt lat="45.19844" lon="5.72443">
        <ele>484.20001220703</ele>
        <time>2021-07-25T04:36:10.000Z</time>
      </trkpt>
      <trkpt lat="45.19845" lon="5.72454">
        <ele>484.60000610352</ele>
        <time>2021-07-25T04:36:13.000Z</time>
      </trkpt>
      <trkpt lat="45.19847" lon="5.72466">
        <ele>485.60000610352</ele>
        <time>2021-07-25T04:36:16.000Z</time>
      </trkpt>
      <trkpt lat="45.19849" lon="5.7248">
        <ele>486.60000610352</ele>
        <time>2021-07-25T04:36:20.000Z</time>
      </trkpt>
      <trkpt lat="45.19847" lon="5.725">
        <ele>488</ele>
        <time>2021-07-25T04:36:25.000Z</time>
      </trkpt>
      <trkpt lat="45.19848" lon="5.72519">
        <ele>489.39999389648</ele>
        <time>2021-07-25T04:36:31.000Z</time>
      </trkpt>
      <trkpt lat="45.19849" lon="5.72522">
        <ele>489.39999389648</ele>
        <time>2021-07-25T04:36:32.000Z</time>
      </trkpt>
      <trkpt lat="45.19853" lon="5.7253">
        <ele>490</ele>
        <time>2021-07-25T04:36:35.000Z</time>
      </trkpt>
      <trkpt lat="45.19852" lon="5.72534">
        <ele>490.60000610352</ele>
        <time>2021-07-25T04:36:36.000Z</time>
      </trkpt>
      <trkpt lat="45.19852" lon="5.72542">
        <ele>490.60000610352</ele>
        <time>2021-07-25T04:36:38.000Z</time>
      </trkpt>
      <trkpt lat="45.19852" lon="5.72545">
        <ele>490.79998779297</ele>
        <time>2021-07-25T04:36:39.000Z</time>
      </trkpt>
      <trkpt lat="45.19854" lon="5.72551">
        <ele>491.39999389648</ele>
        <time>2021-07-25T04:36:42.000Z</time>
      </trkpt>
      <trkpt lat="45.19856" lon="5.72554">
        <ele>491.60000610352</ele>
        <time>2021-07-25T04:36:44.000Z</time>
      </trkpt>
      <trkpt lat="45.19856" lon="5.72553">
        <ele>491.60000610352</ele>
        <time>2021-07-25T04:36:45.000Z</time>
      </trkpt>
      <trkpt lat="45.19857" lon="5.72551">
        <ele>492.20001220703</ele>
        <time>2021-07-25T04:36:46.000Z</time>
      </trkpt>
      <trkpt lat="45.19856" lon="5.72542">
        <ele>492.79998779297</ele>
        <time>2021-07-25T04:36:50.000Z</time>
      </trkpt>
      <trkpt lat="45.19856" lon="5.7254">
        <ele>493</ele>
        <time>2021-07-25T04:36:51.000Z</time>
      </trkpt>
      <trkpt lat="45.19854" lon="5.72535">
        <ele>493.39999389648</ele>
        <time>2021-07-25T04:36:53.000Z</time>
      </trkpt>
      <trkpt lat="45.19853" lon="5.72531">
        <ele>493.79998779297</ele>
        <time>2021-07-25T04:36:55.000Z</time>
      </trkpt>
      <trkpt lat="45.19853" lon="5.72527">
        <ele>494</ele>
        <time>2021-07-25T04:36:57.000Z</time>
      </trkpt>
      <trkpt lat="45.19852" lon="5.72514">
        <ele>495</ele>
        <time>2021-07-25T04:37:01.000Z</time>
      </trkpt>
      <trkpt lat="45.19854" lon="5.72504">
        <ele>495.39999389648</ele>
        <time>2021-07-25T04:37:04.000Z</time>
      </trkpt>
      <trkpt lat="45.19856" lon="5.72493">
        <ele>495.60000610352</ele>
        <time>2021-07-25T04:37:07.000Z</time>
      </trkpt>
      <trkpt lat="45.19859" lon="5.7249">
        <ele>495.79998779297</ele>
        <time>2021-07-25T04:37:09.000Z</time>
      </trkpt>
      <trkpt lat="45.19861" lon="5.72486">
        <ele>496</ele>
        <time>2021-07-25T04:37:11.000Z</time>
      </trkpt>
      <trkpt lat="45.19863" lon="5.72484">
        <ele>497</ele>
        <time>2021-07-25T04:37:13.000Z</time>
      </trkpt>
      <trkpt lat="45.19864" lon="5.72484">
        <ele>497.39999389648</ele>
        <time>2021-07-25T04:37:14.000Z</time>
      </trkpt>
      <trkpt lat="45.19864" lon="5.72483">
        <ele>497.79998779297</ele>
        <time>2021-07-25T04:37:15.000Z</time>
      </trkpt>
      <trkpt lat="45.19865" lon="5.72483">
        <ele>498</ele>
        <time>2021-07-25T04:37:16.000Z</time>
      </trkpt>
      <trkpt lat="45.19866" lon="5.72482">
        <ele>498.39999389648</ele>
        <time>2021-07-25T04:37:17.000Z</time>
      </trkpt>
      <trkpt lat="45.19867" lon="5.72481">
        <ele>500</ele>
        <time>2021-07-25T04:37:19.000Z</time>
      </trkpt>
      <trkpt lat="45.19868" lon="5.72481">
        <ele>500.20001220703</ele>
        <time>2021-07-25T04:37:20.000Z</time>
      </trkpt>
      <trkpt lat="45.1987" lon="5.72479">
        <ele>500.79998779297</ele>
        <time>2021-07-25T04:37:22.000Z</time>
      </trkpt>
      <trkpt lat="45.19871" lon="5.72478">
        <ele>501.20001220703</ele>
        <time>2021-07-25T04:37:23.000Z</time>
      </trkpt>
      <trkpt lat="45.19874" lon="5.72477">
        <ele>501.39999389648</ele>
        <time>2021-07-25T04:37:25.000Z</time>
      </trkpt>
      <trkpt lat="45.19875" lon="5.72476">
        <ele>502.79998779297</ele>
        <time>2021-07-25T04:37:27.000Z</time>
      </trkpt>
      <trkpt lat="45.19876" lon="5.72475">
        <ele>503.20001220703</ele>
        <time>2021-07-25T04:37:29.000Z</time>
      </trkpt>
      <trkpt lat="45.19877" lon="5.72474">
        <ele>503.79998779297</ele>
        <time>2021-07-25T04:37:31.000Z</time>
      </trkpt>
      <trkpt lat="45.19878" lon="5.72475">
        <ele>503.79998779297</ele>
        <time>2021-07-25T04:37:32.000Z</time>
      </trkpt>
      <trkpt lat="45.19879" lon="5.72475">
        <ele>505</ele>
        <time>2021-07-25T04:37:33.000Z</time>
      </trkpt>
      <trkpt lat="45.1988" lon="5.72475">
        <ele>505.39999389648</ele>
        <time>2021-07-25T04:37:34.000Z</time>
      </trkpt>
      <trkpt lat="45.19881" lon="5.72479">
        <ele>505.39999389648</ele>
        <time>2021-07-25T04:37:36.000Z</time>
      </trkpt>
      <trkpt lat="45.19879" lon="5.725">
        <ele>505.20001220703</ele>
        <time>2021-07-25T04:37:41.000Z</time>
      </trkpt>
      <trkpt lat="45.19882" lon="5.7251">
        <ele>505.20001220703</ele>
        <time>2021-07-25T04:37:43.000Z</time>
      </trkpt>
      <trkpt lat="45.19883" lon="5.72518">
        <ele>505.60000610352</ele>
        <time>2021-07-25T04:37:45.000Z</time>
      </trkpt>
      <trkpt lat="45.19887" lon="5.72532">
        <ele>505.60000610352</ele>
        <time>2021-07-25T04:37:49.000Z</time>
      </trkpt>
      <trkpt lat="45.19887" lon="5.72534">
        <ele>506.20001220703</ele>
        <time>2021-07-25T04:37:51.000Z</time>
      </trkpt>
      <trkpt lat="45.19886" lon="5.72535">
        <ele>506.39999389648</ele>
        <time>2021-07-25T04:37:52.000Z</time>
      </trkpt>
      <trkpt lat="45.19886" lon="5.72538">
        <ele>507.20001220703</ele>
        <time>2021-07-25T04:37:54.000Z</time>
      </trkpt>
      <trkpt lat="45.19886" lon="5.72539">
        <ele>507.60000610352</ele>
        <time>2021-07-25T04:37:55.000Z</time>
      </trkpt>
      <trkpt lat="45.19886" lon="5.72542">
        <ele>508.20001220703</ele>
        <time>2021-07-25T04:37:57.000Z</time>
      </trkpt>
      <trkpt lat="45.19886" lon="5.72543">
        <ele>509</ele>
        <time>2021-07-25T04:37:58.000Z</time>
      </trkpt>
      <trkpt lat="45.19885" lon="5.72545">
        <ele>510</ele>
        <time>2021-07-25T04:38:01.000Z</time>
      </trkpt>
      <trkpt lat="45.19883" lon="5.72555">
        <ele>510.60000610352</ele>
        <time>2021-07-25T04:38:06.000Z</time>
      </trkpt>
      <trkpt lat="45.19883" lon="5.72557">
        <ele>511</ele>
        <time>2021-07-25T04:38:07.000Z</time>
      </trkpt>
      <trkpt lat="45.19882" lon="5.72563">
        <ele>511.20001220703</ele>
        <time>2021-07-25T04:38:09.000Z</time>
      </trkpt>
      <trkpt lat="45.19879" lon="5.72565">
        <ele>511</ele>
        <time>2021-07-25T04:38:11.000Z</time>
      </trkpt>
      <trkpt lat="45.19877" lon="5.72564">
        <ele>510.79998779297</ele>
        <time>2021-07-25T04:38:12.000Z</time>
      </trkpt>
      <trkpt lat="45.19877" lon="5.72558">
        <ele>511</ele>
        <time>2021-07-25T04:38:14.000Z</time>
      </trkpt>
      <trkpt lat="45.19876" lon="5.72546">
        <ele>511.20001220703</ele>
        <time>2021-07-25T04:38:17.000Z</time>
      </trkpt>
      <trkpt lat="45.19875" lon="5.72531">
        <ele>511</ele>
        <time>2021-07-25T04:38:21.000Z</time>
      </trkpt>
      <trkpt lat="45.19874" lon="5.72528">
        <ele>511</ele>
        <time>2021-07-25T04:38:22.000Z</time>
      </trkpt>
      <trkpt lat="45.19871" lon="5.72514">
        <ele>510.60000610352</ele>
        <time>2021-07-25T04:38:26.000Z</time>
      </trkpt>
      <trkpt lat="45.1987" lon="5.72511">
        <ele>510.60000610352</ele>
        <time>2021-07-25T04:38:27.000Z</time>
      </trkpt>
      <trkpt lat="45.19871" lon="5.72503">
        <ele>510.79998779297</ele>
        <time>2021-07-25T04:38:30.000Z</time>
      </trkpt>
      <trkpt lat="45.19873" lon="5.72502">
        <ele>511</ele>
        <time>2021-07-25T04:38:31.000Z</time>
      </trkpt>
      <trkpt lat="45.19875" lon="5.72503">
        <ele>510.79998779297</ele>
        <time>2021-07-25T04:38:32.000Z</time>
      </trkpt>
      <trkpt lat="45.19876" lon="5.72509">
        <ele>511</ele>
        <time>2021-07-25T04:38:34.000Z</time>
      </trkpt>
      <trkpt lat="45.19876" lon="5.72514">
        <ele>511</ele>
        <time>2021-07-25T04:38:35.000Z</time>
      </trkpt>
      <trkpt lat="45.19877" lon="5.7254">
        <ele>510.60000610352</ele>
        <time>2021-07-25T04:38:41.000Z</time>
      </trkpt>
      <trkpt lat="45.19879" lon="5.72548">
        <ele>510.60000610352</ele>
        <time>2021-07-25T04:38:44.000Z</time>
      </trkpt>
      <trkpt lat="45.1988" lon="5.72547">
        <ele>510.60000610352</ele>
        <time>2021-07-25T04:38:45.000Z</time>
      </trkpt>
      <trkpt lat="45.1988" lon="5.72546">
        <ele>510.60000610352</ele>
        <time>2021-07-25T04:38:46.000Z</time>
      </trkpt>
      <trkpt lat="45.1988" lon="5.72543">
        <ele>509.60000610352</ele>
        <time>2021-07-25T04:38:48.000Z</time>
      </trkpt>
      <trkpt lat="45.19882" lon="5.72541">
        <ele>508.39999389648</ele>
        <time>2021-07-25T04:38:50.000Z</time>
      </trkpt>
      <trkpt lat="45.19883" lon="5.72539">
        <ele>508</ele>
        <time>2021-07-25T04:38:52.000Z</time>
      </trkpt>
      <trkpt lat="45.19884" lon="5.72538">
        <ele>507</ele>
        <time>2021-07-25T04:38:53.000Z</time>
      </trkpt>
      <trkpt lat="45.19887" lon="5.72536">
        <ele>506.39999389648</ele>
        <time>2021-07-25T04:38:55.000Z</time>
      </trkpt>
      <trkpt lat="45.19887" lon="5.72528">
        <ele>505.60000610352</ele>
        <time>2021-07-25T04:38:58.000Z</time>
      </trkpt>
      <trkpt lat="45.19886" lon="5.7252">
        <ele>505.39999389648</ele>
        <time>2021-07-25T04:39:00.000Z</time>
      </trkpt>
      <trkpt lat="45.19882" lon="5.72498">
        <ele>505.79998779297</ele>
        <time>2021-07-25T04:39:07.000Z</time>
      </trkpt>
      <trkpt lat="45.19881" lon="5.72494">
        <ele>505</ele>
        <time>2021-07-25T04:39:11.000Z</time>
      </trkpt>
      <trkpt lat="45.1988" lon="5.72494">
        <ele>504.79998779297</ele>
        <time>2021-07-25T04:39:12.000Z</time>
      </trkpt>
      <trkpt lat="45.19879" lon="5.72494">
        <ele>504.39999389648</ele>
        <time>2021-07-25T04:39:13.000Z</time>
      </trkpt>
      <trkpt lat="45.19879" lon="5.72494">
        <ele>503.79998779297</ele>
        <time>2021-07-25T04:39:14.000Z</time>
      </trkpt>
      <trkpt lat="45.19877" lon="5.72494">
        <ele>502.79998779297</ele>
        <time>2021-07-25T04:39:15.000Z</time>
      </trkpt>
      <trkpt lat="45.19876" lon="5.72494">
        <ele>502.60000610352</ele>
        <time>2021-07-25T04:39:16.000Z</time>
      </trkpt>
      <trkpt lat="45.19873" lon="5.72493">
        <ele>501.39999389648</ele>
        <time>2021-07-25T04:39:19.000Z</time>
      </trkpt>
      <trkpt lat="45.19871" lon="5.72492">
        <ele>501.39999389648</ele>
        <time>2021-07-25T04:39:21.000Z</time>
      </trkpt>
      <trkpt lat="45.19868" lon="5.72489">
        <ele>500.20001220703</ele>
        <time>2021-07-25T04:39:23.000Z</time>
      </trkpt>
      <trkpt lat="45.19866" lon="5.72487">
        <ele>499.20001220703</ele>
        <time>2021-07-25T04:39:25.000Z</time>
      </trkpt>
      <trkpt lat="45.19865" lon="5.72485">
        <ele>498</ele>
        <time>2021-07-25T04:39:27.000Z</time>
      </trkpt>
      <trkpt lat="45.19862" lon="5.72483">
        <ele>496.60000610352</ele>
        <time>2021-07-25T04:39:30.000Z</time>
      </trkpt>
      <trkpt lat="45.19861" lon="5.72481">
        <ele>496</ele>
        <time>2021-07-25T04:39:32.000Z</time>
      </trkpt>
      <trkpt lat="45.19863" lon="5.72479">
        <ele>495.79998779297</ele>
        <time>2021-07-25T04:39:33.000Z</time>
      </trkpt>
      <trkpt lat="45.19876" lon="5.72473">
        <ele>496.20001220703</ele>
        <time>2021-07-25T04:39:38.000Z</time>
      </trkpt>
      <trkpt lat="45.19888" lon="5.72473">
        <ele>496.39999389648</ele>
        <time>2021-07-25T04:39:43.000Z</time>
      </trkpt>
      <trkpt lat="45.19889" lon="5.72473">
        <ele>496.60000610352</ele>
        <time>2021-07-25T04:39:44.000Z</time>
      </trkpt>
      <trkpt lat="45.19889" lon="5.72472">
        <ele>496.39999389648</ele>
        <time>2021-07-25T04:39:46.000Z</time>
      </trkpt>
      <trkpt lat="45.19887" lon="5.72471">
        <ele>496.39999389648</ele>
        <time>2021-07-25T04:39:47.000Z</time>
      </trkpt>
      <trkpt lat="45.19884" lon="5.72465">
        <ele>496.20001220703</ele>
        <time>2021-07-25T04:39:51.000Z</time>
      </trkpt>
      <trkpt lat="45.19885" lon="5.72459">
        <ele>496</ele>
        <time>2021-07-25T04:39:53.000Z</time>
      </trkpt>
      <trkpt lat="45.19886" lon="5.72455">
        <ele>496</ele>
        <time>2021-07-25T04:39:54.000Z</time>
      </trkpt>
      <trkpt lat="45.19889" lon="5.72448">
        <ele>495.20001220703</ele>
        <time>2021-07-25T04:39:56.000Z</time>
      </trkpt>
      <trkpt lat="45.19896" lon="5.7244">
        <ele>494.60000610352</ele>
        <time>2021-07-25T04:39:59.000Z</time>
      </trkpt>
      <trkpt lat="45.19901" lon="5.72436">
        <ele>494</ele>
        <time>2021-07-25T04:40:01.000Z</time>
      </trkpt>
      <trkpt lat="45.1991" lon="5.7243">
        <ele>493.20001220703</ele>
        <time>2021-07-25T04:40:04.000Z</time>
      </trkpt>
      <trkpt lat="45.19916" lon="5.72426">
        <ele>493.20001220703</ele>
        <time>2021-07-25T04:40:06.000Z</time>
      </trkpt>
      <trkpt lat="45.1992" lon="5.72424">
        <ele>492.60000610352</ele>
        <time>2021-07-25T04:40:07.000Z</time>
      </trkpt>
      <trkpt lat="45.19938" lon="5.7242">
        <ele>491.79998779297</ele>
        <time>2021-07-25T04:40:13.000Z</time>
      </trkpt>
      <trkpt lat="45.19942" lon="5.7242">
        <ele>492.20001220703</ele>
        <time>2021-07-25T04:40:14.000Z</time>
      </trkpt>
      <trkpt lat="45.19955" lon="5.72418">
        <ele>492.60000610352</ele>
        <time>2021-07-25T04:40:19.000Z</time>
      </trkpt>
      <trkpt lat="45.19963" lon="5.72417">
        <ele>492.79998779297</ele>
        <time>2021-07-25T04:40:22.000Z</time>
      </trkpt>
      <trkpt lat="45.19973" lon="5.72419">
        <ele>493.60000610352</ele>
        <time>2021-07-25T04:40:26.000Z</time>
      </trkpt>
      <trkpt lat="45.19977" lon="5.72419">
        <ele>494</ele>
        <time>2021-07-25T04:40:28.000Z</time>
      </trkpt>
      <trkpt lat="45.19982" lon="5.7242">
        <ele>494.39999389648</ele>
        <time>2021-07-25T04:40:30.000Z</time>
      </trkpt>
      <trkpt lat="45.19986" lon="5.72421">
        <ele>494.79998779297</ele>
        <time>2021-07-25T04:40:32.000Z</time>
      </trkpt>
      <trkpt lat="45.19992" lon="5.72422">
        <ele>495.79998779297</ele>
        <time>2021-07-25T04:40:35.000Z</time>
      </trkpt>
      <trkpt lat="45.19994" lon="5.72422">
        <ele>496.20001220703</ele>
        <time>2021-07-25T04:40:36.000Z</time>
      </trkpt>
      <trkpt lat="45.20005" lon="5.72424">
        <ele>497.39999389648</ele>
        <time>2021-07-25T04:40:41.000Z</time>
      </trkpt>
      <trkpt lat="45.20012" lon="5.72425">
        <ele>498</ele>
        <time>2021-07-25T04:40:44.000Z</time>
      </trkpt>
      <trkpt lat="45.20016" lon="5.72425">
        <ele>498.60000610352</ele>
        <time>2021-07-25T04:40:46.000Z</time>
      </trkpt>
      <trkpt lat="45.20022" lon="5.72425">
        <ele>499.20001220703</ele>
        <time>2021-07-25T04:40:49.000Z</time>
      </trkpt>
      <trkpt lat="45.20027" lon="5.72425">
        <ele>499.60000610352</ele>
        <time>2021-07-25T04:40:51.000Z</time>
      </trkpt>
      <trkpt lat="45.20029" lon="5.72426">
        <ele>499.60000610352</ele>
        <time>2021-07-25T04:40:52.000Z</time>
      </trkpt>
      <trkpt lat="45.20033" lon="5.72426">
        <ele>499.79998779297</ele>
        <time>2021-07-25T04:40:54.000Z</time>
      </trkpt>
      <trkpt lat="45.20038" lon="5.72426">
        <ele>500.39999389648</ele>
        <time>2021-07-25T04:40:56.000Z</time>
      </trkpt>
      <trkpt lat="45.20044" lon="5.72424">
        <ele>500.79998779297</ele>
        <time>2021-07-25T04:40:59.000Z</time>
      </trkpt>
      <trkpt lat="45.20046" lon="5.72424">
        <ele>500.79998779297</ele>
        <time>2021-07-25T04:41:00.000Z</time>
      </trkpt>
      <trkpt lat="45.20051" lon="5.72424">
        <ele>502</ele>
        <time>2021-07-25T04:41:03.000Z</time>
      </trkpt>
      <trkpt lat="45.20057" lon="5.72424">
        <ele>502.60000610352</ele>
        <time>2021-07-25T04:41:06.000Z</time>
      </trkpt>
      <trkpt lat="45.20059" lon="5.72425">
        <ele>503.20001220703</ele>
        <time>2021-07-25T04:41:07.000Z</time>
      </trkpt>
      <trkpt lat="45.20062" lon="5.72427">
        <ele>503.39999389648</ele>
        <time>2021-07-25T04:41:09.000Z</time>
      </trkpt>
      <trkpt lat="45.20067" lon="5.72432">
        <ele>504.20001220703</ele>
        <time>2021-07-25T04:41:12.000Z</time>
      </trkpt>
      <trkpt lat="45.20068" lon="5.72433">
        <ele>504.39999389648</ele>
        <time>2021-07-25T04:41:13.000Z</time>
      </trkpt>
      <trkpt lat="45.20072" lon="5.72443">
        <ele>505.60000610352</ele>
        <time>2021-07-25T04:41:17.000Z</time>
      </trkpt>
      <trkpt lat="45.20074" lon="5.72452">
        <ele>506.39999389648</ele>
        <time>2021-07-25T04:41:20.000Z</time>
      </trkpt>
      <trkpt lat="45.20075" lon="5.72458">
        <ele>506.79998779297</ele>
        <time>2021-07-25T04:41:22.000Z</time>
      </trkpt>
      <trkpt lat="45.20074" lon="5.72472">
        <ele>507.39999389648</ele>
        <time>2021-07-25T04:41:26.000Z</time>
      </trkpt>
      <trkpt lat="45.20073" lon="5.72479">
        <ele>507.79998779297</ele>
        <time>2021-07-25T04:41:28.000Z</time>
      </trkpt>
      <trkpt lat="45.20072" lon="5.72493">
        <ele>508.20001220703</ele>
        <time>2021-07-25T04:41:32.000Z</time>
      </trkpt>
      <trkpt lat="45.20069" lon="5.7251">
        <ele>508.79998779297</ele>
        <time>2021-07-25T04:41:37.000Z</time>
      </trkpt>
      <trkpt lat="45.20069" lon="5.72514">
        <ele>508.79998779297</ele>
        <time>2021-07-25T04:41:38.000Z</time>
      </trkpt>
      <trkpt lat="45.2007" lon="5.72518">
        <ele>509</ele>
        <time>2021-07-25T04:41:39.000Z</time>
      </trkpt>
      <trkpt lat="45.20071" lon="5.72525">
        <ele>509</ele>
        <time>2021-07-25T04:41:41.000Z</time>
      </trkpt>
      <trkpt lat="45.20072" lon="5.72532">
        <ele>509.20001220703</ele>
        <time>2021-07-25T04:41:43.000Z</time>
      </trkpt>
      <trkpt lat="45.20078" lon="5.72541">
        <ele>509.39999389648</ele>
        <time>2021-07-25T04:41:47.000Z</time>
      </trkpt>
      <trkpt lat="45.20082" lon="5.72542">
        <ele>509.79998779297</ele>
        <time>2021-07-25T04:41:49.000Z</time>
      </trkpt>
      <trkpt lat="45.20086" lon="5.72541">
        <ele>510.20001220703</ele>
        <time>2021-07-25T04:41:51.000Z</time>
      </trkpt>
      <trkpt lat="45.20093" lon="5.7254">
        <ele>511.39999389648</ele>
        <time>2021-07-25T04:41:55.000Z</time>
      </trkpt>
      <trkpt lat="45.20095" lon="5.7254">
        <ele>511.60000610352</ele>
        <time>2021-07-25T04:41:56.000Z</time>
      </trkpt>
      <trkpt lat="45.20099" lon="5.72538">
        <ele>512.59997558594</ele>
        <time>2021-07-25T04:41:59.000Z</time>
      </trkpt>
      <trkpt lat="45.20103" lon="5.72537">
        <ele>513.79998779297</ele>
        <time>2021-07-25T04:42:02.000Z</time>
      </trkpt>
      <trkpt lat="45.20104" lon="5.72537">
        <ele>514.20001220703</ele>
        <time>2021-07-25T04:42:03.000Z</time>
      </trkpt>
      <trkpt lat="45.20109" lon="5.72536">
        <ele>515.20001220703</ele>
        <time>2021-07-25T04:42:07.000Z</time>
      </trkpt>
      <trkpt lat="45.20112" lon="5.72535">
        <ele>515.59997558594</ele>
        <time>2021-07-25T04:42:09.000Z</time>
      </trkpt>
      <trkpt lat="45.20114" lon="5.72533">
        <ele>516.20001220703</ele>
        <time>2021-07-25T04:42:11.000Z</time>
      </trkpt>
      <trkpt lat="45.20116" lon="5.72531">
        <ele>516.59997558594</ele>
        <time>2021-07-25T04:42:13.000Z</time>
      </trkpt>
      <trkpt lat="45.20116" lon="5.7253">
        <ele>516.79998779297</ele>
        <time>2021-07-25T04:42:14.000Z</time>
      </trkpt>
      <trkpt lat="45.20116" lon="5.72529">
        <ele>517</ele>
        <time>2021-07-25T04:42:15.000Z</time>
      </trkpt>
      <trkpt lat="45.20115" lon="5.72529">
        <ele>517.40002441406</ele>
        <time>2021-07-25T04:42:16.000Z</time>
      </trkpt>
      <trkpt lat="45.20112" lon="5.72527">
        <ele>518</ele>
        <time>2021-07-25T04:42:19.000Z</time>
      </trkpt>
      <trkpt lat="45.20111" lon="5.72527">
        <ele>518.79998779297</ele>
        <time>2021-07-25T04:42:20.000Z</time>
      </trkpt>
      <trkpt lat="45.20108" lon="5.72523">
        <ele>519</ele>
        <time>2021-07-25T04:42:23.000Z</time>
      </trkpt>
      <trkpt lat="45.20108" lon="5.72519">
        <ele>519.59997558594</ele>
        <time>2021-07-25T04:42:26.000Z</time>
      </trkpt>
      <trkpt lat="45.20108" lon="5.72516">
        <ele>520.20001220703</ele>
        <time>2021-07-25T04:42:28.000Z</time>
      </trkpt>
      <trkpt lat="45.20109" lon="5.72513">
        <ele>520.59997558594</ele>
        <time>2021-07-25T04:42:30.000Z</time>
      </trkpt>
      <trkpt lat="45.2011" lon="5.7251">
        <ele>521.40002441406</ele>
        <time>2021-07-25T04:42:32.000Z</time>
      </trkpt>
      <trkpt lat="45.20111" lon="5.72508">
        <ele>521.59997558594</ele>
        <time>2021-07-25T04:42:33.000Z</time>
      </trkpt>
      <trkpt lat="45.20115" lon="5.72505">
        <ele>522.40002441406</ele>
        <time>2021-07-25T04:42:36.000Z</time>
      </trkpt>
      <trkpt lat="45.20118" lon="5.72501">
        <ele>523.40002441406</ele>
        <time>2021-07-25T04:42:39.000Z</time>
      </trkpt>
      <trkpt lat="45.20119" lon="5.72499">
        <ele>523.59997558594</ele>
        <time>2021-07-25T04:42:40.000Z</time>
      </trkpt>
      <trkpt lat="45.20127" lon="5.72492">
        <ele>525</ele>
        <time>2021-07-25T04:42:46.000Z</time>
      </trkpt>
      <trkpt lat="45.20129" lon="5.7249">
        <ele>525.59997558594</ele>
        <time>2021-07-25T04:42:48.000Z</time>
      </trkpt>
      <trkpt lat="45.2013" lon="5.72487">
        <ele>526.20001220703</ele>
        <time>2021-07-25T04:42:50.000Z</time>
      </trkpt>
      <trkpt lat="45.20131" lon="5.72484">
        <ele>526.79998779297</ele>
        <time>2021-07-25T04:42:52.000Z</time>
      </trkpt>
      <trkpt lat="45.20131" lon="5.72481">
        <ele>527.40002441406</ele>
        <time>2021-07-25T04:42:54.000Z</time>
      </trkpt>
      <trkpt lat="45.20132" lon="5.7248">
        <ele>527.79998779297</ele>
        <time>2021-07-25T04:42:55.000Z</time>
      </trkpt>
      <trkpt lat="45.20133" lon="5.72477">
        <ele>528.59997558594</ele>
        <time>2021-07-25T04:42:58.000Z</time>
      </trkpt>
      <trkpt lat="45.20134" lon="5.72472">
        <ele>529.59997558594</ele>
        <time>2021-07-25T04:43:01.000Z</time>
      </trkpt>
      <trkpt lat="45.20134" lon="5.72469">
        <ele>530</ele>
        <time>2021-07-25T04:43:03.000Z</time>
      </trkpt>
      <trkpt lat="45.20135" lon="5.72468">
        <ele>530.20001220703</ele>
        <time>2021-07-25T04:43:04.000Z</time>
      </trkpt>
      <trkpt lat="45.20135" lon="5.72466">
        <ele>530.79998779297</ele>
        <time>2021-07-25T04:43:05.000Z</time>
      </trkpt>
      <trkpt lat="45.20136" lon="5.72465">
        <ele>531</ele>
        <time>2021-07-25T04:43:06.000Z</time>
      </trkpt>
      <trkpt lat="45.20136" lon="5.72465">
        <ele>531</ele>
        <time>2021-07-25T04:43:07.000Z</time>
      </trkpt>
      <trkpt lat="45.20137" lon="5.72467">
        <ele>531.79998779297</ele>
        <time>2021-07-25T04:43:09.000Z</time>
      </trkpt>
      <trkpt lat="45.20137" lon="5.72468">
        <ele>532</ele>
        <time>2021-07-25T04:43:10.000Z</time>
      </trkpt>
      <trkpt lat="45.2014" lon="5.7247">
        <ele>533.20001220703</ele>
        <time>2021-07-25T04:43:13.000Z</time>
      </trkpt>
      <trkpt lat="45.20141" lon="5.72472">
        <ele>534</ele>
        <time>2021-07-25T04:43:16.000Z</time>
      </trkpt>
      <trkpt lat="45.20143" lon="5.72473">
        <ele>534.59997558594</ele>
        <time>2021-07-25T04:43:18.000Z</time>
      </trkpt>
      <trkpt lat="45.20146" lon="5.72475">
        <ele>535.59997558594</ele>
        <time>2021-07-25T04:43:21.000Z</time>
      </trkpt>
      <trkpt lat="45.20146" lon="5.72476">
        <ele>535.59997558594</ele>
        <time>2021-07-25T04:43:22.000Z</time>
      </trkpt>
      <trkpt lat="45.20148" lon="5.72479">
        <ele>536.79998779297</ele>
        <time>2021-07-25T04:43:26.000Z</time>
      </trkpt>
      <trkpt lat="45.20148" lon="5.72479">
        <ele>537.40002441406</ele>
        <time>2021-07-25T04:43:27.000Z</time>
      </trkpt>
      <trkpt lat="45.20149" lon="5.72478">
        <ele>537.40002441406</ele>
        <time>2021-07-25T04:43:28.000Z</time>
      </trkpt>
      <trkpt lat="45.20149" lon="5.72476">
        <ele>537.79998779297</ele>
        <time>2021-07-25T04:43:30.000Z</time>
      </trkpt>
      <trkpt lat="45.20151" lon="5.72473">
        <ele>539.20001220703</ele>
        <time>2021-07-25T04:43:34.000Z</time>
      </trkpt>
      <trkpt lat="45.20151" lon="5.72473">
        <ele>539.40002441406</ele>
        <time>2021-07-25T04:43:35.000Z</time>
      </trkpt>
      <trkpt lat="45.20152" lon="5.72473">
        <ele>539.79998779297</ele>
        <time>2021-07-25T04:43:37.000Z</time>
      </trkpt>
      <trkpt lat="45.20153" lon="5.72471">
        <ele>540.59997558594</ele>
        <time>2021-07-25T04:43:39.000Z</time>
      </trkpt>
      <trkpt lat="45.20154" lon="5.72471">
        <ele>540.79998779297</ele>
        <time>2021-07-25T04:43:40.000Z</time>
      </trkpt>
      <trkpt lat="45.20154" lon="5.72469">
        <ele>541</ele>
        <time>2021-07-25T04:43:41.000Z</time>
      </trkpt>
      <trkpt lat="45.20154" lon="5.72468">
        <ele>541.40002441406</ele>
        <time>2021-07-25T04:43:43.000Z</time>
      </trkpt>
      <trkpt lat="45.20155" lon="5.72467">
        <ele>542.79998779297</ele>
        <time>2021-07-25T04:43:45.000Z</time>
      </trkpt>
      <trkpt lat="45.20156" lon="5.72466">
        <ele>542.79998779297</ele>
        <time>2021-07-25T04:43:46.000Z</time>
      </trkpt>
      <trkpt lat="45.20159" lon="5.72466">
        <ele>543.79998779297</ele>
        <time>2021-07-25T04:43:51.000Z</time>
      </trkpt>
      <trkpt lat="45.20159" lon="5.72467">
        <ele>544</ele>
        <time>2021-07-25T04:43:52.000Z</time>
      </trkpt>
      <trkpt lat="45.20161" lon="5.72469">
        <ele>545</ele>
        <time>2021-07-25T04:43:54.000Z</time>
      </trkpt>
      <trkpt lat="45.20162" lon="5.72469">
        <ele>545</ele>
        <time>2021-07-25T04:43:55.000Z</time>
      </trkpt>
      <trkpt lat="45.20165" lon="5.72471">
        <ele>546.20001220703</ele>
        <time>2021-07-25T04:43:58.000Z</time>
      </trkpt>
      <trkpt lat="45.20165" lon="5.72472">
        <ele>547</ele>
        <time>2021-07-25T04:43:59.000Z</time>
      </trkpt>
      <trkpt lat="45.20166" lon="5.72474">
        <ele>547</ele>
        <time>2021-07-25T04:44:00.000Z</time>
      </trkpt>
      <trkpt lat="45.20167" lon="5.72478">
        <ele>547.40002441406</ele>
        <time>2021-07-25T04:44:03.000Z</time>
      </trkpt>
      <trkpt lat="45.20169" lon="5.7248">
        <ele>548.40002441406</ele>
        <time>2021-07-25T04:44:06.000Z</time>
      </trkpt>
      <trkpt lat="45.2017" lon="5.72481">
        <ele>548.59997558594</ele>
        <time>2021-07-25T04:44:07.000Z</time>
      </trkpt>
      <trkpt lat="45.20172" lon="5.72484">
        <ele>549.20001220703</ele>
        <time>2021-07-25T04:44:09.000Z</time>
      </trkpt>
      <trkpt lat="45.20175" lon="5.72488">
        <ele>549.79998779297</ele>
        <time>2021-07-25T04:44:12.000Z</time>
      </trkpt>
      <trkpt lat="45.20178" lon="5.72489">
        <ele>550.59997558594</ele>
        <time>2021-07-25T04:44:15.000Z</time>
      </trkpt>
      <trkpt lat="45.2018" lon="5.72489">
        <ele>551</ele>
        <time>2021-07-25T04:44:17.000Z</time>
      </trkpt>
      <trkpt lat="45.20182" lon="5.7249">
        <ele>552.20001220703</ele>
        <time>2021-07-25T04:44:20.000Z</time>
      </trkpt>
      <trkpt lat="45.20184" lon="5.72492">
        <ele>552.40002441406</ele>
        <time>2021-07-25T04:44:22.000Z</time>
      </trkpt>
      <trkpt lat="45.20184" lon="5.72493">
        <ele>552.59997558594</ele>
        <time>2021-07-25T04:44:23.000Z</time>
      </trkpt>
      <trkpt lat="45.20188" lon="5.72497">
        <ele>553.20001220703</ele>
        <time>2021-07-25T04:44:27.000Z</time>
      </trkpt>
      <trkpt lat="45.20189" lon="5.72498">
        <ele>553.20001220703</ele>
        <time>2021-07-25T04:44:28.000Z</time>
      </trkpt>
      <trkpt lat="45.2019" lon="5.72499">
        <ele>553.40002441406</ele>
        <time>2021-07-25T04:44:29.000Z</time>
      </trkpt>
      <trkpt lat="45.20191" lon="5.725">
        <ele>553.59997558594</ele>
        <time>2021-07-25T04:44:30.000Z</time>
      </trkpt>
      <trkpt lat="45.20192" lon="5.72501">
        <ele>554.20001220703</ele>
        <time>2021-07-25T04:44:32.000Z</time>
      </trkpt>
      <trkpt lat="45.20195" lon="5.72502">
        <ele>554.40002441406</ele>
        <time>2021-07-25T04:44:35.000Z</time>
      </trkpt>
      <trkpt lat="45.20198" lon="5.72504">
        <ele>555.40002441406</ele>
        <time>2021-07-25T04:44:39.000Z</time>
      </trkpt>
      <trkpt lat="45.202" lon="5.72505">
        <ele>555.59997558594</ele>
        <time>2021-07-25T04:44:41.000Z</time>
      </trkpt>
      <trkpt lat="45.20201" lon="5.72506">
        <ele>555.79998779297</ele>
        <time>2021-07-25T04:44:42.000Z</time>
      </trkpt>
      <trkpt lat="45.20202" lon="5.72508">
        <ele>556.59997558594</ele>
        <time>2021-07-25T04:44:44.000Z</time>
      </trkpt>
      <trkpt lat="45.20206" lon="5.72511">
        <ele>557.20001220703</ele>
        <time>2021-07-25T04:44:48.000Z</time>
      </trkpt>
      <trkpt lat="45.20207" lon="5.72511">
        <ele>557.59997558594</ele>
        <time>2021-07-25T04:44:49.000Z</time>
      </trkpt>
      <trkpt lat="45.20208" lon="5.72512">
        <ele>558.20001220703</ele>
        <time>2021-07-25T04:44:51.000Z</time>
      </trkpt>
      <trkpt lat="45.20209" lon="5.72513">
        <ele>558.20001220703</ele>
        <time>2021-07-25T04:44:52.000Z</time>
      </trkpt>
      <trkpt lat="45.2021" lon="5.72514">
        <ele>558.59997558594</ele>
        <time>2021-07-25T04:44:54.000Z</time>
      </trkpt>
      <trkpt lat="45.2021" lon="5.72514">
        <ele>559.40002441406</ele>
        <time>2021-07-25T04:44:55.000Z</time>
      </trkpt>
      <trkpt lat="45.20212" lon="5.72515">
        <ele>559.59997558594</ele>
        <time>2021-07-25T04:44:57.000Z</time>
      </trkpt>
      <trkpt lat="45.20215" lon="5.72515">
        <ele>560.40002441406</ele>
        <time>2021-07-25T04:45:00.000Z</time>
      </trkpt>
      <trkpt lat="45.20216" lon="5.72516">
        <ele>561</ele>
        <time>2021-07-25T04:45:01.000Z</time>
      </trkpt>
      <trkpt lat="45.20216" lon="5.72516">
        <ele>561.20001220703</ele>
        <time>2021-07-25T04:45:02.000Z</time>
      </trkpt>
      <trkpt lat="45.20218" lon="5.72517">
        <ele>561.59997558594</ele>
        <time>2021-07-25T04:45:04.000Z</time>
      </trkpt>
      <trkpt lat="45.20221" lon="5.72516">
        <ele>562.59997558594</ele>
        <time>2021-07-25T04:45:06.000Z</time>
      </trkpt>
      <trkpt lat="45.20222" lon="5.72516">
        <ele>562.79998779297</ele>
        <time>2021-07-25T04:45:07.000Z</time>
      </trkpt>
      <trkpt lat="45.20226" lon="5.72517">
        <ele>563.59997558594</ele>
        <time>2021-07-25T04:45:11.000Z</time>
      </trkpt>
      <trkpt lat="45.20228" lon="5.72517">
        <ele>563.79998779297</ele>
        <time>2021-07-25T04:45:12.000Z</time>
      </trkpt>
      <trkpt lat="45.2023" lon="5.72515">
        <ele>564.79998779297</ele>
        <time>2021-07-25T04:45:15.000Z</time>
      </trkpt>
      <trkpt lat="45.20234" lon="5.72514">
        <ele>566.20001220703</ele>
        <time>2021-07-25T04:45:19.000Z</time>
      </trkpt>
      <trkpt lat="45.20239" lon="5.72514">
        <ele>567.20001220703</ele>
        <time>2021-07-25T04:45:23.000Z</time>
      </trkpt>
      <trkpt lat="45.2024" lon="5.72515">
        <ele>568.40002441406</ele>
        <time>2021-07-25T04:45:26.000Z</time>
      </trkpt>
      <trkpt lat="45.20245" lon="5.72516">
        <ele>569.59997558594</ele>
        <time>2021-07-25T04:45:31.000Z</time>
      </trkpt>
      <trkpt lat="45.20246" lon="5.72516">
        <ele>570.20001220703</ele>
        <time>2021-07-25T04:45:33.000Z</time>
      </trkpt>
      <trkpt lat="45.20247" lon="5.72516">
        <ele>570.79998779297</ele>
        <time>2021-07-25T04:45:34.000Z</time>
      </trkpt>
      <trkpt lat="45.20247" lon="5.72516">
        <ele>571.20001220703</ele>
        <time>2021-07-25T04:45:35.000Z</time>
      </trkpt>
      <trkpt lat="45.20248" lon="5.72515">
        <ele>571.79998779297</ele>
        <time>2021-07-25T04:45:37.000Z</time>
      </trkpt>
      <trkpt lat="45.20251" lon="5.72515">
        <ele>572.20001220703</ele>
        <time>2021-07-25T04:45:39.000Z</time>
      </trkpt>
      <trkpt lat="45.20254" lon="5.72515">
        <ele>572.79998779297</ele>
        <time>2021-07-25T04:45:42.000Z</time>
      </trkpt>
      <trkpt lat="45.20255" lon="5.72516">
        <ele>573</ele>
        <time>2021-07-25T04:45:44.000Z</time>
      </trkpt>
      <trkpt lat="45.20256" lon="5.72516">
        <ele>573.20001220703</ele>
        <time>2021-07-25T04:45:45.000Z</time>
      </trkpt>
      <trkpt lat="45.20258" lon="5.72516">
        <ele>573.59997558594</ele>
        <time>2021-07-25T04:45:47.000Z</time>
      </trkpt>
      <trkpt lat="45.20259" lon="5.72515">
        <ele>574.20001220703</ele>
        <time>2021-07-25T04:45:48.000Z</time>
      </trkpt>
      <trkpt lat="45.20264" lon="5.72513">
        <ele>575</ele>
        <time>2021-07-25T04:45:53.000Z</time>
      </trkpt>
      <trkpt lat="45.20267" lon="5.72512">
        <ele>575.79998779297</ele>
        <time>2021-07-25T04:45:55.000Z</time>
      </trkpt>
      <trkpt lat="45.2027" lon="5.72512">
        <ele>576</ele>
        <time>2021-07-25T04:45:58.000Z</time>
      </trkpt>
      <trkpt lat="45.20271" lon="5.72512">
        <ele>576.20001220703</ele>
        <time>2021-07-25T04:45:59.000Z</time>
      </trkpt>
      <trkpt lat="45.20274" lon="5.72512">
        <ele>576.59997558594</ele>
        <time>2021-07-25T04:46:01.000Z</time>
      </trkpt>
      <trkpt lat="45.20276" lon="5.72512">
        <ele>577.40002441406</ele>
        <time>2021-07-25T04:46:02.000Z</time>
      </trkpt>
      <trkpt lat="45.20278" lon="5.72511">
        <ele>577.79998779297</ele>
        <time>2021-07-25T04:46:05.000Z</time>
      </trkpt>
      <trkpt lat="45.20283" lon="5.7251">
        <ele>578.40002441406</ele>
        <time>2021-07-25T04:46:08.000Z</time>
      </trkpt>
      <trkpt lat="45.20288" lon="5.72509">
        <ele>579</ele>
        <time>2021-07-25T04:46:12.000Z</time>
      </trkpt>
      <trkpt lat="45.20291" lon="5.72509">
        <ele>579.40002441406</ele>
        <time>2021-07-25T04:46:14.000Z</time>
      </trkpt>
      <trkpt lat="45.20296" lon="5.72508">
        <ele>580.59997558594</ele>
        <time>2021-07-25T04:46:19.000Z</time>
      </trkpt>
      <trkpt lat="45.20297" lon="5.72507">
        <ele>580.79998779297</ele>
        <time>2021-07-25T04:46:20.000Z</time>
      </trkpt>
      <trkpt lat="45.20302" lon="5.72507">
        <ele>582</ele>
        <time>2021-07-25T04:46:25.000Z</time>
      </trkpt>
      <trkpt lat="45.20302" lon="5.72506">
        <ele>582.40002441406</ele>
        <time>2021-07-25T04:46:26.000Z</time>
      </trkpt>
      <trkpt lat="45.20304" lon="5.72506">
        <ele>582.79998779297</ele>
        <time>2021-07-25T04:46:29.000Z</time>
      </trkpt>
      <trkpt lat="45.20305" lon="5.72507">
        <ele>583.20001220703</ele>
        <time>2021-07-25T04:46:30.000Z</time>
      </trkpt>
      <trkpt lat="45.20309" lon="5.72507">
        <ele>584</ele>
        <time>2021-07-25T04:46:33.000Z</time>
      </trkpt>
      <trkpt lat="45.20309" lon="5.72508">
        <ele>584.20001220703</ele>
        <time>2021-07-25T04:46:34.000Z</time>
      </trkpt>
      <trkpt lat="45.20309" lon="5.72509">
        <ele>584.20001220703</ele>
        <time>2021-07-25T04:46:35.000Z</time>
      </trkpt>
      <trkpt lat="45.20309" lon="5.7251">
        <ele>584.59997558594</ele>
        <time>2021-07-25T04:46:36.000Z</time>
      </trkpt>
      <trkpt lat="45.2031" lon="5.7251">
        <ele>585.40002441406</ele>
        <time>2021-07-25T04:46:38.000Z</time>
      </trkpt>
      <trkpt lat="45.20315" lon="5.7251">
        <ele>586</ele>
        <time>2021-07-25T04:46:41.000Z</time>
      </trkpt>
      <trkpt lat="45.20316" lon="5.72511">
        <ele>586.59997558594</ele>
        <time>2021-07-25T04:46:42.000Z</time>
      </trkpt>
      <trkpt lat="45.20319" lon="5.72509">
        <ele>587.59997558594</ele>
        <time>2021-07-25T04:46:46.000Z</time>
      </trkpt>
      <trkpt lat="45.2032" lon="5.7251">
        <ele>587.79998779297</ele>
        <time>2021-07-25T04:46:47.000Z</time>
      </trkpt>
      <trkpt lat="45.20323" lon="5.7251">
        <ele>589</ele>
        <time>2021-07-25T04:46:51.000Z</time>
      </trkpt>
      <trkpt lat="45.20325" lon="5.72509">
        <ele>589.79998779297</ele>
        <time>2021-07-25T04:46:53.000Z</time>
      </trkpt>
      <trkpt lat="45.20325" lon="5.7251">
        <ele>590.40002441406</ele>
        <time>2021-07-25T04:46:54.000Z</time>
      </trkpt>
      <trkpt lat="45.20325" lon="5.72511">
        <ele>590.40002441406</ele>
        <time>2021-07-25T04:46:56.000Z</time>
      </trkpt>
      <trkpt lat="45.20326" lon="5.7251">
        <ele>591.20001220703</ele>
        <time>2021-07-25T04:46:59.000Z</time>
      </trkpt>
      <trkpt lat="45.20326" lon="5.7251">
        <ele>591.40002441406</ele>
        <time>2021-07-25T04:47:00.000Z</time>
      </trkpt>
      <trkpt lat="45.20327" lon="5.72511">
        <ele>591.40002441406</ele>
        <time>2021-07-25T04:47:01.000Z</time>
      </trkpt>
      <trkpt lat="45.20331" lon="5.72515">
        <ele>592.40002441406</ele>
        <time>2021-07-25T04:47:04.000Z</time>
      </trkpt>
      <trkpt lat="45.20333" lon="5.72515">
        <ele>592.59997558594</ele>
        <time>2021-07-25T04:47:05.000Z</time>
      </trkpt>
      <trkpt lat="45.20334" lon="5.72516">
        <ele>593.20001220703</ele>
        <time>2021-07-25T04:47:06.000Z</time>
      </trkpt>
      <trkpt lat="45.20333" lon="5.72516">
        <ele>594</ele>
        <time>2021-07-25T04:47:09.000Z</time>
      </trkpt>
      <trkpt lat="45.20331" lon="5.72517">
        <ele>594.40002441406</ele>
        <time>2021-07-25T04:47:11.000Z</time>
      </trkpt>
      <trkpt lat="45.20334" lon="5.72516">
        <ele>594.79998779297</ele>
        <time>2021-07-25T04:47:14.000Z</time>
      </trkpt>
      <trkpt lat="45.20334" lon="5.72517">
        <ele>595</ele>
        <time>2021-07-25T04:47:15.000Z</time>
      </trkpt>
      <trkpt lat="45.20335" lon="5.72517">
        <ele>595.40002441406</ele>
        <time>2021-07-25T04:47:16.000Z</time>
      </trkpt>
      <trkpt lat="45.20335" lon="5.72518">
        <ele>595.59997558594</ele>
        <time>2021-07-25T04:47:17.000Z</time>
      </trkpt>
      <trkpt lat="45.20334" lon="5.72518">
        <ele>596</ele>
        <time>2021-07-25T04:47:18.000Z</time>
      </trkpt>
      <trkpt lat="45.20335" lon="5.72518">
        <ele>596.20001220703</ele>
        <time>2021-07-25T04:47:19.000Z</time>
      </trkpt>
      <trkpt lat="45.20338" lon="5.72517">
        <ele>596.40002441406</ele>
        <time>2021-07-25T04:47:21.000Z</time>
      </trkpt>
      <trkpt lat="45.2034" lon="5.72517">
        <ele>597</ele>
        <time>2021-07-25T04:47:23.000Z</time>
      </trkpt>
      <trkpt lat="45.20339" lon="5.72517">
        <ele>597.20001220703</ele>
        <time>2021-07-25T04:47:24.000Z</time>
      </trkpt>
      <trkpt lat="45.2034" lon="5.72518">
        <ele>598.20001220703</ele>
        <time>2021-07-25T04:47:27.000Z</time>
      </trkpt>
      <trkpt lat="45.2034" lon="5.72518">
        <ele>598.40002441406</ele>
        <time>2021-07-25T04:47:28.000Z</time>
      </trkpt>
      <trkpt lat="45.2034" lon="5.72518">
        <ele>598.79998779297</ele>
        <time>2021-07-25T04:47:29.000Z</time>
      </trkpt>
      <trkpt lat="45.2034" lon="5.72518">
        <ele>599.20001220703</ele>
        <time>2021-07-25T04:47:32.000Z</time>
      </trkpt>
      <trkpt lat="45.20341" lon="5.72518">
        <ele>599.40002441406</ele>
        <time>2021-07-25T04:47:33.000Z</time>
      </trkpt>
      <trkpt lat="45.20342" lon="5.72516">
        <ele>600.20001220703</ele>
        <time>2021-07-25T04:47:34.000Z</time>
      </trkpt>
      <trkpt lat="45.20345" lon="5.72514">
        <ele>600.79998779297</ele>
        <time>2021-07-25T04:47:37.000Z</time>
      </trkpt>
      <trkpt lat="45.20348" lon="5.72515">
        <ele>601.40002441406</ele>
        <time>2021-07-25T04:47:39.000Z</time>
      </trkpt>
      <trkpt lat="45.20352" lon="5.72518">
        <ele>602</ele>
        <time>2021-07-25T04:47:42.000Z</time>
      </trkpt>
      <trkpt lat="45.20354" lon="5.72516">
        <ele>602.40002441406</ele>
        <time>2021-07-25T04:47:44.000Z</time>
      </trkpt>
      <trkpt lat="45.20355" lon="5.72516">
        <ele>602.40002441406</ele>
        <time>2021-07-25T04:47:45.000Z</time>
      </trkpt>
      <trkpt lat="45.20357" lon="5.72516">
        <ele>603</ele>
        <time>2021-07-25T04:47:47.000Z</time>
      </trkpt>
      <trkpt lat="45.2036" lon="5.72516">
        <ele>603.40002441406</ele>
        <time>2021-07-25T04:47:50.000Z</time>
      </trkpt>
      <trkpt lat="45.20361" lon="5.72516">
        <ele>603.79998779297</ele>
        <time>2021-07-25T04:47:51.000Z</time>
      </trkpt>
      <trkpt lat="45.20364" lon="5.72516">
        <ele>604.20001220703</ele>
        <time>2021-07-25T04:47:53.000Z</time>
      </trkpt>
      <trkpt lat="45.20365" lon="5.72517">
        <ele>604.59997558594</ele>
        <time>2021-07-25T04:47:54.000Z</time>
      </trkpt>
      <trkpt lat="45.20367" lon="5.72519">
        <ele>605</ele>
        <time>2021-07-25T04:47:56.000Z</time>
      </trkpt>
      <trkpt lat="45.20369" lon="5.7252">
        <ele>605</ele>
        <time>2021-07-25T04:47:57.000Z</time>
      </trkpt>
      <trkpt lat="45.20369" lon="5.72523">
        <ele>605.40002441406</ele>
        <time>2021-07-25T04:47:58.000Z</time>
      </trkpt>
      <trkpt lat="45.2037" lon="5.72523">
        <ele>605.79998779297</ele>
        <time>2021-07-25T04:47:59.000Z</time>
      </trkpt>
      <trkpt lat="45.20371" lon="5.72523">
        <ele>606.40002441406</ele>
        <time>2021-07-25T04:48:01.000Z</time>
      </trkpt>
      <trkpt lat="45.20372" lon="5.72523">
        <ele>606.79998779297</ele>
        <time>2021-07-25T04:48:02.000Z</time>
      </trkpt>
      <trkpt lat="45.20375" lon="5.72527">
        <ele>607.79998779297</ele>
        <time>2021-07-25T04:48:06.000Z</time>
      </trkpt>
      <trkpt lat="45.2038" lon="5.7253">
        <ele>608.40002441406</ele>
        <time>2021-07-25T04:48:08.000Z</time>
      </trkpt>
      <trkpt lat="45.20383" lon="5.7253">
        <ele>608.79998779297</ele>
        <time>2021-07-25T04:48:10.000Z</time>
      </trkpt>
      <trkpt lat="45.20385" lon="5.72531">
        <ele>610</ele>
        <time>2021-07-25T04:48:13.000Z</time>
      </trkpt>
      <trkpt lat="45.20385" lon="5.72532">
        <ele>610.20001220703</ele>
        <time>2021-07-25T04:48:15.000Z</time>
      </trkpt>
      <trkpt lat="45.20388" lon="5.72536">
        <ele>611.20001220703</ele>
        <time>2021-07-25T04:48:21.000Z</time>
      </trkpt>
      <trkpt lat="45.2039" lon="5.72535">
        <ele>612.59997558594</ele>
        <time>2021-07-25T04:48:25.000Z</time>
      </trkpt>
      <trkpt lat="45.2039" lon="5.72534">
        <ele>613.40002441406</ele>
        <time>2021-07-25T04:48:28.000Z</time>
      </trkpt>
      <trkpt lat="45.2039" lon="5.72534">
        <ele>613.79998779297</ele>
        <time>2021-07-25T04:48:30.000Z</time>
      </trkpt>
      <trkpt lat="45.20389" lon="5.72534">
        <ele>614.40002441406</ele>
        <time>2021-07-25T04:48:33.000Z</time>
      </trkpt>
      <trkpt lat="45.2039" lon="5.72533">
        <ele>614.59997558594</ele>
        <time>2021-07-25T04:48:34.000Z</time>
      </trkpt>
      <trkpt lat="45.20391" lon="5.72534">
        <ele>615.20001220703</ele>
        <time>2021-07-25T04:48:36.000Z</time>
      </trkpt>
      <trkpt lat="45.20392" lon="5.72536">
        <ele>615.40002441406</ele>
        <time>2021-07-25T04:48:38.000Z</time>
      </trkpt>
      <trkpt lat="45.20393" lon="5.72536">
        <ele>616.40002441406</ele>
        <time>2021-07-25T04:48:42.000Z</time>
      </trkpt>
      <trkpt lat="45.20394" lon="5.72536">
        <ele>616.79998779297</ele>
        <time>2021-07-25T04:48:44.000Z</time>
      </trkpt>
      <trkpt lat="45.20395" lon="5.72536">
        <ele>617.59997558594</ele>
        <time>2021-07-25T04:48:46.000Z</time>
      </trkpt>
      <trkpt lat="45.20398" lon="5.72534">
        <ele>618.40002441406</ele>
        <time>2021-07-25T04:48:51.000Z</time>
      </trkpt>
      <trkpt lat="45.20397" lon="5.72534">
        <ele>619.20001220703</ele>
        <time>2021-07-25T04:48:52.000Z</time>
      </trkpt>
      <trkpt lat="45.20401" lon="5.72531">
        <ele>620.20001220703</ele>
        <time>2021-07-25T04:48:57.000Z</time>
      </trkpt>
      <trkpt lat="45.20405" lon="5.72528">
        <ele>621.40002441406</ele>
        <time>2021-07-25T04:49:01.000Z</time>
      </trkpt>
      <trkpt lat="45.20405" lon="5.72528">
        <ele>621.79998779297</ele>
        <time>2021-07-25T04:49:02.000Z</time>
      </trkpt>
      <trkpt lat="45.20405" lon="5.72528">
        <ele>622.40002441406</ele>
        <time>2021-07-25T04:49:05.000Z</time>
      </trkpt>
      <trkpt lat="45.20405" lon="5.72527">
        <ele>622.59997558594</ele>
        <time>2021-07-25T04:49:06.000Z</time>
      </trkpt>
      <trkpt lat="45.20406" lon="5.72526">
        <ele>623.20001220703</ele>
        <time>2021-07-25T04:49:07.000Z</time>
      </trkpt>
      <trkpt lat="45.20406" lon="5.72525">
        <ele>623.40002441406</ele>
        <time>2021-07-25T04:49:08.000Z</time>
      </trkpt>
      <trkpt lat="45.20408" lon="5.72523">
        <ele>623.79998779297</ele>
        <time>2021-07-25T04:49:10.000Z</time>
      </trkpt>
      <trkpt lat="45.20409" lon="5.72522">
        <ele>624</ele>
        <time>2021-07-25T04:49:12.000Z</time>
      </trkpt>
      <trkpt lat="45.2041" lon="5.72521">
        <ele>625</ele>
        <time>2021-07-25T04:49:13.000Z</time>
      </trkpt>
      <trkpt lat="45.20412" lon="5.7252">
        <ele>625.40002441406</ele>
        <time>2021-07-25T04:49:16.000Z</time>
      </trkpt>
      <trkpt lat="45.20414" lon="5.72519">
        <ele>626.20001220703</ele>
        <time>2021-07-25T04:49:18.000Z</time>
      </trkpt>
      <trkpt lat="45.20415" lon="5.72518">
        <ele>626.20001220703</ele>
        <time>2021-07-25T04:49:19.000Z</time>
      </trkpt>
      <trkpt lat="45.20417" lon="5.72518">
        <ele>627.79998779297</ele>
        <time>2021-07-25T04:49:21.000Z</time>
      </trkpt>
      <trkpt lat="45.20422" lon="5.72518">
        <ele>628.40002441406</ele>
        <time>2021-07-25T04:49:24.000Z</time>
      </trkpt>
      <trkpt lat="45.20425" lon="5.72515">
        <ele>629.79998779297</ele>
        <time>2021-07-25T04:49:28.000Z</time>
      </trkpt>
      <trkpt lat="45.20429" lon="5.72513">
        <ele>631</ele>
        <time>2021-07-25T04:49:33.000Z</time>
      </trkpt>
      <trkpt lat="45.2043" lon="5.72512">
        <ele>631.40002441406</ele>
        <time>2021-07-25T04:49:34.000Z</time>
      </trkpt>
      <trkpt lat="45.20438" lon="5.72509">
        <ele>632.20001220703</ele>
        <time>2021-07-25T04:49:39.000Z</time>
      </trkpt>
      <trkpt lat="45.20447" lon="5.72513">
        <ele>633.40002441406</ele>
        <time>2021-07-25T04:49:44.000Z</time>
      </trkpt>
      <trkpt lat="45.20449" lon="5.72516">
        <ele>633.40002441406</ele>
        <time>2021-07-25T04:49:46.000Z</time>
      </trkpt>
      <trkpt lat="45.20451" lon="5.72518">
        <ele>633.59997558594</ele>
        <time>2021-07-25T04:49:47.000Z</time>
      </trkpt>
      <trkpt lat="45.20457" lon="5.72524">
        <ele>634.59997558594</ele>
        <time>2021-07-25T04:49:51.000Z</time>
      </trkpt>
      <trkpt lat="45.20458" lon="5.72525">
        <ele>634.79998779297</ele>
        <time>2021-07-25T04:49:52.000Z</time>
      </trkpt>
      <trkpt lat="45.20469" lon="5.72536">
        <ele>635.79998779297</ele>
        <time>2021-07-25T04:49:59.000Z</time>
      </trkpt>
      <trkpt lat="45.20477" lon="5.72545">
        <ele>637</ele>
        <time>2021-07-25T04:50:05.000Z</time>
      </trkpt>
      <trkpt lat="45.20481" lon="5.72551">
        <ele>637.20001220703</ele>
        <time>2021-07-25T04:50:08.000Z</time>
      </trkpt>
      <trkpt lat="45.20488" lon="5.72553">
        <ele>638.20001220703</ele>
        <time>2021-07-25T04:50:12.000Z</time>
      </trkpt>
      <trkpt lat="45.20491" lon="5.72552">
        <ele>638.40002441406</ele>
        <time>2021-07-25T04:50:14.000Z</time>
      </trkpt>
      <trkpt lat="45.20491" lon="5.72551">
        <ele>638.59997558594</ele>
        <time>2021-07-25T04:50:15.000Z</time>
      </trkpt>
      <trkpt lat="45.2049" lon="5.72549">
        <ele>638.59997558594</ele>
        <time>2021-07-25T04:50:17.000Z</time>
      </trkpt>
      <trkpt lat="45.20488" lon="5.72549">
        <ele>639.40002441406</ele>
        <time>2021-07-25T04:50:18.000Z</time>
      </trkpt>
      <trkpt lat="45.20486" lon="5.72548">
        <ele>640</ele>
        <time>2021-07-25T04:50:20.000Z</time>
      </trkpt>
      <trkpt lat="45.20485" lon="5.72545">
        <ele>641.40002441406</ele>
        <time>2021-07-25T04:50:22.000Z</time>
      </trkpt>
      <trkpt lat="45.20486" lon="5.72543">
        <ele>641.40002441406</ele>
        <time>2021-07-25T04:50:23.000Z</time>
      </trkpt>
      <trkpt lat="45.20485" lon="5.7254">
        <ele>641.59997558594</ele>
        <time>2021-07-25T04:50:25.000Z</time>
      </trkpt>
      <trkpt lat="45.20483" lon="5.72537">
        <ele>642.40002441406</ele>
        <time>2021-07-25T04:50:27.000Z</time>
      </trkpt>
      <trkpt lat="45.20483" lon="5.72535">
        <ele>642.59997558594</ele>
        <time>2021-07-25T04:50:28.000Z</time>
      </trkpt>
      <trkpt lat="45.20482" lon="5.72526">
        <ele>643.59997558594</ele>
        <time>2021-07-25T04:50:32.000Z</time>
      </trkpt>
      <trkpt lat="45.20483" lon="5.72519">
        <ele>644</ele>
        <time>2021-07-25T04:50:35.000Z</time>
      </trkpt>
      <trkpt lat="45.20482" lon="5.72503">
        <ele>643.40002441406</ele>
        <time>2021-07-25T04:50:42.000Z</time>
      </trkpt>
      <trkpt lat="45.20478" lon="5.72497">
        <ele>643.40002441406</ele>
        <time>2021-07-25T04:50:46.000Z</time>
      </trkpt>
      <trkpt lat="45.20474" lon="5.72496">
        <ele>643</ele>
        <time>2021-07-25T04:50:48.000Z</time>
      </trkpt>
      <trkpt lat="45.20462" lon="5.72495">
        <ele>642.79998779297</ele>
        <time>2021-07-25T04:50:54.000Z</time>
      </trkpt>
      <trkpt lat="45.20456" lon="5.7249">
        <ele>642.79998779297</ele>
        <time>2021-07-25T04:50:59.000Z</time>
      </trkpt>
      <trkpt lat="45.20454" lon="5.72489">
        <ele>643.59997558594</ele>
        <time>2021-07-25T04:51:01.000Z</time>
      </trkpt>
      <trkpt lat="45.20453" lon="5.72487">
        <ele>643.59997558594</ele>
        <time>2021-07-25T04:51:03.000Z</time>
      </trkpt>
      <trkpt lat="45.20449" lon="5.72485">
        <ele>643.40002441406</ele>
        <time>2021-07-25T04:51:06.000Z</time>
      </trkpt>
      <trkpt lat="45.20445" lon="5.72483">
        <ele>643</ele>
        <time>2021-07-25T04:51:09.000Z</time>
      </trkpt>
      <trkpt lat="45.20436" lon="5.7248">
        <ele>642.79998779297</ele>
        <time>2021-07-25T04:51:14.000Z</time>
      </trkpt>
      <trkpt lat="45.20434" lon="5.72479">
        <ele>642.79998779297</ele>
        <time>2021-07-25T04:51:15.000Z</time>
      </trkpt>
      <trkpt lat="45.20422" lon="5.72469">
        <ele>643</ele>
        <time>2021-07-25T04:51:19.000Z</time>
      </trkpt>
      <trkpt lat="45.20419" lon="5.72466">
        <ele>642.79998779297</ele>
        <time>2021-07-25T04:51:20.000Z</time>
      </trkpt>
      <trkpt lat="45.20414" lon="5.72461">
        <ele>643.20001220703</ele>
        <time>2021-07-25T04:51:22.000Z</time>
      </trkpt>
      <trkpt lat="45.20412" lon="5.72456">
        <ele>643.20001220703</ele>
        <time>2021-07-25T04:51:24.000Z</time>
      </trkpt>
      <trkpt lat="45.20406" lon="5.72449">
        <ele>643.79998779297</ele>
        <time>2021-07-25T04:51:28.000Z</time>
      </trkpt>
      <trkpt lat="45.20402" lon="5.72446">
        <ele>644.20001220703</ele>
        <time>2021-07-25T04:51:30.000Z</time>
      </trkpt>
      <trkpt lat="45.20402" lon="5.72445">
        <ele>644.59997558594</ele>
        <time>2021-07-25T04:51:31.000Z</time>
      </trkpt>
      <trkpt lat="45.20402" lon="5.72444">
        <ele>644.79998779297</ele>
        <time>2021-07-25T04:51:32.000Z</time>
      </trkpt>
      <trkpt lat="45.20401" lon="5.72442">
        <ele>645.79998779297</ele>
        <time>2021-07-25T04:51:35.000Z</time>
      </trkpt>
      <trkpt lat="45.204" lon="5.72442">
        <ele>646.20001220703</ele>
        <time>2021-07-25T04:51:36.000Z</time>
      </trkpt>
      <trkpt lat="45.20393" lon="5.72444">
        <ele>646.79998779297</ele>
        <time>2021-07-25T04:51:41.000Z</time>
      </trkpt>
      <trkpt lat="45.20392" lon="5.72444">
        <ele>647</ele>
        <time>2021-07-25T04:51:42.000Z</time>
      </trkpt>
      <trkpt lat="45.20392" lon="5.72443">
        <ele>647.20001220703</ele>
        <time>2021-07-25T04:51:43.000Z</time>
      </trkpt>
      <trkpt lat="45.2039" lon="5.72439">
        <ele>647.40002441406</ele>
        <time>2021-07-25T04:51:45.000Z</time>
      </trkpt>
      <trkpt lat="45.2039" lon="5.72438">
        <ele>647.59997558594</ele>
        <time>2021-07-25T04:51:46.000Z</time>
      </trkpt>
      <trkpt lat="45.20388" lon="5.72435">
        <ele>647.59997558594</ele>
        <time>2021-07-25T04:51:48.000Z</time>
      </trkpt>
      <trkpt lat="45.20389" lon="5.72433">
        <ele>647.59997558594</ele>
        <time>2021-07-25T04:51:49.000Z</time>
      </trkpt>
      <trkpt lat="45.2039" lon="5.72432">
        <ele>647.59997558594</ele>
        <time>2021-07-25T04:51:50.000Z</time>
      </trkpt>
      <trkpt lat="45.20391" lon="5.7243">
        <ele>647.79998779297</ele>
        <time>2021-07-25T04:51:52.000Z</time>
      </trkpt>
      <trkpt lat="45.20392" lon="5.72429">
        <ele>648</ele>
        <time>2021-07-25T04:51:53.000Z</time>
      </trkpt>
      <trkpt lat="45.20393" lon="5.72428">
        <ele>648</ele>
        <time>2021-07-25T04:51:54.000Z</time>
      </trkpt>
      <trkpt lat="45.20398" lon="5.72426">
        <ele>648.79998779297</ele>
        <time>2021-07-25T04:51:58.000Z</time>
      </trkpt>
      <trkpt lat="45.20397" lon="5.72425">
        <ele>649.20001220703</ele>
        <time>2021-07-25T04:51:59.000Z</time>
      </trkpt>
      <trkpt lat="45.20396" lon="5.72424">
        <ele>649.20001220703</ele>
        <time>2021-07-25T04:52:00.000Z</time>
      </trkpt>
      <trkpt lat="45.20396" lon="5.72422">
        <ele>649.20001220703</ele>
        <time>2021-07-25T04:52:01.000Z</time>
      </trkpt>
      <trkpt lat="45.20394" lon="5.72421">
        <ele>649.20001220703</ele>
        <time>2021-07-25T04:52:03.000Z</time>
      </trkpt>
      <trkpt lat="45.20393" lon="5.7242">
        <ele>649.20001220703</ele>
        <time>2021-07-25T04:52:04.000Z</time>
      </trkpt>
      <trkpt lat="45.20392" lon="5.72419">
        <ele>649.20001220703</ele>
        <time>2021-07-25T04:52:05.000Z</time>
      </trkpt>
      <trkpt lat="45.2039" lon="5.72418">
        <ele>649</ele>
        <time>2021-07-25T04:52:07.000Z</time>
      </trkpt>
      <trkpt lat="45.20388" lon="5.72419">
        <ele>648.79998779297</ele>
        <time>2021-07-25T04:52:09.000Z</time>
      </trkpt>
      <trkpt lat="45.2038" lon="5.72424">
        <ele>648</ele>
        <time>2021-07-25T04:52:15.000Z</time>
      </trkpt>
      <trkpt lat="45.20379" lon="5.72424">
        <ele>647.40002441406</ele>
        <time>2021-07-25T04:52:17.000Z</time>
      </trkpt>
      <trkpt lat="45.20378" lon="5.72427">
        <ele>647.40002441406</ele>
        <time>2021-07-25T04:52:19.000Z</time>
      </trkpt>
      <trkpt lat="45.20378" lon="5.72429">
        <ele>647</ele>
        <time>2021-07-25T04:52:20.000Z</time>
      </trkpt>
      <trkpt lat="45.20378" lon="5.72432">
        <ele>647</ele>
        <time>2021-07-25T04:52:21.000Z</time>
      </trkpt>
      <trkpt lat="45.20376" lon="5.72441">
        <ele>646.79998779297</ele>
        <time>2021-07-25T04:52:25.000Z</time>
      </trkpt>
      <trkpt lat="45.20374" lon="5.72442">
        <ele>646.59997558594</ele>
        <time>2021-07-25T04:52:27.000Z</time>
      </trkpt>
      <trkpt lat="45.20374" lon="5.72441">
        <ele>646.59997558594</ele>
        <time>2021-07-25T04:52:28.000Z</time>
      </trkpt>
      <trkpt lat="45.2037" lon="5.72436">
        <ele>645.79998779297</ele>
        <time>2021-07-25T04:52:33.000Z</time>
      </trkpt>
      <trkpt lat="45.2037" lon="5.72436">
        <ele>645.59997558594</ele>
        <time>2021-07-25T04:52:34.000Z</time>
      </trkpt>
      <trkpt lat="45.2037" lon="5.72435">
        <ele>644.79998779297</ele>
        <time>2021-07-25T04:52:37.000Z</time>
      </trkpt>
      <trkpt lat="45.2037" lon="5.72435">
        <ele>644.79998779297</ele>
        <time>2021-07-25T04:52:38.000Z</time>
      </trkpt>
      <trkpt lat="45.20369" lon="5.72435">
        <ele>644.79998779297</ele>
        <time>2021-07-25T04:52:39.000Z</time>
      </trkpt>
      <trkpt lat="45.20369" lon="5.72434">
        <ele>644.59997558594</ele>
        <time>2021-07-25T04:52:40.000Z</time>
      </trkpt>
      <trkpt lat="45.20367" lon="5.72432">
        <ele>643.59997558594</ele>
        <time>2021-07-25T04:52:42.000Z</time>
      </trkpt>
      <trkpt lat="45.20365" lon="5.72431">
        <ele>643.59997558594</ele>
        <time>2021-07-25T04:52:44.000Z</time>
      </trkpt>
      <trkpt lat="45.20365" lon="5.72432">
        <ele>643.40002441406</ele>
        <time>2021-07-25T04:52:45.000Z</time>
      </trkpt>
      <trkpt lat="45.20364" lon="5.72434">
        <ele>643.20001220703</ele>
        <time>2021-07-25T04:52:47.000Z</time>
      </trkpt>
      <trkpt lat="45.20363" lon="5.72434">
        <ele>643</ele>
        <time>2021-07-25T04:52:49.000Z</time>
      </trkpt>
      <trkpt lat="45.20363" lon="5.72435">
        <ele>643</ele>
        <time>2021-07-25T04:52:50.000Z</time>
      </trkpt>
      <trkpt lat="45.20363" lon="5.72435">
        <ele>643</ele>
        <time>2021-07-25T04:52:52.000Z</time>
      </trkpt>
      <trkpt lat="45.20363" lon="5.72433">
        <ele>643</ele>
        <time>2021-07-25T04:52:56.000Z</time>
      </trkpt>
      <trkpt lat="45.20363" lon="5.72427">
        <ele>643</ele>
        <time>2021-07-25T04:52:59.000Z</time>
      </trkpt>
      <trkpt lat="45.20363" lon="5.72416">
        <ele>643</ele>
        <time>2021-07-25T04:53:03.000Z</time>
      </trkpt>
      <trkpt lat="45.20363" lon="5.72413">
        <ele>643</ele>
        <time>2021-07-25T04:53:04.000Z</time>
      </trkpt>
      <trkpt lat="45.20363" lon="5.72411">
        <ele>643</ele>
        <time>2021-07-25T04:53:05.000Z</time>
      </trkpt>
      <trkpt lat="45.20368" lon="5.72406">
        <ele>643</ele>
        <time>2021-07-25T04:53:08.000Z</time>
      </trkpt>
      <trkpt lat="45.20383" lon="5.72388">
        <ele>643.20001220703</ele>
        <time>2021-07-25T04:53:15.000Z</time>
      </trkpt>
      <trkpt lat="45.20397" lon="5.72383">
        <ele>643.59997558594</ele>
        <time>2021-07-25T04:53:20.000Z</time>
      </trkpt>
      <trkpt lat="45.2041" lon="5.72384">
        <ele>643.40002441406</ele>
        <time>2021-07-25T04:53:25.000Z</time>
      </trkpt>
      <trkpt lat="45.20416" lon="5.72386">
        <ele>643.40002441406</ele>
        <time>2021-07-25T04:53:27.000Z</time>
      </trkpt>
      <trkpt lat="45.2043" lon="5.72391">
        <ele>643.40002441406</ele>
        <time>2021-07-25T04:53:32.000Z</time>
      </trkpt>
      <trkpt lat="45.20439" lon="5.72396">
        <ele>643.59997558594</ele>
        <time>2021-07-25T04:53:36.000Z</time>
      </trkpt>
      <trkpt lat="45.20445" lon="5.724">
        <ele>644.79998779297</ele>
        <time>2021-07-25T04:53:40.000Z</time>
      </trkpt>
      <trkpt lat="45.20447" lon="5.72401">
        <ele>645.20001220703</ele>
        <time>2021-07-25T04:53:41.000Z</time>
      </trkpt>
      <trkpt lat="45.20457" lon="5.72406">
        <ele>646</ele>
        <time>2021-07-25T04:53:46.000Z</time>
      </trkpt>
      <trkpt lat="45.20459" lon="5.72407">
        <ele>646</ele>
        <time>2021-07-25T04:53:47.000Z</time>
      </trkpt>
      <trkpt lat="45.20463" lon="5.7241">
        <ele>646.40002441406</ele>
        <time>2021-07-25T04:53:49.000Z</time>
      </trkpt>
      <trkpt lat="45.20467" lon="5.72415">
        <ele>646.79998779297</ele>
        <time>2021-07-25T04:53:51.000Z</time>
      </trkpt>
      <trkpt lat="45.2047" lon="5.72421">
        <ele>647.40002441406</ele>
        <time>2021-07-25T04:53:53.000Z</time>
      </trkpt>
      <trkpt lat="45.20475" lon="5.72428">
        <ele>648</ele>
        <time>2021-07-25T04:53:56.000Z</time>
      </trkpt>
      <trkpt lat="45.20477" lon="5.72429">
        <ele>648</ele>
        <time>2021-07-25T04:53:57.000Z</time>
      </trkpt>
      <trkpt lat="45.20481" lon="5.72428">
        <ele>648.59997558594</ele>
        <time>2021-07-25T04:53:59.000Z</time>
      </trkpt>
      <trkpt lat="45.20483" lon="5.72427">
        <ele>648.59997558594</ele>
        <time>2021-07-25T04:54:00.000Z</time>
      </trkpt>
      <trkpt lat="45.2049" lon="5.72422">
        <ele>648.59997558594</ele>
        <time>2021-07-25T04:54:05.000Z</time>
      </trkpt>
      <trkpt lat="45.20492" lon="5.72423">
        <ele>648.59997558594</ele>
        <time>2021-07-25T04:54:06.000Z</time>
      </trkpt>
      <trkpt lat="45.20501" lon="5.72433">
        <ele>649.40002441406</ele>
        <time>2021-07-25T04:54:12.000Z</time>
      </trkpt>
      <trkpt lat="45.20505" lon="5.72435">
        <ele>649.59997558594</ele>
        <time>2021-07-25T04:54:14.000Z</time>
      </trkpt>
      <trkpt lat="45.20517" lon="5.72436">
        <ele>650.20001220703</ele>
        <time>2021-07-25T04:54:20.000Z</time>
      </trkpt>
      <trkpt lat="45.20524" lon="5.72437">
        <ele>649.79998779297</ele>
        <time>2021-07-25T04:54:27.000Z</time>
      </trkpt>
      <trkpt lat="45.20525" lon="5.72438">
        <ele>649.79998779297</ele>
        <time>2021-07-25T04:54:28.000Z</time>
      </trkpt>
      <trkpt lat="45.20535" lon="5.72442">
        <ele>649.59997558594</ele>
        <time>2021-07-25T04:54:34.000Z</time>
      </trkpt>
      <trkpt lat="45.20539" lon="5.72446">
        <ele>649</ele>
        <time>2021-07-25T04:54:38.000Z</time>
      </trkpt>
      <trkpt lat="45.2054" lon="5.72447">
        <ele>649</ele>
        <time>2021-07-25T04:54:40.000Z</time>
      </trkpt>
      <trkpt lat="45.20544" lon="5.7245">
        <ele>648.59997558594</ele>
        <time>2021-07-25T04:54:42.000Z</time>
      </trkpt>
      <trkpt lat="45.20546" lon="5.72454">
        <ele>648.20001220703</ele>
        <time>2021-07-25T04:54:44.000Z</time>
      </trkpt>
      <trkpt lat="45.20549" lon="5.72456">
        <ele>647.59997558594</ele>
        <time>2021-07-25T04:54:47.000Z</time>
      </trkpt>
      <trkpt lat="45.2055" lon="5.72457">
        <ele>647.40002441406</ele>
        <time>2021-07-25T04:54:48.000Z</time>
      </trkpt>
      <trkpt lat="45.20553" lon="5.72457">
        <ele>647.40002441406</ele>
        <time>2021-07-25T04:54:50.000Z</time>
      </trkpt>
      <trkpt lat="45.20564" lon="5.72462">
        <ele>647.20001220703</ele>
        <time>2021-07-25T04:54:56.000Z</time>
      </trkpt>
      <trkpt lat="45.20567" lon="5.72465">
        <ele>647.20001220703</ele>
        <time>2021-07-25T04:54:58.000Z</time>
      </trkpt>
      <trkpt lat="45.20577" lon="5.72471">
        <ele>648</ele>
        <time>2021-07-25T04:55:03.000Z</time>
      </trkpt>
      <trkpt lat="45.20587" lon="5.7249">
        <ele>648.20001220703</ele>
        <time>2021-07-25T04:55:10.000Z</time>
      </trkpt>
      <trkpt lat="45.20588" lon="5.72493">
        <ele>648.20001220703</ele>
        <time>2021-07-25T04:55:12.000Z</time>
      </trkpt>
      <trkpt lat="45.20593" lon="5.725">
        <ele>648.59997558594</ele>
        <time>2021-07-25T04:55:16.000Z</time>
      </trkpt>
      <trkpt lat="45.20595" lon="5.72514">
        <ele>648.59997558594</ele>
        <time>2021-07-25T04:55:21.000Z</time>
      </trkpt>
      <trkpt lat="45.20595" lon="5.72518">
        <ele>648.40002441406</ele>
        <time>2021-07-25T04:55:22.000Z</time>
      </trkpt>
      <trkpt lat="45.20597" lon="5.72529">
        <ele>648.20001220703</ele>
        <time>2021-07-25T04:55:26.000Z</time>
      </trkpt>
      <trkpt lat="45.20599" lon="5.72538">
        <ele>647.79998779297</ele>
        <time>2021-07-25T04:55:29.000Z</time>
      </trkpt>
      <trkpt lat="45.206" lon="5.72541">
        <ele>647.59997558594</ele>
        <time>2021-07-25T04:55:30.000Z</time>
      </trkpt>
      <trkpt lat="45.20599" lon="5.72544">
        <ele>647.40002441406</ele>
        <time>2021-07-25T04:55:31.000Z</time>
      </trkpt>
      <trkpt lat="45.20599" lon="5.72549">
        <ele>646.79998779297</ele>
        <time>2021-07-25T04:55:33.000Z</time>
      </trkpt>
      <trkpt lat="45.20599" lon="5.72551">
        <ele>646.79998779297</ele>
        <time>2021-07-25T04:55:34.000Z</time>
      </trkpt>
      <trkpt lat="45.20598" lon="5.72555">
        <ele>646.59997558594</ele>
        <time>2021-07-25T04:55:35.000Z</time>
      </trkpt>
      <trkpt lat="45.20596" lon="5.72567">
        <ele>646.40002441406</ele>
        <time>2021-07-25T04:55:40.000Z</time>
      </trkpt>
      <trkpt lat="45.20596" lon="5.72569">
        <ele>646.40002441406</ele>
        <time>2021-07-25T04:55:41.000Z</time>
      </trkpt>
      <trkpt lat="45.20595" lon="5.7257">
        <ele>646.20001220703</ele>
        <time>2021-07-25T04:55:42.000Z</time>
      </trkpt>
      <trkpt lat="45.20594" lon="5.72571">
        <ele>646.40002441406</ele>
        <time>2021-07-25T04:55:43.000Z</time>
      </trkpt>
      <trkpt lat="45.20591" lon="5.7257">
        <ele>646.20001220703</ele>
        <time>2021-07-25T04:55:45.000Z</time>
      </trkpt>
      <trkpt lat="45.20589" lon="5.72569">
        <ele>645.79998779297</ele>
        <time>2021-07-25T04:55:47.000Z</time>
      </trkpt>
      <trkpt lat="45.20581" lon="5.72564">
        <ele>644.79998779297</ele>
        <time>2021-07-25T04:55:51.000Z</time>
      </trkpt>
      <trkpt lat="45.2057" lon="5.72564">
        <ele>644.20001220703</ele>
        <time>2021-07-25T04:55:56.000Z</time>
      </trkpt>
      <trkpt lat="45.20566" lon="5.72564">
        <ele>643.59997558594</ele>
        <time>2021-07-25T04:55:58.000Z</time>
      </trkpt>
      <trkpt lat="45.20565" lon="5.72565">
        <ele>643.59997558594</ele>
        <time>2021-07-25T04:55:59.000Z</time>
      </trkpt>
      <trkpt lat="45.20559" lon="5.72566">
        <ele>643</ele>
        <time>2021-07-25T04:56:01.000Z</time>
      </trkpt>
      <trkpt lat="45.20551" lon="5.72568">
        <ele>642.59997558594</ele>
        <time>2021-07-25T04:56:04.000Z</time>
      </trkpt>
      <trkpt lat="45.20546" lon="5.72572">
        <ele>642</ele>
        <time>2021-07-25T04:56:07.000Z</time>
      </trkpt>
      <trkpt lat="45.20539" lon="5.72577">
        <ele>641</ele>
        <time>2021-07-25T04:56:11.000Z</time>
      </trkpt>
      <trkpt lat="45.20536" lon="5.72578">
        <ele>640.79998779297</ele>
        <time>2021-07-25T04:56:13.000Z</time>
      </trkpt>
      <trkpt lat="45.20531" lon="5.72579">
        <ele>640.20001220703</ele>
        <time>2021-07-25T04:56:15.000Z</time>
      </trkpt>
      <trkpt lat="45.20529" lon="5.7258">
        <ele>640</ele>
        <time>2021-07-25T04:56:16.000Z</time>
      </trkpt>
      <trkpt lat="45.20524" lon="5.7258">
        <ele>640</ele>
        <time>2021-07-25T04:56:18.000Z</time>
      </trkpt>
      <trkpt lat="45.20521" lon="5.7258">
        <ele>639.59997558594</ele>
        <time>2021-07-25T04:56:19.000Z</time>
      </trkpt>
      <trkpt lat="45.20509" lon="5.72576">
        <ele>639</ele>
        <time>2021-07-25T04:56:24.000Z</time>
      </trkpt>
      <trkpt lat="45.20507" lon="5.72576">
        <ele>639</ele>
        <time>2021-07-25T04:56:25.000Z</time>
      </trkpt>
      <trkpt lat="45.20497" lon="5.7257">
        <ele>638</ele>
        <time>2021-07-25T04:56:30.000Z</time>
      </trkpt>
      <trkpt lat="45.20495" lon="5.72568">
        <ele>637.59997558594</ele>
        <time>2021-07-25T04:56:31.000Z</time>
      </trkpt>
      <trkpt lat="45.20489" lon="5.72562">
        <ele>636.79998779297</ele>
        <time>2021-07-25T04:56:34.000Z</time>
      </trkpt>
      <trkpt lat="45.20487" lon="5.72561">
        <ele>636.59997558594</ele>
        <time>2021-07-25T04:56:35.000Z</time>
      </trkpt>
      <trkpt lat="45.20481" lon="5.72553">
        <ele>636</ele>
        <time>2021-07-25T04:56:39.000Z</time>
      </trkpt>
      <trkpt lat="45.20479" lon="5.72551">
        <ele>635.79998779297</ele>
        <time>2021-07-25T04:56:40.000Z</time>
      </trkpt>
      <trkpt lat="45.20478" lon="5.72548">
        <ele>635.59997558594</ele>
        <time>2021-07-25T04:56:41.000Z</time>
      </trkpt>
      <trkpt lat="45.20475" lon="5.72546">
        <ele>635</ele>
        <time>2021-07-25T04:56:42.000Z</time>
      </trkpt>
      <trkpt lat="45.2047" lon="5.7254">
        <ele>634.40002441406</ele>
        <time>2021-07-25T04:56:45.000Z</time>
      </trkpt>
      <trkpt lat="45.20465" lon="5.72537">
        <ele>634</ele>
        <time>2021-07-25T04:56:47.000Z</time>
      </trkpt>
      <trkpt lat="45.20459" lon="5.72528">
        <ele>633</ele>
        <time>2021-07-25T04:56:51.000Z</time>
      </trkpt>
      <trkpt lat="45.20457" lon="5.72527">
        <ele>632.79998779297</ele>
        <time>2021-07-25T04:56:52.000Z</time>
      </trkpt>
      <trkpt lat="45.20451" lon="5.72527">
        <ele>631.79998779297</ele>
        <time>2021-07-25T04:56:55.000Z</time>
      </trkpt>
      <trkpt lat="45.2045" lon="5.72528">
        <ele>631.59997558594</ele>
        <time>2021-07-25T04:56:56.000Z</time>
      </trkpt>
      <trkpt lat="45.20449" lon="5.7253">
        <ele>631.59997558594</ele>
        <time>2021-07-25T04:56:57.000Z</time>
      </trkpt>
      <trkpt lat="45.20449" lon="5.72532">
        <ele>631</ele>
        <time>2021-07-25T04:56:58.000Z</time>
      </trkpt>
      <trkpt lat="45.20451" lon="5.72537">
        <ele>631</ele>
        <time>2021-07-25T04:57:00.000Z</time>
      </trkpt>
      <trkpt lat="45.20451" lon="5.72539">
        <ele>630.40002441406</ele>
        <time>2021-07-25T04:57:01.000Z</time>
      </trkpt>
      <trkpt lat="45.20451" lon="5.7254">
        <ele>630.40002441406</ele>
        <time>2021-07-25T04:57:02.000Z</time>
      </trkpt>
      <trkpt lat="45.20453" lon="5.72544">
        <ele>629.79998779297</ele>
        <time>2021-07-25T04:57:04.000Z</time>
      </trkpt>
      <trkpt lat="45.20455" lon="5.72549">
        <ele>629.59997558594</ele>
        <time>2021-07-25T04:57:06.000Z</time>
      </trkpt>
      <trkpt lat="45.20456" lon="5.72551">
        <ele>629.40002441406</ele>
        <time>2021-07-25T04:57:07.000Z</time>
      </trkpt>
      <trkpt lat="45.2046" lon="5.72558">
        <ele>628.79998779297</ele>
        <time>2021-07-25T04:57:10.000Z</time>
      </trkpt>
      <trkpt lat="45.20463" lon="5.72562">
        <ele>628.20001220703</ele>
        <time>2021-07-25T04:57:12.000Z</time>
      </trkpt>
      <trkpt lat="45.20468" lon="5.72569">
        <ele>627.40002441406</ele>
        <time>2021-07-25T04:57:15.000Z</time>
      </trkpt>
      <trkpt lat="45.20471" lon="5.72575">
        <ele>627.20001220703</ele>
        <time>2021-07-25T04:57:17.000Z</time>
      </trkpt>
      <trkpt lat="45.20476" lon="5.72584">
        <ele>626.20001220703</ele>
        <time>2021-07-25T04:57:21.000Z</time>
      </trkpt>
      <trkpt lat="45.20481" lon="5.72597">
        <ele>625</ele>
        <time>2021-07-25T04:57:25.000Z</time>
      </trkpt>
      <trkpt lat="45.20488" lon="5.72604">
        <ele>624</ele>
        <time>2021-07-25T04:57:29.000Z</time>
      </trkpt>
      <trkpt lat="45.20489" lon="5.72605">
        <ele>624</ele>
        <time>2021-07-25T04:57:30.000Z</time>
      </trkpt>
      <trkpt lat="45.20495" lon="5.72612">
        <ele>622.79998779297</ele>
        <time>2021-07-25T04:57:33.000Z</time>
      </trkpt>
      <trkpt lat="45.20498" lon="5.72615">
        <ele>622</ele>
        <time>2021-07-25T04:57:36.000Z</time>
      </trkpt>
      <trkpt lat="45.20499" lon="5.72616">
        <ele>621.79998779297</ele>
        <time>2021-07-25T04:57:37.000Z</time>
      </trkpt>
      <trkpt lat="45.20503" lon="5.72617">
        <ele>620.59997558594</ele>
        <time>2021-07-25T04:57:40.000Z</time>
      </trkpt>
      <trkpt lat="45.20506" lon="5.72618">
        <ele>620.40002441406</ele>
        <time>2021-07-25T04:57:43.000Z</time>
      </trkpt>
      <trkpt lat="45.20509" lon="5.72619">
        <ele>619.59997558594</ele>
        <time>2021-07-25T04:57:46.000Z</time>
      </trkpt>
      <trkpt lat="45.20517" lon="5.72622">
        <ele>619</ele>
        <time>2021-07-25T04:57:48.000Z</time>
      </trkpt>
      <trkpt lat="45.2052" lon="5.72625">
        <ele>618.79998779297</ele>
        <time>2021-07-25T04:57:49.000Z</time>
      </trkpt>
      <trkpt lat="45.20522" lon="5.72627">
        <ele>618.79998779297</ele>
        <time>2021-07-25T04:57:50.000Z</time>
      </trkpt>
      <trkpt lat="45.20524" lon="5.72629">
        <ele>618.20001220703</ele>
        <time>2021-07-25T04:57:51.000Z</time>
      </trkpt>
      <trkpt lat="45.20529" lon="5.72632">
        <ele>618</ele>
        <time>2021-07-25T04:57:53.000Z</time>
      </trkpt>
      <trkpt lat="45.20533" lon="5.72637">
        <ele>617.20001220703</ele>
        <time>2021-07-25T04:57:55.000Z</time>
      </trkpt>
      <trkpt lat="45.20535" lon="5.7264">
        <ele>617.20001220703</ele>
        <time>2021-07-25T04:57:56.000Z</time>
      </trkpt>
      <trkpt lat="45.20539" lon="5.72646">
        <ele>616.40002441406</ele>
        <time>2021-07-25T04:57:58.000Z</time>
      </trkpt>
      <trkpt lat="45.20545" lon="5.72653">
        <ele>616.20001220703</ele>
        <time>2021-07-25T04:58:00.000Z</time>
      </trkpt>
      <trkpt lat="45.20546" lon="5.72656">
        <ele>615.40002441406</ele>
        <time>2021-07-25T04:58:01.000Z</time>
      </trkpt>
      <trkpt lat="45.20549" lon="5.72662">
        <ele>614.79998779297</ele>
        <time>2021-07-25T04:58:04.000Z</time>
      </trkpt>
      <trkpt lat="45.20553" lon="5.72666">
        <ele>614.40002441406</ele>
        <time>2021-07-25T04:58:06.000Z</time>
      </trkpt>
      <trkpt lat="45.20557" lon="5.72671">
        <ele>614</ele>
        <time>2021-07-25T04:58:08.000Z</time>
      </trkpt>
      <trkpt lat="45.20572" lon="5.72682">
        <ele>613.40002441406</ele>
        <time>2021-07-25T04:58:14.000Z</time>
      </trkpt>
      <trkpt lat="45.2059" lon="5.72693">
        <ele>612.59997558594</ele>
        <time>2021-07-25T04:58:20.000Z</time>
      </trkpt>
      <trkpt lat="45.2059" lon="5.72696">
        <ele>612.59997558594</ele>
        <time>2021-07-25T04:58:21.000Z</time>
      </trkpt>
      <trkpt lat="45.20588" lon="5.72699">
        <ele>612.20001220703</ele>
        <time>2021-07-25T04:58:22.000Z</time>
      </trkpt>
      <trkpt lat="45.20586" lon="5.72701">
        <ele>611.79998779297</ele>
        <time>2021-07-25T04:58:23.000Z</time>
      </trkpt>
      <trkpt lat="45.20581" lon="5.72703">
        <ele>610.79998779297</ele>
        <time>2021-07-25T04:58:26.000Z</time>
      </trkpt>
      <trkpt lat="45.20578" lon="5.72702">
        <ele>610.40002441406</ele>
        <time>2021-07-25T04:58:28.000Z</time>
      </trkpt>
      <trkpt lat="45.20574" lon="5.72702">
        <ele>609.79998779297</ele>
        <time>2021-07-25T04:58:30.000Z</time>
      </trkpt>
      <trkpt lat="45.20572" lon="5.72702">
        <ele>609.40002441406</ele>
        <time>2021-07-25T04:58:31.000Z</time>
      </trkpt>
      <trkpt lat="45.20568" lon="5.727">
        <ele>609.20001220703</ele>
        <time>2021-07-25T04:58:33.000Z</time>
      </trkpt>
      <trkpt lat="45.20562" lon="5.727">
        <ele>608.20001220703</ele>
        <time>2021-07-25T04:58:36.000Z</time>
      </trkpt>
      <trkpt lat="45.20554" lon="5.72698">
        <ele>607</ele>
        <time>2021-07-25T04:58:40.000Z</time>
      </trkpt>
      <trkpt lat="45.20546" lon="5.72696">
        <ele>606</ele>
        <time>2021-07-25T04:58:45.000Z</time>
      </trkpt>
      <trkpt lat="45.20542" lon="5.72695">
        <ele>605.40002441406</ele>
        <time>2021-07-25T04:58:47.000Z</time>
      </trkpt>
      <trkpt lat="45.20541" lon="5.72694">
        <ele>605.40002441406</ele>
        <time>2021-07-25T04:58:48.000Z</time>
      </trkpt>
      <trkpt lat="45.20538" lon="5.72692">
        <ele>604.79998779297</ele>
        <time>2021-07-25T04:58:50.000Z</time>
      </trkpt>
      <trkpt lat="45.20532" lon="5.7269">
        <ele>604</ele>
        <time>2021-07-25T04:58:53.000Z</time>
      </trkpt>
      <trkpt lat="45.20529" lon="5.72689">
        <ele>603.59997558594</ele>
        <time>2021-07-25T04:58:55.000Z</time>
      </trkpt>
      <trkpt lat="45.20523" lon="5.72686">
        <ele>602.40002441406</ele>
        <time>2021-07-25T04:58:59.000Z</time>
      </trkpt>
      <trkpt lat="45.2052" lon="5.72686">
        <ele>602.40002441406</ele>
        <time>2021-07-25T04:59:01.000Z</time>
      </trkpt>
      <trkpt lat="45.20519" lon="5.72685">
        <ele>601.59997558594</ele>
        <time>2021-07-25T04:59:02.000Z</time>
      </trkpt>
      <trkpt lat="45.20516" lon="5.72684">
        <ele>601</ele>
        <time>2021-07-25T04:59:05.000Z</time>
      </trkpt>
      <trkpt lat="45.20513" lon="5.72684">
        <ele>601</ele>
        <time>2021-07-25T04:59:07.000Z</time>
      </trkpt>
      <trkpt lat="45.20508" lon="5.72684">
        <ele>600.40002441406</ele>
        <time>2021-07-25T04:59:09.000Z</time>
      </trkpt>
      <trkpt lat="45.20506" lon="5.72683">
        <ele>600</ele>
        <time>2021-07-25T04:59:10.000Z</time>
      </trkpt>
      <trkpt lat="45.20498" lon="5.72678">
        <ele>599</ele>
        <time>2021-07-25T04:59:15.000Z</time>
      </trkpt>
      <trkpt lat="45.20495" lon="5.72677">
        <ele>599</ele>
        <time>2021-07-25T04:59:16.000Z</time>
      </trkpt>
      <trkpt lat="45.2049" lon="5.72674">
        <ele>597.79998779297</ele>
        <time>2021-07-25T04:59:19.000Z</time>
      </trkpt>
      <trkpt lat="45.20484" lon="5.72672">
        <ele>596.59997558594</ele>
        <time>2021-07-25T04:59:22.000Z</time>
      </trkpt>
      <trkpt lat="45.20468" lon="5.72669">
        <ele>595.79998779297</ele>
        <time>2021-07-25T04:59:28.000Z</time>
      </trkpt>
      <trkpt lat="45.20467" lon="5.72669">
        <ele>595.59997558594</ele>
        <time>2021-07-25T04:59:29.000Z</time>
      </trkpt>
      <trkpt lat="45.20463" lon="5.72668">
        <ele>595.20001220703</ele>
        <time>2021-07-25T04:59:31.000Z</time>
      </trkpt>
      <trkpt lat="45.20459" lon="5.72666">
        <ele>594.59997558594</ele>
        <time>2021-07-25T04:59:33.000Z</time>
      </trkpt>
      <trkpt lat="45.2045" lon="5.72663">
        <ele>593.79998779297</ele>
        <time>2021-07-25T04:59:36.000Z</time>
      </trkpt>
      <trkpt lat="45.20446" lon="5.72659">
        <ele>593.59997558594</ele>
        <time>2021-07-25T04:59:38.000Z</time>
      </trkpt>
      <trkpt lat="45.20441" lon="5.72652">
        <ele>592.59997558594</ele>
        <time>2021-07-25T04:59:41.000Z</time>
      </trkpt>
      <trkpt lat="45.20438" lon="5.72646">
        <ele>592.59997558594</ele>
        <time>2021-07-25T04:59:43.000Z</time>
      </trkpt>
      <trkpt lat="45.20435" lon="5.72642">
        <ele>591.79998779297</ele>
        <time>2021-07-25T04:59:45.000Z</time>
      </trkpt>
      <trkpt lat="45.20433" lon="5.72641">
        <ele>591.79998779297</ele>
        <time>2021-07-25T04:59:46.000Z</time>
      </trkpt>
      <trkpt lat="45.2043" lon="5.72643">
        <ele>591.59997558594</ele>
        <time>2021-07-25T04:59:48.000Z</time>
      </trkpt>
      <trkpt lat="45.20429" lon="5.72643">
        <ele>591.20001220703</ele>
        <time>2021-07-25T04:59:49.000Z</time>
      </trkpt>
      <trkpt lat="45.2043" lon="5.72644">
        <ele>591</ele>
        <time>2021-07-25T04:59:50.000Z</time>
      </trkpt>
      <trkpt lat="45.20429" lon="5.72645">
        <ele>590</ele>
        <time>2021-07-25T04:59:52.000Z</time>
      </trkpt>
      <trkpt lat="45.20431" lon="5.72646">
        <ele>589.40002441406</ele>
        <time>2021-07-25T04:59:54.000Z</time>
      </trkpt>
      <trkpt lat="45.20433" lon="5.72647">
        <ele>589.40002441406</ele>
        <time>2021-07-25T04:59:55.000Z</time>
      </trkpt>
      <trkpt lat="45.20435" lon="5.7265">
        <ele>588.59997558594</ele>
        <time>2021-07-25T04:59:58.000Z</time>
      </trkpt>
      <trkpt lat="45.20437" lon="5.72652">
        <ele>588.40002441406</ele>
        <time>2021-07-25T04:59:59.000Z</time>
      </trkpt>
      <trkpt lat="45.20438" lon="5.72654">
        <ele>588</ele>
        <time>2021-07-25T05:00:00.000Z</time>
      </trkpt>
      <trkpt lat="45.20441" lon="5.72658">
        <ele>587.40002441406</ele>
        <time>2021-07-25T05:00:02.000Z</time>
      </trkpt>
      <trkpt lat="45.2045" lon="5.72664">
        <ele>586.40002441406</ele>
        <time>2021-07-25T05:00:06.000Z</time>
      </trkpt>
      <trkpt lat="45.20451" lon="5.72666">
        <ele>586.20001220703</ele>
        <time>2021-07-25T05:00:07.000Z</time>
      </trkpt>
      <trkpt lat="45.20457" lon="5.72669">
        <ele>585</ele>
        <time>2021-07-25T05:00:12.000Z</time>
      </trkpt>
      <trkpt lat="45.20458" lon="5.72669">
        <ele>585</ele>
        <time>2021-07-25T05:00:13.000Z</time>
      </trkpt>
      <trkpt lat="45.20462" lon="5.72669">
        <ele>583.79998779297</ele>
        <time>2021-07-25T05:00:16.000Z</time>
      </trkpt>
      <trkpt lat="45.20464" lon="5.72671">
        <ele>583.59997558594</ele>
        <time>2021-07-25T05:00:18.000Z</time>
      </trkpt>
      <trkpt lat="45.20465" lon="5.72673">
        <ele>583.59997558594</ele>
        <time>2021-07-25T05:00:19.000Z</time>
      </trkpt>
      <trkpt lat="45.20469" lon="5.72676">
        <ele>582.79998779297</ele>
        <time>2021-07-25T05:00:21.000Z</time>
      </trkpt>
      <trkpt lat="45.20476" lon="5.72681">
        <ele>582</ele>
        <time>2021-07-25T05:00:24.000Z</time>
      </trkpt>
      <trkpt lat="45.2048" lon="5.72684">
        <ele>581.79998779297</ele>
        <time>2021-07-25T05:00:26.000Z</time>
      </trkpt>
      <trkpt lat="45.20481" lon="5.72684">
        <ele>581.59997558594</ele>
        <time>2021-07-25T05:00:27.000Z</time>
      </trkpt>
      <trkpt lat="45.20493" lon="5.72694">
        <ele>580.40002441406</ele>
        <time>2021-07-25T05:00:32.000Z</time>
      </trkpt>
      <trkpt lat="45.20501" lon="5.72706">
        <ele>579.40002441406</ele>
        <time>2021-07-25T05:00:36.000Z</time>
      </trkpt>
      <trkpt lat="45.20504" lon="5.72707">
        <ele>579.20001220703</ele>
        <time>2021-07-25T05:00:37.000Z</time>
      </trkpt>
      <trkpt lat="45.20507" lon="5.72708">
        <ele>579</ele>
        <time>2021-07-25T05:00:38.000Z</time>
      </trkpt>
      <trkpt lat="45.20513" lon="5.72714">
        <ele>578.59997558594</ele>
        <time>2021-07-25T05:00:41.000Z</time>
      </trkpt>
      <trkpt lat="45.20515" lon="5.72716">
        <ele>578</ele>
        <time>2021-07-25T05:00:42.000Z</time>
      </trkpt>
      <trkpt lat="45.20517" lon="5.72717">
        <ele>578</ele>
        <time>2021-07-25T05:00:43.000Z</time>
      </trkpt>
      <trkpt lat="45.20525" lon="5.72721">
        <ele>577.20001220703</ele>
        <time>2021-07-25T05:00:47.000Z</time>
      </trkpt>
      <trkpt lat="45.20527" lon="5.72722">
        <ele>576.79998779297</ele>
        <time>2021-07-25T05:00:48.000Z</time>
      </trkpt>
      <trkpt lat="45.20534" lon="5.72728">
        <ele>576</ele>
        <time>2021-07-25T05:00:51.000Z</time>
      </trkpt>
      <trkpt lat="45.20535" lon="5.72731">
        <ele>575.79998779297</ele>
        <time>2021-07-25T05:00:52.000Z</time>
      </trkpt>
      <trkpt lat="45.20533" lon="5.72735">
        <ele>574.79998779297</ele>
        <time>2021-07-25T05:00:54.000Z</time>
      </trkpt>
      <trkpt lat="45.20531" lon="5.72736">
        <ele>574.59997558594</ele>
        <time>2021-07-25T05:00:55.000Z</time>
      </trkpt>
      <trkpt lat="45.20528" lon="5.72737">
        <ele>574.20001220703</ele>
        <time>2021-07-25T05:00:56.000Z</time>
      </trkpt>
      <trkpt lat="45.20526" lon="5.72736">
        <ele>574.20001220703</ele>
        <time>2021-07-25T05:00:57.000Z</time>
      </trkpt>
      <trkpt lat="45.20521" lon="5.72736">
        <ele>573.59997558594</ele>
        <time>2021-07-25T05:00:59.000Z</time>
      </trkpt>
      <trkpt lat="45.20517" lon="5.72735">
        <ele>572.79998779297</ele>
        <time>2021-07-25T05:01:01.000Z</time>
      </trkpt>
      <trkpt lat="45.20514" lon="5.72734">
        <ele>572.79998779297</ele>
        <time>2021-07-25T05:01:03.000Z</time>
      </trkpt>
      <trkpt lat="45.20513" lon="5.72733">
        <ele>572.59997558594</ele>
        <time>2021-07-25T05:01:04.000Z</time>
      </trkpt>
      <trkpt lat="45.20511" lon="5.72731">
        <ele>572.40002441406</ele>
        <time>2021-07-25T05:01:05.000Z</time>
      </trkpt>
      <trkpt lat="45.20505" lon="5.7273">
        <ele>571.79998779297</ele>
        <time>2021-07-25T05:01:08.000Z</time>
      </trkpt>
      <trkpt lat="45.20502" lon="5.72731">
        <ele>571.59997558594</ele>
        <time>2021-07-25T05:01:09.000Z</time>
      </trkpt>
      <trkpt lat="45.20498" lon="5.72731">
        <ele>571.40002441406</ele>
        <time>2021-07-25T05:01:12.000Z</time>
      </trkpt>
      <trkpt lat="45.20488" lon="5.72729">
        <ele>570.20001220703</ele>
        <time>2021-07-25T05:01:16.000Z</time>
      </trkpt>
      <trkpt lat="45.20485" lon="5.72729">
        <ele>570</ele>
        <time>2021-07-25T05:01:17.000Z</time>
      </trkpt>
      <trkpt lat="45.20478" lon="5.7273">
        <ele>569</ele>
        <time>2021-07-25T05:01:20.000Z</time>
      </trkpt>
      <trkpt lat="45.20473" lon="5.72731">
        <ele>568.59997558594</ele>
        <time>2021-07-25T05:01:22.000Z</time>
      </trkpt>
      <trkpt lat="45.20469" lon="5.72731">
        <ele>568</ele>
        <time>2021-07-25T05:01:24.000Z</time>
      </trkpt>
      <trkpt lat="45.20462" lon="5.72729">
        <ele>567.59997558594</ele>
        <time>2021-07-25T05:01:27.000Z</time>
      </trkpt>
      <trkpt lat="45.20457" lon="5.72727">
        <ele>567.20001220703</ele>
        <time>2021-07-25T05:01:29.000Z</time>
      </trkpt>
      <trkpt lat="45.20456" lon="5.72726">
        <ele>566.79998779297</ele>
        <time>2021-07-25T05:01:30.000Z</time>
      </trkpt>
      <trkpt lat="45.20453" lon="5.72725">
        <ele>565.79998779297</ele>
        <time>2021-07-25T05:01:32.000Z</time>
      </trkpt>
      <trkpt lat="45.20451" lon="5.72723">
        <ele>565.59997558594</ele>
        <time>2021-07-25T05:01:33.000Z</time>
      </trkpt>
      <trkpt lat="45.20441" lon="5.72721">
        <ele>564.20001220703</ele>
        <time>2021-07-25T05:01:37.000Z</time>
      </trkpt>
      <trkpt lat="45.20436" lon="5.72719">
        <ele>563.59997558594</ele>
        <time>2021-07-25T05:01:39.000Z</time>
      </trkpt>
      <trkpt lat="45.20432" lon="5.72715">
        <ele>563</ele>
        <time>2021-07-25T05:01:42.000Z</time>
      </trkpt>
      <trkpt lat="45.20427" lon="5.72713">
        <ele>562</ele>
        <time>2021-07-25T05:01:45.000Z</time>
      </trkpt>
      <trkpt lat="45.20425" lon="5.72712">
        <ele>562</ele>
        <time>2021-07-25T05:01:46.000Z</time>
      </trkpt>
      <trkpt lat="45.20423" lon="5.72711">
        <ele>561.59997558594</ele>
        <time>2021-07-25T05:01:47.000Z</time>
      </trkpt>
      <trkpt lat="45.20419" lon="5.72709">
        <ele>561</ele>
        <time>2021-07-25T05:01:49.000Z</time>
      </trkpt>
      <trkpt lat="45.20417" lon="5.72707">
        <ele>560.79998779297</ele>
        <time>2021-07-25T05:01:50.000Z</time>
      </trkpt>
      <trkpt lat="45.20414" lon="5.72704">
        <ele>560.59997558594</ele>
        <time>2021-07-25T05:01:52.000Z</time>
      </trkpt>
      <trkpt lat="45.2041" lon="5.72699">
        <ele>559</ele>
        <time>2021-07-25T05:01:55.000Z</time>
      </trkpt>
      <trkpt lat="45.20406" lon="5.72695">
        <ele>558.59997558594</ele>
        <time>2021-07-25T05:01:58.000Z</time>
      </trkpt>
      <trkpt lat="45.20401" lon="5.72689">
        <ele>557.59997558594</ele>
        <time>2021-07-25T05:02:01.000Z</time>
      </trkpt>
      <trkpt lat="45.204" lon="5.72686">
        <ele>557.40002441406</ele>
        <time>2021-07-25T05:02:02.000Z</time>
      </trkpt>
      <trkpt lat="45.20392" lon="5.7268">
        <ele>556.40002441406</ele>
        <time>2021-07-25T05:02:06.000Z</time>
      </trkpt>
      <trkpt lat="45.20391" lon="5.72679">
        <ele>555.79998779297</ele>
        <time>2021-07-25T05:02:07.000Z</time>
      </trkpt>
      <trkpt lat="45.20383" lon="5.72675">
        <ele>555.40002441406</ele>
        <time>2021-07-25T05:02:10.000Z</time>
      </trkpt>
      <trkpt lat="45.20379" lon="5.72672">
        <ele>554.40002441406</ele>
        <time>2021-07-25T05:02:12.000Z</time>
      </trkpt>
      <trkpt lat="45.20374" lon="5.72668">
        <ele>554.20001220703</ele>
        <time>2021-07-25T05:02:14.000Z</time>
      </trkpt>
      <trkpt lat="45.20372" lon="5.72665">
        <ele>553.59997558594</ele>
        <time>2021-07-25T05:02:16.000Z</time>
      </trkpt>
      <trkpt lat="45.20371" lon="5.72663">
        <ele>552.79998779297</ele>
        <time>2021-07-25T05:02:18.000Z</time>
      </trkpt>
      <trkpt lat="45.20367" lon="5.72659">
        <ele>552</ele>
        <time>2021-07-25T05:02:21.000Z</time>
      </trkpt>
      <trkpt lat="45.20364" lon="5.72657">
        <ele>551.59997558594</ele>
        <time>2021-07-25T05:02:22.000Z</time>
      </trkpt>
      <trkpt lat="45.20362" lon="5.72656">
        <ele>551</ele>
        <time>2021-07-25T05:02:23.000Z</time>
      </trkpt>
      <trkpt lat="45.20355" lon="5.72651">
        <ele>550.20001220703</ele>
        <time>2021-07-25T05:02:26.000Z</time>
      </trkpt>
      <trkpt lat="45.20353" lon="5.72648">
        <ele>549.79998779297</ele>
        <time>2021-07-25T05:02:27.000Z</time>
      </trkpt>
      <trkpt lat="45.2035" lon="5.72644">
        <ele>549.20001220703</ele>
        <time>2021-07-25T05:02:29.000Z</time>
      </trkpt>
      <trkpt lat="45.2035" lon="5.72642">
        <ele>549</ele>
        <time>2021-07-25T05:02:30.000Z</time>
      </trkpt>
      <trkpt lat="45.20345" lon="5.72636">
        <ele>548.20001220703</ele>
        <time>2021-07-25T05:02:33.000Z</time>
      </trkpt>
      <trkpt lat="45.20342" lon="5.72634">
        <ele>548</ele>
        <time>2021-07-25T05:02:34.000Z</time>
      </trkpt>
      <trkpt lat="45.20336" lon="5.72635">
        <ele>547</ele>
        <time>2021-07-25T05:02:37.000Z</time>
      </trkpt>
      <trkpt lat="45.20334" lon="5.72634">
        <ele>546.59997558594</ele>
        <time>2021-07-25T05:02:38.000Z</time>
      </trkpt>
      <trkpt lat="45.20325" lon="5.7263">
        <ele>545.20001220703</ele>
        <time>2021-07-25T05:02:42.000Z</time>
      </trkpt>
      <trkpt lat="45.20323" lon="5.72629">
        <ele>544.59997558594</ele>
        <time>2021-07-25T05:02:43.000Z</time>
      </trkpt>
      <trkpt lat="45.20318" lon="5.72629">
        <ele>544</ele>
        <time>2021-07-25T05:02:45.000Z</time>
      </trkpt>
      <trkpt lat="45.20307" lon="5.72624">
        <ele>542.79998779297</ele>
        <time>2021-07-25T05:02:50.000Z</time>
      </trkpt>
      <trkpt lat="45.20297" lon="5.72623">
        <ele>541.59997558594</ele>
        <time>2021-07-25T05:02:54.000Z</time>
      </trkpt>
      <trkpt lat="45.20287" lon="5.72622">
        <ele>540.40002441406</ele>
        <time>2021-07-25T05:02:58.000Z</time>
      </trkpt>
      <trkpt lat="45.20285" lon="5.72622">
        <ele>539.59997558594</ele>
        <time>2021-07-25T05:02:59.000Z</time>
      </trkpt>
      <trkpt lat="45.20283" lon="5.72622">
        <ele>539.20001220703</ele>
        <time>2021-07-25T05:03:00.000Z</time>
      </trkpt>
      <trkpt lat="45.20274" lon="5.72623">
        <ele>538</ele>
        <time>2021-07-25T05:03:04.000Z</time>
      </trkpt>
      <trkpt lat="45.20268" lon="5.72623">
        <ele>537</ele>
        <time>2021-07-25T05:03:07.000Z</time>
      </trkpt>
      <trkpt lat="45.20261" lon="5.72623">
        <ele>536</ele>
        <time>2021-07-25T05:03:10.000Z</time>
      </trkpt>
      <trkpt lat="45.20253" lon="5.7262">
        <ele>535.20001220703</ele>
        <time>2021-07-25T05:03:14.000Z</time>
      </trkpt>
      <trkpt lat="45.20251" lon="5.72619">
        <ele>534.59997558594</ele>
        <time>2021-07-25T05:03:15.000Z</time>
      </trkpt>
      <trkpt lat="45.20247" lon="5.72616">
        <ele>534.40002441406</ele>
        <time>2021-07-25T05:03:17.000Z</time>
      </trkpt>
      <trkpt lat="45.20242" lon="5.72614">
        <ele>534.20001220703</ele>
        <time>2021-07-25T05:03:19.000Z</time>
      </trkpt>
      <trkpt lat="45.2024" lon="5.72612">
        <ele>533.20001220703</ele>
        <time>2021-07-25T05:03:20.000Z</time>
      </trkpt>
      <trkpt lat="45.20238" lon="5.7261">
        <ele>533.20001220703</ele>
        <time>2021-07-25T05:03:21.000Z</time>
      </trkpt>
      <trkpt lat="45.20234" lon="5.72607">
        <ele>531.79998779297</ele>
        <time>2021-07-25T05:03:23.000Z</time>
      </trkpt>
      <trkpt lat="45.2023" lon="5.72607">
        <ele>531.40002441406</ele>
        <time>2021-07-25T05:03:25.000Z</time>
      </trkpt>
      <trkpt lat="45.20223" lon="5.72605">
        <ele>530.59997558594</ele>
        <time>2021-07-25T05:03:28.000Z</time>
      </trkpt>
      <trkpt lat="45.20219" lon="5.72604">
        <ele>530</ele>
        <time>2021-07-25T05:03:30.000Z</time>
      </trkpt>
      <trkpt lat="45.20215" lon="5.72603">
        <ele>529.59997558594</ele>
        <time>2021-07-25T05:03:32.000Z</time>
      </trkpt>
      <trkpt lat="45.20208" lon="5.72598">
        <ele>528.40002441406</ele>
        <time>2021-07-25T05:03:36.000Z</time>
      </trkpt>
      <trkpt lat="45.20206" lon="5.72596">
        <ele>527.79998779297</ele>
        <time>2021-07-25T05:03:37.000Z</time>
      </trkpt>
      <trkpt lat="45.202" lon="5.72592">
        <ele>527.20001220703</ele>
        <time>2021-07-25T05:03:40.000Z</time>
      </trkpt>
      <trkpt lat="45.20194" lon="5.72588">
        <ele>526.40002441406</ele>
        <time>2021-07-25T05:03:43.000Z</time>
      </trkpt>
      <trkpt lat="45.20191" lon="5.72587">
        <ele>526.20001220703</ele>
        <time>2021-07-25T05:03:44.000Z</time>
      </trkpt>
      <trkpt lat="45.2019" lon="5.72585">
        <ele>526.20001220703</ele>
        <time>2021-07-25T05:03:45.000Z</time>
      </trkpt>
      <trkpt lat="45.20183" lon="5.72581">
        <ele>524.79998779297</ele>
        <time>2021-07-25T05:03:48.000Z</time>
      </trkpt>
      <trkpt lat="45.20178" lon="5.72577">
        <ele>523.79998779297</ele>
        <time>2021-07-25T05:03:51.000Z</time>
      </trkpt>
      <trkpt lat="45.20172" lon="5.72573">
        <ele>522.59997558594</ele>
        <time>2021-07-25T05:03:54.000Z</time>
      </trkpt>
      <trkpt lat="45.2017" lon="5.72572">
        <ele>522.20001220703</ele>
        <time>2021-07-25T05:03:55.000Z</time>
      </trkpt>
      <trkpt lat="45.2016" lon="5.72569">
        <ele>521.59997558594</ele>
        <time>2021-07-25T05:03:59.000Z</time>
      </trkpt>
      <trkpt lat="45.20157" lon="5.72568">
        <ele>521.20001220703</ele>
        <time>2021-07-25T05:04:00.000Z</time>
      </trkpt>
      <trkpt lat="45.20152" lon="5.72566">
        <ele>521</ele>
        <time>2021-07-25T05:04:02.000Z</time>
      </trkpt>
      <trkpt lat="45.20146" lon="5.72564">
        <ele>519.79998779297</ele>
        <time>2021-07-25T05:04:05.000Z</time>
      </trkpt>
      <trkpt lat="45.2014" lon="5.72561">
        <ele>518.59997558594</ele>
        <time>2021-07-25T05:04:08.000Z</time>
      </trkpt>
      <trkpt lat="45.20136" lon="5.7256">
        <ele>518.40002441406</ele>
        <time>2021-07-25T05:04:10.000Z</time>
      </trkpt>
      <trkpt lat="45.20133" lon="5.72559">
        <ele>518.40002441406</ele>
        <time>2021-07-25T05:04:12.000Z</time>
      </trkpt>
      <trkpt lat="45.20131" lon="5.72557">
        <ele>517.40002441406</ele>
        <time>2021-07-25T05:04:13.000Z</time>
      </trkpt>
      <trkpt lat="45.20128" lon="5.72555">
        <ele>516.40002441406</ele>
        <time>2021-07-25T05:04:16.000Z</time>
      </trkpt>
      <trkpt lat="45.20123" lon="5.72551">
        <ele>515.20001220703</ele>
        <time>2021-07-25T05:04:21.000Z</time>
      </trkpt>
      <trkpt lat="45.20121" lon="5.7255">
        <ele>514.79998779297</ele>
        <time>2021-07-25T05:04:23.000Z</time>
      </trkpt>
      <trkpt lat="45.2012" lon="5.7255">
        <ele>514</ele>
        <time>2021-07-25T05:04:25.000Z</time>
      </trkpt>
      <trkpt lat="45.20116" lon="5.7255">
        <ele>512.40002441406</ele>
        <time>2021-07-25T05:04:27.000Z</time>
      </trkpt>
      <trkpt lat="45.20114" lon="5.7255">
        <ele>512</ele>
        <time>2021-07-25T05:04:28.000Z</time>
      </trkpt>
      <trkpt lat="45.20109" lon="5.7255">
        <ele>511.20001220703</ele>
        <time>2021-07-25T05:04:30.000Z</time>
      </trkpt>
      <trkpt lat="45.20104" lon="5.7255">
        <ele>510.39999389648</ele>
        <time>2021-07-25T05:04:32.000Z</time>
      </trkpt>
      <trkpt lat="45.201" lon="5.72551">
        <ele>509.79998779297</ele>
        <time>2021-07-25T05:04:33.000Z</time>
      </trkpt>
      <trkpt lat="45.20093" lon="5.72555">
        <ele>508.79998779297</ele>
        <time>2021-07-25T05:04:36.000Z</time>
      </trkpt>
      <trkpt lat="45.2009" lon="5.72557">
        <ele>508.60000610352</ele>
        <time>2021-07-25T05:04:38.000Z</time>
      </trkpt>
      <trkpt lat="45.20085" lon="5.72562">
        <ele>507.20001220703</ele>
        <time>2021-07-25T05:04:42.000Z</time>
      </trkpt>
      <trkpt lat="45.20085" lon="5.72562">
        <ele>507</ele>
        <time>2021-07-25T05:04:43.000Z</time>
      </trkpt>
      <trkpt lat="45.20084" lon="5.72561">
        <ele>506.79998779297</ele>
        <time>2021-07-25T05:04:47.000Z</time>
      </trkpt>
      <trkpt lat="45.20078" lon="5.72558">
        <ele>506.79998779297</ele>
        <time>2021-07-25T05:04:56.000Z</time>
      </trkpt>
      <trkpt lat="45.20068" lon="5.72555">
        <ele>506.79998779297</ele>
        <time>2021-07-25T05:05:05.000Z</time>
      </trkpt>
      <trkpt lat="45.20064" lon="5.72545">
        <ele>507.60000610352</ele>
        <time>2021-07-25T05:05:10.000Z</time>
      </trkpt>
      <trkpt lat="45.20064" lon="5.72541">
        <ele>507.79998779297</ele>
        <time>2021-07-25T05:05:11.000Z</time>
      </trkpt>
      <trkpt lat="45.20062" lon="5.72532">
        <ele>508.39999389648</ele>
        <time>2021-07-25T05:05:14.000Z</time>
      </trkpt>
      <trkpt lat="45.20062" lon="5.7253">
        <ele>508.79998779297</ele>
        <time>2021-07-25T05:05:15.000Z</time>
      </trkpt>
      <trkpt lat="45.20061" lon="5.72523">
        <ele>508.39999389648</ele>
        <time>2021-07-25T05:05:17.000Z</time>
      </trkpt>
      <trkpt lat="45.20064" lon="5.72499">
        <ele>507.79998779297</ele>
        <time>2021-07-25T05:05:23.000Z</time>
      </trkpt>
      <trkpt lat="45.20066" lon="5.72486">
        <ele>507</ele>
        <time>2021-07-25T05:05:27.000Z</time>
      </trkpt>
      <trkpt lat="45.20066" lon="5.72471">
        <ele>506.39999389648</ele>
        <time>2021-07-25T05:05:31.000Z</time>
      </trkpt>
      <trkpt lat="45.20064" lon="5.72458">
        <ele>505.79998779297</ele>
        <time>2021-07-25T05:05:35.000Z</time>
      </trkpt>
      <trkpt lat="45.20062" lon="5.72448">
        <ele>504.79998779297</ele>
        <time>2021-07-25T05:05:38.000Z</time>
      </trkpt>
      <trkpt lat="45.2006" lon="5.72445">
        <ele>504.60000610352</ele>
        <time>2021-07-25T05:05:39.000Z</time>
      </trkpt>
      <trkpt lat="45.20052" lon="5.72436">
        <ele>503.60000610352</ele>
        <time>2021-07-25T05:05:43.000Z</time>
      </trkpt>
      <trkpt lat="45.20049" lon="5.72433">
        <ele>503.20001220703</ele>
        <time>2021-07-25T05:05:45.000Z</time>
      </trkpt>
      <trkpt lat="45.20047" lon="5.72432">
        <ele>502.20001220703</ele>
        <time>2021-07-25T05:05:46.000Z</time>
      </trkpt>
      <trkpt lat="45.20038" lon="5.72431">
        <ele>500.79998779297</ele>
        <time>2021-07-25T05:05:50.000Z</time>
      </trkpt>
      <trkpt lat="45.20031" lon="5.7243">
        <ele>500.39999389648</ele>
        <time>2021-07-25T05:05:53.000Z</time>
      </trkpt>
      <trkpt lat="45.20026" lon="5.72429">
        <ele>499.79998779297</ele>
        <time>2021-07-25T05:05:55.000Z</time>
      </trkpt>
      <trkpt lat="45.20014" lon="5.7243">
        <ele>498.39999389648</ele>
        <time>2021-07-25T05:06:00.000Z</time>
      </trkpt>
      <trkpt lat="45.20009" lon="5.7243">
        <ele>498.20001220703</ele>
        <time>2021-07-25T05:06:02.000Z</time>
      </trkpt>
      <trkpt lat="45.20004" lon="5.72429">
        <ele>497</ele>
        <time>2021-07-25T05:06:04.000Z</time>
      </trkpt>
      <trkpt lat="45.1999" lon="5.72428">
        <ele>495.79998779297</ele>
        <time>2021-07-25T05:06:09.000Z</time>
      </trkpt>
      <trkpt lat="45.19982" lon="5.72427">
        <ele>494.60000610352</ele>
        <time>2021-07-25T05:06:12.000Z</time>
      </trkpt>
      <trkpt lat="45.1997" lon="5.72425">
        <ele>493.60000610352</ele>
        <time>2021-07-25T05:06:17.000Z</time>
      </trkpt>
      <trkpt lat="45.19968" lon="5.72425">
        <ele>493.39999389648</ele>
        <time>2021-07-25T05:06:18.000Z</time>
      </trkpt>
      <trkpt lat="45.19961" lon="5.72424">
        <ele>492.39999389648</ele>
        <time>2021-07-25T05:06:21.000Z</time>
      </trkpt>
      <trkpt lat="45.19956" lon="5.72424">
        <ele>492.20001220703</ele>
        <time>2021-07-25T05:06:23.000Z</time>
      </trkpt>
      <trkpt lat="45.19945" lon="5.72423">
        <ele>491.79998779297</ele>
        <time>2021-07-25T05:06:27.000Z</time>
      </trkpt>
      <trkpt lat="45.19943" lon="5.72423">
        <ele>491.39999389648</ele>
        <time>2021-07-25T05:06:28.000Z</time>
      </trkpt>
      <trkpt lat="45.19927" lon="5.72425">
        <ele>490.60000610352</ele>
        <time>2021-07-25T05:06:33.000Z</time>
      </trkpt>
      <trkpt lat="45.19923" lon="5.72425">
        <ele>490.79998779297</ele>
        <time>2021-07-25T05:06:34.000Z</time>
      </trkpt>
      <trkpt lat="45.1992" lon="5.72426">
        <ele>491.39999389648</ele>
        <time>2021-07-25T05:06:35.000Z</time>
      </trkpt>
      <trkpt lat="45.19907" lon="5.72429">
        <ele>492</ele>
        <time>2021-07-25T05:06:40.000Z</time>
      </trkpt>
      <trkpt lat="45.19903" lon="5.72431">
        <ele>492.39999389648</ele>
        <time>2021-07-25T05:06:42.000Z</time>
      </trkpt>
      <trkpt lat="45.19894" lon="5.72434">
        <ele>493.39999389648</ele>
        <time>2021-07-25T05:06:46.000Z</time>
      </trkpt>
      <trkpt lat="45.19893" lon="5.72434">
        <ele>493.79998779297</ele>
        <time>2021-07-25T05:06:47.000Z</time>
      </trkpt>
      <trkpt lat="45.19889" lon="5.72441">
        <ele>494.20001220703</ele>
        <time>2021-07-25T05:06:50.000Z</time>
      </trkpt>
      <trkpt lat="45.19888" lon="5.72445">
        <ele>494.60000610352</ele>
        <time>2021-07-25T05:06:51.000Z</time>
      </trkpt>
      <trkpt lat="45.19886" lon="5.7245">
        <ele>495</ele>
        <time>2021-07-25T05:06:54.000Z</time>
      </trkpt>
      <trkpt lat="45.19885" lon="5.72455">
        <ele>495.39999389648</ele>
        <time>2021-07-25T05:07:00.000Z</time>
      </trkpt>
      <trkpt lat="45.19886" lon="5.72458">
        <ele>495.60000610352</ele>
        <time>2021-07-25T05:07:01.000Z</time>
      </trkpt>
      <trkpt lat="45.19883" lon="5.72468">
        <ele>495.20001220703</ele>
        <time>2021-07-25T05:07:05.000Z</time>
      </trkpt>
      <trkpt lat="45.19881" lon="5.72469">
        <ele>495.20001220703</ele>
        <time>2021-07-25T05:07:06.000Z</time>
      </trkpt>
      <trkpt lat="45.19873" lon="5.72478">
        <ele>494.20001220703</ele>
        <time>2021-07-25T05:07:10.000Z</time>
      </trkpt>
      <trkpt lat="45.19871" lon="5.72481">
        <ele>494.20001220703</ele>
        <time>2021-07-25T05:07:11.000Z</time>
      </trkpt>
      <trkpt lat="45.1987" lon="5.72486">
        <ele>494.20001220703</ele>
        <time>2021-07-25T05:07:12.000Z</time>
      </trkpt>
      <trkpt lat="45.19867" lon="5.72494">
        <ele>494.20001220703</ele>
        <time>2021-07-25T05:07:14.000Z</time>
      </trkpt>
      <trkpt lat="45.19859" lon="5.72516">
        <ele>493</ele>
        <time>2021-07-25T05:07:19.000Z</time>
      </trkpt>
      <trkpt lat="45.19859" lon="5.72532">
        <ele>492.79998779297</ele>
        <time>2021-07-25T05:07:24.000Z</time>
      </trkpt>
      <trkpt lat="45.1986" lon="5.7254">
        <ele>491.79998779297</ele>
        <time>2021-07-25T05:07:26.000Z</time>
      </trkpt>
      <trkpt lat="45.19859" lon="5.72544">
        <ele>491</ele>
        <time>2021-07-25T05:07:28.000Z</time>
      </trkpt>
      <trkpt lat="45.19857" lon="5.72545">
        <ele>490.79998779297</ele>
        <time>2021-07-25T05:07:29.000Z</time>
      </trkpt>
      <trkpt lat="45.19856" lon="5.72544">
        <ele>490.60000610352</ele>
        <time>2021-07-25T05:07:30.000Z</time>
      </trkpt>
      <trkpt lat="45.19854" lon="5.72537">
        <ele>490.20001220703</ele>
        <time>2021-07-25T05:07:33.000Z</time>
      </trkpt>
      <trkpt lat="45.1985" lon="5.72526">
        <ele>489</ele>
        <time>2021-07-25T05:07:37.000Z</time>
      </trkpt>
      <trkpt lat="45.19845" lon="5.72512">
        <ele>488</ele>
        <time>2021-07-25T05:07:41.000Z</time>
      </trkpt>
      <trkpt lat="45.19843" lon="5.72504">
        <ele>487.20001220703</ele>
        <time>2021-07-25T05:07:43.000Z</time>
      </trkpt>
      <trkpt lat="45.1984" lon="5.72485">
        <ele>486.20001220703</ele>
        <time>2021-07-25T05:07:48.000Z</time>
      </trkpt>
      <trkpt lat="45.19835" lon="5.72465">
        <ele>485.20001220703</ele>
        <time>2021-07-25T05:07:54.000Z</time>
      </trkpt>
      <trkpt lat="45.19835" lon="5.72461">
        <ele>484.79998779297</ele>
        <time>2021-07-25T05:07:55.000Z</time>
      </trkpt>
      <trkpt lat="45.19833" lon="5.72449">
        <ele>483.79998779297</ele>
        <time>2021-07-25T05:07:58.000Z</time>
      </trkpt>
      <trkpt lat="45.1983" lon="5.72445">
        <ele>482.79998779297</ele>
        <time>2021-07-25T05:08:00.000Z</time>
      </trkpt>
      <trkpt lat="45.19829" lon="5.72445">
        <ele>482.60000610352</ele>
        <time>2021-07-25T05:08:01.000Z</time>
      </trkpt>
      <trkpt lat="45.19827" lon="5.72448">
        <ele>481.60000610352</ele>
        <time>2021-07-25T05:08:03.000Z</time>
      </trkpt>
      <trkpt lat="45.19827" lon="5.72451">
        <ele>481.39999389648</ele>
        <time>2021-07-25T05:08:04.000Z</time>
      </trkpt>
      <trkpt lat="45.19826" lon="5.72464">
        <ele>480.60000610352</ele>
        <time>2021-07-25T05:08:08.000Z</time>
      </trkpt>
      <trkpt lat="45.19827" lon="5.72468">
        <ele>480.60000610352</ele>
        <time>2021-07-25T05:08:09.000Z</time>
      </trkpt>
      <trkpt lat="45.19826" lon="5.72483">
        <ele>479.39999389648</ele>
        <time>2021-07-25T05:08:13.000Z</time>
      </trkpt>
      <trkpt lat="45.19826" lon="5.72486">
        <ele>479</ele>
        <time>2021-07-25T05:08:14.000Z</time>
      </trkpt>
      <trkpt lat="45.19824" lon="5.72493">
        <ele>477.79998779297</ele>
        <time>2021-07-25T05:08:16.000Z</time>
      </trkpt>
      <trkpt lat="45.19822" lon="5.72504">
        <ele>476.79998779297</ele>
        <time>2021-07-25T05:08:19.000Z</time>
      </trkpt>
      <trkpt lat="45.19819" lon="5.72518">
        <ele>476</ele>
        <time>2021-07-25T05:08:23.000Z</time>
      </trkpt>
      <trkpt lat="45.19819" lon="5.72522">
        <ele>475.60000610352</ele>
        <time>2021-07-25T05:08:24.000Z</time>
      </trkpt>
      <trkpt lat="45.19818" lon="5.72529">
        <ele>474.60000610352</ele>
        <time>2021-07-25T05:08:26.000Z</time>
      </trkpt>
      <trkpt lat="45.19818" lon="5.72545">
        <ele>474.39999389648</ele>
        <time>2021-07-25T05:08:30.000Z</time>
      </trkpt>
      <trkpt lat="45.19818" lon="5.72552">
        <ele>473</ele>
        <time>2021-07-25T05:08:32.000Z</time>
      </trkpt>
      <trkpt lat="45.19818" lon="5.72556">
        <ele>473</ele>
        <time>2021-07-25T05:08:33.000Z</time>
      </trkpt>
      <trkpt lat="45.19818" lon="5.72573">
        <ele>472</ele>
        <time>2021-07-25T05:08:38.000Z</time>
      </trkpt>
      <trkpt lat="45.19817" lon="5.7258">
        <ele>471.39999389648</ele>
        <time>2021-07-25T05:08:40.000Z</time>
      </trkpt>
      <trkpt lat="45.19818" lon="5.72583">
        <ele>470.79998779297</ele>
        <time>2021-07-25T05:08:41.000Z</time>
      </trkpt>
      <trkpt lat="45.1982" lon="5.72595">
        <ele>470.20001220703</ele>
        <time>2021-07-25T05:08:45.000Z</time>
      </trkpt>
      <trkpt lat="45.19821" lon="5.72602">
        <ele>469.39999389648</ele>
        <time>2021-07-25T05:08:47.000Z</time>
      </trkpt>
      <trkpt lat="45.19826" lon="5.72617">
        <ele>468.39999389648</ele>
        <time>2021-07-25T05:08:51.000Z</time>
      </trkpt>
      <trkpt lat="45.19828" lon="5.7262">
        <ele>468.39999389648</ele>
        <time>2021-07-25T05:08:52.000Z</time>
      </trkpt>
      <trkpt lat="45.19832" lon="5.72635">
        <ele>467</ele>
        <time>2021-07-25T05:08:56.000Z</time>
      </trkpt>
      <trkpt lat="45.19839" lon="5.72644">
        <ele>466.79998779297</ele>
        <time>2021-07-25T05:08:59.000Z</time>
      </trkpt>
      <trkpt lat="45.19842" lon="5.72654">
        <ele>465.79998779297</ele>
        <time>2021-07-25T05:09:03.000Z</time>
      </trkpt>
      <trkpt lat="45.19847" lon="5.7266">
        <ele>464.60000610352</ele>
        <time>2021-07-25T05:09:06.000Z</time>
      </trkpt>
      <trkpt lat="45.19856" lon="5.72671">
        <ele>464</ele>
        <time>2021-07-25T05:09:10.000Z</time>
      </trkpt>
      <trkpt lat="45.19857" lon="5.72673">
        <ele>463.20001220703</ele>
        <time>2021-07-25T05:09:11.000Z</time>
      </trkpt>
      <trkpt lat="45.19858" lon="5.72675">
        <ele>462.79998779297</ele>
        <time>2021-07-25T05:09:13.000Z</time>
      </trkpt>
      <trkpt lat="45.19851" lon="5.72669">
        <ele>462</ele>
        <time>2021-07-25T05:09:17.000Z</time>
      </trkpt>
      <trkpt lat="45.19839" lon="5.72661">
        <ele>461.20001220703</ele>
        <time>2021-07-25T05:09:22.000Z</time>
      </trkpt>
      <trkpt lat="45.19835" lon="5.72656">
        <ele>460.39999389648</ele>
        <time>2021-07-25T05:09:24.000Z</time>
      </trkpt>
      <trkpt lat="45.1983" lon="5.72652">
        <ele>459.79998779297</ele>
        <time>2021-07-25T05:09:27.000Z</time>
      </trkpt>
      <trkpt lat="45.19823" lon="5.72648">
        <ele>459.20001220703</ele>
        <time>2021-07-25T05:09:30.000Z</time>
      </trkpt>
      <trkpt lat="45.19815" lon="5.72642">
        <ele>457.79998779297</ele>
        <time>2021-07-25T05:09:33.000Z</time>
      </trkpt>
      <trkpt lat="45.19811" lon="5.7264">
        <ele>457.39999389648</ele>
        <time>2021-07-25T05:09:34.000Z</time>
      </trkpt>
      <trkpt lat="45.19802" lon="5.72636">
        <ele>456.39999389648</ele>
        <time>2021-07-25T05:09:38.000Z</time>
      </trkpt>
      <trkpt lat="45.19799" lon="5.72631">
        <ele>456</ele>
        <time>2021-07-25T05:09:40.000Z</time>
      </trkpt>
      <trkpt lat="45.19788" lon="5.72622">
        <ele>455.39999389648</ele>
        <time>2021-07-25T05:09:44.000Z</time>
      </trkpt>
      <trkpt lat="45.19785" lon="5.72613">
        <ele>454.20001220703</ele>
        <time>2021-07-25T05:09:47.000Z</time>
      </trkpt>
      <trkpt lat="45.19782" lon="5.7259">
        <ele>453</ele>
        <time>2021-07-25T05:09:53.000Z</time>
      </trkpt>
      <trkpt lat="45.19782" lon="5.72586">
        <ele>452.60000610352</ele>
        <time>2021-07-25T05:09:54.000Z</time>
      </trkpt>
      <trkpt lat="45.19782" lon="5.72581">
        <ele>451.79998779297</ele>
        <time>2021-07-25T05:09:55.000Z</time>
      </trkpt>
      <trkpt lat="45.19779" lon="5.72561">
        <ele>451</ele>
        <time>2021-07-25T05:10:00.000Z</time>
      </trkpt>
      <trkpt lat="45.19779" lon="5.72553">
        <ele>450.20001220703</ele>
        <time>2021-07-25T05:10:02.000Z</time>
      </trkpt>
      <trkpt lat="45.19782" lon="5.72541">
        <ele>449.20001220703</ele>
        <time>2021-07-25T05:10:06.000Z</time>
      </trkpt>
      <trkpt lat="45.19782" lon="5.72537">
        <ele>449.20001220703</ele>
        <time>2021-07-25T05:10:07.000Z</time>
      </trkpt>
      <trkpt lat="45.19782" lon="5.72533">
        <ele>449.20001220703</ele>
        <time>2021-07-25T05:10:08.000Z</time>
      </trkpt>
      <trkpt lat="45.19779" lon="5.72532">
        <ele>448.60000610352</ele>
        <time>2021-07-25T05:10:10.000Z</time>
      </trkpt>
      <trkpt lat="45.19777" lon="5.72536">
        <ele>448.39999389648</ele>
        <time>2021-07-25T05:10:12.000Z</time>
      </trkpt>
      <trkpt lat="45.19777" lon="5.72538">
        <ele>448.20001220703</ele>
        <time>2021-07-25T05:10:13.000Z</time>
      </trkpt>
      <trkpt lat="45.19776" lon="5.72541">
        <ele>447.79998779297</ele>
        <time>2021-07-25T05:10:14.000Z</time>
      </trkpt>
      <trkpt lat="45.19774" lon="5.72548">
        <ele>446.79998779297</ele>
        <time>2021-07-25T05:10:16.000Z</time>
      </trkpt>
      <trkpt lat="45.19769" lon="5.72565">
        <ele>445.79998779297</ele>
        <time>2021-07-25T05:10:21.000Z</time>
      </trkpt>
      <trkpt lat="45.19769" lon="5.72578">
        <ele>444.39999389648</ele>
        <time>2021-07-25T05:10:25.000Z</time>
      </trkpt>
      <trkpt lat="45.19768" lon="5.72581">
        <ele>444.20001220703</ele>
        <time>2021-07-25T05:10:26.000Z</time>
      </trkpt>
      <trkpt lat="45.19765" lon="5.72584">
        <ele>444</ele>
        <time>2021-07-25T05:10:28.000Z</time>
      </trkpt>
      <trkpt lat="45.19763" lon="5.72582">
        <ele>443.60000610352</ele>
        <time>2021-07-25T05:10:30.000Z</time>
      </trkpt>
      <trkpt lat="45.19762" lon="5.72579">
        <ele>443.20001220703</ele>
        <time>2021-07-25T05:10:31.000Z</time>
      </trkpt>
      <trkpt lat="45.19762" lon="5.72575">
        <ele>443.20001220703</ele>
        <time>2021-07-25T05:10:32.000Z</time>
      </trkpt>
      <trkpt lat="45.19761" lon="5.72569">
        <ele>441.79998779297</ele>
        <time>2021-07-25T05:10:34.000Z</time>
      </trkpt>
      <trkpt lat="45.19759" lon="5.72557">
        <ele>440.60000610352</ele>
        <time>2021-07-25T05:10:38.000Z</time>
      </trkpt>
      <trkpt lat="45.19757" lon="5.72546">
        <ele>440.20001220703</ele>
        <time>2021-07-25T05:10:41.000Z</time>
      </trkpt>
      <trkpt lat="45.19757" lon="5.72535">
        <ele>439.39999389648</ele>
        <time>2021-07-25T05:10:44.000Z</time>
      </trkpt>
      <trkpt lat="45.19761" lon="5.72524">
        <ele>438.60000610352</ele>
        <time>2021-07-25T05:10:47.000Z</time>
      </trkpt>
      <trkpt lat="45.19763" lon="5.7252">
        <ele>438.20001220703</ele>
        <time>2021-07-25T05:10:48.000Z</time>
      </trkpt>
      <trkpt lat="45.19767" lon="5.72504">
        <ele>437.39999389648</ele>
        <time>2021-07-25T05:10:52.000Z</time>
      </trkpt>
      <trkpt lat="45.19769" lon="5.72496">
        <ele>437</ele>
        <time>2021-07-25T05:10:54.000Z</time>
      </trkpt>
      <trkpt lat="45.19774" lon="5.72478">
        <ele>436.20001220703</ele>
        <time>2021-07-25T05:10:58.000Z</time>
      </trkpt>
      <trkpt lat="45.19776" lon="5.72475">
        <ele>436</ele>
        <time>2021-07-25T05:10:59.000Z</time>
      </trkpt>
      <trkpt lat="45.19779" lon="5.72463">
        <ele>435.39999389648</ele>
        <time>2021-07-25T05:11:02.000Z</time>
      </trkpt>
      <trkpt lat="45.19782" lon="5.72454">
        <ele>435.20001220703</ele>
        <time>2021-07-25T05:11:05.000Z</time>
      </trkpt>
      <trkpt lat="45.19785" lon="5.72435">
        <ele>435.20001220703</ele>
        <time>2021-07-25T05:11:10.000Z</time>
      </trkpt>
      <trkpt lat="45.19791" lon="5.72413">
        <ele>435.60000610352</ele>
        <time>2021-07-25T05:11:16.000Z</time>
      </trkpt>
      <trkpt lat="45.1979" lon="5.72406">
        <ele>435.60000610352</ele>
        <time>2021-07-25T05:11:18.000Z</time>
      </trkpt>
      <trkpt lat="45.1979" lon="5.72394">
        <ele>435.39999389648</ele>
        <time>2021-07-25T05:11:21.000Z</time>
      </trkpt>
      <trkpt lat="45.19791" lon="5.7239">
        <ele>436</ele>
        <time>2021-07-25T05:11:22.000Z</time>
      </trkpt>
      <trkpt lat="45.19794" lon="5.72366">
        <ele>436</ele>
        <time>2021-07-25T05:11:28.000Z</time>
      </trkpt>
      <trkpt lat="45.19802" lon="5.72348">
        <ele>435.60000610352</ele>
        <time>2021-07-25T05:11:34.000Z</time>
      </trkpt>
      <trkpt lat="45.19811" lon="5.723">
        <ele>425.39999389648</ele>
        <time>2021-07-25T05:12:04.000Z</time>
      </trkpt>
      <trkpt lat="45.19808" lon="5.72294">
        <ele>425.20001220703</ele>
        <time>2021-07-25T05:12:05.000Z</time>
      </trkpt>
      <trkpt lat="45.19817" lon="5.72286">
        <ele>424.20001220703</ele>
        <time>2021-07-25T05:12:08.000Z</time>
      </trkpt>
      <trkpt lat="45.19818" lon="5.72271">
        <ele>424.20001220703</ele>
        <time>2021-07-25T05:12:12.000Z</time>
      </trkpt>
      <trkpt lat="45.19821" lon="5.72263">
        <ele>423.79998779297</ele>
        <time>2021-07-25T05:12:14.000Z</time>
      </trkpt>
      <trkpt lat="45.19826" lon="5.72245">
        <ele>422.79998779297</ele>
        <time>2021-07-25T05:12:19.000Z</time>
      </trkpt>
      <trkpt lat="45.19831" lon="5.7224">
        <ele>422.39999389648</ele>
        <time>2021-07-25T05:12:22.000Z</time>
      </trkpt>
      <trkpt lat="45.19832" lon="5.72241">
        <ele>422.20001220703</ele>
        <time>2021-07-25T05:12:23.000Z</time>
      </trkpt>
      <trkpt lat="45.1983" lon="5.72241">
        <ele>421.79998779297</ele>
        <time>2021-07-25T05:12:25.000Z</time>
      </trkpt>
      <trkpt lat="45.19829" lon="5.72241">
        <ele>421.79998779297</ele>
        <time>2021-07-25T05:12:26.000Z</time>
      </trkpt>
      <trkpt lat="45.19829" lon="5.72241">
        <ele>421.20001220703</ele>
        <time>2021-07-25T05:12:27.000Z</time>
      </trkpt>
      <trkpt lat="45.19828" lon="5.7224">
        <ele>420.39999389648</ele>
        <time>2021-07-25T05:12:28.000Z</time>
      </trkpt>
      <trkpt lat="45.19829" lon="5.72237">
        <ele>418.39999389648</ele>
        <time>2021-07-25T05:12:31.000Z</time>
      </trkpt>
      <trkpt lat="45.1983" lon="5.72237">
        <ele>417.79998779297</ele>
        <time>2021-07-25T05:12:32.000Z</time>
      </trkpt>
      <trkpt lat="45.1983" lon="5.72238">
        <ele>417.39999389648</ele>
        <time>2021-07-25T05:12:34.000Z</time>
      </trkpt>
      <trkpt lat="45.19828" lon="5.72239">
        <ele>416.39999389648</ele>
        <time>2021-07-25T05:12:37.000Z</time>
      </trkpt>
      <trkpt lat="45.19828" lon="5.7224">
        <ele>416.20001220703</ele>
        <time>2021-07-25T05:12:38.000Z</time>
      </trkpt>
      <trkpt lat="45.19821" lon="5.72241">
        <ele>406.20001220703</ele>
        <time>2021-07-25T05:13:04.000Z</time>
      </trkpt>
      <trkpt lat="45.19821" lon="5.7223">
        <ele>406.20001220703</ele>
        <time>2021-07-25T05:13:05.000Z</time>
      </trkpt>
      <trkpt lat="45.19818" lon="5.72231">
        <ele>405.60000610352</ele>
        <time>2021-07-25T05:13:07.000Z</time>
      </trkpt>
      <trkpt lat="45.19815" lon="5.72232">
        <ele>405.20001220703</ele>
        <time>2021-07-25T05:13:08.000Z</time>
      </trkpt>
      <trkpt lat="45.19817" lon="5.72234">
        <ele>405.20001220703</ele>
        <time>2021-07-25T05:13:10.000Z</time>
      </trkpt>
      <trkpt lat="45.19817" lon="5.72234">
        <ele>404.39999389648</ele>
        <time>2021-07-25T05:13:11.000Z</time>
      </trkpt>
      <trkpt lat="45.19813" lon="5.72235">
        <ele>403</ele>
        <time>2021-07-25T05:13:14.000Z</time>
      </trkpt>
      <trkpt lat="45.19811" lon="5.72235">
        <ele>402.39999389648</ele>
        <time>2021-07-25T05:13:15.000Z</time>
      </trkpt>
      <trkpt lat="45.1981" lon="5.72234">
        <ele>401.79998779297</ele>
        <time>2021-07-25T05:13:16.000Z</time>
      </trkpt>
      <trkpt lat="45.19808" lon="5.72231">
        <ele>400.39999389648</ele>
        <time>2021-07-25T05:13:19.000Z</time>
      </trkpt>
      <trkpt lat="45.19807" lon="5.72229">
        <ele>400.20001220703</ele>
        <time>2021-07-25T05:13:20.000Z</time>
      </trkpt>
      <trkpt lat="45.19805" lon="5.72229">
        <ele>399.79998779297</ele>
        <time>2021-07-25T05:13:21.000Z</time>
      </trkpt>
      <trkpt lat="45.19803" lon="5.72229">
        <ele>399.20001220703</ele>
        <time>2021-07-25T05:13:22.000Z</time>
      </trkpt>
      <trkpt lat="45.19802" lon="5.72235">
        <ele>398.79998779297</ele>
        <time>2021-07-25T05:13:26.000Z</time>
      </trkpt>
      <trkpt lat="45.198" lon="5.72243">
        <ele>398</ele>
        <time>2021-07-25T05:13:29.000Z</time>
      </trkpt>
      <trkpt lat="45.198" lon="5.72247">
        <ele>397.60000610352</ele>
        <time>2021-07-25T05:13:31.000Z</time>
      </trkpt>
      <trkpt lat="45.19799" lon="5.7225">
        <ele>397.39999389648</ele>
        <time>2021-07-25T05:13:33.000Z</time>
      </trkpt>
      <trkpt lat="45.19799" lon="5.72252">
        <ele>396.39999389648</ele>
        <time>2021-07-25T05:13:35.000Z</time>
      </trkpt>
      <trkpt lat="45.19799" lon="5.72252">
        <ele>396</ele>
        <time>2021-07-25T05:13:36.000Z</time>
      </trkpt>
      <trkpt lat="45.19798" lon="5.72252">
        <ele>395</ele>
        <time>2021-07-25T05:13:37.000Z</time>
      </trkpt>
      <trkpt lat="45.19798" lon="5.72253">
        <ele>395</ele>
        <time>2021-07-25T05:13:38.000Z</time>
      </trkpt>
      <trkpt lat="45.19798" lon="5.72255">
        <ele>393.79998779297</ele>
        <time>2021-07-25T05:13:40.000Z</time>
      </trkpt>
      <trkpt lat="45.19799" lon="5.72258">
        <ele>392.20001220703</ele>
        <time>2021-07-25T05:13:43.000Z</time>
      </trkpt>
      <trkpt lat="45.19798" lon="5.72262">
        <ele>391.20001220703</ele>
        <time>2021-07-25T05:13:47.000Z</time>
      </trkpt>
      <trkpt lat="45.19798" lon="5.72262">
        <ele>390.79998779297</ele>
        <time>2021-07-25T05:13:48.000Z</time>
      </trkpt>
      <trkpt lat="45.19798" lon="5.72262">
        <ele>390.79998779297</ele>
        <time>2021-07-25T05:13:49.000Z</time>
      </trkpt>
      <trkpt lat="45.19797" lon="5.72262">
        <ele>390.39999389648</ele>
        <time>2021-07-25T05:13:50.000Z</time>
      </trkpt>
      <trkpt lat="45.19796" lon="5.72262">
        <ele>390.20001220703</ele>
        <time>2021-07-25T05:13:51.000Z</time>
      </trkpt>
      <trkpt lat="45.19796" lon="5.72262">
        <ele>389.60000610352</ele>
        <time>2021-07-25T05:13:52.000Z</time>
      </trkpt>
      <trkpt lat="45.19796" lon="5.72261">
        <ele>389.20001220703</ele>
        <time>2021-07-25T05:13:53.000Z</time>
      </trkpt>
      <trkpt lat="45.19795" lon="5.72259">
        <ele>388.79998779297</ele>
        <time>2021-07-25T05:13:55.000Z</time>
      </trkpt>
      <trkpt lat="45.19795" lon="5.72259">
        <ele>388.60000610352</ele>
        <time>2021-07-25T05:13:56.000Z</time>
      </trkpt>
      <trkpt lat="45.19794" lon="5.72261">
        <ele>387.39999389648</ele>
        <time>2021-07-25T05:13:58.000Z</time>
      </trkpt>
      <trkpt lat="45.19793" lon="5.72261">
        <ele>387.20001220703</ele>
        <time>2021-07-25T05:13:59.000Z</time>
      </trkpt>
      <trkpt lat="45.19792" lon="5.72262">
        <ele>386.79998779297</ele>
        <time>2021-07-25T05:14:01.000Z</time>
      </trkpt>
      <trkpt lat="45.19792" lon="5.72261">
        <ele>386.79998779297</ele>
        <time>2021-07-25T05:14:02.000Z</time>
      </trkpt>
      <trkpt lat="45.19792" lon="5.72258">
        <ele>386.60000610352</ele>
        <time>2021-07-25T05:14:04.000Z</time>
      </trkpt>
      <trkpt lat="45.19793" lon="5.72256">
        <ele>386.20001220703</ele>
        <time>2021-07-25T05:14:05.000Z</time>
      </trkpt>
      <trkpt lat="45.19793" lon="5.72254">
        <ele>385.60000610352</ele>
        <time>2021-07-25T05:14:08.000Z</time>
      </trkpt>
      <trkpt lat="45.19793" lon="5.72254">
        <ele>385</ele>
        <time>2021-07-25T05:14:09.000Z</time>
      </trkpt>
      <trkpt lat="45.19792" lon="5.72255">
        <ele>385</ele>
        <time>2021-07-25T05:14:10.000Z</time>
      </trkpt>
      <trkpt lat="45.1979" lon="5.72257">
        <ele>384.39999389648</ele>
        <time>2021-07-25T05:14:13.000Z</time>
      </trkpt>
      <trkpt lat="45.1979" lon="5.72256">
        <ele>383.60000610352</ele>
        <time>2021-07-25T05:14:14.000Z</time>
      </trkpt>
      <trkpt lat="45.1979" lon="5.72255">
        <ele>383.39999389648</ele>
        <time>2021-07-25T05:14:15.000Z</time>
      </trkpt>
      <trkpt lat="45.19791" lon="5.72253">
        <ele>383.20001220703</ele>
        <time>2021-07-25T05:14:16.000Z</time>
      </trkpt>
      <trkpt lat="45.19792" lon="5.72251">
        <ele>382.20001220703</ele>
        <time>2021-07-25T05:14:18.000Z</time>
      </trkpt>
      <trkpt lat="45.19793" lon="5.72251">
        <ele>381.79998779297</ele>
        <time>2021-07-25T05:14:20.000Z</time>
      </trkpt>
      <trkpt lat="45.19793" lon="5.72251">
        <ele>381.79998779297</ele>
        <time>2021-07-25T05:14:21.000Z</time>
      </trkpt>
      <trkpt lat="45.19793" lon="5.72251">
        <ele>380.39999389648</ele>
        <time>2021-07-25T05:14:24.000Z</time>
      </trkpt>
      <trkpt lat="45.19793" lon="5.7225">
        <ele>380.20001220703</ele>
        <time>2021-07-25T05:14:26.000Z</time>
      </trkpt>
      <trkpt lat="45.19794" lon="5.72248">
        <ele>379.79998779297</ele>
        <time>2021-07-25T05:14:28.000Z</time>
      </trkpt>
      <trkpt lat="45.19794" lon="5.72247">
        <ele>379.79998779297</ele>
        <time>2021-07-25T05:14:29.000Z</time>
      </trkpt>
      <trkpt lat="45.19794" lon="5.72247">
        <ele>379.79998779297</ele>
        <time>2021-07-25T05:14:30.000Z</time>
      </trkpt>
      <trkpt lat="45.19794" lon="5.72249">
        <ele>379.20001220703</ele>
        <time>2021-07-25T05:14:32.000Z</time>
      </trkpt>
      <trkpt lat="45.19794" lon="5.7225">
        <ele>378.79998779297</ele>
        <time>2021-07-25T05:14:34.000Z</time>
      </trkpt>
      <trkpt lat="45.19792" lon="5.72251">
        <ele>378.20001220703</ele>
        <time>2021-07-25T05:14:36.000Z</time>
      </trkpt>
      <trkpt lat="45.19791" lon="5.72251">
        <ele>377.79998779297</ele>
        <time>2021-07-25T05:14:37.000Z</time>
      </trkpt>
      <trkpt lat="45.19791" lon="5.72246">
        <ele>377</ele>
        <time>2021-07-25T05:14:40.000Z</time>
      </trkpt>
      <trkpt lat="45.19792" lon="5.72244">
        <ele>376.60000610352</ele>
        <time>2021-07-25T05:14:42.000Z</time>
      </trkpt>
      <trkpt lat="45.19792" lon="5.72243">
        <ele>376.39999389648</ele>
        <time>2021-07-25T05:14:43.000Z</time>
      </trkpt>
      <trkpt lat="45.19792" lon="5.72243">
        <ele>375.60000610352</ele>
        <time>2021-07-25T05:14:45.000Z</time>
      </trkpt>
      <trkpt lat="45.19791" lon="5.72244">
        <ele>375.39999389648</ele>
        <time>2021-07-25T05:14:47.000Z</time>
      </trkpt>
      <trkpt lat="45.19789" lon="5.72247">
        <ele>375</ele>
        <time>2021-07-25T05:14:50.000Z</time>
      </trkpt>
      <trkpt lat="45.19788" lon="5.72247">
        <ele>374.60000610352</ele>
        <time>2021-07-25T05:14:52.000Z</time>
      </trkpt>
      <trkpt lat="45.19787" lon="5.72246">
        <ele>374.20001220703</ele>
        <time>2021-07-25T05:14:53.000Z</time>
      </trkpt>
      <trkpt lat="45.19785" lon="5.72237">
        <ele>372.79998779297</ele>
        <time>2021-07-25T05:14:58.000Z</time>
      </trkpt>
      <trkpt lat="45.19785" lon="5.72237">
        <ele>373.20001220703</ele>
        <time>2021-07-25T05:14:59.000Z</time>
      </trkpt>
      <trkpt lat="45.19785" lon="5.72238">
        <ele>372.79998779297</ele>
        <time>2021-07-25T05:15:00.000Z</time>
      </trkpt>
      <trkpt lat="45.19784" lon="5.72244">
        <ele>371.79998779297</ele>
        <time>2021-07-25T05:15:03.000Z</time>
      </trkpt>
      <trkpt lat="45.19783" lon="5.72245">
        <ele>370.60000610352</ele>
        <time>2021-07-25T05:15:06.000Z</time>
      </trkpt>
      <trkpt lat="45.19783" lon="5.72245">
        <ele>370.60000610352</ele>
        <time>2021-07-25T05:15:07.000Z</time>
      </trkpt>
      <trkpt lat="45.19782" lon="5.72242">
        <ele>370</ele>
        <time>2021-07-25T05:15:11.000Z</time>
      </trkpt>
      <trkpt lat="45.19782" lon="5.72244">
        <ele>370</ele>
        <time>2021-07-25T05:15:12.000Z</time>
      </trkpt>
      <trkpt lat="45.1978" lon="5.7225">
        <ele>369.39999389648</ele>
        <time>2021-07-25T05:15:16.000Z</time>
      </trkpt>
      <trkpt lat="45.19779" lon="5.72252">
        <ele>369.39999389648</ele>
        <time>2021-07-25T05:15:18.000Z</time>
      </trkpt>
      <trkpt lat="45.19779" lon="5.72255">
        <ele>368.79998779297</ele>
        <time>2021-07-25T05:15:20.000Z</time>
      </trkpt>
      <trkpt lat="45.19776" lon="5.72255">
        <ele>368.39999389648</ele>
        <time>2021-07-25T05:15:22.000Z</time>
      </trkpt>
      <trkpt lat="45.19775" lon="5.72255">
        <ele>368.20001220703</ele>
        <time>2021-07-25T05:15:23.000Z</time>
      </trkpt>
      <trkpt lat="45.19774" lon="5.72254">
        <ele>367.39999389648</ele>
        <time>2021-07-25T05:15:24.000Z</time>
      </trkpt>
      <trkpt lat="45.19774" lon="5.72253">
        <ele>367.39999389648</ele>
        <time>2021-07-25T05:15:25.000Z</time>
      </trkpt>
      <trkpt lat="45.19774" lon="5.72249">
        <ele>366.79998779297</ele>
        <time>2021-07-25T05:15:28.000Z</time>
      </trkpt>
      <trkpt lat="45.19774" lon="5.7224">
        <ele>366</ele>
        <time>2021-07-25T05:15:32.000Z</time>
      </trkpt>
      <trkpt lat="45.19774" lon="5.72239">
        <ele>365.39999389648</ele>
        <time>2021-07-25T05:15:33.000Z</time>
      </trkpt>
      <trkpt lat="45.1977" lon="5.72242">
        <ele>364.79998779297</ele>
        <time>2021-07-25T05:15:37.000Z</time>
      </trkpt>
      <trkpt lat="45.19764" lon="5.72244">
        <ele>363.39999389648</ele>
        <time>2021-07-25T05:15:42.000Z</time>
      </trkpt>
      <trkpt lat="45.19764" lon="5.72244">
        <ele>363</ele>
        <time>2021-07-25T05:15:44.000Z</time>
      </trkpt>
      <trkpt lat="45.19762" lon="5.72244">
        <ele>362.20001220703</ele>
        <time>2021-07-25T05:15:46.000Z</time>
      </trkpt>
      <trkpt lat="45.19755" lon="5.72245">
        <ele>361.79998779297</ele>
        <time>2021-07-25T05:15:49.000Z</time>
      </trkpt>
      <trkpt lat="45.19752" lon="5.72245">
        <ele>361.20001220703</ele>
        <time>2021-07-25T05:15:50.000Z</time>
      </trkpt>
      <trkpt lat="45.19745" lon="5.72242">
        <ele>361</ele>
        <time>2021-07-25T05:15:53.000Z</time>
      </trkpt>
      <trkpt lat="45.19743" lon="5.72242">
        <ele>360.39999389648</ele>
        <time>2021-07-25T05:15:54.000Z</time>
      </trkpt>
      <trkpt lat="45.19741" lon="5.72242">
        <ele>360.39999389648</ele>
        <time>2021-07-25T05:15:55.000Z</time>
      </trkpt>
      <trkpt lat="45.19739" lon="5.72242">
        <ele>360.39999389648</ele>
        <time>2021-07-25T05:15:56.000Z</time>
      </trkpt>
      <trkpt lat="45.19735" lon="5.72243">
        <ele>359.79998779297</ele>
        <time>2021-07-25T05:15:58.000Z</time>
      </trkpt>
      <trkpt lat="45.19733" lon="5.72244">
        <ele>359.20001220703</ele>
        <time>2021-07-25T05:15:59.000Z</time>
      </trkpt>
      <trkpt lat="45.19732" lon="5.72244">
        <ele>358.79998779297</ele>
        <time>2021-07-25T05:16:00.000Z</time>
      </trkpt>
      <trkpt lat="45.19731" lon="5.72244">
        <ele>358.79998779297</ele>
        <time>2021-07-25T05:16:01.000Z</time>
      </trkpt>
      <trkpt lat="45.19727" lon="5.72243">
        <ele>358</ele>
        <time>2021-07-25T05:16:04.000Z</time>
      </trkpt>
      <trkpt lat="45.19724" lon="5.72243">
        <ele>357.60000610352</ele>
        <time>2021-07-25T05:16:05.000Z</time>
      </trkpt>
      <trkpt lat="45.19722" lon="5.72243">
        <ele>357.60000610352</ele>
        <time>2021-07-25T05:16:06.000Z</time>
      </trkpt>
      <trkpt lat="45.19714" lon="5.72241">
        <ele>356.60000610352</ele>
        <time>2021-07-25T05:16:11.000Z</time>
      </trkpt>
      <trkpt lat="45.19708" lon="5.72241">
        <ele>355.60000610352</ele>
        <time>2021-07-25T05:16:14.000Z</time>
      </trkpt>
      <trkpt lat="45.19704" lon="5.72241">
        <ele>355</ele>
        <time>2021-07-25T05:16:16.000Z</time>
      </trkpt>
      <trkpt lat="45.197" lon="5.7224">
        <ele>354.60000610352</ele>
        <time>2021-07-25T05:16:18.000Z</time>
      </trkpt>
      <trkpt lat="45.19701" lon="5.72238">
        <ele>354</ele>
        <time>2021-07-25T05:16:20.000Z</time>
      </trkpt>
      <trkpt lat="45.19703" lon="5.72235">
        <ele>353.79998779297</ele>
        <time>2021-07-25T05:16:22.000Z</time>
      </trkpt>
      <trkpt lat="45.19703" lon="5.72228">
        <ele>352.79998779297</ele>
        <time>2021-07-25T05:16:25.000Z</time>
      </trkpt>
      <trkpt lat="45.19705" lon="5.72223">
        <ele>352.39999389648</ele>
        <time>2021-07-25T05:16:27.000Z</time>
      </trkpt>
      <trkpt lat="45.19708" lon="5.72218">
        <ele>351.39999389648</ele>
        <time>2021-07-25T05:16:30.000Z</time>
      </trkpt>
      <trkpt lat="45.19711" lon="5.72216">
        <ele>351.20001220703</ele>
        <time>2021-07-25T05:16:33.000Z</time>
      </trkpt>
      <trkpt lat="45.19714" lon="5.72213">
        <ele>350</ele>
        <time>2021-07-25T05:16:36.000Z</time>
      </trkpt>
      <trkpt lat="45.19715" lon="5.72208">
        <ele>349.79998779297</ele>
        <time>2021-07-25T05:16:38.000Z</time>
      </trkpt>
      <trkpt lat="45.19717" lon="5.72203">
        <ele>348.79998779297</ele>
        <time>2021-07-25T05:16:40.000Z</time>
      </trkpt>
      <trkpt lat="45.19717" lon="5.72201">
        <ele>348.79998779297</ele>
        <time>2021-07-25T05:16:41.000Z</time>
      </trkpt>
      <trkpt lat="45.1972" lon="5.72197">
        <ele>347.79998779297</ele>
        <time>2021-07-25T05:16:44.000Z</time>
      </trkpt>
      <trkpt lat="45.19727" lon="5.72195">
        <ele>347.39999389648</ele>
        <time>2021-07-25T05:16:47.000Z</time>
      </trkpt>
      <trkpt lat="45.19733" lon="5.72196">
        <ele>347.60000610352</ele>
        <time>2021-07-25T05:16:50.000Z</time>
      </trkpt>
      <trkpt lat="45.19737" lon="5.72196">
        <ele>347.79998779297</ele>
        <time>2021-07-25T05:16:52.000Z</time>
      </trkpt>
      <trkpt lat="45.1974" lon="5.72196">
        <ele>347.79998779297</ele>
        <time>2021-07-25T05:16:53.000Z</time>
      </trkpt>
      <trkpt lat="45.19744" lon="5.72195">
        <ele>348.20001220703</ele>
        <time>2021-07-25T05:16:55.000Z</time>
      </trkpt>
      <trkpt lat="45.19746" lon="5.72192">
        <ele>348</ele>
        <time>2021-07-25T05:16:57.000Z</time>
      </trkpt>
      <trkpt lat="45.19749" lon="5.72191">
        <ele>348</ele>
        <time>2021-07-25T05:16:58.000Z</time>
      </trkpt>
      <trkpt lat="45.19751" lon="5.72191">
        <ele>348</ele>
        <time>2021-07-25T05:16:59.000Z</time>
      </trkpt>
      <trkpt lat="45.1977" lon="5.72184">
        <ele>348</ele>
        <time>2021-07-25T05:17:06.000Z</time>
      </trkpt>
      <trkpt lat="45.19773" lon="5.72182">
        <ele>348.39999389648</ele>
        <time>2021-07-25T05:17:07.000Z</time>
      </trkpt>
      <trkpt lat="45.19782" lon="5.72169">
        <ele>348.79998779297</ele>
        <time>2021-07-25T05:17:12.000Z</time>
      </trkpt>
      <trkpt lat="45.19784" lon="5.72168">
        <ele>348.79998779297</ele>
        <time>2021-07-25T05:17:13.000Z</time>
      </trkpt>
      <trkpt lat="45.19787" lon="5.72166">
        <ele>348.79998779297</ele>
        <time>2021-07-25T05:17:14.000Z</time>
      </trkpt>
      <trkpt lat="45.19801" lon="5.72168">
        <ele>349.39999389648</ele>
        <time>2021-07-25T05:17:19.000Z</time>
      </trkpt>
      <trkpt lat="45.19807" lon="5.72165">
        <ele>349.39999389648</ele>
        <time>2021-07-25T05:17:22.000Z</time>
      </trkpt>
      <trkpt lat="45.19812" lon="5.72161">
        <ele>349.60000610352</ele>
        <time>2021-07-25T05:17:24.000Z</time>
      </trkpt>
      <trkpt lat="45.19814" lon="5.72158">
        <ele>349.39999389648</ele>
        <time>2021-07-25T05:17:25.000Z</time>
      </trkpt>
      <trkpt lat="45.19817" lon="5.72152">
        <ele>349.79998779297</ele>
        <time>2021-07-25T05:17:27.000Z</time>
      </trkpt>
      <trkpt lat="45.19818" lon="5.72149">
        <ele>349.39999389648</ele>
        <time>2021-07-25T05:17:28.000Z</time>
      </trkpt>
      <trkpt lat="45.1982" lon="5.72147">
        <ele>349.79998779297</ele>
        <time>2021-07-25T05:17:29.000Z</time>
      </trkpt>
      <trkpt lat="45.19825" lon="5.72144">
        <ele>350</ele>
        <time>2021-07-25T05:17:31.000Z</time>
      </trkpt>
      <trkpt lat="45.19828" lon="5.72143">
        <ele>350</ele>
        <time>2021-07-25T05:17:32.000Z</time>
      </trkpt>
      <trkpt lat="45.19841" lon="5.72137">
        <ele>350.60000610352</ele>
        <time>2021-07-25T05:17:38.000Z</time>
      </trkpt>
      <trkpt lat="45.19855" lon="5.72139">
        <ele>351.20001220703</ele>
        <time>2021-07-25T05:17:44.000Z</time>
      </trkpt>
      <trkpt lat="45.19857" lon="5.72139">
        <ele>351.20001220703</ele>
        <time>2021-07-25T05:17:45.000Z</time>
      </trkpt>
      <trkpt lat="45.19863" lon="5.7214">
        <ele>352.39999389648</ele>
        <time>2021-07-25T05:17:49.000Z</time>
      </trkpt>
      <trkpt lat="45.19864" lon="5.72139">
        <ele>353</ele>
        <time>2021-07-25T05:17:50.000Z</time>
      </trkpt>
      <trkpt lat="45.19865" lon="5.72139">
        <ele>353.20001220703</ele>
        <time>2021-07-25T05:17:51.000Z</time>
      </trkpt>
      <trkpt lat="45.19865" lon="5.72137">
        <ele>353.39999389648</ele>
        <time>2021-07-25T05:17:52.000Z</time>
      </trkpt>
      <trkpt lat="45.19867" lon="5.72136">
        <ele>354.60000610352</ele>
        <time>2021-07-25T05:17:54.000Z</time>
      </trkpt>
      <trkpt lat="45.19868" lon="5.72136">
        <ele>354.79998779297</ele>
        <time>2021-07-25T05:17:55.000Z</time>
      </trkpt>
      <trkpt lat="45.19869" lon="5.72135">
        <ele>355</ele>
        <time>2021-07-25T05:17:56.000Z</time>
      </trkpt>
      <trkpt lat="45.1987" lon="5.72134">
        <ele>355.39999389648</ele>
        <time>2021-07-25T05:17:57.000Z</time>
      </trkpt>
      <trkpt lat="45.19873" lon="5.72134">
        <ele>355.79998779297</ele>
        <time>2021-07-25T05:17:59.000Z</time>
      </trkpt>
      <trkpt lat="45.19873" lon="5.72135">
        <ele>355.79998779297</ele>
        <time>2021-07-25T05:18:00.000Z</time>
      </trkpt>
      <trkpt lat="45.19872" lon="5.72137">
        <ele>355.79998779297</ele>
        <time>2021-07-25T05:18:02.000Z</time>
      </trkpt>
      <trkpt lat="45.19871" lon="5.7214">
        <ele>355.79998779297</ele>
        <time>2021-07-25T05:18:04.000Z</time>
      </trkpt>
      <trkpt lat="45.19869" lon="5.7214">
        <ele>355.60000610352</ele>
        <time>2021-07-25T05:18:06.000Z</time>
      </trkpt>
      <trkpt lat="45.19867" lon="5.72139">
        <ele>355.60000610352</ele>
        <time>2021-07-25T05:18:07.000Z</time>
      </trkpt>
      <trkpt lat="45.19864" lon="5.72137">
        <ele>354.60000610352</ele>
        <time>2021-07-25T05:18:12.000Z</time>
      </trkpt>
      <trkpt lat="45.1986" lon="5.72135">
        <ele>353.39999389648</ele>
        <time>2021-07-25T05:18:17.000Z</time>
      </trkpt>
      <trkpt lat="45.19859" lon="5.72134">
        <ele>353.20001220703</ele>
        <time>2021-07-25T05:18:19.000Z</time>
      </trkpt>
      <trkpt lat="45.19857" lon="5.72135">
        <ele>352.20001220703</ele>
        <time>2021-07-25T05:18:22.000Z</time>
      </trkpt>
      <trkpt lat="45.19857" lon="5.72135">
        <ele>352</ele>
        <time>2021-07-25T05:18:23.000Z</time>
      </trkpt>
      <trkpt lat="45.19859" lon="5.72134">
        <ele>351.79998779297</ele>
        <time>2021-07-25T05:18:24.000Z</time>
      </trkpt>
      <trkpt lat="45.19861" lon="5.72132">
        <ele>351</ele>
        <time>2021-07-25T05:18:26.000Z</time>
      </trkpt>
      <trkpt lat="45.19864" lon="5.7213">
        <ele>350.79998779297</ele>
        <time>2021-07-25T05:18:28.000Z</time>
      </trkpt>
      <trkpt lat="45.19865" lon="5.7213">
        <ele>350.60000610352</ele>
        <time>2021-07-25T05:18:29.000Z</time>
      </trkpt>
      <trkpt lat="45.19868" lon="5.72129">
        <ele>350.20001220703</ele>
        <time>2021-07-25T05:18:31.000Z</time>
      </trkpt>
      <trkpt lat="45.19868" lon="5.72128">
        <ele>350.20001220703</ele>
        <time>2021-07-25T05:18:32.000Z</time>
      </trkpt>
      <trkpt lat="45.19869" lon="5.72128">
        <ele>350</ele>
        <time>2021-07-25T05:18:33.000Z</time>
      </trkpt>
      <trkpt lat="45.19868" lon="5.72127">
        <ele>349.20001220703</ele>
        <time>2021-07-25T05:18:35.000Z</time>
      </trkpt>
      <trkpt lat="45.19868" lon="5.72128">
        <ele>349</ele>
        <time>2021-07-25T05:18:37.000Z</time>
      </trkpt>
      <trkpt lat="45.19868" lon="5.72127">
        <ele>348.20001220703</ele>
        <time>2021-07-25T05:18:39.000Z</time>
      </trkpt>
      <trkpt lat="45.19869" lon="5.72126">
        <ele>347.79998779297</ele>
        <time>2021-07-25T05:18:40.000Z</time>
      </trkpt>
      <trkpt lat="45.1987" lon="5.72124">
        <ele>347.79998779297</ele>
        <time>2021-07-25T05:18:41.000Z</time>
      </trkpt>
      <trkpt lat="45.19873" lon="5.72123">
        <ele>346.60000610352</ele>
        <time>2021-07-25T05:18:44.000Z</time>
      </trkpt>
      <trkpt lat="45.19873" lon="5.72124">
        <ele>346.39999389648</ele>
        <time>2021-07-25T05:18:46.000Z</time>
      </trkpt>
      <trkpt lat="45.19873" lon="5.72124">
        <ele>346</ele>
        <time>2021-07-25T05:18:47.000Z</time>
      </trkpt>
      <trkpt lat="45.19873" lon="5.72125">
        <ele>346</ele>
        <time>2021-07-25T05:18:48.000Z</time>
      </trkpt>
      <trkpt lat="45.19874" lon="5.72127">
        <ele>345.39999389648</ele>
        <time>2021-07-25T05:18:50.000Z</time>
      </trkpt>
      <trkpt lat="45.19873" lon="5.72125">
        <ele>345</ele>
        <time>2021-07-25T05:18:51.000Z</time>
      </trkpt>
      <trkpt lat="45.19879" lon="5.72119">
        <ele>344.39999389648</ele>
        <time>2021-07-25T05:18:55.000Z</time>
      </trkpt>
      <trkpt lat="45.1988" lon="5.72119">
        <ele>344</ele>
        <time>2021-07-25T05:18:56.000Z</time>
      </trkpt>
      <trkpt lat="45.19881" lon="5.72118">
        <ele>343.39999389648</ele>
        <time>2021-07-25T05:18:59.000Z</time>
      </trkpt>
      <trkpt lat="45.19881" lon="5.72118">
        <ele>343</ele>
        <time>2021-07-25T05:19:00.000Z</time>
      </trkpt>
      <trkpt lat="45.19879" lon="5.72116">
        <ele>342.39999389648</ele>
        <time>2021-07-25T05:19:03.000Z</time>
      </trkpt>
      <trkpt lat="45.19881" lon="5.72112">
        <ele>341.39999389648</ele>
        <time>2021-07-25T05:19:05.000Z</time>
      </trkpt>
      <trkpt lat="45.19885" lon="5.72107">
        <ele>340.20001220703</ele>
        <time>2021-07-25T05:19:09.000Z</time>
      </trkpt>
      <trkpt lat="45.19886" lon="5.72107">
        <ele>339.60000610352</ele>
        <time>2021-07-25T05:19:11.000Z</time>
      </trkpt>
      <trkpt lat="45.19885" lon="5.72106">
        <ele>339.39999389648</ele>
        <time>2021-07-25T05:19:13.000Z</time>
      </trkpt>
      <trkpt lat="45.19884" lon="5.72105">
        <ele>339</ele>
        <time>2021-07-25T05:19:14.000Z</time>
      </trkpt>
      <trkpt lat="45.19884" lon="5.72104">
        <ele>339</ele>
        <time>2021-07-25T05:19:15.000Z</time>
      </trkpt>
      <trkpt lat="45.19886" lon="5.72101">
        <ele>338.60000610352</ele>
        <time>2021-07-25T05:19:17.000Z</time>
      </trkpt>
      <trkpt lat="45.1989" lon="5.72098">
        <ele>337.79998779297</ele>
        <time>2021-07-25T05:19:20.000Z</time>
      </trkpt>
      <trkpt lat="45.1989" lon="5.72095">
        <ele>337.20001220703</ele>
        <time>2021-07-25T05:19:22.000Z</time>
      </trkpt>
      <trkpt lat="45.1989" lon="5.72095">
        <ele>336.79998779297</ele>
        <time>2021-07-25T05:19:23.000Z</time>
      </trkpt>
      <trkpt lat="45.19889" lon="5.72093">
        <ele>336</ele>
        <time>2021-07-25T05:19:25.000Z</time>
      </trkpt>
      <trkpt lat="45.19888" lon="5.72092">
        <ele>335.60000610352</ele>
        <time>2021-07-25T05:19:26.000Z</time>
      </trkpt>
      <trkpt lat="45.19888" lon="5.7209">
        <ele>335.39999389648</ele>
        <time>2021-07-25T05:19:27.000Z</time>
      </trkpt>
      <trkpt lat="45.1989" lon="5.72088">
        <ele>334.79998779297</ele>
        <time>2021-07-25T05:19:29.000Z</time>
      </trkpt>
      <trkpt lat="45.19891" lon="5.72088">
        <ele>334.39999389648</ele>
        <time>2021-07-25T05:19:30.000Z</time>
      </trkpt>
      <trkpt lat="45.19892" lon="5.72087">
        <ele>334.20001220703</ele>
        <time>2021-07-25T05:19:31.000Z</time>
      </trkpt>
      <trkpt lat="45.19893" lon="5.72087">
        <ele>333.79998779297</ele>
        <time>2021-07-25T05:19:32.000Z</time>
      </trkpt>
      <trkpt lat="45.19893" lon="5.72086">
        <ele>333.39999389648</ele>
        <time>2021-07-25T05:19:33.000Z</time>
      </trkpt>
      <trkpt lat="45.19894" lon="5.72084">
        <ele>333</ele>
        <time>2021-07-25T05:19:35.000Z</time>
      </trkpt>
      <trkpt lat="45.19894" lon="5.72083">
        <ele>333</ele>
        <time>2021-07-25T05:19:37.000Z</time>
      </trkpt>
      <trkpt lat="45.19896" lon="5.7208">
        <ele>332</ele>
        <time>2021-07-25T05:19:39.000Z</time>
      </trkpt>
      <trkpt lat="45.19898" lon="5.7208">
        <ele>331.79998779297</ele>
        <time>2021-07-25T05:19:40.000Z</time>
      </trkpt>
      <trkpt lat="45.199" lon="5.72078">
        <ele>331.60000610352</ele>
        <time>2021-07-25T05:19:41.000Z</time>
      </trkpt>
      <trkpt lat="45.19904" lon="5.72077">
        <ele>331.39999389648</ele>
        <time>2021-07-25T05:19:44.000Z</time>
      </trkpt>
      <trkpt lat="45.19905" lon="5.72077">
        <ele>331.39999389648</ele>
        <time>2021-07-25T05:19:47.000Z</time>
      </trkpt>
      <trkpt lat="45.19905" lon="5.72078">
        <ele>331.39999389648</ele>
        <time>2021-07-25T05:19:48.000Z</time>
      </trkpt>
      <trkpt lat="45.19906" lon="5.72079">
        <ele>331.39999389648</ele>
        <time>2021-07-25T05:19:51.000Z</time>
      </trkpt>
      <trkpt lat="45.19907" lon="5.72078">
        <ele>331.39999389648</ele>
        <time>2021-07-25T05:19:55.000Z</time>
      </trkpt>
      <trkpt lat="45.19907" lon="5.72078">
        <ele>331.39999389648</ele>
        <time>2021-07-25T05:19:56.000Z</time>
      </trkpt>
      <trkpt lat="45.19908" lon="5.72078">
        <ele>331.39999389648</ele>
        <time>2021-07-25T05:19:58.000Z</time>
      </trkpt>
      <trkpt lat="45.19908" lon="5.72079">
        <ele>331.39999389648</ele>
        <time>2021-07-25T05:19:59.000Z</time>
      </trkpt>
      <trkpt lat="45.1991" lon="5.72082">
        <ele>331.39999389648</ele>
        <time>2021-07-25T05:20:02.000Z</time>
      </trkpt>
      <trkpt lat="45.1991" lon="5.72082">
        <ele>331.79998779297</ele>
        <time>2021-07-25T05:20:09.000Z</time>
      </trkpt>
      <trkpt lat="45.19909" lon="5.72082">
        <ele>331.79998779297</ele>
        <time>2021-07-25T05:20:10.000Z</time>
      </trkpt>
      <trkpt lat="45.19907" lon="5.72083">
        <ele>331.79998779297</ele>
        <time>2021-07-25T05:20:11.000Z</time>
      </trkpt>
      <trkpt lat="45.19906" lon="5.72083">
        <ele>331.79998779297</ele>
        <time>2021-07-25T05:20:12.000Z</time>
      </trkpt>
      <trkpt lat="45.19906" lon="5.72083">
        <ele>331.79998779297</ele>
        <time>2021-07-25T05:20:13.000Z</time>
      </trkpt>
      <trkpt lat="45.19901" lon="5.72082">
        <ele>331.20001220703</ele>
        <time>2021-07-25T05:20:16.000Z</time>
      </trkpt>
      <trkpt lat="45.199" lon="5.72083">
        <ele>330.60000610352</ele>
        <time>2021-07-25T05:20:17.000Z</time>
      </trkpt>
      <trkpt lat="45.19898" lon="5.72083">
        <ele>330.60000610352</ele>
        <time>2021-07-25T05:20:18.000Z</time>
      </trkpt>
      <trkpt lat="45.19897" lon="5.72085">
        <ele>330</ele>
        <time>2021-07-25T05:20:19.000Z</time>
      </trkpt>
      <trkpt lat="45.19893" lon="5.72088">
        <ele>330</ele>
        <time>2021-07-25T05:20:22.000Z</time>
      </trkpt>
      <trkpt lat="45.19888" lon="5.72089">
        <ele>330</ele>
        <time>2021-07-25T05:20:24.000Z</time>
      </trkpt>
      <trkpt lat="45.19882" lon="5.72091">
        <ele>330</ele>
        <time>2021-07-25T05:20:27.000Z</time>
      </trkpt>
      <trkpt lat="45.19868" lon="5.72098">
        <ele>329.79998779297</ele>
        <time>2021-07-25T05:20:34.000Z</time>
      </trkpt>
      <trkpt lat="45.19857" lon="5.72101">
        <ele>329.39999389648</ele>
        <time>2021-07-25T05:20:39.000Z</time>
      </trkpt>
      <trkpt lat="45.19855" lon="5.72102">
        <ele>329.39999389648</ele>
        <time>2021-07-25T05:20:40.000Z</time>
      </trkpt>
      <trkpt lat="45.19842" lon="5.72108">
        <ele>328.39999389648</ele>
        <time>2021-07-25T05:20:46.000Z</time>
      </trkpt>
      <trkpt lat="45.19841" lon="5.72108">
        <ele>328.39999389648</ele>
        <time>2021-07-25T05:20:47.000Z</time>
      </trkpt>
      <trkpt lat="45.19834" lon="5.72113">
        <ele>327.79998779297</ele>
        <time>2021-07-25T05:20:51.000Z</time>
      </trkpt>
      <trkpt lat="45.19833" lon="5.72115">
        <ele>327.79998779297</ele>
        <time>2021-07-25T05:20:52.000Z</time>
      </trkpt>
      <trkpt lat="45.19831" lon="5.72117">
        <ele>327.79998779297</ele>
        <time>2021-07-25T05:20:53.000Z</time>
      </trkpt>
      <trkpt lat="45.19827" lon="5.72116">
        <ele>327.79998779297</ele>
        <time>2021-07-25T05:20:55.000Z</time>
      </trkpt>
      <trkpt lat="45.19825" lon="5.72117">
        <ele>327.79998779297</ele>
        <time>2021-07-25T05:20:56.000Z</time>
      </trkpt>
      <trkpt lat="45.1982" lon="5.7212">
        <ele>327.60000610352</ele>
        <time>2021-07-25T05:20:59.000Z</time>
      </trkpt>
      <trkpt lat="45.19819" lon="5.72121">
        <ele>327.20001220703</ele>
        <time>2021-07-25T05:21:00.000Z</time>
      </trkpt>
      <trkpt lat="45.19814" lon="5.72124">
        <ele>327</ele>
        <time>2021-07-25T05:21:02.000Z</time>
      </trkpt>
      <trkpt lat="45.19806" lon="5.72126">
        <ele>326.20001220703</ele>
        <time>2021-07-25T05:21:05.000Z</time>
      </trkpt>
      <trkpt lat="45.19804" lon="5.72125">
        <ele>326.20001220703</ele>
        <time>2021-07-25T05:21:06.000Z</time>
      </trkpt>
      <trkpt lat="45.19801" lon="5.72126">
        <ele>324.79998779297</ele>
        <time>2021-07-25T05:21:08.000Z</time>
      </trkpt>
      <trkpt lat="45.19799" lon="5.72127">
        <ele>324.20001220703</ele>
        <time>2021-07-25T05:21:10.000Z</time>
      </trkpt>
      <trkpt lat="45.19798" lon="5.72127">
        <ele>324</ele>
        <time>2021-07-25T05:21:11.000Z</time>
      </trkpt>
      <trkpt lat="45.19797" lon="5.72128">
        <ele>323.39999389648</ele>
        <time>2021-07-25T05:21:12.000Z</time>
      </trkpt>
      <trkpt lat="45.19795" lon="5.72128">
        <ele>323.20001220703</ele>
        <time>2021-07-25T05:21:13.000Z</time>
      </trkpt>
      <trkpt lat="45.1979" lon="5.72128">
        <ele>322.39999389648</ele>
        <time>2021-07-25T05:21:15.000Z</time>
      </trkpt>
      <trkpt lat="45.19788" lon="5.72127">
        <ele>322.39999389648</ele>
        <time>2021-07-25T05:21:16.000Z</time>
      </trkpt>
      <trkpt lat="45.19787" lon="5.72127">
        <ele>322.20001220703</ele>
        <time>2021-07-25T05:21:17.000Z</time>
      </trkpt>
      <trkpt lat="45.19782" lon="5.72126">
        <ele>321.20001220703</ele>
        <time>2021-07-25T05:21:20.000Z</time>
      </trkpt>
      <trkpt lat="45.19776" lon="5.72125">
        <ele>320.39999389648</ele>
        <time>2021-07-25T05:21:23.000Z</time>
      </trkpt>
      <trkpt lat="45.19772" lon="5.72125">
        <ele>320</ele>
        <time>2021-07-25T05:21:26.000Z</time>
      </trkpt>
      <trkpt lat="45.19771" lon="5.72124">
        <ele>319.79998779297</ele>
        <time>2021-07-25T05:21:27.000Z</time>
      </trkpt>
      <trkpt lat="45.19769" lon="5.72122">
        <ele>319.39999389648</ele>
        <time>2021-07-25T05:21:29.000Z</time>
      </trkpt>
      <trkpt lat="45.19767" lon="5.72121">
        <ele>319.20001220703</ele>
        <time>2021-07-25T05:21:31.000Z</time>
      </trkpt>
      <trkpt lat="45.19769" lon="5.72122">
        <ele>320.20001220703</ele>
        <time>2021-07-25T05:21:34.000Z</time>
      </trkpt>
      <trkpt lat="45.1977" lon="5.72122">
        <ele>320.20001220703</ele>
        <time>2021-07-25T05:21:35.000Z</time>
      </trkpt>
      <trkpt lat="45.19771" lon="5.72122">
        <ele>320.20001220703</ele>
        <time>2021-07-25T05:21:36.000Z</time>
      </trkpt>
      <trkpt lat="45.1977" lon="5.72125">
        <ele>321</ele>
        <time>2021-07-25T05:21:38.000Z</time>
      </trkpt>
      <trkpt lat="45.19769" lon="5.72128">
        <ele>321.39999389648</ele>
        <time>2021-07-25T05:21:40.000Z</time>
      </trkpt>
      <trkpt lat="45.19769" lon="5.72129">
        <ele>321.39999389648</ele>
        <time>2021-07-25T05:21:41.000Z</time>
      </trkpt>
      <trkpt lat="45.19768" lon="5.72128">
        <ele>321.60000610352</ele>
        <time>2021-07-25T05:21:43.000Z</time>
      </trkpt>
      <trkpt lat="45.19765" lon="5.72131">
        <ele>322.79998779297</ele>
        <time>2021-07-25T05:21:46.000Z</time>
      </trkpt>
      <trkpt lat="45.19764" lon="5.72132">
        <ele>324</ele>
        <time>2021-07-25T05:21:50.000Z</time>
      </trkpt>
      <trkpt lat="45.19763" lon="5.72132">
        <ele>324</ele>
        <time>2021-07-25T05:21:51.000Z</time>
      </trkpt>
      <trkpt lat="45.19762" lon="5.72134">
        <ele>325.20001220703</ele>
        <time>2021-07-25T05:21:54.000Z</time>
      </trkpt>
      <trkpt lat="45.19762" lon="5.72131">
        <ele>326.39999389648</ele>
        <time>2021-07-25T05:21:59.000Z</time>
      </trkpt>
      <trkpt lat="45.19761" lon="5.72133">
        <ele>327.60000610352</ele>
        <time>2021-07-25T05:22:01.000Z</time>
      </trkpt>
      <trkpt lat="45.19763" lon="5.72136">
        <ele>329</ele>
        <time>2021-07-25T05:22:04.000Z</time>
      </trkpt>
      <trkpt lat="45.19762" lon="5.7214">
        <ele>329.60000610352</ele>
        <time>2021-07-25T05:22:08.000Z</time>
      </trkpt>
      <trkpt lat="45.19761" lon="5.7214">
        <ele>329.60000610352</ele>
        <time>2021-07-25T05:22:09.000Z</time>
      </trkpt>
      <trkpt lat="45.19759" lon="5.72141">
        <ele>329.60000610352</ele>
        <time>2021-07-25T05:22:10.000Z</time>
      </trkpt>
      <trkpt lat="45.19756" lon="5.72141">
        <ele>329</ele>
        <time>2021-07-25T05:22:12.000Z</time>
      </trkpt>
      <trkpt lat="45.19753" lon="5.72144">
        <ele>328.20001220703</ele>
        <time>2021-07-25T05:22:15.000Z</time>
      </trkpt>
      <trkpt lat="45.19752" lon="5.72144">
        <ele>327.79998779297</ele>
        <time>2021-07-25T05:22:16.000Z</time>
      </trkpt>
      <trkpt lat="45.19751" lon="5.72144">
        <ele>327.39999389648</ele>
        <time>2021-07-25T05:22:18.000Z</time>
      </trkpt>
      <trkpt lat="45.1975" lon="5.72145">
        <ele>326.79998779297</ele>
        <time>2021-07-25T05:22:20.000Z</time>
      </trkpt>
      <trkpt lat="45.19749" lon="5.72145">
        <ele>326.60000610352</ele>
        <time>2021-07-25T05:22:22.000Z</time>
      </trkpt>
      <trkpt lat="45.19746" lon="5.72145">
        <ele>325.60000610352</ele>
        <time>2021-07-25T05:22:25.000Z</time>
      </trkpt>
      <trkpt lat="45.19744" lon="5.72144">
        <ele>325.60000610352</ele>
        <time>2021-07-25T05:22:26.000Z</time>
      </trkpt>
      <trkpt lat="45.19739" lon="5.72146">
        <ele>324.39999389648</ele>
        <time>2021-07-25T05:22:29.000Z</time>
      </trkpt>
      <trkpt lat="45.19738" lon="5.72146">
        <ele>324</ele>
        <time>2021-07-25T05:22:30.000Z</time>
      </trkpt>
      <trkpt lat="45.19737" lon="5.72146">
        <ele>323.60000610352</ele>
        <time>2021-07-25T05:22:31.000Z</time>
      </trkpt>
      <trkpt lat="45.19735" lon="5.72147">
        <ele>322.79998779297</ele>
        <time>2021-07-25T05:22:33.000Z</time>
      </trkpt>
      <trkpt lat="45.19732" lon="5.72147">
        <ele>322.60000610352</ele>
        <time>2021-07-25T05:22:36.000Z</time>
      </trkpt>
      <trkpt lat="45.19731" lon="5.72146">
        <ele>321.79998779297</ele>
        <time>2021-07-25T05:22:37.000Z</time>
      </trkpt>
      <trkpt lat="45.19728" lon="5.72146">
        <ele>320</ele>
        <time>2021-07-25T05:22:40.000Z</time>
      </trkpt>
      <trkpt lat="45.19724" lon="5.72146">
        <ele>318.79998779297</ele>
        <time>2021-07-25T05:22:44.000Z</time>
      </trkpt>
      <trkpt lat="45.19723" lon="5.72145">
        <ele>318.60000610352</ele>
        <time>2021-07-25T05:22:45.000Z</time>
      </trkpt>
      <trkpt lat="45.19721" lon="5.72145">
        <ele>317.79998779297</ele>
        <time>2021-07-25T05:22:47.000Z</time>
      </trkpt>
      <trkpt lat="45.19719" lon="5.72144">
        <ele>316.39999389648</ele>
        <time>2021-07-25T05:22:49.000Z</time>
      </trkpt>
      <trkpt lat="45.19718" lon="5.72146">
        <ele>315.60000610352</ele>
        <time>2021-07-25T05:22:52.000Z</time>
      </trkpt>
      <trkpt lat="45.19718" lon="5.72146">
        <ele>315.39999389648</ele>
        <time>2021-07-25T05:22:53.000Z</time>
      </trkpt>
      <trkpt lat="45.19717" lon="5.72147">
        <ele>315.20001220703</ele>
        <time>2021-07-25T05:22:55.000Z</time>
      </trkpt>
      <trkpt lat="45.19715" lon="5.72149">
        <ele>314</ele>
        <time>2021-07-25T05:22:57.000Z</time>
      </trkpt>
      <trkpt lat="45.19713" lon="5.72151">
        <ele>313.60000610352</ele>
        <time>2021-07-25T05:22:59.000Z</time>
      </trkpt>
      <trkpt lat="45.1971" lon="5.7215">
        <ele>313</ele>
        <time>2021-07-25T05:23:01.000Z</time>
      </trkpt>
      <trkpt lat="45.19704" lon="5.7215">
        <ele>312.60000610352</ele>
        <time>2021-07-25T05:23:05.000Z</time>
      </trkpt>
      <trkpt lat="45.19701" lon="5.72156">
        <ele>311.20001220703</ele>
        <time>2021-07-25T05:23:11.000Z</time>
      </trkpt>
      <trkpt lat="45.19701" lon="5.72157">
        <ele>311.20001220703</ele>
        <time>2021-07-25T05:23:12.000Z</time>
      </trkpt>
      <trkpt lat="45.19698" lon="5.72166">
        <ele>310.20001220703</ele>
        <time>2021-07-25T05:23:16.000Z</time>
      </trkpt>
      <trkpt lat="45.19695" lon="5.7217">
        <ele>309.39999389648</ele>
        <time>2021-07-25T05:23:18.000Z</time>
      </trkpt>
      <trkpt lat="45.19694" lon="5.72172">
        <ele>309.20001220703</ele>
        <time>2021-07-25T05:23:19.000Z</time>
      </trkpt>
      <trkpt lat="45.19691" lon="5.72174">
        <ele>309</ele>
        <time>2021-07-25T05:23:21.000Z</time>
      </trkpt>
      <trkpt lat="45.1969" lon="5.72175">
        <ele>308.60000610352</ele>
        <time>2021-07-25T05:23:22.000Z</time>
      </trkpt>
      <trkpt lat="45.19689" lon="5.72175">
        <ele>308.60000610352</ele>
        <time>2021-07-25T05:23:23.000Z</time>
      </trkpt>
      <trkpt lat="45.19689" lon="5.72176">
        <ele>308.20001220703</ele>
        <time>2021-07-25T05:23:24.000Z</time>
      </trkpt>
      <trkpt lat="45.19688" lon="5.72176">
        <ele>307.79998779297</ele>
        <time>2021-07-25T05:23:25.000Z</time>
      </trkpt>
      <trkpt lat="45.19686" lon="5.72178">
        <ele>307</ele>
        <time>2021-07-25T05:23:27.000Z</time>
      </trkpt>
      <trkpt lat="45.19685" lon="5.72178">
        <ele>306.20001220703</ele>
        <time>2021-07-25T05:23:28.000Z</time>
      </trkpt>
      <trkpt lat="45.19681" lon="5.72178">
        <ele>305.39999389648</ele>
        <time>2021-07-25T05:23:30.000Z</time>
      </trkpt>
      <trkpt lat="45.1968" lon="5.72178">
        <ele>305.39999389648</ele>
        <time>2021-07-25T05:23:31.000Z</time>
      </trkpt>
      <trkpt lat="45.19679" lon="5.72179">
        <ele>305.20001220703</ele>
        <time>2021-07-25T05:23:32.000Z</time>
      </trkpt>
      <trkpt lat="45.19675" lon="5.72181">
        <ele>304.20001220703</ele>
        <time>2021-07-25T05:23:35.000Z</time>
      </trkpt>
      <trkpt lat="45.19674" lon="5.72181">
        <ele>304</ele>
        <time>2021-07-25T05:23:36.000Z</time>
      </trkpt>
      <trkpt lat="45.19673" lon="5.72182">
        <ele>304</ele>
        <time>2021-07-25T05:23:37.000Z</time>
      </trkpt>
      <trkpt lat="45.19673" lon="5.72182">
        <ele>304</ele>
        <time>2021-07-25T05:23:38.000Z</time>
      </trkpt>
      <trkpt lat="45.19667" lon="5.72187">
        <ele>304.60000610352</ele>
        <time>2021-07-25T05:23:44.000Z</time>
      </trkpt>
      <trkpt lat="45.19665" lon="5.72189">
        <ele>305</ele>
        <time>2021-07-25T05:23:45.000Z</time>
      </trkpt>
      <trkpt lat="45.19664" lon="5.72194">
        <ele>305.60000610352</ele>
        <time>2021-07-25T05:23:47.000Z</time>
      </trkpt>
      <trkpt lat="45.19663" lon="5.72196">
        <ele>306</ele>
        <time>2021-07-25T05:23:48.000Z</time>
      </trkpt>
      <trkpt lat="45.19662" lon="5.72199">
        <ele>306.60000610352</ele>
        <time>2021-07-25T05:23:50.000Z</time>
      </trkpt>
      <trkpt lat="45.19661" lon="5.72201">
        <ele>306.60000610352</ele>
        <time>2021-07-25T05:23:51.000Z</time>
      </trkpt>
      <trkpt lat="45.1966" lon="5.72202">
        <ele>306.60000610352</ele>
        <time>2021-07-25T05:23:53.000Z</time>
      </trkpt>
      <trkpt lat="45.19657" lon="5.72202">
        <ele>307.20001220703</ele>
        <time>2021-07-25T05:23:56.000Z</time>
      </trkpt>
      <trkpt lat="45.19653" lon="5.72208">
        <ele>307.60000610352</ele>
        <time>2021-07-25T05:23:59.000Z</time>
      </trkpt>
      <trkpt lat="45.19652" lon="5.72209">
        <ele>307.79998779297</ele>
        <time>2021-07-25T05:24:00.000Z</time>
      </trkpt>
      <trkpt lat="45.19649" lon="5.72211">
        <ele>308</ele>
        <time>2021-07-25T05:24:02.000Z</time>
      </trkpt>
      <trkpt lat="45.19646" lon="5.72211">
        <ele>308</ele>
        <time>2021-07-25T05:24:04.000Z</time>
      </trkpt>
      <trkpt lat="45.19643" lon="5.72211">
        <ele>307.79998779297</ele>
        <time>2021-07-25T05:24:06.000Z</time>
      </trkpt>
      <trkpt lat="45.19642" lon="5.72211">
        <ele>307.79998779297</ele>
        <time>2021-07-25T05:24:07.000Z</time>
      </trkpt>
      <trkpt lat="45.19639" lon="5.72209">
        <ele>307.79998779297</ele>
        <time>2021-07-25T05:24:09.000Z</time>
      </trkpt>
      <trkpt lat="45.19634" lon="5.72211">
        <ele>308.20001220703</ele>
        <time>2021-07-25T05:24:12.000Z</time>
      </trkpt>
      <trkpt lat="45.19633" lon="5.72211">
        <ele>308.20001220703</ele>
        <time>2021-07-25T05:24:13.000Z</time>
      </trkpt>
      <trkpt lat="45.19631" lon="5.72212">
        <ele>308.39999389648</ele>
        <time>2021-07-25T05:24:15.000Z</time>
      </trkpt>
      <trkpt lat="45.19628" lon="5.72212">
        <ele>308.39999389648</ele>
        <time>2021-07-25T05:24:17.000Z</time>
      </trkpt>
      <trkpt lat="45.19627" lon="5.72211">
        <ele>308.39999389648</ele>
        <time>2021-07-25T05:24:18.000Z</time>
      </trkpt>
      <trkpt lat="45.19621" lon="5.7221">
        <ele>308.60000610352</ele>
        <time>2021-07-25T05:24:22.000Z</time>
      </trkpt>
      <trkpt lat="45.1962" lon="5.72209">
        <ele>308.39999389648</ele>
        <time>2021-07-25T05:24:23.000Z</time>
      </trkpt>
      <trkpt lat="45.19619" lon="5.72209">
        <ele>308.20001220703</ele>
        <time>2021-07-25T05:24:24.000Z</time>
      </trkpt>
      <trkpt lat="45.19616" lon="5.72211">
        <ele>307.60000610352</ele>
        <time>2021-07-25T05:24:27.000Z</time>
      </trkpt>
      <trkpt lat="45.19614" lon="5.72212">
        <ele>307.20001220703</ele>
        <time>2021-07-25T05:24:28.000Z</time>
      </trkpt>
      <trkpt lat="45.19611" lon="5.72211">
        <ele>306.39999389648</ele>
        <time>2021-07-25T05:24:30.000Z</time>
      </trkpt>
      <trkpt lat="45.1961" lon="5.7221">
        <ele>306.20001220703</ele>
        <time>2021-07-25T05:24:31.000Z</time>
      </trkpt>
      <trkpt lat="45.19606" lon="5.72209">
        <ele>306</ele>
        <time>2021-07-25T05:24:33.000Z</time>
      </trkpt>
      <trkpt lat="45.196" lon="5.72206">
        <ele>305.39999389648</ele>
        <time>2021-07-25T05:24:38.000Z</time>
      </trkpt>
      <trkpt lat="45.196" lon="5.72205">
        <ele>305.39999389648</ele>
        <time>2021-07-25T05:24:39.000Z</time>
      </trkpt>
      <trkpt lat="45.196" lon="5.72203">
        <ele>305.39999389648</ele>
        <time>2021-07-25T05:24:41.000Z</time>
      </trkpt>
      <trkpt lat="45.19601" lon="5.72202">
        <ele>305.60000610352</ele>
        <time>2021-07-25T05:24:43.000Z</time>
      </trkpt>
      <trkpt lat="45.19601" lon="5.72202">
        <ele>305.60000610352</ele>
        <time>2021-07-25T05:24:44.000Z</time>
      </trkpt>
      <trkpt lat="45.19604" lon="5.72201">
        <ele>306.79998779297</ele>
        <time>2021-07-25T05:24:48.000Z</time>
      </trkpt>
      <trkpt lat="45.19605" lon="5.72199">
        <ele>307.20001220703</ele>
        <time>2021-07-25T05:24:50.000Z</time>
      </trkpt>
      <trkpt lat="45.19605" lon="5.72198">
        <ele>307.60000610352</ele>
        <time>2021-07-25T05:24:52.000Z</time>
      </trkpt>
      <trkpt lat="45.19604" lon="5.72197">
        <ele>308</ele>
        <time>2021-07-25T05:24:53.000Z</time>
      </trkpt>
      <trkpt lat="45.19605" lon="5.72199">
        <ele>308.39999389648</ele>
        <time>2021-07-25T05:24:55.000Z</time>
      </trkpt>
      <trkpt lat="45.19606" lon="5.72198">
        <ele>308.39999389648</ele>
        <time>2021-07-25T05:24:58.000Z</time>
      </trkpt>
      <trkpt lat="45.19607" lon="5.72198">
        <ele>308.39999389648</ele>
        <time>2021-07-25T05:24:59.000Z</time>
      </trkpt>
      <trkpt lat="45.19611" lon="5.72196">
        <ele>308.60000610352</ele>
        <time>2021-07-25T05:25:02.000Z</time>
      </trkpt>
      <trkpt lat="45.19614" lon="5.72194">
        <ele>308.20001220703</ele>
        <time>2021-07-25T05:25:05.000Z</time>
      </trkpt>
      <trkpt lat="45.19618" lon="5.72191">
        <ele>308</ele>
        <time>2021-07-25T05:25:11.000Z</time>
      </trkpt>
      <trkpt lat="45.19618" lon="5.7219">
        <ele>307.79998779297</ele>
        <time>2021-07-25T05:25:12.000Z</time>
      </trkpt>
      <trkpt lat="45.1962" lon="5.7219">
        <ele>307.79998779297</ele>
        <time>2021-07-25T05:25:15.000Z</time>
      </trkpt>
      <trkpt lat="45.19623" lon="5.7219">
        <ele>307.79998779297</ele>
        <time>2021-07-25T05:25:17.000Z</time>
      </trkpt>
      <trkpt lat="45.19624" lon="5.72189">
        <ele>307.79998779297</ele>
        <time>2021-07-25T05:25:18.000Z</time>
      </trkpt>
      <trkpt lat="45.19625" lon="5.72187">
        <ele>307.79998779297</ele>
        <time>2021-07-25T05:25:20.000Z</time>
      </trkpt>
      <trkpt lat="45.19626" lon="5.72188">
        <ele>307.79998779297</ele>
        <time>2021-07-25T05:25:22.000Z</time>
      </trkpt>
      <trkpt lat="45.19627" lon="5.7219">
        <ele>307.79998779297</ele>
        <time>2021-07-25T05:25:25.000Z</time>
      </trkpt>
      <trkpt lat="45.19628" lon="5.7219">
        <ele>307.79998779297</ele>
        <time>2021-07-25T05:25:26.000Z</time>
      </trkpt>
      <trkpt lat="45.19627" lon="5.72188">
        <ele>307.60000610352</ele>
        <time>2021-07-25T05:25:30.000Z</time>
      </trkpt>
      <trkpt lat="45.19627" lon="5.72187">
        <ele>307.60000610352</ele>
        <time>2021-07-25T05:25:31.000Z</time>
      </trkpt>
      <trkpt lat="45.19626" lon="5.72186">
        <ele>306.79998779297</ele>
        <time>2021-07-25T05:25:32.000Z</time>
      </trkpt>
      <trkpt lat="45.19627" lon="5.72183">
        <ele>305.79998779297</ele>
        <time>2021-07-25T05:25:36.000Z</time>
      </trkpt>
      <trkpt lat="45.19626" lon="5.72182">
        <ele>304.60000610352</ele>
        <time>2021-07-25T05:25:38.000Z</time>
      </trkpt>
      <trkpt lat="45.19626" lon="5.72181">
        <ele>304</ele>
        <time>2021-07-25T05:25:40.000Z</time>
      </trkpt>
      <trkpt lat="45.19624" lon="5.72179">
        <ele>302.20001220703</ele>
        <time>2021-07-25T05:25:43.000Z</time>
      </trkpt>
      <trkpt lat="45.19623" lon="5.72176">
        <ele>301.79998779297</ele>
        <time>2021-07-25T05:25:46.000Z</time>
      </trkpt>
      <trkpt lat="45.19622" lon="5.72177">
        <ele>301.20001220703</ele>
        <time>2021-07-25T05:25:48.000Z</time>
      </trkpt>
      <trkpt lat="45.1962" lon="5.72174">
        <ele>300</ele>
        <time>2021-07-25T05:25:51.000Z</time>
      </trkpt>
      <trkpt lat="45.19619" lon="5.72173">
        <ele>299.79998779297</ele>
        <time>2021-07-25T05:25:54.000Z</time>
      </trkpt>
      <trkpt lat="45.19619" lon="5.72169">
        <ele>298.39999389648</ele>
        <time>2021-07-25T05:25:56.000Z</time>
      </trkpt>
      <trkpt lat="45.19619" lon="5.72167">
        <ele>297.79998779297</ele>
        <time>2021-07-25T05:25:59.000Z</time>
      </trkpt>
      <trkpt lat="45.19615" lon="5.72163">
        <ele>297.20001220703</ele>
        <time>2021-07-25T05:26:02.000Z</time>
      </trkpt>
      <trkpt lat="45.19613" lon="5.72161">
        <ele>296.20001220703</ele>
        <time>2021-07-25T05:26:04.000Z</time>
      </trkpt>
      <trkpt lat="45.19612" lon="5.7216">
        <ele>296</ele>
        <time>2021-07-25T05:26:05.000Z</time>
      </trkpt>
      <trkpt lat="45.19608" lon="5.72153">
        <ele>294.79998779297</ele>
        <time>2021-07-25T05:26:09.000Z</time>
      </trkpt>
      <trkpt lat="45.19607" lon="5.7215">
        <ele>294.79998779297</ele>
        <time>2021-07-25T05:26:10.000Z</time>
      </trkpt>
      <trkpt lat="45.19608" lon="5.72147">
        <ele>294.79998779297</ele>
        <time>2021-07-25T05:26:11.000Z</time>
      </trkpt>
      <trkpt lat="45.19617" lon="5.72138">
        <ele>294.79998779297</ele>
        <time>2021-07-25T05:26:15.000Z</time>
      </trkpt>
      <trkpt lat="45.1962" lon="5.72137">
        <ele>294.79998779297</ele>
        <time>2021-07-25T05:26:16.000Z</time>
      </trkpt>
      <trkpt lat="45.19624" lon="5.72134">
        <ele>294.79998779297</ele>
        <time>2021-07-25T05:26:18.000Z</time>
      </trkpt>
      <trkpt lat="45.19631" lon="5.72131">
        <ele>295.60000610352</ele>
        <time>2021-07-25T05:26:21.000Z</time>
      </trkpt>
      <trkpt lat="45.19641" lon="5.72126">
        <ele>295.79998779297</ele>
        <time>2021-07-25T05:26:25.000Z</time>
      </trkpt>
      <trkpt lat="45.19644" lon="5.72125">
        <ele>295.60000610352</ele>
        <time>2021-07-25T05:26:27.000Z</time>
      </trkpt>
      <trkpt lat="45.19645" lon="5.72123">
        <ele>295.39999389648</ele>
        <time>2021-07-25T05:26:28.000Z</time>
      </trkpt>
      <trkpt lat="45.19649" lon="5.72115">
        <ele>294.39999389648</ele>
        <time>2021-07-25T05:26:32.000Z</time>
      </trkpt>
      <trkpt lat="45.1965" lon="5.72112">
        <ele>294</ele>
        <time>2021-07-25T05:26:34.000Z</time>
      </trkpt>
      <trkpt lat="45.19651" lon="5.72111">
        <ele>293.79998779297</ele>
        <time>2021-07-25T05:26:35.000Z</time>
      </trkpt>
      <trkpt lat="45.19652" lon="5.7211">
        <ele>293.60000610352</ele>
        <time>2021-07-25T05:26:36.000Z</time>
      </trkpt>
      <trkpt lat="45.19652" lon="5.72109">
        <ele>293.20001220703</ele>
        <time>2021-07-25T05:26:37.000Z</time>
      </trkpt>
      <trkpt lat="45.19654" lon="5.72105">
        <ele>292.60000610352</ele>
        <time>2021-07-25T05:26:41.000Z</time>
      </trkpt>
      <trkpt lat="45.19655" lon="5.72103">
        <ele>291.79998779297</ele>
        <time>2021-07-25T05:26:42.000Z</time>
      </trkpt>
      <trkpt lat="45.19656" lon="5.72102">
        <ele>291.39999389648</ele>
        <time>2021-07-25T05:26:43.000Z</time>
      </trkpt>
      <trkpt lat="45.19656" lon="5.721">
        <ele>291</ele>
        <time>2021-07-25T05:26:46.000Z</time>
      </trkpt>
      <trkpt lat="45.19656" lon="5.72099">
        <ele>290.79998779297</ele>
        <time>2021-07-25T05:26:47.000Z</time>
      </trkpt>
      <trkpt lat="45.19657" lon="5.72098">
        <ele>289.60000610352</ele>
        <time>2021-07-25T05:26:48.000Z</time>
      </trkpt>
      <trkpt lat="45.19657" lon="5.72097">
        <ele>289.39999389648</ele>
        <time>2021-07-25T05:26:49.000Z</time>
      </trkpt>
      <trkpt lat="45.19657" lon="5.72095">
        <ele>288.79998779297</ele>
        <time>2021-07-25T05:26:51.000Z</time>
      </trkpt>
      <trkpt lat="45.19658" lon="5.72094">
        <ele>288.60000610352</ele>
        <time>2021-07-25T05:26:52.000Z</time>
      </trkpt>
      <trkpt lat="45.19658" lon="5.72093">
        <ele>287.79998779297</ele>
        <time>2021-07-25T05:26:53.000Z</time>
      </trkpt>
      <trkpt lat="45.1966" lon="5.72091">
        <ele>287.60000610352</ele>
        <time>2021-07-25T05:26:55.000Z</time>
      </trkpt>
      <trkpt lat="45.19662" lon="5.7209">
        <ele>287.20001220703</ele>
        <time>2021-07-25T05:26:56.000Z</time>
      </trkpt>
      <trkpt lat="45.19662" lon="5.7209">
        <ele>286.79998779297</ele>
        <time>2021-07-25T05:26:57.000Z</time>
      </trkpt>
      <trkpt lat="45.1966" lon="5.72089">
        <ele>285.60000610352</ele>
        <time>2021-07-25T05:27:00.000Z</time>
      </trkpt>
      <trkpt lat="45.1966" lon="5.72089">
        <ele>284.79998779297</ele>
        <time>2021-07-25T05:27:02.000Z</time>
      </trkpt>
      <trkpt lat="45.1966" lon="5.72088">
        <ele>284.39999389648</ele>
        <time>2021-07-25T05:27:03.000Z</time>
      </trkpt>
      <trkpt lat="45.19663" lon="5.72089">
        <ele>284.20001220703</ele>
        <time>2021-07-25T05:27:05.000Z</time>
      </trkpt>
      <trkpt lat="45.19664" lon="5.7209">
        <ele>283.79998779297</ele>
        <time>2021-07-25T05:27:06.000Z</time>
      </trkpt>
      <trkpt lat="45.19663" lon="5.72091">
        <ele>283</ele>
        <time>2021-07-25T05:27:08.000Z</time>
      </trkpt>
      <trkpt lat="45.19662" lon="5.72091">
        <ele>282.79998779297</ele>
        <time>2021-07-25T05:27:09.000Z</time>
      </trkpt>
      <trkpt lat="45.19661" lon="5.7209">
        <ele>282.79998779297</ele>
        <time>2021-07-25T05:27:10.000Z</time>
      </trkpt>
      <trkpt lat="45.19662" lon="5.72089">
        <ele>282</ele>
        <time>2021-07-25T05:27:11.000Z</time>
      </trkpt>
      <trkpt lat="45.19663" lon="5.72088">
        <ele>281.79998779297</ele>
        <time>2021-07-25T05:27:12.000Z</time>
      </trkpt>
      <trkpt lat="45.19664" lon="5.72087">
        <ele>281.39999389648</ele>
        <time>2021-07-25T05:27:13.000Z</time>
      </trkpt>
      <trkpt lat="45.19665" lon="5.72086">
        <ele>280.60000610352</ele>
        <time>2021-07-25T05:27:14.000Z</time>
      </trkpt>
      <trkpt lat="45.19664" lon="5.72084">
        <ele>280.60000610352</ele>
        <time>2021-07-25T05:27:16.000Z</time>
      </trkpt>
      <trkpt lat="45.19661" lon="5.72083">
        <ele>279.60000610352</ele>
        <time>2021-07-25T05:27:18.000Z</time>
      </trkpt>
      <trkpt lat="45.19658" lon="5.72083">
        <ele>279</ele>
        <time>2021-07-25T05:27:20.000Z</time>
      </trkpt>
      <trkpt lat="45.19657" lon="5.72084">
        <ele>278</ele>
        <time>2021-07-25T05:27:22.000Z</time>
      </trkpt>
      <trkpt lat="45.19657" lon="5.72084">
        <ele>276.79998779297</ele>
        <time>2021-07-25T05:27:26.000Z</time>
      </trkpt>
      <trkpt lat="45.19655" lon="5.72082">
        <ele>276.79998779297</ele>
        <time>2021-07-25T05:27:27.000Z</time>
      </trkpt>
      <trkpt lat="45.19653" lon="5.72079">
        <ele>275.20001220703</ele>
        <time>2021-07-25T05:27:29.000Z</time>
      </trkpt>
      <trkpt lat="45.19651" lon="5.72078">
        <ele>275.20001220703</ele>
        <time>2021-07-25T05:27:30.000Z</time>
      </trkpt>
      <trkpt lat="45.1965" lon="5.72077">
        <ele>275.20001220703</ele>
        <time>2021-07-25T05:27:31.000Z</time>
      </trkpt>
      <trkpt lat="45.19642" lon="5.72077">
        <ele>275</ele>
        <time>2021-07-25T05:27:36.000Z</time>
      </trkpt>
      <trkpt lat="45.19637" lon="5.72075">
        <ele>274.79998779297</ele>
        <time>2021-07-25T05:27:39.000Z</time>
      </trkpt>
      <trkpt lat="45.19636" lon="5.72075">
        <ele>274.79998779297</ele>
        <time>2021-07-25T05:27:40.000Z</time>
      </trkpt>
      <trkpt lat="45.19636" lon="5.72075">
        <ele>274.79998779297</ele>
        <time>2021-07-25T05:27:41.000Z</time>
      </trkpt>
      <trkpt lat="45.19631" lon="5.72071">
        <ele>274.60000610352</ele>
        <time>2021-07-25T05:27:44.000Z</time>
      </trkpt>
      <trkpt lat="45.19628" lon="5.72069">
        <ele>274.60000610352</ele>
        <time>2021-07-25T05:27:46.000Z</time>
      </trkpt>
      <trkpt lat="45.19621" lon="5.72066">
        <ele>275.20001220703</ele>
        <time>2021-07-25T05:27:49.000Z</time>
      </trkpt>
      <trkpt lat="45.19616" lon="5.72065">
        <ele>276</ele>
        <time>2021-07-25T05:27:51.000Z</time>
      </trkpt>
      <trkpt lat="45.19611" lon="5.72065">
        <ele>276.20001220703</ele>
        <time>2021-07-25T05:27:53.000Z</time>
      </trkpt>
      <trkpt lat="45.19608" lon="5.72064">
        <ele>276.20001220703</ele>
        <time>2021-07-25T05:27:55.000Z</time>
      </trkpt>
      <trkpt lat="45.19602" lon="5.72062">
        <ele>276.20001220703</ele>
        <time>2021-07-25T05:27:57.000Z</time>
      </trkpt>
      <trkpt lat="45.19599" lon="5.72062">
        <ele>276.39999389648</ele>
        <time>2021-07-25T05:27:58.000Z</time>
      </trkpt>
      <trkpt lat="45.19595" lon="5.72064">
        <ele>276.79998779297</ele>
        <time>2021-07-25T05:28:01.000Z</time>
      </trkpt>
      <trkpt lat="45.19594" lon="5.72064">
        <ele>277</ele>
        <time>2021-07-25T05:28:02.000Z</time>
      </trkpt>
      <trkpt lat="45.19594" lon="5.72064">
        <ele>277.79998779297</ele>
        <time>2021-07-25T05:28:03.000Z</time>
      </trkpt>
      <trkpt lat="45.19593" lon="5.72064">
        <ele>278.60000610352</ele>
        <time>2021-07-25T05:28:05.000Z</time>
      </trkpt>
      <trkpt lat="45.19593" lon="5.72065">
        <ele>279.20001220703</ele>
        <time>2021-07-25T05:28:06.000Z</time>
      </trkpt>
      <trkpt lat="45.19593" lon="5.72065">
        <ele>280.39999389648</ele>
        <time>2021-07-25T05:28:08.000Z</time>
      </trkpt>
      <trkpt lat="45.19593" lon="5.72065">
        <ele>280.60000610352</ele>
        <time>2021-07-25T05:28:09.000Z</time>
      </trkpt>
      <trkpt lat="45.19593" lon="5.72067">
        <ele>281.60000610352</ele>
        <time>2021-07-25T05:28:11.000Z</time>
      </trkpt>
      <trkpt lat="45.19594" lon="5.72071">
        <ele>282.20001220703</ele>
        <time>2021-07-25T05:28:15.000Z</time>
      </trkpt>
      <trkpt lat="45.19595" lon="5.72072">
        <ele>282.60000610352</ele>
        <time>2021-07-25T05:28:17.000Z</time>
      </trkpt>
      <trkpt lat="45.19595" lon="5.72072">
        <ele>282.79998779297</ele>
        <time>2021-07-25T05:28:18.000Z</time>
      </trkpt>
      <trkpt lat="45.19596" lon="5.72073">
        <ele>283.79998779297</ele>
        <time>2021-07-25T05:28:22.000Z</time>
      </trkpt>
      <trkpt lat="45.19596" lon="5.72073">
        <ele>284</ele>
        <time>2021-07-25T05:28:23.000Z</time>
      </trkpt>
      <trkpt lat="45.196" lon="5.72078">
        <ele>285</ele>
        <time>2021-07-25T05:28:28.000Z</time>
      </trkpt>
      <trkpt lat="45.19604" lon="5.72083">
        <ele>285.60000610352</ele>
        <time>2021-07-25T05:28:31.000Z</time>
      </trkpt>
      <trkpt lat="45.19607" lon="5.72086">
        <ele>286.39999389648</ele>
        <time>2021-07-25T05:28:34.000Z</time>
      </trkpt>
      <trkpt lat="45.19609" lon="5.72089">
        <ele>287.39999389648</ele>
        <time>2021-07-25T05:28:37.000Z</time>
      </trkpt>
      <trkpt lat="45.1961" lon="5.7209">
        <ele>287.60000610352</ele>
        <time>2021-07-25T05:28:38.000Z</time>
      </trkpt>
      <trkpt lat="45.19611" lon="5.72093">
        <ele>288</ele>
        <time>2021-07-25T05:28:40.000Z</time>
      </trkpt>
      <trkpt lat="45.19614" lon="5.72098">
        <ele>288.20001220703</ele>
        <time>2021-07-25T05:28:42.000Z</time>
      </trkpt>
      <trkpt lat="45.19615" lon="5.72101">
        <ele>288.60000610352</ele>
        <time>2021-07-25T05:28:43.000Z</time>
      </trkpt>
      <trkpt lat="45.19615" lon="5.72103">
        <ele>289.20001220703</ele>
        <time>2021-07-25T05:28:44.000Z</time>
      </trkpt>
      <trkpt lat="45.19613" lon="5.72105">
        <ele>289.20001220703</ele>
        <time>2021-07-25T05:28:45.000Z</time>
      </trkpt>
      <trkpt lat="45.19612" lon="5.72108">
        <ele>289.60000610352</ele>
        <time>2021-07-25T05:28:47.000Z</time>
      </trkpt>
      <trkpt lat="45.19611" lon="5.72112">
        <ele>289.79998779297</ele>
        <time>2021-07-25T05:28:49.000Z</time>
      </trkpt>
      <trkpt lat="45.19609" lon="5.72116">
        <ele>290.20001220703</ele>
        <time>2021-07-25T05:28:51.000Z</time>
      </trkpt>
      <trkpt lat="45.19609" lon="5.72118">
        <ele>290.39999389648</ele>
        <time>2021-07-25T05:28:52.000Z</time>
      </trkpt>
      <trkpt lat="45.19606" lon="5.72133">
        <ele>290.79998779297</ele>
        <time>2021-07-25T05:28:57.000Z</time>
      </trkpt>
      <trkpt lat="45.19606" lon="5.72136">
        <ele>290.79998779297</ele>
        <time>2021-07-25T05:28:58.000Z</time>
      </trkpt>
      <trkpt lat="45.19603" lon="5.7214">
        <ele>291</ele>
        <time>2021-07-25T05:29:00.000Z</time>
      </trkpt>
      <trkpt lat="45.19602" lon="5.72141">
        <ele>291.20001220703</ele>
        <time>2021-07-25T05:29:01.000Z</time>
      </trkpt>
      <trkpt lat="45.19599" lon="5.72144">
        <ele>291.39999389648</ele>
        <time>2021-07-25T05:29:03.000Z</time>
      </trkpt>
      <trkpt lat="45.19598" lon="5.72146">
        <ele>291.39999389648</ele>
        <time>2021-07-25T05:29:04.000Z</time>
      </trkpt>
      <trkpt lat="45.19596" lon="5.72151">
        <ele>292.20001220703</ele>
        <time>2021-07-25T05:29:08.000Z</time>
      </trkpt>
      <trkpt lat="45.19598" lon="5.72148">
        <ele>292.60000610352</ele>
        <time>2021-07-25T05:29:11.000Z</time>
      </trkpt>
      <trkpt lat="45.196" lon="5.72144">
        <ele>292.60000610352</ele>
        <time>2021-07-25T05:29:13.000Z</time>
      </trkpt>
      <trkpt lat="45.19611" lon="5.72139">
        <ele>292.79998779297</ele>
        <time>2021-07-25T05:29:18.000Z</time>
      </trkpt>
      <trkpt lat="45.1962" lon="5.72138">
        <ele>293.79998779297</ele>
        <time>2021-07-25T05:29:22.000Z</time>
      </trkpt>
      <trkpt lat="45.19624" lon="5.72137">
        <ele>294</ele>
        <time>2021-07-25T05:29:24.000Z</time>
      </trkpt>
      <trkpt lat="45.1964" lon="5.72137">
        <ele>294.79998779297</ele>
        <time>2021-07-25T05:29:31.000Z</time>
      </trkpt>
      <trkpt lat="45.19652" lon="5.72129">
        <ele>295.20001220703</ele>
        <time>2021-07-25T05:29:38.000Z</time>
      </trkpt>
      <trkpt lat="45.19655" lon="5.72125">
        <ele>295</ele>
        <time>2021-07-25T05:29:41.000Z</time>
      </trkpt>
      <trkpt lat="45.19657" lon="5.72121">
        <ele>295</ele>
        <time>2021-07-25T05:29:43.000Z</time>
      </trkpt>
      <trkpt lat="45.19659" lon="5.72116">
        <ele>294.20001220703</ele>
        <time>2021-07-25T05:29:46.000Z</time>
      </trkpt>
      <trkpt lat="45.1966" lon="5.72115">
        <ele>294</ele>
        <time>2021-07-25T05:29:47.000Z</time>
      </trkpt>
      <trkpt lat="45.19662" lon="5.72114">
        <ele>293.79998779297</ele>
        <time>2021-07-25T05:29:49.000Z</time>
      </trkpt>
      <trkpt lat="45.19662" lon="5.72111">
        <ele>292.79998779297</ele>
        <time>2021-07-25T05:29:53.000Z</time>
      </trkpt>
      <trkpt lat="45.19663" lon="5.7211">
        <ele>292.39999389648</ele>
        <time>2021-07-25T05:29:54.000Z</time>
      </trkpt>
      <trkpt lat="45.19664" lon="5.72106">
        <ele>291.79998779297</ele>
        <time>2021-07-25T05:29:57.000Z</time>
      </trkpt>
      <trkpt lat="45.19666" lon="5.72104">
        <ele>290.79998779297</ele>
        <time>2021-07-25T05:30:00.000Z</time>
      </trkpt>
      <trkpt lat="45.19667" lon="5.72104">
        <ele>290.39999389648</ele>
        <time>2021-07-25T05:30:01.000Z</time>
      </trkpt>
      <trkpt lat="45.19668" lon="5.72099">
        <ele>289.39999389648</ele>
        <time>2021-07-25T05:30:05.000Z</time>
      </trkpt>
      <trkpt lat="45.19668" lon="5.72099">
        <ele>289</ele>
        <time>2021-07-25T05:30:06.000Z</time>
      </trkpt>
      <trkpt lat="45.19669" lon="5.72098">
        <ele>288</ele>
        <time>2021-07-25T05:30:08.000Z</time>
      </trkpt>
      <trkpt lat="45.19669" lon="5.72097">
        <ele>287.79998779297</ele>
        <time>2021-07-25T05:30:10.000Z</time>
      </trkpt>
      <trkpt lat="45.19668" lon="5.72094">
        <ele>287</ele>
        <time>2021-07-25T05:30:12.000Z</time>
      </trkpt>
      <trkpt lat="45.19667" lon="5.72094">
        <ele>286.39999389648</ele>
        <time>2021-07-25T05:30:14.000Z</time>
      </trkpt>
      <trkpt lat="45.19666" lon="5.72093">
        <ele>285.79998779297</ele>
        <time>2021-07-25T05:30:15.000Z</time>
      </trkpt>
      <trkpt lat="45.19667" lon="5.72096">
        <ele>284.60000610352</ele>
        <time>2021-07-25T05:30:18.000Z</time>
      </trkpt>
      <trkpt lat="45.19666" lon="5.72096">
        <ele>284.39999389648</ele>
        <time>2021-07-25T05:30:19.000Z</time>
      </trkpt>
      <trkpt lat="45.19663" lon="5.72094">
        <ele>283</ele>
        <time>2021-07-25T05:30:23.000Z</time>
      </trkpt>
      <trkpt lat="45.19661" lon="5.72093">
        <ele>282.60000610352</ele>
        <time>2021-07-25T05:30:24.000Z</time>
      </trkpt>
      <trkpt lat="45.19659" lon="5.72092">
        <ele>282.20001220703</ele>
        <time>2021-07-25T05:30:25.000Z</time>
      </trkpt>
      <trkpt lat="45.19659" lon="5.72092">
        <ele>282.20001220703</ele>
        <time>2021-07-25T05:30:26.000Z</time>
      </trkpt>
      <trkpt lat="45.1966" lon="5.72088">
        <ele>282</ele>
        <time>2021-07-25T05:30:28.000Z</time>
      </trkpt>
      <trkpt lat="45.1966" lon="5.72085">
        <ele>281.20001220703</ele>
        <time>2021-07-25T05:30:30.000Z</time>
      </trkpt>
      <trkpt lat="45.1966" lon="5.72084">
        <ele>280.60000610352</ele>
        <time>2021-07-25T05:30:31.000Z</time>
      </trkpt>
      <trkpt lat="45.1966" lon="5.72084">
        <ele>280.39999389648</ele>
        <time>2021-07-25T05:30:32.000Z</time>
      </trkpt>
      <trkpt lat="45.19658" lon="5.72082">
        <ele>279.79998779297</ele>
        <time>2021-07-25T05:30:34.000Z</time>
      </trkpt>
      <trkpt lat="45.19656" lon="5.72082">
        <ele>279.60000610352</ele>
        <time>2021-07-25T05:30:35.000Z</time>
      </trkpt>
      <trkpt lat="45.19655" lon="5.72081">
        <ele>279.39999389648</ele>
        <time>2021-07-25T05:30:36.000Z</time>
      </trkpt>
      <trkpt lat="45.19653" lon="5.72081">
        <ele>278.79998779297</ele>
        <time>2021-07-25T05:30:37.000Z</time>
      </trkpt>
      <trkpt lat="45.19652" lon="5.72081">
        <ele>278.20001220703</ele>
        <time>2021-07-25T05:30:38.000Z</time>
      </trkpt>
      <trkpt lat="45.19651" lon="5.72081">
        <ele>278</ele>
        <time>2021-07-25T05:30:40.000Z</time>
      </trkpt>
      <trkpt lat="45.19649" lon="5.72081">
        <ele>276.60000610352</ele>
        <time>2021-07-25T05:30:42.000Z</time>
      </trkpt>
      <trkpt lat="45.19648" lon="5.72081">
        <ele>276.39999389648</ele>
        <time>2021-07-25T05:30:44.000Z</time>
      </trkpt>
      <trkpt lat="45.19647" lon="5.7208">
        <ele>276.20001220703</ele>
        <time>2021-07-25T05:30:45.000Z</time>
      </trkpt>
      <trkpt lat="45.19646" lon="5.72079">
        <ele>275.60000610352</ele>
        <time>2021-07-25T05:30:46.000Z</time>
      </trkpt>
      <trkpt lat="45.19643" lon="5.72077">
        <ele>275.20001220703</ele>
        <time>2021-07-25T05:30:48.000Z</time>
      </trkpt>
      <trkpt lat="45.19643" lon="5.72077">
        <ele>274.60000610352</ele>
        <time>2021-07-25T05:30:50.000Z</time>
      </trkpt>
      <trkpt lat="45.19641" lon="5.72077">
        <ele>274.60000610352</ele>
        <time>2021-07-25T05:30:52.000Z</time>
      </trkpt>
      <trkpt lat="45.19633" lon="5.72074">
        <ele>274.60000610352</ele>
        <time>2021-07-25T05:30:56.000Z</time>
      </trkpt>
      <trkpt lat="45.19628" lon="5.72074">
        <ele>274.60000610352</ele>
        <time>2021-07-25T05:30:58.000Z</time>
      </trkpt>
      <trkpt lat="45.19625" lon="5.72072">
        <ele>274.39999389648</ele>
        <time>2021-07-25T05:31:00.000Z</time>
      </trkpt>
      <trkpt lat="45.19619" lon="5.7207">
        <ele>274.39999389648</ele>
        <time>2021-07-25T05:31:03.000Z</time>
      </trkpt>
      <trkpt lat="45.19616" lon="5.72069">
        <ele>274.60000610352</ele>
        <time>2021-07-25T05:31:05.000Z</time>
      </trkpt>
      <trkpt lat="45.19611" lon="5.72068">
        <ele>275</ele>
        <time>2021-07-25T05:31:07.000Z</time>
      </trkpt>
      <trkpt lat="45.19604" lon="5.72066">
        <ele>275.79998779297</ele>
        <time>2021-07-25T05:31:09.000Z</time>
      </trkpt>
      <trkpt lat="45.19601" lon="5.72064">
        <ele>276</ele>
        <time>2021-07-25T05:31:10.000Z</time>
      </trkpt>
      <trkpt lat="45.196" lon="5.72063">
        <ele>276</ele>
        <time>2021-07-25T05:31:11.000Z</time>
      </trkpt>
      <trkpt lat="45.196" lon="5.7206">
        <ele>276</ele>
        <time>2021-07-25T05:31:13.000Z</time>
      </trkpt>
      <trkpt lat="45.19601" lon="5.72059">
        <ele>276</ele>
        <time>2021-07-25T05:31:14.000Z</time>
      </trkpt>
      <trkpt lat="45.19601" lon="5.72057">
        <ele>274.39999389648</ele>
        <time>2021-07-25T05:31:16.000Z</time>
      </trkpt>
      <trkpt lat="45.19602" lon="5.72055">
        <ele>273.60000610352</ele>
        <time>2021-07-25T05:31:19.000Z</time>
      </trkpt>
      <trkpt lat="45.19603" lon="5.72054">
        <ele>273.39999389648</ele>
        <time>2021-07-25T05:31:20.000Z</time>
      </trkpt>
      <trkpt lat="45.19605" lon="5.72053">
        <ele>271.79998779297</ele>
        <time>2021-07-25T05:31:23.000Z</time>
      </trkpt>
      <trkpt lat="45.19608" lon="5.72052">
        <ele>271.39999389648</ele>
        <time>2021-07-25T05:31:25.000Z</time>
      </trkpt>
      <trkpt lat="45.19611" lon="5.72047">
        <ele>270.39999389648</ele>
        <time>2021-07-25T05:31:27.000Z</time>
      </trkpt>
      <trkpt lat="45.19612" lon="5.72046">
        <ele>270.20001220703</ele>
        <time>2021-07-25T05:31:28.000Z</time>
      </trkpt>
      <trkpt lat="45.19617" lon="5.72044">
        <ele>270</ele>
        <time>2021-07-25T05:31:30.000Z</time>
      </trkpt>
      <trkpt lat="45.19629" lon="5.72044">
        <ele>270.20001220703</ele>
        <time>2021-07-25T05:31:36.000Z</time>
      </trkpt>
      <trkpt lat="45.19638" lon="5.72048">
        <ele>270.79998779297</ele>
        <time>2021-07-25T05:31:41.000Z</time>
      </trkpt>
      <trkpt lat="45.1964" lon="5.72048">
        <ele>271</ele>
        <time>2021-07-25T05:31:42.000Z</time>
      </trkpt>
      <trkpt lat="45.19641" lon="5.72048">
        <ele>271</ele>
        <time>2021-07-25T05:31:43.000Z</time>
      </trkpt>
      <trkpt lat="45.19643" lon="5.72045">
        <ele>271</ele>
        <time>2021-07-25T05:31:45.000Z</time>
      </trkpt>
      <trkpt lat="45.19645" lon="5.72044">
        <ele>271</ele>
        <time>2021-07-25T05:31:47.000Z</time>
      </trkpt>
      <trkpt lat="45.19644" lon="5.72042">
        <ele>270.79998779297</ele>
        <time>2021-07-25T05:31:49.000Z</time>
      </trkpt>
      <trkpt lat="45.19643" lon="5.72041">
        <ele>270.39999389648</ele>
        <time>2021-07-25T05:31:50.000Z</time>
      </trkpt>
      <trkpt lat="45.19642" lon="5.72039">
        <ele>270.20001220703</ele>
        <time>2021-07-25T05:31:51.000Z</time>
      </trkpt>
      <trkpt lat="45.19643" lon="5.72037">
        <ele>270.20001220703</ele>
        <time>2021-07-25T05:31:52.000Z</time>
      </trkpt>
      <trkpt lat="45.19642" lon="5.72031">
        <ele>269.39999389648</ele>
        <time>2021-07-25T05:31:55.000Z</time>
      </trkpt>
      <trkpt lat="45.1964" lon="5.72026">
        <ele>268.60000610352</ele>
        <time>2021-07-25T05:31:58.000Z</time>
      </trkpt>
      <trkpt lat="45.19638" lon="5.72024">
        <ele>268</ele>
        <time>2021-07-25T05:32:00.000Z</time>
      </trkpt>
      <trkpt lat="45.19637" lon="5.72023">
        <ele>267.60000610352</ele>
        <time>2021-07-25T05:32:02.000Z</time>
      </trkpt>
      <trkpt lat="45.19635" lon="5.72019">
        <ele>266.60000610352</ele>
        <time>2021-07-25T05:32:05.000Z</time>
      </trkpt>
      <trkpt lat="45.19632" lon="5.72016">
        <ele>265</ele>
        <time>2021-07-25T05:32:08.000Z</time>
      </trkpt>
      <trkpt lat="45.1963" lon="5.72013">
        <ele>263.60000610352</ele>
        <time>2021-07-25T05:32:10.000Z</time>
      </trkpt>
      <trkpt lat="45.19628" lon="5.72009">
        <ele>262.39999389648</ele>
        <time>2021-07-25T05:32:13.000Z</time>
      </trkpt>
      <trkpt lat="45.19628" lon="5.72007">
        <ele>262.20001220703</ele>
        <time>2021-07-25T05:32:14.000Z</time>
      </trkpt>
      <trkpt lat="45.19625" lon="5.72002">
        <ele>261.39999389648</ele>
        <time>2021-07-25T05:32:17.000Z</time>
      </trkpt>
      <trkpt lat="45.19624" lon="5.72001">
        <ele>259.79998779297</ele>
        <time>2021-07-25T05:32:18.000Z</time>
      </trkpt>
      <trkpt lat="45.19623" lon="5.71998">
        <ele>259.39999389648</ele>
        <time>2021-07-25T05:32:20.000Z</time>
      </trkpt>
      <trkpt lat="45.19622" lon="5.71998">
        <ele>258.79998779297</ele>
        <time>2021-07-25T05:32:21.000Z</time>
      </trkpt>
      <trkpt lat="45.19621" lon="5.71995">
        <ele>258.39999389648</ele>
        <time>2021-07-25T05:32:23.000Z</time>
      </trkpt>
      <trkpt lat="45.1962" lon="5.71993">
        <ele>257.39999389648</ele>
        <time>2021-07-25T05:32:25.000Z</time>
      </trkpt>
      <trkpt lat="45.19617" lon="5.71989">
        <ele>255.39999389648</ele>
        <time>2021-07-25T05:32:28.000Z</time>
      </trkpt>
      <trkpt lat="45.19612" lon="5.71986">
        <ele>255.19999694824</ele>
        <time>2021-07-25T05:32:31.000Z</time>
      </trkpt>
      <trkpt lat="45.19608" lon="5.71985">
        <ele>253.80000305176</ele>
        <time>2021-07-25T05:32:33.000Z</time>
      </trkpt>
      <trkpt lat="45.19606" lon="5.71984">
        <ele>253.39999389648</ele>
        <time>2021-07-25T05:32:34.000Z</time>
      </trkpt>
      <trkpt lat="45.19602" lon="5.71982">
        <ele>252.60000610352</ele>
        <time>2021-07-25T05:32:36.000Z</time>
      </trkpt>
      <trkpt lat="45.196" lon="5.71981">
        <ele>252</ele>
        <time>2021-07-25T05:32:37.000Z</time>
      </trkpt>
      <trkpt lat="45.19598" lon="5.7198">
        <ele>251.80000305176</ele>
        <time>2021-07-25T05:32:38.000Z</time>
      </trkpt>
      <trkpt lat="45.19597" lon="5.7198">
        <ele>251.19999694824</ele>
        <time>2021-07-25T05:32:39.000Z</time>
      </trkpt>
      <trkpt lat="45.19596" lon="5.71979">
        <ele>251.19999694824</ele>
        <time>2021-07-25T05:32:40.000Z</time>
      </trkpt>
      <trkpt lat="45.19596" lon="5.71976">
        <ele>250</ele>
        <time>2021-07-25T05:32:43.000Z</time>
      </trkpt>
      <trkpt lat="45.19599" lon="5.71973">
        <ele>249</ele>
        <time>2021-07-25T05:32:46.000Z</time>
      </trkpt>
      <trkpt lat="45.19599" lon="5.71972">
        <ele>249</ele>
        <time>2021-07-25T05:32:47.000Z</time>
      </trkpt>
      <trkpt lat="45.19599" lon="5.71972">
        <ele>248.39999389648</ele>
        <time>2021-07-25T05:32:48.000Z</time>
      </trkpt>
      <trkpt lat="45.19597" lon="5.71971">
        <ele>247</ele>
        <time>2021-07-25T05:32:50.000Z</time>
      </trkpt>
      <trkpt lat="45.19598" lon="5.71969">
        <ele>246.39999389648</ele>
        <time>2021-07-25T05:32:53.000Z</time>
      </trkpt>
      <trkpt lat="45.196" lon="5.71967">
        <ele>245.80000305176</ele>
        <time>2021-07-25T05:32:54.000Z</time>
      </trkpt>
      <trkpt lat="45.19599" lon="5.71962">
        <ele>245.19999694824</ele>
        <time>2021-07-25T05:32:56.000Z</time>
      </trkpt>
      <trkpt lat="45.19597" lon="5.71959">
        <ele>244.60000610352</ele>
        <time>2021-07-25T05:32:57.000Z</time>
      </trkpt>
      <trkpt lat="45.19596" lon="5.71956">
        <ele>243.80000305176</ele>
        <time>2021-07-25T05:32:58.000Z</time>
      </trkpt>
      <trkpt lat="45.19594" lon="5.71953">
        <ele>243.19999694824</ele>
        <time>2021-07-25T05:32:59.000Z</time>
      </trkpt>
      <trkpt lat="45.19592" lon="5.71949">
        <ele>242.60000610352</ele>
        <time>2021-07-25T05:33:01.000Z</time>
      </trkpt>
      <trkpt lat="45.19589" lon="5.71944">
        <ele>242</ele>
        <time>2021-07-25T05:33:03.000Z</time>
      </trkpt>
      <trkpt lat="45.19585" lon="5.7194">
        <ele>241.39999389648</ele>
        <time>2021-07-25T05:33:05.000Z</time>
      </trkpt>
      <trkpt lat="45.19583" lon="5.71939">
        <ele>241</ele>
        <time>2021-07-25T05:33:06.000Z</time>
      </trkpt>
      <trkpt lat="45.19579" lon="5.71938">
        <ele>240.39999389648</ele>
        <time>2021-07-25T05:33:08.000Z</time>
      </trkpt>
      <trkpt lat="45.19572" lon="5.71937">
        <ele>239.39999389648</ele>
        <time>2021-07-25T05:33:10.000Z</time>
      </trkpt>
      <trkpt lat="45.19569" lon="5.71935">
        <ele>238.80000305176</ele>
        <time>2021-07-25T05:33:11.000Z</time>
      </trkpt>
      <trkpt lat="45.19567" lon="5.71933">
        <ele>238.80000305176</ele>
        <time>2021-07-25T05:33:12.000Z</time>
      </trkpt>
      <trkpt lat="45.19565" lon="5.71927">
        <ele>238.39999389648</ele>
        <time>2021-07-25T05:33:14.000Z</time>
      </trkpt>
      <trkpt lat="45.19564" lon="5.71925">
        <ele>237.39999389648</ele>
        <time>2021-07-25T05:33:16.000Z</time>
      </trkpt>
      <trkpt lat="45.19563" lon="5.71924">
        <ele>237.39999389648</ele>
        <time>2021-07-25T05:33:17.000Z</time>
      </trkpt>
      <trkpt lat="45.1956" lon="5.71925">
        <ele>237.39999389648</ele>
        <time>2021-07-25T05:33:19.000Z</time>
      </trkpt>
      <trkpt lat="45.19556" lon="5.71926">
        <ele>237.19999694824</ele>
        <time>2021-07-25T05:33:21.000Z</time>
      </trkpt>
      <trkpt lat="45.19553" lon="5.71926">
        <ele>237.19999694824</ele>
        <time>2021-07-25T05:33:22.000Z</time>
      </trkpt>
      <trkpt lat="45.19541" lon="5.71924">
        <ele>237.19999694824</ele>
        <time>2021-07-25T05:33:26.000Z</time>
      </trkpt>
      <trkpt lat="45.19523" lon="5.71924">
        <ele>237.19999694824</ele>
        <time>2021-07-25T05:33:32.000Z</time>
      </trkpt>
      <trkpt lat="45.19507" lon="5.71923">
        <ele>237</ele>
        <time>2021-07-25T05:33:37.000Z</time>
      </trkpt>
      <trkpt lat="45.19492" lon="5.71922">
        <ele>237</ele>
        <time>2021-07-25T05:33:42.000Z</time>
      </trkpt>
      <trkpt lat="45.19487" lon="5.71922">
        <ele>237</ele>
        <time>2021-07-25T05:33:44.000Z</time>
      </trkpt>
      <trkpt lat="45.19466" lon="5.71922">
        <ele>237</ele>
        <time>2021-07-25T05:33:52.000Z</time>
      </trkpt>
      <trkpt lat="45.19457" lon="5.71922">
        <ele>237</ele>
        <time>2021-07-25T05:33:55.000Z</time>
      </trkpt>
      <trkpt lat="45.19451" lon="5.71924">
        <ele>237</ele>
        <time>2021-07-25T05:33:57.000Z</time>
      </trkpt>
      <trkpt lat="45.19439" lon="5.71923">
        <ele>237</ele>
        <time>2021-07-25T05:34:02.000Z</time>
      </trkpt>
      <trkpt lat="45.19435" lon="5.71925">
        <ele>237</ele>
        <time>2021-07-25T05:34:04.000Z</time>
      </trkpt>
      <trkpt lat="45.19429" lon="5.71925">
        <ele>237.39999389648</ele>
        <time>2021-07-25T05:34:06.000Z</time>
      </trkpt>
      <trkpt lat="45.19421" lon="5.71924">
        <ele>237.60000610352</ele>
        <time>2021-07-25T05:34:09.000Z</time>
      </trkpt>
      <trkpt lat="45.19407" lon="5.71926">
        <ele>237.60000610352</ele>
        <time>2021-07-25T05:34:14.000Z</time>
      </trkpt>
      <trkpt lat="45.19403" lon="5.71927">
        <ele>237.60000610352</ele>
        <time>2021-07-25T05:34:16.000Z</time>
      </trkpt>
      <trkpt lat="45.19392" lon="5.71923">
        <ele>237.80000305176</ele>
        <time>2021-07-25T05:34:19.000Z</time>
      </trkpt>
      <trkpt lat="45.19388" lon="5.71927">
        <ele>237.80000305176</ele>
        <time>2021-07-25T05:34:21.000Z</time>
      </trkpt>
      <trkpt lat="45.19386" lon="5.7193">
        <ele>238</ele>
        <time>2021-07-25T05:34:22.000Z</time>
      </trkpt>
      <trkpt lat="45.19378" lon="5.71947">
        <ele>238.19999694824</ele>
        <time>2021-07-25T05:34:27.000Z</time>
      </trkpt>
      <trkpt lat="45.19375" lon="5.7197">
        <ele>238.19999694824</ele>
        <time>2021-07-25T05:34:32.000Z</time>
      </trkpt>
      <trkpt lat="45.19365" lon="5.71989">
        <ele>238.19999694824</ele>
        <time>2021-07-25T05:34:37.000Z</time>
      </trkpt>
      <trkpt lat="45.19365" lon="5.71993">
        <ele>238.39999389648</ele>
        <time>2021-07-25T05:34:38.000Z</time>
      </trkpt>
      <trkpt lat="45.19362" lon="5.72003">
        <ele>238.39999389648</ele>
        <time>2021-07-25T05:34:41.000Z</time>
      </trkpt>
      <trkpt lat="45.19361" lon="5.72015">
        <ele>238.39999389648</ele>
        <time>2021-07-25T05:34:44.000Z</time>
      </trkpt>
      <trkpt lat="45.19361" lon="5.72027">
        <ele>238.39999389648</ele>
        <time>2021-07-25T05:34:47.000Z</time>
      </trkpt>
      <trkpt lat="45.19359" lon="5.72037">
        <ele>238.60000610352</ele>
        <time>2021-07-25T05:34:50.000Z</time>
      </trkpt>
      <trkpt lat="45.19359" lon="5.7204">
        <ele>238.80000305176</ele>
        <time>2021-07-25T05:34:51.000Z</time>
      </trkpt>
      <trkpt lat="45.19359" lon="5.72063">
        <ele>239.19999694824</ele>
        <time>2021-07-25T05:34:57.000Z</time>
      </trkpt>
      <trkpt lat="45.19358" lon="5.72081">
        <ele>239.60000610352</ele>
        <time>2021-07-25T05:35:02.000Z</time>
      </trkpt>
      <trkpt lat="45.19358" lon="5.72088">
        <ele>239.60000610352</ele>
        <time>2021-07-25T05:35:04.000Z</time>
      </trkpt>
      <trkpt lat="45.19359" lon="5.72111">
        <ele>239.80000305176</ele>
        <time>2021-07-25T05:35:11.000Z</time>
      </trkpt>
      <trkpt lat="45.19356" lon="5.72139">
        <ele>240.19999694824</ele>
        <time>2021-07-25T05:35:18.000Z</time>
      </trkpt>
      <trkpt lat="45.19355" lon="5.72142">
        <ele>240</ele>
        <time>2021-07-25T05:35:19.000Z</time>
      </trkpt>
      <trkpt lat="45.19359" lon="5.72168">
        <ele>240</ele>
        <time>2021-07-25T05:35:25.000Z</time>
      </trkpt>
      <trkpt lat="45.19356" lon="5.72195">
        <ele>240.39999389648</ele>
        <time>2021-07-25T05:35:32.000Z</time>
      </trkpt>
      <trkpt lat="45.19355" lon="5.722">
        <ele>240.19999694824</ele>
        <time>2021-07-25T05:35:33.000Z</time>
      </trkpt>
      <trkpt lat="45.19354" lon="5.7221">
        <ele>240.60000610352</ele>
        <time>2021-07-25T05:35:35.000Z</time>
      </trkpt>
      <trkpt lat="45.19352" lon="5.72225">
        <ele>240.60000610352</ele>
        <time>2021-07-25T05:35:38.000Z</time>
      </trkpt>
      <trkpt lat="45.1935" lon="5.72245">
        <ele>240.80000305176</ele>
        <time>2021-07-25T05:35:42.000Z</time>
      </trkpt>
      <trkpt lat="45.19352" lon="5.72269">
        <ele>241.39999389648</ele>
        <time>2021-07-25T05:35:48.000Z</time>
      </trkpt>
      <trkpt lat="45.19352" lon="5.72282">
        <ele>241</ele>
        <time>2021-07-25T05:35:52.000Z</time>
      </trkpt>
      <trkpt lat="45.19351" lon="5.72297">
        <ele>241</ele>
        <time>2021-07-25T05:35:56.000Z</time>
      </trkpt>
      <trkpt lat="45.19352" lon="5.72311">
        <ele>240.80000305176</ele>
        <time>2021-07-25T05:36:00.000Z</time>
      </trkpt>
      <trkpt lat="45.19354" lon="5.72339">
        <ele>240.39999389648</ele>
        <time>2021-07-25T05:36:08.000Z</time>
      </trkpt>
      <trkpt lat="45.19355" lon="5.72364">
        <ele>240.39999389648</ele>
        <time>2021-07-25T05:36:15.000Z</time>
      </trkpt>
      <trkpt lat="45.19351" lon="5.72393">
        <ele>239.80000305176</ele>
        <time>2021-07-25T05:36:21.000Z</time>
      </trkpt>
      <trkpt lat="45.19353" lon="5.72409">
        <ele>239.39999389648</ele>
        <time>2021-07-25T05:36:25.000Z</time>
      </trkpt>
      <trkpt lat="45.19357" lon="5.7242">
        <ele>239.39999389648</ele>
        <time>2021-07-25T05:36:28.000Z</time>
      </trkpt>
      <trkpt lat="45.19364" lon="5.72439">
        <ele>238.80000305176</ele>
        <time>2021-07-25T05:36:34.000Z</time>
      </trkpt>
      <trkpt lat="45.19365" lon="5.72441">
        <ele>239</ele>
        <time>2021-07-25T05:36:36.000Z</time>
      </trkpt>
      <trkpt lat="45.19365" lon="5.72443">
        <ele>238.80000305176</ele>
        <time>2021-07-25T05:36:38.000Z</time>
      </trkpt>
      <trkpt lat="45.1937" lon="5.72455">
        <ele>238.39999389648</ele>
        <time>2021-07-25T05:36:42.000Z</time>
      </trkpt>
      <trkpt lat="45.19371" lon="5.72459">
        <ele>238</ele>
        <time>2021-07-25T05:36:43.000Z</time>
      </trkpt>
      <trkpt lat="45.19375" lon="5.7248">
        <ele>238</ele>
        <time>2021-07-25T05:36:48.000Z</time>
      </trkpt>
      <trkpt lat="45.19375" lon="5.72484">
        <ele>238</ele>
        <time>2021-07-25T05:36:49.000Z</time>
      </trkpt>
      <trkpt lat="45.19374" lon="5.72508">
        <ele>237.80000305176</ele>
        <time>2021-07-25T05:36:54.000Z</time>
      </trkpt>
      <trkpt lat="45.19376" lon="5.72518">
        <ele>237.19999694824</ele>
        <time>2021-07-25T05:36:56.000Z</time>
      </trkpt>
      <trkpt lat="45.19378" lon="5.72537">
        <ele>237</ele>
        <time>2021-07-25T05:37:00.000Z</time>
      </trkpt>
      <trkpt lat="45.19381" lon="5.72564">
        <ele>237.39999389648</ele>
        <time>2021-07-25T05:37:06.000Z</time>
      </trkpt>
      <trkpt lat="45.19387" lon="5.72586">
        <ele>237.19999694824</ele>
        <time>2021-07-25T05:37:12.000Z</time>
      </trkpt>
      <trkpt lat="45.19389" lon="5.72595">
        <ele>237</ele>
        <time>2021-07-25T05:37:15.000Z</time>
      </trkpt>
      <trkpt lat="45.19392" lon="5.72605">
        <ele>236.80000305176</ele>
        <time>2021-07-25T05:37:18.000Z</time>
      </trkpt>
      <trkpt lat="45.19392" lon="5.72609">
        <ele>236.80000305176</ele>
        <time>2021-07-25T05:37:19.000Z</time>
      </trkpt>
      <trkpt lat="45.19392" lon="5.72617">
        <ele>236.19999694824</ele>
        <time>2021-07-25T05:37:21.000Z</time>
      </trkpt>
      <trkpt lat="45.19397" lon="5.72637">
        <ele>236.39999389648</ele>
        <time>2021-07-25T05:37:26.000Z</time>
      </trkpt>
      <trkpt lat="45.19403" lon="5.72661">
        <ele>237</ele>
        <time>2021-07-25T05:37:32.000Z</time>
      </trkpt>
      <trkpt lat="45.19409" lon="5.72688">
        <ele>237</ele>
        <time>2021-07-25T05:37:38.000Z</time>
      </trkpt>
      <trkpt lat="45.1941" lon="5.72708">
        <ele>236.60000610352</ele>
        <time>2021-07-25T05:37:43.000Z</time>
      </trkpt>
      <trkpt lat="45.19412" lon="5.72724">
        <ele>236.80000305176</ele>
        <time>2021-07-25T05:37:47.000Z</time>
      </trkpt>
      <trkpt lat="45.19417" lon="5.72742">
        <ele>237.19999694824</ele>
        <time>2021-07-25T05:37:52.000Z</time>
      </trkpt>
      <trkpt lat="45.19418" lon="5.72747">
        <ele>237.19999694824</ele>
        <time>2021-07-25T05:37:53.000Z</time>
      </trkpt>
      <trkpt lat="45.19424" lon="5.7277">
        <ele>237</ele>
        <time>2021-07-25T05:37:59.000Z</time>
      </trkpt>
      <trkpt lat="45.19427" lon="5.72773">
        <ele>237.60000610352</ele>
        <time>2021-07-25T05:38:00.000Z</time>
      </trkpt>
      <trkpt lat="45.19428" lon="5.72774">
        <ele>237.60000610352</ele>
        <time>2021-07-25T05:38:01.000Z</time>
      </trkpt>
      <trkpt lat="45.19431" lon="5.72779">
        <ele>237.60000610352</ele>
        <time>2021-07-25T05:38:03.000Z</time>
      </trkpt>
      <trkpt lat="45.1944" lon="5.72797">
        <ele>238</ele>
        <time>2021-07-25T05:38:09.000Z</time>
      </trkpt>
      <trkpt lat="45.19447" lon="5.72821">
        <ele>238.60000610352</ele>
        <time>2021-07-25T05:38:15.000Z</time>
      </trkpt>
      <trkpt lat="45.19455" lon="5.72833">
        <ele>238.60000610352</ele>
        <time>2021-07-25T05:38:19.000Z</time>
      </trkpt>
      <trkpt lat="45.19456" lon="5.72836">
        <ele>238.60000610352</ele>
        <time>2021-07-25T05:38:20.000Z</time>
      </trkpt>
      <trkpt lat="45.19459" lon="5.72841">
        <ele>238.80000305176</ele>
        <time>2021-07-25T05:38:22.000Z</time>
      </trkpt>
      <trkpt lat="45.19461" lon="5.72843">
        <ele>238.80000305176</ele>
        <time>2021-07-25T05:38:23.000Z</time>
      </trkpt>
      <trkpt lat="45.19471" lon="5.72856">
        <ele>238.80000305176</ele>
        <time>2021-07-25T05:38:28.000Z</time>
      </trkpt>
      <trkpt lat="45.19473" lon="5.72858">
        <ele>238.80000305176</ele>
        <time>2021-07-25T05:38:29.000Z</time>
      </trkpt>
      <trkpt lat="45.19481" lon="5.72858">
        <ele>238.80000305176</ele>
        <time>2021-07-25T05:38:32.000Z</time>
      </trkpt>
      <trkpt lat="45.1949" lon="5.72855">
        <ele>240</ele>
        <time>2021-07-25T05:38:37.000Z</time>
      </trkpt>
      <trkpt lat="45.1949" lon="5.72855">
        <ele>240.19999694824</ele>
        <time>2021-07-25T05:38:39.000Z</time>
      </trkpt>
      <trkpt lat="45.1949" lon="5.72855">
        <ele>240.39999389648</ele>
        <time>2021-07-25T05:38:40.000Z</time>
      </trkpt>
      <trkpt lat="45.19488" lon="5.72855">
        <ele>241.19999694824</ele>
        <time>2021-07-25T05:38:42.000Z</time>
      </trkpt>
      <trkpt lat="45.19485" lon="5.72854">
        <ele>242.80000305176</ele>
        <time>2021-07-25T05:38:46.000Z</time>
      </trkpt>
      <trkpt lat="45.19483" lon="5.72853">
        <ele>243.19999694824</ele>
        <time>2021-07-25T05:38:48.000Z</time>
      </trkpt>
      <trkpt lat="45.19484" lon="5.72851">
        <ele>243.60000610352</ele>
        <time>2021-07-25T05:38:50.000Z</time>
      </trkpt>
      <trkpt lat="45.19487" lon="5.72849">
        <ele>244.19999694824</ele>
        <time>2021-07-25T05:38:52.000Z</time>
      </trkpt>
      <trkpt lat="45.19495" lon="5.72848">
        <ele>245.60000610352</ele>
        <time>2021-07-25T05:38:57.000Z</time>
      </trkpt>
      <trkpt lat="45.19501" lon="5.72845">
        <ele>246</ele>
        <time>2021-07-25T05:39:00.000Z</time>
      </trkpt>
      <trkpt lat="45.19503" lon="5.72844">
        <ele>246.19999694824</ele>
        <time>2021-07-25T05:39:01.000Z</time>
      </trkpt>
      <trkpt lat="45.19505" lon="5.72843">
        <ele>246.39999389648</ele>
        <time>2021-07-25T05:39:02.000Z</time>
      </trkpt>
      <trkpt lat="45.19506" lon="5.72842">
        <ele>247</ele>
        <time>2021-07-25T05:39:03.000Z</time>
      </trkpt>
      <trkpt lat="45.19507" lon="5.72841">
        <ele>247.19999694824</ele>
        <time>2021-07-25T05:39:04.000Z</time>
      </trkpt>
      <trkpt lat="45.19509" lon="5.72839">
        <ele>247.39999389648</ele>
        <time>2021-07-25T05:39:06.000Z</time>
      </trkpt>
      <trkpt lat="45.19509" lon="5.72838">
        <ele>247.39999389648</ele>
        <time>2021-07-25T05:39:07.000Z</time>
      </trkpt>
      <trkpt lat="45.19514" lon="5.72837">
        <ele>248</ele>
        <time>2021-07-25T05:39:10.000Z</time>
      </trkpt>
      <trkpt lat="45.19518" lon="5.72837">
        <ele>248.19999694824</ele>
        <time>2021-07-25T05:39:12.000Z</time>
      </trkpt>
      <trkpt lat="45.1952" lon="5.72836">
        <ele>249.19999694824</ele>
        <time>2021-07-25T05:39:15.000Z</time>
      </trkpt>
      <trkpt lat="45.19521" lon="5.72837">
        <ele>249.60000610352</ele>
        <time>2021-07-25T05:39:16.000Z</time>
      </trkpt>
      <trkpt lat="45.19525" lon="5.72837">
        <ele>250.19999694824</ele>
        <time>2021-07-25T05:39:19.000Z</time>
      </trkpt>
      <trkpt lat="45.19529" lon="5.72838">
        <ele>251.19999694824</ele>
        <time>2021-07-25T05:39:23.000Z</time>
      </trkpt>
      <trkpt lat="45.1953" lon="5.72838">
        <ele>251.80000305176</ele>
        <time>2021-07-25T05:39:24.000Z</time>
      </trkpt>
      <trkpt lat="45.19534" lon="5.72838">
        <ele>252.39999389648</ele>
        <time>2021-07-25T05:39:27.000Z</time>
      </trkpt>
      <trkpt lat="45.19534" lon="5.72837">
        <ele>253.19999694824</ele>
        <time>2021-07-25T05:39:29.000Z</time>
      </trkpt>
      <trkpt lat="45.19536" lon="5.72836">
        <ele>254</ele>
        <time>2021-07-25T05:39:31.000Z</time>
      </trkpt>
      <trkpt lat="45.19538" lon="5.72834">
        <ele>255</ele>
        <time>2021-07-25T05:39:33.000Z</time>
      </trkpt>
      <trkpt lat="45.19538" lon="5.72833">
        <ele>255</ele>
        <time>2021-07-25T05:39:34.000Z</time>
      </trkpt>
      <trkpt lat="45.19538" lon="5.72833">
        <ele>255.19999694824</ele>
        <time>2021-07-25T05:39:35.000Z</time>
      </trkpt>
      <trkpt lat="45.19538" lon="5.72833">
        <ele>255.39999389648</ele>
        <time>2021-07-25T05:39:36.000Z</time>
      </trkpt>
      <trkpt lat="45.19538" lon="5.72832">
        <ele>256.39999389648</ele>
        <time>2021-07-25T05:39:38.000Z</time>
      </trkpt>
      <trkpt lat="45.19538" lon="5.7283">
        <ele>256.60000610352</ele>
        <time>2021-07-25T05:39:39.000Z</time>
      </trkpt>
      <trkpt lat="45.19536" lon="5.72829">
        <ele>257.39999389648</ele>
        <time>2021-07-25T05:39:42.000Z</time>
      </trkpt>
      <trkpt lat="45.19535" lon="5.72828">
        <ele>257.79998779297</ele>
        <time>2021-07-25T05:39:43.000Z</time>
      </trkpt>
      <trkpt lat="45.19533" lon="5.72827">
        <ele>258.20001220703</ele>
        <time>2021-07-25T05:39:45.000Z</time>
      </trkpt>
      <trkpt lat="45.19533" lon="5.72826">
        <ele>258.79998779297</ele>
        <time>2021-07-25T05:39:46.000Z</time>
      </trkpt>
      <trkpt lat="45.1953" lon="5.72823">
        <ele>260</ele>
        <time>2021-07-25T05:39:50.000Z</time>
      </trkpt>
      <trkpt lat="45.19528" lon="5.72821">
        <ele>260.79998779297</ele>
        <time>2021-07-25T05:39:52.000Z</time>
      </trkpt>
      <trkpt lat="45.19523" lon="5.72819">
        <ele>261.79998779297</ele>
        <time>2021-07-25T05:39:56.000Z</time>
      </trkpt>
      <trkpt lat="45.19522" lon="5.72819">
        <ele>262.20001220703</ele>
        <time>2021-07-25T05:39:57.000Z</time>
      </trkpt>
      <trkpt lat="45.19521" lon="5.72817">
        <ele>263</ele>
        <time>2021-07-25T05:39:59.000Z</time>
      </trkpt>
      <trkpt lat="45.1952" lon="5.72813">
        <ele>263.39999389648</ele>
        <time>2021-07-25T05:40:01.000Z</time>
      </trkpt>
      <trkpt lat="45.19519" lon="5.72811">
        <ele>263.39999389648</ele>
        <time>2021-07-25T05:40:02.000Z</time>
      </trkpt>
      <trkpt lat="45.19518" lon="5.7281">
        <ele>263.60000610352</ele>
        <time>2021-07-25T05:40:03.000Z</time>
      </trkpt>
      <trkpt lat="45.19518" lon="5.72808">
        <ele>264</ele>
        <time>2021-07-25T05:40:04.000Z</time>
      </trkpt>
      <trkpt lat="45.19518" lon="5.72807">
        <ele>264.20001220703</ele>
        <time>2021-07-25T05:40:05.000Z</time>
      </trkpt>
      <trkpt lat="45.19518" lon="5.72804">
        <ele>265</ele>
        <time>2021-07-25T05:40:07.000Z</time>
      </trkpt>
      <trkpt lat="45.19518" lon="5.72803">
        <ele>265.60000610352</ele>
        <time>2021-07-25T05:40:08.000Z</time>
      </trkpt>
      <trkpt lat="45.19519" lon="5.72801">
        <ele>265.60000610352</ele>
        <time>2021-07-25T05:40:09.000Z</time>
      </trkpt>
      <trkpt lat="45.1952" lon="5.72799">
        <ele>265.60000610352</ele>
        <time>2021-07-25T05:40:10.000Z</time>
      </trkpt>
      <trkpt lat="45.19521" lon="5.72798">
        <ele>266.39999389648</ele>
        <time>2021-07-25T05:40:11.000Z</time>
      </trkpt>
      <trkpt lat="45.19521" lon="5.72798">
        <ele>266.60000610352</ele>
        <time>2021-07-25T05:40:12.000Z</time>
      </trkpt>
      <trkpt lat="45.19521" lon="5.72797">
        <ele>266.60000610352</ele>
        <time>2021-07-25T05:40:13.000Z</time>
      </trkpt>
      <trkpt lat="45.19523" lon="5.72794">
        <ele>267.20001220703</ele>
        <time>2021-07-25T05:40:15.000Z</time>
      </trkpt>
      <trkpt lat="45.19524" lon="5.72793">
        <ele>268</ele>
        <time>2021-07-25T05:40:16.000Z</time>
      </trkpt>
      <trkpt lat="45.19525" lon="5.72789">
        <ele>268.39999389648</ele>
        <time>2021-07-25T05:40:18.000Z</time>
      </trkpt>
      <trkpt lat="45.19527" lon="5.72786">
        <ele>269</ele>
        <time>2021-07-25T05:40:21.000Z</time>
      </trkpt>
      <trkpt lat="45.19528" lon="5.72785">
        <ele>269.79998779297</ele>
        <time>2021-07-25T05:40:22.000Z</time>
      </trkpt>
      <trkpt lat="45.19529" lon="5.72784">
        <ele>270.20001220703</ele>
        <time>2021-07-25T05:40:23.000Z</time>
      </trkpt>
      <trkpt lat="45.19532" lon="5.7278">
        <ele>271</ele>
        <time>2021-07-25T05:40:26.000Z</time>
      </trkpt>
      <trkpt lat="45.19533" lon="5.7278">
        <ele>271.60000610352</ele>
        <time>2021-07-25T05:40:27.000Z</time>
      </trkpt>
      <trkpt lat="45.19534" lon="5.72778">
        <ele>271.60000610352</ele>
        <time>2021-07-25T05:40:28.000Z</time>
      </trkpt>
      <trkpt lat="45.19535" lon="5.72775">
        <ele>272.79998779297</ele>
        <time>2021-07-25T05:40:31.000Z</time>
      </trkpt>
      <trkpt lat="45.19536" lon="5.72772">
        <ele>273.60000610352</ele>
        <time>2021-07-25T05:40:34.000Z</time>
      </trkpt>
      <trkpt lat="45.19536" lon="5.72769">
        <ele>274</ele>
        <time>2021-07-25T05:40:36.000Z</time>
      </trkpt>
      <trkpt lat="45.19538" lon="5.72761">
        <ele>275</ele>
        <time>2021-07-25T05:40:40.000Z</time>
      </trkpt>
      <trkpt lat="45.19539" lon="5.72759">
        <ele>275.20001220703</ele>
        <time>2021-07-25T05:40:41.000Z</time>
      </trkpt>
      <trkpt lat="45.19542" lon="5.72758">
        <ele>275.20001220703</ele>
        <time>2021-07-25T05:40:44.000Z</time>
      </trkpt>
      <trkpt lat="45.19543" lon="5.72759">
        <ele>275.39999389648</ele>
        <time>2021-07-25T05:40:45.000Z</time>
      </trkpt>
      <trkpt lat="45.19544" lon="5.7276">
        <ele>276.60000610352</ele>
        <time>2021-07-25T05:40:48.000Z</time>
      </trkpt>
      <trkpt lat="45.19544" lon="5.72761">
        <ele>277</ele>
        <time>2021-07-25T05:40:49.000Z</time>
      </trkpt>
      <trkpt lat="45.19544" lon="5.72762">
        <ele>277.20001220703</ele>
        <time>2021-07-25T05:40:50.000Z</time>
      </trkpt>
      <trkpt lat="45.19544" lon="5.72762">
        <ele>277.60000610352</ele>
        <time>2021-07-25T05:40:51.000Z</time>
      </trkpt>
      <trkpt lat="45.19545" lon="5.72765">
        <ele>278.60000610352</ele>
        <time>2021-07-25T05:40:53.000Z</time>
      </trkpt>
      <trkpt lat="45.19545" lon="5.72767">
        <ele>279</ele>
        <time>2021-07-25T05:40:55.000Z</time>
      </trkpt>
      <trkpt lat="45.19545" lon="5.72768">
        <ele>279</ele>
        <time>2021-07-25T05:40:56.000Z</time>
      </trkpt>
      <trkpt lat="45.1955" lon="5.7277">
        <ele>279.79998779297</ele>
        <time>2021-07-25T05:40:59.000Z</time>
      </trkpt>
      <trkpt lat="45.19554" lon="5.72774">
        <ele>280</ele>
        <time>2021-07-25T05:41:02.000Z</time>
      </trkpt>
      <trkpt lat="45.19556" lon="5.72778">
        <ele>280.39999389648</ele>
        <time>2021-07-25T05:41:04.000Z</time>
      </trkpt>
      <trkpt lat="45.19558" lon="5.7278">
        <ele>281.20001220703</ele>
        <time>2021-07-25T05:41:06.000Z</time>
      </trkpt>
      <trkpt lat="45.19559" lon="5.72781">
        <ele>281.20001220703</ele>
        <time>2021-07-25T05:41:07.000Z</time>
      </trkpt>
      <trkpt lat="45.19567" lon="5.72787">
        <ele>282.39999389648</ele>
        <time>2021-07-25T05:41:12.000Z</time>
      </trkpt>
      <trkpt lat="45.19569" lon="5.72787">
        <ele>282.39999389648</ele>
        <time>2021-07-25T05:41:13.000Z</time>
      </trkpt>
      <trkpt lat="45.19575" lon="5.7279">
        <ele>283</ele>
        <time>2021-07-25T05:41:16.000Z</time>
      </trkpt>
      <trkpt lat="45.1958" lon="5.72793">
        <ele>283.79998779297</ele>
        <time>2021-07-25T05:41:19.000Z</time>
      </trkpt>
      <trkpt lat="45.19589" lon="5.72794">
        <ele>285</ele>
        <time>2021-07-25T05:41:24.000Z</time>
      </trkpt>
      <trkpt lat="45.19591" lon="5.72795">
        <ele>285</ele>
        <time>2021-07-25T05:41:25.000Z</time>
      </trkpt>
      <trkpt lat="45.19592" lon="5.72796">
        <ele>285</ele>
        <time>2021-07-25T05:41:26.000Z</time>
      </trkpt>
      <trkpt lat="45.19593" lon="5.72797">
        <ele>285.60000610352</ele>
        <time>2021-07-25T05:41:27.000Z</time>
      </trkpt>
      <trkpt lat="45.19597" lon="5.72798">
        <ele>286.20001220703</ele>
        <time>2021-07-25T05:41:29.000Z</time>
      </trkpt>
      <trkpt lat="45.19602" lon="5.72799">
        <ele>287</ele>
        <time>2021-07-25T05:41:32.000Z</time>
      </trkpt>
      <trkpt lat="45.19606" lon="5.72801">
        <ele>287.60000610352</ele>
        <time>2021-07-25T05:41:34.000Z</time>
      </trkpt>
      <trkpt lat="45.1961" lon="5.72805">
        <ele>288.60000610352</ele>
        <time>2021-07-25T05:41:37.000Z</time>
      </trkpt>
      <trkpt lat="45.19612" lon="5.72806">
        <ele>288.79998779297</ele>
        <time>2021-07-25T05:41:38.000Z</time>
      </trkpt>
      <trkpt lat="45.19611" lon="5.72806">
        <ele>289</ele>
        <time>2021-07-25T05:41:39.000Z</time>
      </trkpt>
      <trkpt lat="45.19614" lon="5.72807">
        <ele>289.60000610352</ele>
        <time>2021-07-25T05:41:41.000Z</time>
      </trkpt>
      <trkpt lat="45.19615" lon="5.72808">
        <ele>289.79998779297</ele>
        <time>2021-07-25T05:41:42.000Z</time>
      </trkpt>
      <trkpt lat="45.19616" lon="5.72808">
        <ele>290.20001220703</ele>
        <time>2021-07-25T05:41:43.000Z</time>
      </trkpt>
      <trkpt lat="45.19619" lon="5.7281">
        <ele>290.79998779297</ele>
        <time>2021-07-25T05:41:45.000Z</time>
      </trkpt>
      <trkpt lat="45.1962" lon="5.72812">
        <ele>290.79998779297</ele>
        <time>2021-07-25T05:41:46.000Z</time>
      </trkpt>
      <trkpt lat="45.19621" lon="5.72812">
        <ele>291</ele>
        <time>2021-07-25T05:41:47.000Z</time>
      </trkpt>
      <trkpt lat="45.19623" lon="5.72811">
        <ele>292.20001220703</ele>
        <time>2021-07-25T05:41:49.000Z</time>
      </trkpt>
      <trkpt lat="45.19623" lon="5.72811">
        <ele>292.60000610352</ele>
        <time>2021-07-25T05:41:50.000Z</time>
      </trkpt>
      <trkpt lat="45.19624" lon="5.72811">
        <ele>292.60000610352</ele>
        <time>2021-07-25T05:41:51.000Z</time>
      </trkpt>
      <trkpt lat="45.19626" lon="5.72809">
        <ele>293.60000610352</ele>
        <time>2021-07-25T05:41:54.000Z</time>
      </trkpt>
      <trkpt lat="45.19627" lon="5.72809">
        <ele>293.60000610352</ele>
        <time>2021-07-25T05:41:55.000Z</time>
      </trkpt>
      <trkpt lat="45.19629" lon="5.72809">
        <ele>294.60000610352</ele>
        <time>2021-07-25T05:41:58.000Z</time>
      </trkpt>
      <trkpt lat="45.1963" lon="5.7281">
        <ele>294.79998779297</ele>
        <time>2021-07-25T05:42:00.000Z</time>
      </trkpt>
      <trkpt lat="45.19632" lon="5.72813">
        <ele>295.60000610352</ele>
        <time>2021-07-25T05:42:03.000Z</time>
      </trkpt>
      <trkpt lat="45.19633" lon="5.72813">
        <ele>296</ele>
        <time>2021-07-25T05:42:04.000Z</time>
      </trkpt>
      <trkpt lat="45.19637" lon="5.72813">
        <ele>296.79998779297</ele>
        <time>2021-07-25T05:42:07.000Z</time>
      </trkpt>
      <trkpt lat="45.19638" lon="5.72814">
        <ele>297.20001220703</ele>
        <time>2021-07-25T05:42:09.000Z</time>
      </trkpt>
      <trkpt lat="45.19641" lon="5.72817">
        <ele>298</ele>
        <time>2021-07-25T05:42:12.000Z</time>
      </trkpt>
      <trkpt lat="45.19642" lon="5.72818">
        <ele>298.39999389648</ele>
        <time>2021-07-25T05:42:13.000Z</time>
      </trkpt>
      <trkpt lat="45.19642" lon="5.72818">
        <ele>298.79998779297</ele>
        <time>2021-07-25T05:42:14.000Z</time>
      </trkpt>
      <trkpt lat="45.19644" lon="5.72818">
        <ele>299</ele>
        <time>2021-07-25T05:42:15.000Z</time>
      </trkpt>
      <trkpt lat="45.19646" lon="5.72817">
        <ele>300</ele>
        <time>2021-07-25T05:42:18.000Z</time>
      </trkpt>
      <trkpt lat="45.19646" lon="5.72817">
        <ele>300.60000610352</ele>
        <time>2021-07-25T05:42:19.000Z</time>
      </trkpt>
      <trkpt lat="45.19646" lon="5.72817">
        <ele>300.79998779297</ele>
        <time>2021-07-25T05:42:21.000Z</time>
      </trkpt>
      <trkpt lat="45.19646" lon="5.72817">
        <ele>301</ele>
        <time>2021-07-25T05:42:22.000Z</time>
      </trkpt>
      <trkpt lat="45.19649" lon="5.72817">
        <ele>301.79998779297</ele>
        <time>2021-07-25T05:42:25.000Z</time>
      </trkpt>
      <trkpt lat="45.1965" lon="5.72818">
        <ele>302.60000610352</ele>
        <time>2021-07-25T05:42:27.000Z</time>
      </trkpt>
      <trkpt lat="45.19652" lon="5.72819">
        <ele>303.39999389648</ele>
        <time>2021-07-25T05:42:29.000Z</time>
      </trkpt>
      <trkpt lat="45.19653" lon="5.72819">
        <ele>303.60000610352</ele>
        <time>2021-07-25T05:42:30.000Z</time>
      </trkpt>
      <trkpt lat="45.19653" lon="5.72819">
        <ele>303.60000610352</ele>
        <time>2021-07-25T05:42:31.000Z</time>
      </trkpt>
      <trkpt lat="45.19655" lon="5.7282">
        <ele>305</ele>
        <time>2021-07-25T05:42:32.000Z</time>
      </trkpt>
      <trkpt lat="45.19659" lon="5.72822">
        <ele>305.39999389648</ele>
        <time>2021-07-25T05:42:35.000Z</time>
      </trkpt>
      <trkpt lat="45.1966" lon="5.72824">
        <ele>305.39999389648</ele>
        <time>2021-07-25T05:42:36.000Z</time>
      </trkpt>
      <trkpt lat="45.19663" lon="5.72826">
        <ele>306.20001220703</ele>
        <time>2021-07-25T05:42:38.000Z</time>
      </trkpt>
      <trkpt lat="45.19665" lon="5.72828">
        <ele>307</ele>
        <time>2021-07-25T05:42:40.000Z</time>
      </trkpt>
      <trkpt lat="45.19666" lon="5.72829">
        <ele>307.39999389648</ele>
        <time>2021-07-25T05:42:41.000Z</time>
      </trkpt>
      <trkpt lat="45.1967" lon="5.72831">
        <ele>307.79998779297</ele>
        <time>2021-07-25T05:42:44.000Z</time>
      </trkpt>
      <trkpt lat="45.19671" lon="5.72832">
        <ele>308</ele>
        <time>2021-07-25T05:42:45.000Z</time>
      </trkpt>
      <trkpt lat="45.19672" lon="5.72832">
        <ele>308.39999389648</ele>
        <time>2021-07-25T05:42:46.000Z</time>
      </trkpt>
      <trkpt lat="45.19674" lon="5.72834">
        <ele>308.79998779297</ele>
        <time>2021-07-25T05:42:47.000Z</time>
      </trkpt>
      <trkpt lat="45.19677" lon="5.72835">
        <ele>309.79998779297</ele>
        <time>2021-07-25T05:42:49.000Z</time>
      </trkpt>
      <trkpt lat="45.19682" lon="5.7284">
        <ele>310</ele>
        <time>2021-07-25T05:42:52.000Z</time>
      </trkpt>
      <trkpt lat="45.19686" lon="5.72843">
        <ele>310</ele>
        <time>2021-07-25T05:42:54.000Z</time>
      </trkpt>
      <trkpt lat="45.19692" lon="5.72852">
        <ele>309.20001220703</ele>
        <time>2021-07-25T05:42:57.000Z</time>
      </trkpt>
      <trkpt lat="45.19697" lon="5.72857">
        <ele>308.79998779297</ele>
        <time>2021-07-25T05:43:00.000Z</time>
      </trkpt>
      <trkpt lat="45.19699" lon="5.72859">
        <ele>308.39999389648</ele>
        <time>2021-07-25T05:43:01.000Z</time>
      </trkpt>
      <trkpt lat="45.19704" lon="5.72865">
        <ele>307.39999389648</ele>
        <time>2021-07-25T05:43:04.000Z</time>
      </trkpt>
      <trkpt lat="45.19711" lon="5.72876">
        <ele>306.20001220703</ele>
        <time>2021-07-25T05:43:09.000Z</time>
      </trkpt>
      <trkpt lat="45.19717" lon="5.72886">
        <ele>305.20001220703</ele>
        <time>2021-07-25T05:43:12.000Z</time>
      </trkpt>
      <trkpt lat="45.19723" lon="5.72898">
        <ele>305.20001220703</ele>
        <time>2021-07-25T05:43:15.000Z</time>
      </trkpt>
      <trkpt lat="45.1973" lon="5.72906">
        <ele>304.20001220703</ele>
        <time>2021-07-25T05:43:18.000Z</time>
      </trkpt>
      <trkpt lat="45.19735" lon="5.72918">
        <ele>302.60000610352</ele>
        <time>2021-07-25T05:43:22.000Z</time>
      </trkpt>
      <trkpt lat="45.19743" lon="5.72938">
        <ele>301.39999389648</ele>
        <time>2021-07-25T05:43:27.000Z</time>
      </trkpt>
      <trkpt lat="45.19748" lon="5.72944">
        <ele>300.39999389648</ele>
        <time>2021-07-25T05:43:30.000Z</time>
      </trkpt>
      <trkpt lat="45.19749" lon="5.72947">
        <ele>300.20001220703</ele>
        <time>2021-07-25T05:43:31.000Z</time>
      </trkpt>
      <trkpt lat="45.19757" lon="5.72959">
        <ele>299.20001220703</ele>
        <time>2021-07-25T05:43:36.000Z</time>
      </trkpt>
      <trkpt lat="45.1976" lon="5.72961">
        <ele>298.79998779297</ele>
        <time>2021-07-25T05:43:37.000Z</time>
      </trkpt>
      <trkpt lat="45.19764" lon="5.72966">
        <ele>297.79998779297</ele>
        <time>2021-07-25T05:43:40.000Z</time>
      </trkpt>
      <trkpt lat="45.19771" lon="5.72976">
        <ele>297</ele>
        <time>2021-07-25T05:43:44.000Z</time>
      </trkpt>
      <trkpt lat="45.19776" lon="5.72981">
        <ele>296.60000610352</ele>
        <time>2021-07-25T05:43:46.000Z</time>
      </trkpt>
      <trkpt lat="45.19786" lon="5.72991">
        <ele>295</ele>
        <time>2021-07-25T05:43:50.000Z</time>
      </trkpt>
      <trkpt lat="45.19787" lon="5.72994">
        <ele>295</ele>
        <time>2021-07-25T05:43:51.000Z</time>
      </trkpt>
      <trkpt lat="45.1979" lon="5.72999">
        <ele>294.20001220703</ele>
        <time>2021-07-25T05:43:54.000Z</time>
      </trkpt>
      <trkpt lat="45.19792" lon="5.73">
        <ele>293.79998779297</ele>
        <time>2021-07-25T05:43:55.000Z</time>
      </trkpt>
      <trkpt lat="45.19793" lon="5.73002">
        <ele>293.79998779297</ele>
        <time>2021-07-25T05:43:56.000Z</time>
      </trkpt>
      <trkpt lat="45.19801" lon="5.73004">
        <ele>292.79998779297</ele>
        <time>2021-07-25T05:43:59.000Z</time>
      </trkpt>
      <trkpt lat="45.19803" lon="5.73006">
        <ele>292.79998779297</ele>
        <time>2021-07-25T05:44:00.000Z</time>
      </trkpt>
      <trkpt lat="45.19805" lon="5.73014">
        <ele>292.20001220703</ele>
        <time>2021-07-25T05:44:02.000Z</time>
      </trkpt>
      <trkpt lat="45.19801" lon="5.7302">
        <ele>291.79998779297</ele>
        <time>2021-07-25T05:44:04.000Z</time>
      </trkpt>
      <trkpt lat="45.19798" lon="5.7302">
        <ele>291.60000610352</ele>
        <time>2021-07-25T05:44:05.000Z</time>
      </trkpt>
      <trkpt lat="45.19789" lon="5.73021">
        <ele>290.20001220703</ele>
        <time>2021-07-25T05:44:08.000Z</time>
      </trkpt>
      <trkpt lat="45.19787" lon="5.7302">
        <ele>290</ele>
        <time>2021-07-25T05:44:09.000Z</time>
      </trkpt>
      <trkpt lat="45.19777" lon="5.7302">
        <ele>289.20001220703</ele>
        <time>2021-07-25T05:44:12.000Z</time>
      </trkpt>
      <trkpt lat="45.19767" lon="5.73017">
        <ele>288.39999389648</ele>
        <time>2021-07-25T05:44:16.000Z</time>
      </trkpt>
      <trkpt lat="45.19763" lon="5.73015">
        <ele>287.79998779297</ele>
        <time>2021-07-25T05:44:18.000Z</time>
      </trkpt>
      <trkpt lat="45.19761" lon="5.73015">
        <ele>287</ele>
        <time>2021-07-25T05:44:20.000Z</time>
      </trkpt>
      <trkpt lat="45.19762" lon="5.73016">
        <ele>286.60000610352</ele>
        <time>2021-07-25T05:44:21.000Z</time>
      </trkpt>
      <trkpt lat="45.19763" lon="5.73016">
        <ele>286.20001220703</ele>
        <time>2021-07-25T05:44:22.000Z</time>
      </trkpt>
      <trkpt lat="45.19764" lon="5.73017">
        <ele>286</ele>
        <time>2021-07-25T05:44:23.000Z</time>
      </trkpt>
      <trkpt lat="45.19766" lon="5.73019">
        <ele>285.60000610352</ele>
        <time>2021-07-25T05:44:25.000Z</time>
      </trkpt>
      <trkpt lat="45.19768" lon="5.73019">
        <ele>285</ele>
        <time>2021-07-25T05:44:26.000Z</time>
      </trkpt>
      <trkpt lat="45.19773" lon="5.73022">
        <ele>284.79998779297</ele>
        <time>2021-07-25T05:44:28.000Z</time>
      </trkpt>
      <trkpt lat="45.19779" lon="5.73023">
        <ele>283.79998779297</ele>
        <time>2021-07-25T05:44:32.000Z</time>
      </trkpt>
      <trkpt lat="45.19787" lon="5.73026">
        <ele>282.79998779297</ele>
        <time>2021-07-25T05:44:36.000Z</time>
      </trkpt>
      <trkpt lat="45.19789" lon="5.73027">
        <ele>282.79998779297</ele>
        <time>2021-07-25T05:44:37.000Z</time>
      </trkpt>
      <trkpt lat="45.19792" lon="5.73031">
        <ele>281.79998779297</ele>
        <time>2021-07-25T05:44:40.000Z</time>
      </trkpt>
      <trkpt lat="45.1979" lon="5.73032">
        <ele>281.79998779297</ele>
        <time>2021-07-25T05:44:41.000Z</time>
      </trkpt>
      <trkpt lat="45.19789" lon="5.73032">
        <ele>281.20001220703</ele>
        <time>2021-07-25T05:44:42.000Z</time>
      </trkpt>
      <trkpt lat="45.19785" lon="5.73033">
        <ele>280.60000610352</ele>
        <time>2021-07-25T05:44:44.000Z</time>
      </trkpt>
      <trkpt lat="45.19781" lon="5.73032">
        <ele>280</ele>
        <time>2021-07-25T05:44:46.000Z</time>
      </trkpt>
      <trkpt lat="45.19775" lon="5.73031">
        <ele>279.20001220703</ele>
        <time>2021-07-25T05:44:48.000Z</time>
      </trkpt>
      <trkpt lat="45.19769" lon="5.73033">
        <ele>278.20001220703</ele>
        <time>2021-07-25T05:44:51.000Z</time>
      </trkpt>
      <trkpt lat="45.19767" lon="5.73033">
        <ele>278</ele>
        <time>2021-07-25T05:44:52.000Z</time>
      </trkpt>
      <trkpt lat="45.19758" lon="5.73034">
        <ele>276.39999389648</ele>
        <time>2021-07-25T05:44:56.000Z</time>
      </trkpt>
      <trkpt lat="45.19755" lon="5.73033">
        <ele>276.20001220703</ele>
        <time>2021-07-25T05:44:57.000Z</time>
      </trkpt>
      <trkpt lat="45.19749" lon="5.73034">
        <ele>274.79998779297</ele>
        <time>2021-07-25T05:45:02.000Z</time>
      </trkpt>
      <trkpt lat="45.1976" lon="5.73036">
        <ele>274</ele>
        <time>2021-07-25T05:45:07.000Z</time>
      </trkpt>
      <trkpt lat="45.19762" lon="5.73036">
        <ele>273.39999389648</ele>
        <time>2021-07-25T05:45:08.000Z</time>
      </trkpt>
      <trkpt lat="45.19767" lon="5.73039">
        <ele>272.39999389648</ele>
        <time>2021-07-25T05:45:12.000Z</time>
      </trkpt>
      <trkpt lat="45.19769" lon="5.73041">
        <ele>272.20001220703</ele>
        <time>2021-07-25T05:45:13.000Z</time>
      </trkpt>
      <trkpt lat="45.19775" lon="5.73047">
        <ele>271.20001220703</ele>
        <time>2021-07-25T05:45:17.000Z</time>
      </trkpt>
      <trkpt lat="45.19777" lon="5.73048">
        <ele>271.20001220703</ele>
        <time>2021-07-25T05:45:18.000Z</time>
      </trkpt>
      <trkpt lat="45.19782" lon="5.73053">
        <ele>270</ele>
        <time>2021-07-25T05:45:21.000Z</time>
      </trkpt>
      <trkpt lat="45.19783" lon="5.73055">
        <ele>269.79998779297</ele>
        <time>2021-07-25T05:45:22.000Z</time>
      </trkpt>
      <trkpt lat="45.19782" lon="5.73055">
        <ele>269.39999389648</ele>
        <time>2021-07-25T05:45:23.000Z</time>
      </trkpt>
      <trkpt lat="45.1978" lon="5.73055">
        <ele>269</ele>
        <time>2021-07-25T05:45:24.000Z</time>
      </trkpt>
      <trkpt lat="45.19778" lon="5.73055">
        <ele>268.39999389648</ele>
        <time>2021-07-25T05:45:25.000Z</time>
      </trkpt>
      <trkpt lat="45.19776" lon="5.73055">
        <ele>268</ele>
        <time>2021-07-25T05:45:26.000Z</time>
      </trkpt>
      <trkpt lat="45.19773" lon="5.73056">
        <ele>267.79998779297</ele>
        <time>2021-07-25T05:45:28.000Z</time>
      </trkpt>
      <trkpt lat="45.1977" lon="5.73056">
        <ele>267.39999389648</ele>
        <time>2021-07-25T05:45:30.000Z</time>
      </trkpt>
      <trkpt lat="45.1977" lon="5.73055">
        <ele>267.20001220703</ele>
        <time>2021-07-25T05:45:31.000Z</time>
      </trkpt>
      <trkpt lat="45.19769" lon="5.73056">
        <ele>266.79998779297</ele>
        <time>2021-07-25T05:45:32.000Z</time>
      </trkpt>
      <trkpt lat="45.19765" lon="5.73057">
        <ele>266</ele>
        <time>2021-07-25T05:45:34.000Z</time>
      </trkpt>
      <trkpt lat="45.19761" lon="5.73058">
        <ele>265.60000610352</ele>
        <time>2021-07-25T05:45:35.000Z</time>
      </trkpt>
      <trkpt lat="45.1975" lon="5.73058">
        <ele>264.79998779297</ele>
        <time>2021-07-25T05:45:39.000Z</time>
      </trkpt>
      <trkpt lat="45.19748" lon="5.73058">
        <ele>264.20001220703</ele>
        <time>2021-07-25T05:45:40.000Z</time>
      </trkpt>
      <trkpt lat="45.19749" lon="5.73059">
        <ele>263.39999389648</ele>
        <time>2021-07-25T05:45:43.000Z</time>
      </trkpt>
      <trkpt lat="45.1975" lon="5.73059">
        <ele>263.39999389648</ele>
        <time>2021-07-25T05:45:44.000Z</time>
      </trkpt>
      <trkpt lat="45.19751" lon="5.7306">
        <ele>263</ele>
        <time>2021-07-25T05:45:45.000Z</time>
      </trkpt>
      <trkpt lat="45.19754" lon="5.73062">
        <ele>262</ele>
        <time>2021-07-25T05:45:48.000Z</time>
      </trkpt>
      <trkpt lat="45.19758" lon="5.73065">
        <ele>261.79998779297</ele>
        <time>2021-07-25T05:45:50.000Z</time>
      </trkpt>
      <trkpt lat="45.19762" lon="5.73068">
        <ele>260.79998779297</ele>
        <time>2021-07-25T05:45:53.000Z</time>
      </trkpt>
      <trkpt lat="45.19763" lon="5.7307">
        <ele>260.79998779297</ele>
        <time>2021-07-25T05:45:54.000Z</time>
      </trkpt>
      <trkpt lat="45.19766" lon="5.73071">
        <ele>260</ele>
        <time>2021-07-25T05:45:56.000Z</time>
      </trkpt>
      <trkpt lat="45.19769" lon="5.73073">
        <ele>259.39999389648</ele>
        <time>2021-07-25T05:45:58.000Z</time>
      </trkpt>
      <trkpt lat="45.1977" lon="5.73073">
        <ele>259.39999389648</ele>
        <time>2021-07-25T05:45:59.000Z</time>
      </trkpt>
      <trkpt lat="45.19771" lon="5.73074">
        <ele>258.39999389648</ele>
        <time>2021-07-25T05:46:00.000Z</time>
      </trkpt>
      <trkpt lat="45.19773" lon="5.73076">
        <ele>258.20001220703</ele>
        <time>2021-07-25T05:46:02.000Z</time>
      </trkpt>
      <trkpt lat="45.19779" lon="5.73081">
        <ele>257.39999389648</ele>
        <time>2021-07-25T05:46:05.000Z</time>
      </trkpt>
      <trkpt lat="45.19782" lon="5.73084">
        <ele>257.39999389648</ele>
        <time>2021-07-25T05:46:07.000Z</time>
      </trkpt>
      <trkpt lat="45.19782" lon="5.73086">
        <ele>256.79998779297</ele>
        <time>2021-07-25T05:46:09.000Z</time>
      </trkpt>
      <trkpt lat="45.19777" lon="5.73087">
        <ele>256</ele>
        <time>2021-07-25T05:46:12.000Z</time>
      </trkpt>
      <trkpt lat="45.19774" lon="5.73087">
        <ele>255.80000305176</ele>
        <time>2021-07-25T05:46:13.000Z</time>
      </trkpt>
      <trkpt lat="45.1977" lon="5.73086">
        <ele>255</ele>
        <time>2021-07-25T05:46:15.000Z</time>
      </trkpt>
      <trkpt lat="45.19764" lon="5.73086">
        <ele>253.80000305176</ele>
        <time>2021-07-25T05:46:18.000Z</time>
      </trkpt>
      <trkpt lat="45.19762" lon="5.73088">
        <ele>253.80000305176</ele>
        <time>2021-07-25T05:46:19.000Z</time>
      </trkpt>
      <trkpt lat="45.19752" lon="5.7309">
        <ele>253</ele>
        <time>2021-07-25T05:46:23.000Z</time>
      </trkpt>
      <trkpt lat="45.1975" lon="5.73089">
        <ele>252.80000305176</ele>
        <time>2021-07-25T05:46:24.000Z</time>
      </trkpt>
      <trkpt lat="45.19748" lon="5.73089">
        <ele>252.39999389648</ele>
        <time>2021-07-25T05:46:25.000Z</time>
      </trkpt>
      <trkpt lat="45.19747" lon="5.73091">
        <ele>251.80000305176</ele>
        <time>2021-07-25T05:46:27.000Z</time>
      </trkpt>
      <trkpt lat="45.19748" lon="5.73093">
        <ele>251.39999389648</ele>
        <time>2021-07-25T05:46:28.000Z</time>
      </trkpt>
      <trkpt lat="45.19749" lon="5.73094">
        <ele>251.19999694824</ele>
        <time>2021-07-25T05:46:29.000Z</time>
      </trkpt>
      <trkpt lat="45.19754" lon="5.73097">
        <ele>250.39999389648</ele>
        <time>2021-07-25T05:46:34.000Z</time>
      </trkpt>
      <trkpt lat="45.19755" lon="5.73098">
        <ele>250.19999694824</ele>
        <time>2021-07-25T05:46:35.000Z</time>
      </trkpt>
      <trkpt lat="45.19809" lon="5.73119">
        <ele>246.19999694824</ele>
        <time>2021-07-25T05:46:49.000Z</time>
      </trkpt>
      <trkpt lat="45.19805" lon="5.7312">
        <ele>245.60000610352</ele>
        <time>2021-07-25T05:46:50.000Z</time>
      </trkpt>
      <trkpt lat="45.19791" lon="5.73126">
        <ele>245.39999389648</ele>
        <time>2021-07-25T05:46:53.000Z</time>
      </trkpt>
      <trkpt lat="45.19787" lon="5.73136">
        <ele>244.19999694824</ele>
        <time>2021-07-25T05:46:56.000Z</time>
      </trkpt>
      <trkpt lat="45.19785" lon="5.73138">
        <ele>243.80000305176</ele>
        <time>2021-07-25T05:46:57.000Z</time>
      </trkpt>
      <trkpt lat="45.19784" lon="5.73144">
        <ele>243.19999694824</ele>
        <time>2021-07-25T05:46:59.000Z</time>
      </trkpt>
      <trkpt lat="45.19784" lon="5.73146">
        <ele>243</ele>
        <time>2021-07-25T05:47:00.000Z</time>
      </trkpt>
      <trkpt lat="45.19779" lon="5.73154">
        <ele>242</ele>
        <time>2021-07-25T05:47:03.000Z</time>
      </trkpt>
      <trkpt lat="45.19779" lon="5.73157">
        <ele>241.39999389648</ele>
        <time>2021-07-25T05:47:04.000Z</time>
      </trkpt>
      <trkpt lat="45.19778" lon="5.7316">
        <ele>241</ele>
        <time>2021-07-25T05:47:05.000Z</time>
      </trkpt>
      <trkpt lat="45.19777" lon="5.73162">
        <ele>240.80000305176</ele>
        <time>2021-07-25T05:47:06.000Z</time>
      </trkpt>
      <trkpt lat="45.19775" lon="5.73169">
        <ele>239.80000305176</ele>
        <time>2021-07-25T05:47:08.000Z</time>
      </trkpt>
      <trkpt lat="45.19775" lon="5.73172">
        <ele>239.39999389648</ele>
        <time>2021-07-25T05:47:09.000Z</time>
      </trkpt>
      <trkpt lat="45.19776" lon="5.73178">
        <ele>238.80000305176</ele>
        <time>2021-07-25T05:47:12.000Z</time>
      </trkpt>
      <trkpt lat="45.19777" lon="5.73178">
        <ele>238.60000610352</ele>
        <time>2021-07-25T05:47:13.000Z</time>
      </trkpt>
      <trkpt lat="45.19778" lon="5.73178">
        <ele>238.60000610352</ele>
        <time>2021-07-25T05:47:14.000Z</time>
      </trkpt>
      <trkpt lat="45.19777" lon="5.7318">
        <ele>238.60000610352</ele>
        <time>2021-07-25T05:47:16.000Z</time>
      </trkpt>
      <trkpt lat="45.19776" lon="5.7318">
        <ele>238.39999389648</ele>
        <time>2021-07-25T05:47:18.000Z</time>
      </trkpt>
      <trkpt lat="45.19777" lon="5.7318">
        <ele>238.19999694824</ele>
        <time>2021-07-25T05:47:21.000Z</time>
      </trkpt>
      <trkpt lat="45.19778" lon="5.73181">
        <ele>238</ele>
        <time>2021-07-25T05:47:23.000Z</time>
      </trkpt>
      <trkpt lat="45.19778" lon="5.7318">
        <ele>238</ele>
        <time>2021-07-25T05:47:24.000Z</time>
      </trkpt>
      <trkpt lat="45.19775" lon="5.73181">
        <ele>237.80000305176</ele>
        <time>2021-07-25T05:47:28.000Z</time>
      </trkpt>
      <trkpt lat="45.19776" lon="5.73181">
        <ele>237.80000305176</ele>
        <time>2021-07-25T05:47:30.000Z</time>
      </trkpt>
      <trkpt lat="45.19776" lon="5.73181">
        <ele>237.80000305176</ele>
        <time>2021-07-25T05:47:31.000Z</time>
      </trkpt>
      <trkpt lat="45.19776" lon="5.73182">
        <ele>237.60000610352</ele>
        <time>2021-07-25T05:47:39.000Z</time>
      </trkpt>
      <trkpt lat="45.19776" lon="5.73182">
        <ele>238</ele>
        <time>2021-07-25T05:47:46.000Z</time>
      </trkpt>
      <trkpt lat="45.19776" lon="5.73182">
        <ele>238.19999694824</ele>
        <time>2021-07-25T05:47:47.000Z</time>
      </trkpt>
      <trkpt lat="45.19777" lon="5.73187">
        <ele>238.39999389648</ele>
        <time>2021-07-25T05:47:50.000Z</time>
      </trkpt>
      <trkpt lat="45.19778" lon="5.73191">
        <ele>238.39999389648</ele>
        <time>2021-07-25T05:47:51.000Z</time>
      </trkpt>
      <trkpt lat="45.19779" lon="5.73195">
        <ele>238.39999389648</ele>
        <time>2021-07-25T05:47:52.000Z</time>
      </trkpt>
      <trkpt lat="45.19783" lon="5.73207">
        <ele>238.39999389648</ele>
        <time>2021-07-25T05:47:55.000Z</time>
      </trkpt>
      <trkpt lat="45.19784" lon="5.73211">
        <ele>238.60000610352</ele>
        <time>2021-07-25T05:47:56.000Z</time>
      </trkpt>
      <trkpt lat="45.19784" lon="5.73217">
        <ele>238.39999389648</ele>
        <time>2021-07-25T05:47:57.000Z</time>
      </trkpt>
      <trkpt lat="45.19784" lon="5.73227">
        <ele>238.80000305176</ele>
        <time>2021-07-25T05:47:59.000Z</time>
      </trkpt>
      <trkpt lat="45.19784" lon="5.73232">
        <ele>238.60000610352</ele>
        <time>2021-07-25T05:48:00.000Z</time>
      </trkpt>
      <trkpt lat="45.19781" lon="5.73246">
        <ele>238.80000305176</ele>
        <time>2021-07-25T05:48:04.000Z</time>
      </trkpt>
      <trkpt lat="45.19782" lon="5.73249">
        <ele>238.80000305176</ele>
        <time>2021-07-25T05:48:05.000Z</time>
      </trkpt>
      <trkpt lat="45.19788" lon="5.73255">
        <ele>239</ele>
        <time>2021-07-25T05:48:09.000Z</time>
      </trkpt>
      <trkpt lat="45.19797" lon="5.7326">
        <ele>238.80000305176</ele>
        <time>2021-07-25T05:48:14.000Z</time>
      </trkpt>
      <trkpt lat="45.19801" lon="5.73262">
        <ele>238.80000305176</ele>
        <time>2021-07-25T05:48:16.000Z</time>
      </trkpt>
      <trkpt lat="45.19809" lon="5.73262">
        <ele>238.80000305176</ele>
        <time>2021-07-25T05:48:20.000Z</time>
      </trkpt>
      <trkpt lat="45.19813" lon="5.73262">
        <ele>238.80000305176</ele>
        <time>2021-07-25T05:48:22.000Z</time>
      </trkpt>
      <trkpt lat="45.19822" lon="5.73262">
        <ele>239</ele>
        <time>2021-07-25T05:48:26.000Z</time>
      </trkpt>
      <trkpt lat="45.19836" lon="5.73266">
        <ele>239</ele>
        <time>2021-07-25T05:48:33.000Z</time>
      </trkpt>
      <trkpt lat="45.19845" lon="5.73264">
        <ele>239.19999694824</ele>
        <time>2021-07-25T05:48:38.000Z</time>
      </trkpt>
      <trkpt lat="45.19847" lon="5.73262">
        <ele>239</ele>
        <time>2021-07-25T05:48:40.000Z</time>
      </trkpt>
      <trkpt lat="45.19851" lon="5.73259">
        <ele>239.39999389648</ele>
        <time>2021-07-25T05:48:43.000Z</time>
      </trkpt>
      <trkpt lat="45.19861" lon="5.7326">
        <ele>239.39999389648</ele>
        <time>2021-07-25T05:48:47.000Z</time>
      </trkpt>
      <trkpt lat="45.19866" lon="5.73261">
        <ele>239.39999389648</ele>
        <time>2021-07-25T05:48:49.000Z</time>
      </trkpt>
      <trkpt lat="45.1987" lon="5.73261">
        <ele>239.39999389648</ele>
        <time>2021-07-25T05:48:51.000Z</time>
      </trkpt>
      <trkpt lat="45.19876" lon="5.7326">
        <ele>239.39999389648</ele>
        <time>2021-07-25T05:48:54.000Z</time>
      </trkpt>
      <trkpt lat="45.19878" lon="5.7326">
        <ele>239.19999694824</ele>
        <time>2021-07-25T05:48:55.000Z</time>
      </trkpt>
      <trkpt lat="45.19883" lon="5.73261">
        <ele>239.19999694824</ele>
        <time>2021-07-25T05:48:57.000Z</time>
      </trkpt>
      <trkpt lat="45.19899" lon="5.73274">
        <ele>239.60000610352</ele>
        <time>2021-07-25T05:49:02.000Z</time>
      </trkpt>
      <trkpt lat="45.19903" lon="5.73277">
        <ele>239.60000610352</ele>
        <time>2021-07-25T05:49:04.000Z</time>
      </trkpt>
      <trkpt lat="45.19909" lon="5.7328">
        <ele>239.60000610352</ele>
        <time>2021-07-25T05:49:07.000Z</time>
      </trkpt>
      <trkpt lat="45.19912" lon="5.73282">
        <ele>239.60000610352</ele>
        <time>2021-07-25T05:49:09.000Z</time>
      </trkpt>
      <trkpt lat="45.19931" lon="5.73291">
        <ele>239.19999694824</ele>
        <time>2021-07-25T05:49:16.000Z</time>
      </trkpt>
      <trkpt lat="45.1995" lon="5.73301">
        <ele>238.80000305176</ele>
        <time>2021-07-25T05:49:22.000Z</time>
      </trkpt>
      <trkpt lat="45.19968" lon="5.73313">
        <ele>238.60000610352</ele>
        <time>2021-07-25T05:49:28.000Z</time>
      </trkpt>
      <trkpt lat="45.19971" lon="5.73314">
        <ele>238.19999694824</ele>
        <time>2021-07-25T05:49:29.000Z</time>
      </trkpt>
      <trkpt lat="45.19989" lon="5.73323">
        <ele>238.39999389648</ele>
        <time>2021-07-25T05:49:35.000Z</time>
      </trkpt>
      <trkpt lat="45.2" lon="5.73333">
        <ele>238.19999694824</ele>
        <time>2021-07-25T05:49:41.000Z</time>
      </trkpt>
      <trkpt lat="45.20013" lon="5.73339">
        <ele>238.19999694824</ele>
        <time>2021-07-25T05:49:45.000Z</time>
      </trkpt>
      <trkpt lat="45.20017" lon="5.73341">
        <ele>238.19999694824</ele>
        <time>2021-07-25T05:49:46.000Z</time>
      </trkpt>
      <trkpt lat="45.20038" lon="5.73345">
        <ele>238.19999694824</ele>
        <time>2021-07-25T05:49:51.000Z</time>
      </trkpt>
      <trkpt lat="45.20041" lon="5.73347">
        <ele>238</ele>
        <time>2021-07-25T05:49:52.000Z</time>
      </trkpt>
      <trkpt lat="45.20052" lon="5.73352">
        <ele>237.60000610352</ele>
        <time>2021-07-25T05:49:57.000Z</time>
      </trkpt>
      <trkpt lat="45.20057" lon="5.73355">
        <ele>237.80000305176</ele>
        <time>2021-07-25T05:49:59.000Z</time>
      </trkpt>
      <trkpt lat="45.20066" lon="5.73359">
        <ele>237.80000305176</ele>
        <time>2021-07-25T05:50:02.000Z</time>
      </trkpt>
      <trkpt lat="45.20077" lon="5.73365">
        <ele>238</ele>
        <time>2021-07-25T05:50:06.000Z</time>
      </trkpt>
      <trkpt lat="45.20087" lon="5.7337">
        <ele>238</ele>
        <time>2021-07-25T05:50:09.000Z</time>
      </trkpt>
      <trkpt lat="45.20102" lon="5.73375">
        <ele>237.60000610352</ele>
        <time>2021-07-25T05:50:12.000Z</time>
      </trkpt>
      <trkpt lat="45.20121" lon="5.73384">
        <ele>237.19999694824</ele>
        <time>2021-07-25T05:50:16.000Z</time>
      </trkpt>
      <trkpt lat="45.20131" lon="5.73391">
        <ele>237.19999694824</ele>
        <time>2021-07-25T05:50:19.000Z</time>
      </trkpt>
      <trkpt lat="45.20148" lon="5.73406">
        <ele>236.80000305176</ele>
        <time>2021-07-25T05:50:25.000Z</time>
      </trkpt>
      <trkpt lat="45.20153" lon="5.73412">
        <ele>236.60000610352</ele>
        <time>2021-07-25T05:50:27.000Z</time>
      </trkpt>
      <trkpt lat="45.20159" lon="5.73422">
        <ele>236.19999694824</ele>
        <time>2021-07-25T05:50:30.000Z</time>
      </trkpt>
      <trkpt lat="45.20171" lon="5.73444">
        <ele>236</ele>
        <time>2021-07-25T05:50:36.000Z</time>
      </trkpt>
      <trkpt lat="45.20174" lon="5.73448">
        <ele>235.80000305176</ele>
        <time>2021-07-25T05:50:37.000Z</time>
      </trkpt>
      <trkpt lat="45.20187" lon="5.73462">
        <ele>235.60000610352</ele>
        <time>2021-07-25T05:50:41.000Z</time>
      </trkpt>
      <trkpt lat="45.2019" lon="5.73466">
        <ele>235.60000610352</ele>
        <time>2021-07-25T05:50:42.000Z</time>
      </trkpt>
      <trkpt lat="45.20203" lon="5.73488">
        <ele>236.19999694824</ele>
        <time>2021-07-25T05:50:48.000Z</time>
      </trkpt>
      <trkpt lat="45.20205" lon="5.73492">
        <ele>236.19999694824</ele>
        <time>2021-07-25T05:50:49.000Z</time>
      </trkpt>
      <trkpt lat="45.20211" lon="5.73503">
        <ele>236.39999389648</ele>
        <time>2021-07-25T05:50:53.000Z</time>
      </trkpt>
      <trkpt lat="45.20216" lon="5.7352">
        <ele>236.60000610352</ele>
        <time>2021-07-25T05:50:58.000Z</time>
      </trkpt>
      <trkpt lat="45.20217" lon="5.73524">
        <ele>236.80000305176</ele>
        <time>2021-07-25T05:50:59.000Z</time>
      </trkpt>
      <trkpt lat="45.20224" lon="5.73549">
        <ele>237.39999389648</ele>
        <time>2021-07-25T05:51:05.000Z</time>
      </trkpt>
      <trkpt lat="45.20225" lon="5.73552">
        <ele>237.39999389648</ele>
        <time>2021-07-25T05:51:06.000Z</time>
      </trkpt>
      <trkpt lat="45.20228" lon="5.7357">
        <ele>237.19999694824</ele>
        <time>2021-07-25T05:51:11.000Z</time>
      </trkpt>
      <trkpt lat="45.20238" lon="5.73594">
        <ele>236.80000305176</ele>
        <time>2021-07-25T05:51:17.000Z</time>
      </trkpt>
      <trkpt lat="45.20246" lon="5.73608">
        <ele>237</ele>
        <time>2021-07-25T05:51:21.000Z</time>
      </trkpt>
      <trkpt lat="45.2025" lon="5.73629">
        <ele>237.39999389648</ele>
        <time>2021-07-25T05:51:26.000Z</time>
      </trkpt>
      <trkpt lat="45.20252" lon="5.73637">
        <ele>237.39999389648</ele>
        <time>2021-07-25T05:51:28.000Z</time>
      </trkpt>
      <trkpt lat="45.20253" lon="5.73646">
        <ele>237.60000610352</ele>
        <time>2021-07-25T05:51:30.000Z</time>
      </trkpt>
      <trkpt lat="45.20254" lon="5.73654">
        <ele>237.60000610352</ele>
        <time>2021-07-25T05:51:32.000Z</time>
      </trkpt>
      <trkpt lat="45.20256" lon="5.73677">
        <ele>237.60000610352</ele>
        <time>2021-07-25T05:51:38.000Z</time>
      </trkpt>
      <trkpt lat="45.2026" lon="5.73704">
        <ele>237.39999389648</ele>
        <time>2021-07-25T05:51:45.000Z</time>
      </trkpt>
      <trkpt lat="45.20266" lon="5.73729">
        <ele>237.19999694824</ele>
        <time>2021-07-25T05:51:51.000Z</time>
      </trkpt>
      <trkpt lat="45.20267" lon="5.73735">
        <ele>237.19999694824</ele>
        <time>2021-07-25T05:51:52.000Z</time>
      </trkpt>
      <trkpt lat="45.20267" lon="5.73739">
        <ele>237.19999694824</ele>
        <time>2021-07-25T05:51:53.000Z</time>
      </trkpt>
      <trkpt lat="45.20267" lon="5.73748">
        <ele>237.19999694824</ele>
        <time>2021-07-25T05:51:55.000Z</time>
      </trkpt>
      <trkpt lat="45.20267" lon="5.73772">
        <ele>237.60000610352</ele>
        <time>2021-07-25T05:52:00.000Z</time>
      </trkpt>
      <trkpt lat="45.20267" lon="5.73776">
        <ele>237.80000305176</ele>
        <time>2021-07-25T05:52:01.000Z</time>
      </trkpt>
      <trkpt lat="45.20266" lon="5.73788">
        <ele>237.80000305176</ele>
        <time>2021-07-25T05:52:04.000Z</time>
      </trkpt>
      <trkpt lat="45.20265" lon="5.73792">
        <ele>237.80000305176</ele>
        <time>2021-07-25T05:52:05.000Z</time>
      </trkpt>
      <trkpt lat="45.20264" lon="5.73796">
        <ele>238</ele>
        <time>2021-07-25T05:52:06.000Z</time>
      </trkpt>
      <trkpt lat="45.20264" lon="5.73812">
        <ele>238</ele>
        <time>2021-07-25T05:52:09.000Z</time>
      </trkpt>
      <trkpt lat="45.20261" lon="5.73828">
        <ele>237.80000305176</ele>
        <time>2021-07-25T05:52:13.000Z</time>
      </trkpt>
      <trkpt lat="45.2026" lon="5.73831">
        <ele>237.80000305176</ele>
        <time>2021-07-25T05:52:14.000Z</time>
      </trkpt>
      <trkpt lat="45.2026" lon="5.73835">
        <ele>238</ele>
        <time>2021-07-25T05:52:15.000Z</time>
      </trkpt>
      <trkpt lat="45.20257" lon="5.73855">
        <ele>238</ele>
        <time>2021-07-25T05:52:20.000Z</time>
      </trkpt>
      <trkpt lat="45.20255" lon="5.73867">
        <ele>238</ele>
        <time>2021-07-25T05:52:23.000Z</time>
      </trkpt>
      <trkpt lat="45.20253" lon="5.73878">
        <ele>237.80000305176</ele>
        <time>2021-07-25T05:52:26.000Z</time>
      </trkpt>
      <trkpt lat="45.20251" lon="5.73886">
        <ele>237.80000305176</ele>
        <time>2021-07-25T05:52:28.000Z</time>
      </trkpt>
      <trkpt lat="45.20244" lon="5.73909">
        <ele>237.80000305176</ele>
        <time>2021-07-25T05:52:34.000Z</time>
      </trkpt>
      <trkpt lat="45.20243" lon="5.73913">
        <ele>237.80000305176</ele>
        <time>2021-07-25T05:52:35.000Z</time>
      </trkpt>
      <trkpt lat="45.20235" lon="5.73937">
        <ele>237.80000305176</ele>
        <time>2021-07-25T05:52:41.000Z</time>
      </trkpt>
      <trkpt lat="45.20235" lon="5.73942">
        <ele>237.80000305176</ele>
        <time>2021-07-25T05:52:42.000Z</time>
      </trkpt>
      <trkpt lat="45.20228" lon="5.73967">
        <ele>237.60000610352</ele>
        <time>2021-07-25T05:52:48.000Z</time>
      </trkpt>
      <trkpt lat="45.20225" lon="5.73975">
        <ele>237.60000610352</ele>
        <time>2021-07-25T05:52:50.000Z</time>
      </trkpt>
      <trkpt lat="45.2022" lon="5.73981">
        <ele>237.80000305176</ele>
        <time>2021-07-25T05:52:52.000Z</time>
      </trkpt>
      <trkpt lat="45.20214" lon="5.73991">
        <ele>237.80000305176</ele>
        <time>2021-07-25T05:52:55.000Z</time>
      </trkpt>
      <trkpt lat="45.20208" lon="5.74005">
        <ele>237.80000305176</ele>
        <time>2021-07-25T05:52:59.000Z</time>
      </trkpt>
      <trkpt lat="45.20207" lon="5.74013">
        <ele>237.60000610352</ele>
        <time>2021-07-25T05:53:01.000Z</time>
      </trkpt>
      <trkpt lat="45.20195" lon="5.74035">
        <ele>238</ele>
        <time>2021-07-25T05:53:07.000Z</time>
      </trkpt>
      <trkpt lat="45.20184" lon="5.74049">
        <ele>237.80000305176</ele>
        <time>2021-07-25T05:53:12.000Z</time>
      </trkpt>
      <trkpt lat="45.20174" lon="5.74066">
        <ele>238.19999694824</ele>
        <time>2021-07-25T05:53:17.000Z</time>
      </trkpt>
      <trkpt lat="45.20168" lon="5.74075">
        <ele>238.19999694824</ele>
        <time>2021-07-25T05:53:21.000Z</time>
      </trkpt>
      <trkpt lat="45.20166" lon="5.74077">
        <ele>238.19999694824</ele>
        <time>2021-07-25T05:53:22.000Z</time>
      </trkpt>
      <trkpt lat="45.20158" lon="5.74085">
        <ele>238.60000610352</ele>
        <time>2021-07-25T05:53:26.000Z</time>
      </trkpt>
      <trkpt lat="45.20154" lon="5.74093">
        <ele>238.80000305176</ele>
        <time>2021-07-25T05:53:29.000Z</time>
      </trkpt>
      <trkpt lat="45.20152" lon="5.74103">
        <ele>239.19999694824</ele>
        <time>2021-07-25T05:53:32.000Z</time>
      </trkpt>
      <trkpt lat="45.2015" lon="5.74105">
        <ele>239.60000610352</ele>
        <time>2021-07-25T05:53:33.000Z</time>
      </trkpt>
      <trkpt lat="45.20149" lon="5.74108">
        <ele>239.60000610352</ele>
        <time>2021-07-25T05:53:34.000Z</time>
      </trkpt>
      <trkpt lat="45.20148" lon="5.74111">
        <ele>239.60000610352</ele>
        <time>2021-07-25T05:53:35.000Z</time>
      </trkpt>
      <trkpt lat="45.20142" lon="5.74124">
        <ele>240.19999694824</ele>
        <time>2021-07-25T05:53:39.000Z</time>
      </trkpt>
      <trkpt lat="45.2014" lon="5.7413">
        <ele>240.80000305176</ele>
        <time>2021-07-25T05:53:41.000Z</time>
      </trkpt>
      <trkpt lat="45.20137" lon="5.74138">
        <ele>240.80000305176</ele>
        <time>2021-07-25T05:53:43.000Z</time>
      </trkpt>
      <trkpt lat="45.20135" lon="5.74144">
        <ele>241.39999389648</ele>
        <time>2021-07-25T05:53:45.000Z</time>
      </trkpt>
      <trkpt lat="45.20132" lon="5.74151">
        <ele>241.60000610352</ele>
        <time>2021-07-25T05:53:47.000Z</time>
      </trkpt>
      <trkpt lat="45.20131" lon="5.74155">
        <ele>241.80000305176</ele>
        <time>2021-07-25T05:53:48.000Z</time>
      </trkpt>
      <trkpt lat="45.20124" lon="5.74169">
        <ele>242.39999389648</ele>
        <time>2021-07-25T05:53:53.000Z</time>
      </trkpt>
      <trkpt lat="45.20112" lon="5.74181">
        <ele>242.60000610352</ele>
        <time>2021-07-25T05:53:59.000Z</time>
      </trkpt>
      <trkpt lat="45.20102" lon="5.74184">
        <ele>242.39999389648</ele>
        <time>2021-07-25T05:54:04.000Z</time>
      </trkpt>
      <trkpt lat="45.201" lon="5.74182">
        <ele>242.39999389648</ele>
        <time>2021-07-25T05:54:05.000Z</time>
      </trkpt>
      <trkpt lat="45.20086" lon="5.74174">
        <ele>242.60000610352</ele>
        <time>2021-07-25T05:54:09.000Z</time>
      </trkpt>
      <trkpt lat="45.20081" lon="5.74168">
        <ele>242.80000305176</ele>
        <time>2021-07-25T05:54:11.000Z</time>
      </trkpt>
      <trkpt lat="45.20066" lon="5.74156">
        <ele>242.80000305176</ele>
        <time>2021-07-25T05:54:16.000Z</time>
      </trkpt>
      <trkpt lat="45.2005" lon="5.7414">
        <ele>243</ele>
        <time>2021-07-25T05:54:22.000Z</time>
      </trkpt>
      <trkpt lat="45.20046" lon="5.74134">
        <ele>242.39999389648</ele>
        <time>2021-07-25T05:54:24.000Z</time>
      </trkpt>
      <trkpt lat="45.20036" lon="5.74121">
        <ele>242.39999389648</ele>
        <time>2021-07-25T05:54:28.000Z</time>
      </trkpt>
      <trkpt lat="45.20029" lon="5.74114">
        <ele>242.39999389648</ele>
        <time>2021-07-25T05:54:31.000Z</time>
      </trkpt>
      <trkpt lat="45.20013" lon="5.74099">
        <ele>242.39999389648</ele>
        <time>2021-07-25T05:54:37.000Z</time>
      </trkpt>
      <trkpt lat="45.20003" lon="5.7409">
        <ele>242</ele>
        <time>2021-07-25T05:54:42.000Z</time>
      </trkpt>
      <trkpt lat="45.20002" lon="5.7409">
        <ele>242.19999694824</ele>
        <time>2021-07-25T05:54:43.000Z</time>
      </trkpt>
      <trkpt lat="45.20001" lon="5.74094">
        <ele>241.39999389648</ele>
        <time>2021-07-25T05:54:45.000Z</time>
      </trkpt>
      <trkpt lat="45.19997" lon="5.74102">
        <ele>241.39999389648</ele>
        <time>2021-07-25T05:54:48.000Z</time>
      </trkpt>
      <trkpt lat="45.19993" lon="5.74115">
        <ele>240.39999389648</ele>
        <time>2021-07-25T05:54:52.000Z</time>
      </trkpt>
      <trkpt lat="45.19985" lon="5.74126">
        <ele>239.39999389648</ele>
        <time>2021-07-25T05:54:56.000Z</time>
      </trkpt>
      <trkpt lat="45.1998" lon="5.7413">
        <ele>239</ele>
        <time>2021-07-25T05:54:58.000Z</time>
      </trkpt>
      <trkpt lat="45.1997" lon="5.74142">
        <ele>238.80000305176</ele>
        <time>2021-07-25T05:55:03.000Z</time>
      </trkpt>
      <trkpt lat="45.19953" lon="5.7416">
        <ele>238.60000610352</ele>
        <time>2021-07-25T05:55:10.000Z</time>
      </trkpt>
      <trkpt lat="45.19937" lon="5.74172">
        <ele>238.80000305176</ele>
        <time>2021-07-25T05:55:16.000Z</time>
      </trkpt>
      <trkpt lat="45.19934" lon="5.74173">
        <ele>239.19999694824</ele>
        <time>2021-07-25T05:55:17.000Z</time>
      </trkpt>
      <trkpt lat="45.19925" lon="5.74177">
        <ele>239.19999694824</ele>
        <time>2021-07-25T05:55:20.000Z</time>
      </trkpt>
      <trkpt lat="45.19908" lon="5.74186">
        <ele>239.39999389648</ele>
        <time>2021-07-25T05:55:25.000Z</time>
      </trkpt>
      <trkpt lat="45.19904" lon="5.74189">
        <ele>239.19999694824</ele>
        <time>2021-07-25T05:55:27.000Z</time>
      </trkpt>
      <trkpt lat="45.19892" lon="5.74198">
        <ele>239</ele>
        <time>2021-07-25T05:55:31.000Z</time>
      </trkpt>
      <trkpt lat="45.19874" lon="5.7421">
        <ele>239</ele>
        <time>2021-07-25T05:55:37.000Z</time>
      </trkpt>
      <trkpt lat="45.19861" lon="5.74216">
        <ele>238.80000305176</ele>
        <time>2021-07-25T05:55:42.000Z</time>
      </trkpt>
      <trkpt lat="45.19843" lon="5.74224">
        <ele>238.80000305176</ele>
        <time>2021-07-25T05:55:48.000Z</time>
      </trkpt>
      <trkpt lat="45.1984" lon="5.74225">
        <ele>239</ele>
        <time>2021-07-25T05:55:49.000Z</time>
      </trkpt>
      <trkpt lat="45.19821" lon="5.74232">
        <ele>239</ele>
        <time>2021-07-25T05:55:55.000Z</time>
      </trkpt>
      <trkpt lat="45.1981" lon="5.74236">
        <ele>239</ele>
        <time>2021-07-25T05:55:59.000Z</time>
      </trkpt>
      <trkpt lat="45.1979" lon="5.74239">
        <ele>239</ele>
        <time>2021-07-25T05:56:05.000Z</time>
      </trkpt>
      <trkpt lat="45.19771" lon="5.74241">
        <ele>238.80000305176</ele>
        <time>2021-07-25T05:56:11.000Z</time>
      </trkpt>
      <trkpt lat="45.1976" lon="5.74245">
        <ele>239</ele>
        <time>2021-07-25T05:56:15.000Z</time>
      </trkpt>
      <trkpt lat="45.19742" lon="5.74248">
        <ele>239.19999694824</ele>
        <time>2021-07-25T05:56:21.000Z</time>
      </trkpt>
      <trkpt lat="45.19736" lon="5.74248">
        <ele>238.80000305176</ele>
        <time>2021-07-25T05:56:23.000Z</time>
      </trkpt>
      <trkpt lat="45.19728" lon="5.74244">
        <ele>238.19999694824</ele>
        <time>2021-07-25T05:56:28.000Z</time>
      </trkpt>
      <trkpt lat="45.19728" lon="5.74243">
        <ele>237.60000610352</ele>
        <time>2021-07-25T05:56:29.000Z</time>
      </trkpt>
      <trkpt lat="45.19721" lon="5.74231">
        <ele>237.19999694824</ele>
        <time>2021-07-25T05:56:33.000Z</time>
      </trkpt>
      <trkpt lat="45.1972" lon="5.7422">
        <ele>237.19999694824</ele>
        <time>2021-07-25T05:56:36.000Z</time>
      </trkpt>
      <trkpt lat="45.19719" lon="5.74212">
        <ele>237.39999389648</ele>
        <time>2021-07-25T05:56:38.000Z</time>
      </trkpt>
      <trkpt lat="45.19712" lon="5.74185">
        <ele>237</ele>
        <time>2021-07-25T05:56:45.000Z</time>
      </trkpt>
      <trkpt lat="45.19712" lon="5.74181">
        <ele>237</ele>
        <time>2021-07-25T05:56:46.000Z</time>
      </trkpt>
      <trkpt lat="45.19709" lon="5.74154">
        <ele>237.39999389648</ele>
        <time>2021-07-25T05:56:52.000Z</time>
      </trkpt>
      <trkpt lat="45.19707" lon="5.74147">
        <ele>237.39999389648</ele>
        <time>2021-07-25T05:56:54.000Z</time>
      </trkpt>
      <trkpt lat="45.19703" lon="5.74122">
        <ele>237.19999694824</ele>
        <time>2021-07-25T05:57:01.000Z</time>
      </trkpt>
      <trkpt lat="45.197" lon="5.74097">
        <ele>237.80000305176</ele>
        <time>2021-07-25T05:57:07.000Z</time>
      </trkpt>
      <trkpt lat="45.19699" lon="5.74093">
        <ele>237.80000305176</ele>
        <time>2021-07-25T05:57:08.000Z</time>
      </trkpt>
      <trkpt lat="45.19698" lon="5.74084">
        <ele>237.80000305176</ele>
        <time>2021-07-25T05:57:10.000Z</time>
      </trkpt>
      <trkpt lat="45.19699" lon="5.74069">
        <ele>237.39999389648</ele>
        <time>2021-07-25T05:57:14.000Z</time>
      </trkpt>
      <trkpt lat="45.19698" lon="5.74063">
        <ele>237.39999389648</ele>
        <time>2021-07-25T05:57:16.000Z</time>
      </trkpt>
      <trkpt lat="45.19694" lon="5.74057">
        <ele>237.39999389648</ele>
        <time>2021-07-25T05:57:18.000Z</time>
      </trkpt>
      <trkpt lat="45.19692" lon="5.74049">
        <ele>237.39999389648</ele>
        <time>2021-07-25T05:57:20.000Z</time>
      </trkpt>
      <trkpt lat="45.19688" lon="5.74029">
        <ele>237.39999389648</ele>
        <time>2021-07-25T05:57:24.000Z</time>
      </trkpt>
      <trkpt lat="45.19687" lon="5.74013">
        <ele>237.60000610352</ele>
        <time>2021-07-25T05:57:29.000Z</time>
      </trkpt>
      <trkpt lat="45.19684" lon="5.7401">
        <ele>237.60000610352</ele>
        <time>2021-07-25T05:57:30.000Z</time>
      </trkpt>
      <trkpt lat="45.19673" lon="5.74008">
        <ele>237.60000610352</ele>
        <time>2021-07-25T05:57:35.000Z</time>
      </trkpt>
      <trkpt lat="45.19672" lon="5.74008">
        <ele>237.39999389648</ele>
        <time>2021-07-25T05:57:36.000Z</time>
      </trkpt>
      <trkpt lat="45.19662" lon="5.74006">
        <ele>237.19999694824</ele>
        <time>2021-07-25T05:57:39.000Z</time>
      </trkpt>
      <trkpt lat="45.19643" lon="5.74003">
        <ele>237</ele>
        <time>2021-07-25T05:57:44.000Z</time>
      </trkpt>
      <trkpt lat="45.19624" lon="5.73997">
        <ele>237</ele>
        <time>2021-07-25T05:57:49.000Z</time>
      </trkpt>
      <trkpt lat="45.19616" lon="5.73991">
        <ele>237.19999694824</ele>
        <time>2021-07-25T05:57:52.000Z</time>
      </trkpt>
      <trkpt lat="45.19615" lon="5.73988">
        <ele>237</ele>
        <time>2021-07-25T05:57:53.000Z</time>
      </trkpt>
      <trkpt lat="45.19615" lon="5.73984">
        <ele>237</ele>
        <time>2021-07-25T05:57:54.000Z</time>
      </trkpt>
      <trkpt lat="45.19616" lon="5.73972">
        <ele>237</ele>
        <time>2021-07-25T05:57:57.000Z</time>
      </trkpt>
      <trkpt lat="45.19623" lon="5.73965">
        <ele>236.60000610352</ele>
        <time>2021-07-25T05:58:01.000Z</time>
      </trkpt>
      <trkpt lat="45.19632" lon="5.73967">
        <ele>237</ele>
        <time>2021-07-25T05:58:06.000Z</time>
      </trkpt>
      <trkpt lat="45.19634" lon="5.73966">
        <ele>237.19999694824</ele>
        <time>2021-07-25T05:58:08.000Z</time>
      </trkpt>
      <trkpt lat="45.19635" lon="5.73964">
        <ele>237.19999694824</ele>
        <time>2021-07-25T05:58:10.000Z</time>
      </trkpt>
      <trkpt lat="45.19652" lon="5.73987">
        <ele>239.60000610352</ele>
        <time>2021-07-25T05:58:37.000Z</time>
      </trkpt>
      <trkpt lat="45.19656" lon="5.73988">
        <ele>239.80000305176</ele>
        <time>2021-07-25T05:58:38.000Z</time>
      </trkpt>
      <trkpt lat="45.19654" lon="5.73981">
        <ele>240.39999389648</ele>
        <time>2021-07-25T05:58:39.000Z</time>
      </trkpt>
      <trkpt lat="45.19652" lon="5.7397">
        <ele>244.19999694824</ele>
        <time>2021-07-25T05:59:00.000Z</time>
      </trkpt>
      <trkpt lat="45.1965" lon="5.73973">
        <ele>244.19999694824</ele>
        <time>2021-07-25T05:59:03.000Z</time>
      </trkpt>
      <trkpt lat="45.19648" lon="5.73972">
        <ele>244.19999694824</ele>
        <time>2021-07-25T05:59:06.000Z</time>
      </trkpt>
      <trkpt lat="45.1965" lon="5.73974">
        <ele>244</ele>
        <time>2021-07-25T05:59:08.000Z</time>
      </trkpt>
    </trkseg>
  </trk>
</gpx>